<?xml version='1.0' encoding='UTF-8'?><gpx version="1.1" creator="JPX - https://github.com/jenetics/jpx" xmlns="http://www.topografix.com/GPX/1/1"><trk><trkseg><trkpt lat="45.6821375" lon="8.7028234"><ele>272.4</ele><time>2026-05-01T14:20:15.205Z</time></trkpt><trkpt lat="45.682183" lon="8.7027314"><ele>271.8</ele><time>2026-05-01T14:20:17.205Z</time></trkpt><trkpt lat="45.6822137" lon="8.7026053"><ele>271.2</ele><time>2026-05-01T14:20:19.205Z</time></trkpt><trkpt lat="45.6822881" lon="8.7024842"><ele>270.6</ele><time>2026-05-01T14:20:21.205Z</time></trkpt><trkpt lat="45.6823674" lon="8.7023834"><ele>270.0</ele><time>2026-05-01T14:20:23.205Z</time></trkpt><trkpt lat="45.6824409" lon="8.7023"><ele>270.0</ele><time>2026-05-01T14:20:25.205Z</time></trkpt><trkpt lat="45.6825099" lon="8.7022319"><ele>270.0</ele><time>2026-05-01T14:20:27.204Z</time></trkpt><trkpt lat="45.6826042" lon="8.7021752"><ele>270.0</ele><time>2026-05-01T14:20:29.204Z</time></trkpt><trkpt lat="45.6827175" lon="8.7021211"><ele>270.0</ele><time>2026-05-01T14:20:31.205Z</time></trkpt><trkpt lat="45.6828331" lon="8.7020702"><ele>270.0</ele><time>2026-05-01T14:20:33.206Z</time></trkpt><trkpt lat="45.6829506" lon="8.7020434"><ele>270.8</ele><time>2026-05-01T14:20:35.205Z</time></trkpt><trkpt lat="45.683071" lon="8.7020318"><ele>271.6</ele><time>2026-05-01T14:20:37.206Z</time></trkpt><trkpt lat="45.6831349" lon="8.7020201"><ele>272.4</ele><time>2026-05-01T14:20:38.204Z</time></trkpt><trkpt lat="45.6832619" lon="8.7020121"><ele>273.2</ele><time>2026-05-01T14:20:40.205Z</time></trkpt><trkpt lat="45.6833845" lon="8.7020058"><ele>274.0</ele><time>2026-05-01T14:20:42.205Z</time></trkpt><trkpt lat="45.6835012" lon="8.7020032"><ele>274.0</ele><time>2026-05-01T14:20:44.205Z</time></trkpt><trkpt lat="45.6836089" lon="8.7020117"><ele>274.0</ele><time>2026-05-01T14:20:46.205Z</time></trkpt><trkpt lat="45.6837053" lon="8.7020155"><ele>274.0</ele><time>2026-05-01T14:20:48.204Z</time></trkpt><trkpt lat="45.6837865" lon="8.7019846"><ele>274.0</ele><time>2026-05-01T14:20:50.205Z</time></trkpt><trkpt lat="45.6838495" lon="8.7019554"><ele>274.0</ele><time>2026-05-01T14:20:52.205Z</time></trkpt><trkpt lat="45.6839363" lon="8.7019922"><ele>274.0</ele><time>2026-05-01T14:20:55.203Z</time></trkpt><trkpt lat="45.6840093" lon="8.7019552"><ele>274.0</ele><time>2026-05-01T14:20:57.204Z</time></trkpt><trkpt lat="45.6840985" lon="8.7019508"><ele>274.0</ele><time>2026-05-01T14:20:59.204Z</time></trkpt><trkpt lat="45.6841895" lon="8.7019622"><ele>274.0</ele><time>2026-05-01T14:21:01.206Z</time></trkpt><trkpt lat="45.6842727" lon="8.7019605"><ele>274.0</ele><time>2026-05-01T14:21:03.203Z</time></trkpt><trkpt lat="45.6843645" lon="8.7019451"><ele>274.0</ele><time>2026-05-01T14:21:05.204Z</time></trkpt><trkpt lat="45.6844703" lon="8.7019531"><ele>274.16666666666663</ele><time>2026-05-01T14:21:07.204Z</time></trkpt><trkpt lat="45.6845352" lon="8.7019407"><ele>274.3333333333333</ele><time>2026-05-01T14:21:09.203Z</time></trkpt><trkpt lat="45.6846322" lon="8.7019503"><ele>274.5</ele><time>2026-05-01T14:21:11.204Z</time></trkpt><trkpt lat="45.6847252" lon="8.7019674"><ele>274.6666666666667</ele><time>2026-05-01T14:21:13.205Z</time></trkpt><trkpt lat="45.6848108" lon="8.7019858"><ele>274.83333333333337</ele><time>2026-05-01T14:21:15.204Z</time></trkpt><trkpt lat="45.6849068" lon="8.7019958"><ele>275.0</ele><time>2026-05-01T14:21:17.205Z</time></trkpt><trkpt lat="45.6849972" lon="8.7019959"><ele>275.0</ele><time>2026-05-01T14:21:19.205Z</time></trkpt><trkpt lat="45.6850938" lon="8.7019908"><ele>275.0</ele><time>2026-05-01T14:21:21.204Z</time></trkpt><trkpt lat="45.6851917" lon="8.7019928"><ele>275.0</ele><time>2026-05-01T14:21:23.204Z</time></trkpt><trkpt lat="45.6852935" lon="8.7019945"><ele>275.0</ele><time>2026-05-01T14:21:25.205Z</time></trkpt><trkpt lat="45.6853956" lon="8.7019989"><ele>275.0</ele><time>2026-05-01T14:21:27.204Z</time></trkpt><trkpt lat="45.6854955" lon="8.7020014"><ele>275.4</ele><time>2026-05-01T14:21:29.205Z</time></trkpt><trkpt lat="45.6855909" lon="8.7020061"><ele>275.8</ele><time>2026-05-01T14:21:31.205Z</time></trkpt><trkpt lat="45.685671" lon="8.7020013"><ele>276.2</ele><time>2026-05-01T14:21:33.205Z</time></trkpt><trkpt lat="45.6857764" lon="8.701971"><ele>276.6</ele><time>2026-05-01T14:21:35.205Z</time></trkpt><trkpt lat="45.6858852" lon="8.7019895"><ele>277.0</ele><time>2026-05-01T14:21:37.205Z</time></trkpt><trkpt lat="45.6859862" lon="8.7019954"><ele>277.0</ele><time>2026-05-01T14:21:39.204Z</time></trkpt><trkpt lat="45.6860844" lon="8.7019946"><ele>277.0</ele><time>2026-05-01T14:21:41.205Z</time></trkpt><trkpt lat="45.6861788" lon="8.7019901"><ele>277.0</ele><time>2026-05-01T14:21:43.204Z</time></trkpt><trkpt lat="45.6862704" lon="8.7019923"><ele>277.0</ele><time>2026-05-01T14:21:45.204Z</time></trkpt><trkpt lat="45.6863492" lon="8.7019961"><ele>277.0</ele><time>2026-05-01T14:21:47.204Z</time></trkpt><trkpt lat="45.6864131" lon="8.7019819"><ele>277.0</ele><time>2026-05-01T14:21:49.206Z</time></trkpt><trkpt lat="45.6865075" lon="8.7019804"><ele>277.16666666666663</ele><time>2026-05-01T14:21:51.206Z</time></trkpt><trkpt lat="45.6865988" lon="8.7019835"><ele>277.3333333333333</ele><time>2026-05-01T14:21:53.204Z</time></trkpt><trkpt lat="45.6866908" lon="8.7019829"><ele>277.5</ele><time>2026-05-01T14:21:55.204Z</time></trkpt><trkpt lat="45.686777" lon="8.7019788"><ele>277.6666666666667</ele><time>2026-05-01T14:21:57.204Z</time></trkpt><trkpt lat="45.6868722" lon="8.7019921"><ele>277.83333333333337</ele><time>2026-05-01T14:22:00.205Z</time></trkpt><trkpt lat="45.6869406" lon="8.701985"><ele>278.0</ele><time>2026-05-01T14:22:02.205Z</time></trkpt><trkpt lat="45.6870077" lon="8.7019652"><ele>278.33333333333337</ele><time>2026-05-01T14:22:04.205Z</time></trkpt><trkpt lat="45.6870828" lon="8.7019687"><ele>278.6666666666667</ele><time>2026-05-01T14:22:06.204Z</time></trkpt><trkpt lat="45.6871618" lon="8.7019834"><ele>279.0</ele><time>2026-05-01T14:22:08.204Z</time></trkpt><trkpt lat="45.6872562" lon="8.701969"><ele>279.3333333333333</ele><time>2026-05-01T14:22:10.205Z</time></trkpt><trkpt lat="45.6873202" lon="8.7019718"><ele>279.66666666666663</ele><time>2026-05-01T14:22:11.204Z</time></trkpt><trkpt lat="45.6874287" lon="8.7019523"><ele>280.0</ele><time>2026-05-01T14:22:13.204Z</time></trkpt><trkpt lat="45.6875363" lon="8.7019367"><ele>280.0</ele><time>2026-05-01T14:22:15.205Z</time></trkpt><trkpt lat="45.6876381" lon="8.7019673"><ele>280.0</ele><time>2026-05-01T14:22:17.205Z</time></trkpt><trkpt lat="45.6877982" lon="8.7019837"><ele>280.0</ele><time>2026-05-01T14:22:20.204Z</time></trkpt><trkpt lat="45.6879004" lon="8.7019956"><ele>280.0</ele><time>2026-05-01T14:22:22.205Z</time></trkpt><trkpt lat="45.6880067" lon="8.7020015"><ele>279.5</ele><time>2026-05-01T14:22:24.204Z</time></trkpt><trkpt lat="45.6881058" lon="8.7020068"><ele>279.0</ele><time>2026-05-01T14:22:26.205Z</time></trkpt><trkpt lat="45.6882025" lon="8.7020145"><ele>278.5</ele><time>2026-05-01T14:22:28.204Z</time></trkpt><trkpt lat="45.6882896" lon="8.7020128"><ele>278.0</ele><time>2026-05-01T14:22:30.205Z</time></trkpt><trkpt lat="45.6883594" lon="8.7020224"><ele>277.5</ele><time>2026-05-01T14:22:32.204Z</time></trkpt><trkpt lat="45.6884535" lon="8.7020222"><ele>277.0</ele><time>2026-05-01T14:22:34.205Z</time></trkpt><trkpt lat="45.6885523" lon="8.7020325"><ele>277.0</ele><time>2026-05-01T14:22:36.205Z</time></trkpt><trkpt lat="45.6886627" lon="8.7020434"><ele>277.0</ele><time>2026-05-01T14:22:38.205Z</time></trkpt><trkpt lat="45.6887687" lon="8.7020496"><ele>277.0</ele><time>2026-05-01T14:22:40.204Z</time></trkpt><trkpt lat="45.6888786" lon="8.7020471"><ele>277.0</ele><time>2026-05-01T14:22:42.205Z</time></trkpt><trkpt lat="45.6889849" lon="8.7020499"><ele>277.0</ele><time>2026-05-01T14:22:44.205Z</time></trkpt><trkpt lat="45.6890985" lon="8.702055"><ele>277.0</ele><time>2026-05-01T14:22:46.204Z</time></trkpt><trkpt lat="45.6892118" lon="8.7020625"><ele>277.0</ele><time>2026-05-01T14:22:48.205Z</time></trkpt><trkpt lat="45.689326" lon="8.7020765"><ele>277.0</ele><time>2026-05-01T14:22:50.205Z</time></trkpt><trkpt lat="45.6894381" lon="8.7021291"><ele>277.0</ele><time>2026-05-01T14:22:52.204Z</time></trkpt><trkpt lat="45.6895486" lon="8.7021657"><ele>277.0</ele><time>2026-05-01T14:22:54.205Z</time></trkpt><trkpt lat="45.6896596" lon="8.702182"><ele>277.0</ele><time>2026-05-01T14:22:56.205Z</time></trkpt><trkpt lat="45.689771" lon="8.7021995"><ele>277.0</ele><time>2026-05-01T14:22:58.204Z</time></trkpt><trkpt lat="45.6898822" lon="8.7022112"><ele>277.0</ele><time>2026-05-01T14:23:00.205Z</time></trkpt><trkpt lat="45.6899938" lon="8.7022187"><ele>277.0</ele><time>2026-05-01T14:23:02.204Z</time></trkpt><trkpt lat="45.6900937" lon="8.7022355"><ele>277.0</ele><time>2026-05-01T14:23:04.205Z</time></trkpt><trkpt lat="45.6901924" lon="8.7022382"><ele>277.0</ele><time>2026-05-01T14:23:06.204Z</time></trkpt><trkpt lat="45.6902738" lon="8.7022816"><ele>277.0</ele><time>2026-05-01T14:23:08.204Z</time></trkpt><trkpt lat="45.6903401" lon="8.7023571"><ele>277.0</ele><time>2026-05-01T14:23:10.205Z</time></trkpt><trkpt lat="45.690412" lon="8.7024245"><ele>277.0</ele><time>2026-05-01T14:23:12.204Z</time></trkpt><trkpt lat="45.6904776" lon="8.7024918"><ele>277.0</ele><time>2026-05-01T14:23:14.204Z</time></trkpt><trkpt lat="45.6905436" lon="8.702557"><ele>277.5</ele><time>2026-05-01T14:23:16.203Z</time></trkpt><trkpt lat="45.6906081" lon="8.7026244"><ele>278.0</ele><time>2026-05-01T14:23:18.203Z</time></trkpt><trkpt lat="45.690672" lon="8.7026954"><ele>278.5</ele><time>2026-05-01T14:23:20.204Z</time></trkpt><trkpt lat="45.6907398" lon="8.7027432"><ele>279.0</ele><time>2026-05-01T14:23:22.203Z</time></trkpt><trkpt lat="45.690817" lon="8.7027716"><ele>279.5</ele><time>2026-05-01T14:23:24.203Z</time></trkpt><trkpt lat="45.6908976" lon="8.7027883"><ele>280.0</ele><time>2026-05-01T14:23:26.204Z</time></trkpt><trkpt lat="45.6909747" lon="8.7027784"><ele>280.0</ele><time>2026-05-01T14:23:28.203Z</time></trkpt><trkpt lat="45.6910446" lon="8.70274"><ele>280.0</ele><time>2026-05-01T14:23:31.205Z</time></trkpt><trkpt lat="45.6911204" lon="8.7027281"><ele>280.0</ele><time>2026-05-01T14:23:33.204Z</time></trkpt><trkpt lat="45.6911904" lon="8.7027171"><ele>280.0</ele><time>2026-05-01T14:23:35.204Z</time></trkpt><trkpt lat="45.6912647" lon="8.7026987"><ele>280.0</ele><time>2026-05-01T14:23:37.203Z</time></trkpt><trkpt lat="45.6913413" lon="8.7026792"><ele>280.0</ele><time>2026-05-01T14:23:39.203Z</time></trkpt><trkpt lat="45.6914232" lon="8.7026546"><ele>280.0</ele><time>2026-05-01T14:23:41.203Z</time></trkpt><trkpt lat="45.6914908" lon="8.702625"><ele>280.0</ele><time>2026-05-01T14:23:43.204Z</time></trkpt><trkpt lat="45.6915683" lon="8.7025987"><ele>280.0</ele><time>2026-05-01T14:23:45.205Z</time></trkpt><trkpt lat="45.6916532" lon="8.7026019"><ele>280.0</ele><time>2026-05-01T14:23:47.203Z</time></trkpt><trkpt lat="45.6917286" lon="8.7026583"><ele>280.0</ele><time>2026-05-01T14:23:49.204Z</time></trkpt><trkpt lat="45.6918209" lon="8.7026933"><ele>280.0</ele><time>2026-05-01T14:23:51.204Z</time></trkpt><trkpt lat="45.6919151" lon="8.7027225"><ele>280.4</ele><time>2026-05-01T14:23:53.203Z</time></trkpt><trkpt lat="45.6920148" lon="8.7027614"><ele>280.8</ele><time>2026-05-01T14:23:55.204Z</time></trkpt><trkpt lat="45.6921139" lon="8.7027984"><ele>281.2</ele><time>2026-05-01T14:23:57.203Z</time></trkpt><trkpt lat="45.6922162" lon="8.7028376"><ele>281.6</ele><time>2026-05-01T14:23:59.204Z</time></trkpt><trkpt lat="45.6923179" lon="8.7028555"><ele>282.0</ele><time>2026-05-01T14:24:01.204Z</time></trkpt><trkpt lat="45.692424" lon="8.7028463"><ele>282.0</ele><time>2026-05-01T14:24:03.204Z</time></trkpt><trkpt lat="45.6925253" lon="8.7028327"><ele>282.0</ele><time>2026-05-01T14:24:05.204Z</time></trkpt><trkpt lat="45.6925966" lon="8.7028031"><ele>282.0</ele><time>2026-05-01T14:24:07.204Z</time></trkpt><trkpt lat="45.6926665" lon="8.7027621"><ele>282.0</ele><time>2026-05-01T14:24:09.204Z</time></trkpt><trkpt lat="45.6927515" lon="8.7027823"><ele>282.0</ele><time>2026-05-01T14:24:11.204Z</time></trkpt><trkpt lat="45.69285" lon="8.7027923"><ele>282.0</ele><time>2026-05-01T14:24:13.204Z</time></trkpt><trkpt lat="45.6929508" lon="8.7027337"><ele>281.6</ele><time>2026-05-01T14:24:15.203Z</time></trkpt><trkpt lat="45.6930465" lon="8.7026766"><ele>281.2</ele><time>2026-05-01T14:24:17.203Z</time></trkpt><trkpt lat="45.6931455" lon="8.7026079"><ele>280.8</ele><time>2026-05-01T14:24:19.205Z</time></trkpt><trkpt lat="45.6932486" lon="8.7025336"><ele>280.4</ele><time>2026-05-01T14:24:21.204Z</time></trkpt><trkpt lat="45.693352" lon="8.7024568"><ele>280.0</ele><time>2026-05-01T14:24:23.204Z</time></trkpt><trkpt lat="45.6934543" lon="8.7023988"><ele>280.0</ele><time>2026-05-01T14:24:25.204Z</time></trkpt><trkpt lat="45.6935639" lon="8.7023265"><ele>280.0</ele><time>2026-05-01T14:24:27.204Z</time></trkpt><trkpt lat="45.6936708" lon="8.7022567"><ele>280.0</ele><time>2026-05-01T14:24:29.204Z</time></trkpt><trkpt lat="45.6937784" lon="8.7021917"><ele>280.0</ele><time>2026-05-01T14:24:31.204Z</time></trkpt><trkpt lat="45.6939501" lon="8.7020799"><ele>279.6</ele><time>2026-05-01T14:24:34.205Z</time></trkpt><trkpt lat="45.6940666" lon="8.7020077"><ele>279.2</ele><time>2026-05-01T14:24:36.204Z</time></trkpt><trkpt lat="45.6941822" lon="8.7019257"><ele>278.8</ele><time>2026-05-01T14:24:38.204Z</time></trkpt><trkpt lat="45.694244" lon="8.7018853"><ele>278.4</ele><time>2026-05-01T14:24:39.204Z</time></trkpt><trkpt lat="45.6943016" lon="8.7018462"><ele>278.0</ele><time>2026-05-01T14:24:40.204Z</time></trkpt><trkpt lat="45.694368" lon="8.7018009"><ele>277.5</ele><time>2026-05-01T14:24:41.206Z</time></trkpt><trkpt lat="45.6944265" lon="8.7017615"><ele>277.0</ele><time>2026-05-01T14:24:42.205Z</time></trkpt><trkpt lat="45.6944916" lon="8.7017234"><ele>276.5</ele><time>2026-05-01T14:24:43.206Z</time></trkpt><trkpt lat="45.6945468" lon="8.7016716"><ele>276.0</ele><time>2026-05-01T14:24:44.204Z</time></trkpt><trkpt lat="45.6946069" lon="8.7016253"><ele>275.5</ele><time>2026-05-01T14:24:45.204Z</time></trkpt><trkpt lat="45.694669" lon="8.7015827"><ele>275.0</ele><time>2026-05-01T14:24:46.204Z</time></trkpt><trkpt lat="45.6947755" lon="8.7015139"><ele>275.0</ele><time>2026-05-01T14:24:48.204Z</time></trkpt><trkpt lat="45.6948846" lon="8.7014715"><ele>275.0</ele><time>2026-05-01T14:24:50.204Z</time></trkpt><trkpt lat="45.6950041" lon="8.7015225"><ele>275.0</ele><time>2026-05-01T14:24:52.203Z</time></trkpt><trkpt lat="45.6950617" lon="8.7015874"><ele>275.0</ele><time>2026-05-01T14:24:53.204Z</time></trkpt><trkpt lat="45.6951105" lon="8.7016459"><ele>275.0</ele><time>2026-05-01T14:24:54.204Z</time></trkpt><trkpt lat="45.6951551" lon="8.7017146"><ele>275.0</ele><time>2026-05-01T14:24:55.203Z</time></trkpt><trkpt lat="45.6951928" lon="8.7017878"><ele>275.0</ele><time>2026-05-01T14:24:56.205Z</time></trkpt><trkpt lat="45.6952363" lon="8.7018626"><ele>275.0</ele><time>2026-05-01T14:24:57.204Z</time></trkpt><trkpt lat="45.6953121" lon="8.7019781"><ele>275.0</ele><time>2026-05-01T14:24:59.205Z</time></trkpt><trkpt lat="45.6953617" lon="8.7020961"><ele>275.0</ele><time>2026-05-01T14:25:01.204Z</time></trkpt><trkpt lat="45.6954082" lon="8.702201"><ele>275.0</ele><time>2026-05-01T14:25:03.204Z</time></trkpt><trkpt lat="45.6954484" lon="8.7022842"><ele>275.0</ele><time>2026-05-01T14:25:05.204Z</time></trkpt><trkpt lat="45.695485" lon="8.7023702"><ele>275.33333333333337</ele><time>2026-05-01T14:25:07.203Z</time></trkpt><trkpt lat="45.6955191" lon="8.7024606"><ele>275.6666666666667</ele><time>2026-05-01T14:25:09.204Z</time></trkpt><trkpt lat="45.6955423" lon="8.7025622"><ele>276.0</ele><time>2026-05-01T14:25:11.204Z</time></trkpt><trkpt lat="45.6955603" lon="8.7027133"><ele>276.3333333333333</ele><time>2026-05-01T14:25:14.203Z</time></trkpt><trkpt lat="45.6955588" lon="8.7028174"><ele>276.66666666666663</ele><time>2026-05-01T14:25:16.203Z</time></trkpt><trkpt lat="45.6955589" lon="8.7029256"><ele>277.0</ele><time>2026-05-01T14:25:18.204Z</time></trkpt><trkpt lat="45.6955594" lon="8.703043"><ele>277.0</ele><time>2026-05-01T14:25:20.204Z</time></trkpt><trkpt lat="45.6955569" lon="8.7031699"><ele>277.0</ele><time>2026-05-01T14:25:22.203Z</time></trkpt><trkpt lat="45.6955602" lon="8.7033181"><ele>277.0</ele><time>2026-05-01T14:25:24.204Z</time></trkpt><trkpt lat="45.6955691" lon="8.7034878"><ele>277.0</ele><time>2026-05-01T14:25:26.204Z</time></trkpt><trkpt lat="45.6955732" lon="8.7035798"><ele>277.0</ele><time>2026-05-01T14:25:27.204Z</time></trkpt><trkpt lat="45.6955788" lon="8.7036744"><ele>277.0</ele><time>2026-05-01T14:25:28.204Z</time></trkpt><trkpt lat="45.6955906" lon="8.7037691"><ele>278.5</ele><time>2026-05-01T14:25:29.204Z</time></trkpt><trkpt lat="45.6956122" lon="8.7038571"><ele>280.0</ele><time>2026-05-01T14:25:30.204Z</time></trkpt><trkpt lat="45.6956595" lon="8.7039368"><ele>281.5</ele><time>2026-05-01T14:25:31.204Z</time></trkpt><trkpt lat="45.6956989" lon="8.7040168"><ele>283.0</ele><time>2026-05-01T14:25:32.204Z</time></trkpt><trkpt lat="45.6957823" lon="8.7041553"><ele>284.5</ele><time>2026-05-01T14:25:34.203Z</time></trkpt><trkpt lat="45.6958195" lon="8.7042298"><ele>286.0</ele><time>2026-05-01T14:25:35.204Z</time></trkpt><trkpt lat="45.6958612" lon="8.7043013"><ele>286.0</ele><time>2026-05-01T14:25:36.204Z</time></trkpt><trkpt lat="45.6959001" lon="8.7043749"><ele>286.0</ele><time>2026-05-01T14:25:37.203Z</time></trkpt><trkpt lat="45.6959357" lon="8.7044534"><ele>286.0</ele><time>2026-05-01T14:25:38.203Z</time></trkpt><trkpt lat="45.6959676" lon="8.7045314"><ele>286.0</ele><time>2026-05-01T14:25:39.204Z</time></trkpt><trkpt lat="45.6960267" lon="8.7046877"><ele>286.0</ele><time>2026-05-01T14:25:41.203Z</time></trkpt><trkpt lat="45.6960823" lon="8.7048422"><ele>286.0</ele><time>2026-05-01T14:25:43.204Z</time></trkpt><trkpt lat="45.6961389" lon="8.7049908"><ele>284.75</ele><time>2026-05-01T14:25:45.204Z</time></trkpt><trkpt lat="45.6961947" lon="8.7051404"><ele>283.5</ele><time>2026-05-01T14:25:47.204Z</time></trkpt><trkpt lat="45.6962516" lon="8.7052882"><ele>282.25</ele><time>2026-05-01T14:25:49.204Z</time></trkpt><trkpt lat="45.6963122" lon="8.7054337"><ele>281.0</ele><time>2026-05-01T14:25:51.204Z</time></trkpt><trkpt lat="45.6963654" lon="8.7055856"><ele>281.0</ele><time>2026-05-01T14:25:53.204Z</time></trkpt><trkpt lat="45.6964168" lon="8.7057323"><ele>281.0</ele><time>2026-05-01T14:25:55.203Z</time></trkpt><trkpt lat="45.6964701" lon="8.7058738"><ele>281.0</ele><time>2026-05-01T14:25:57.203Z</time></trkpt><trkpt lat="45.6965314" lon="8.7060068"><ele>281.0</ele><time>2026-05-01T14:25:59.204Z</time></trkpt><trkpt lat="45.6965966" lon="8.7061362"><ele>280.5</ele><time>2026-05-01T14:26:01.204Z</time></trkpt><trkpt lat="45.6966666" lon="8.706271"><ele>280.0</ele><time>2026-05-01T14:26:03.204Z</time></trkpt><trkpt lat="45.6967389" lon="8.7064054"><ele>279.5</ele><time>2026-05-01T14:26:05.204Z</time></trkpt><trkpt lat="45.6968291" lon="8.7065209"><ele>279.0</ele><time>2026-05-01T14:26:07.205Z</time></trkpt><trkpt lat="45.6969397" lon="8.70659"><ele>279.0</ele><time>2026-05-01T14:26:09.204Z</time></trkpt><trkpt lat="45.6970109" lon="8.7066203"><ele>279.0</ele><time>2026-05-01T14:26:11.203Z</time></trkpt><trkpt lat="45.6970224" lon="8.7065246"><ele>279.0</ele><time>2026-05-01T14:26:15.204Z</time></trkpt><trkpt lat="45.6970459" lon="8.7064028"><ele>279.0</ele><time>2026-05-01T14:26:18.203Z</time></trkpt><trkpt lat="45.6970874" lon="8.7063161"><ele>279.0</ele><time>2026-05-01T14:26:20.204Z</time></trkpt><trkpt lat="45.6971437" lon="8.7062161"><ele>279.0</ele><time>2026-05-01T14:26:22.204Z</time></trkpt><trkpt lat="45.6971961" lon="8.7061166"><ele>279.2</ele><time>2026-05-01T14:26:24.204Z</time></trkpt><trkpt lat="45.6972387" lon="8.7060054"><ele>279.4</ele><time>2026-05-01T14:26:26.204Z</time></trkpt><trkpt lat="45.6972824" lon="8.7058965"><ele>279.6</ele><time>2026-05-01T14:26:30.204Z</time></trkpt><trkpt lat="45.6973434" lon="8.7058104"><ele>279.8</ele><time>2026-05-01T14:26:32.205Z</time></trkpt><trkpt lat="45.6974172" lon="8.7056825"><ele>280.0</ele><time>2026-05-01T14:26:34.204Z</time></trkpt><trkpt lat="45.6974631" lon="8.7055493"><ele>280.0</ele><time>2026-05-01T14:26:36.203Z</time></trkpt><trkpt lat="45.6975148" lon="8.7054305"><ele>280.0</ele><time>2026-05-01T14:26:38.203Z</time></trkpt><trkpt lat="45.6975698" lon="8.7053289"><ele>280.0</ele><time>2026-05-01T14:26:40.204Z</time></trkpt><trkpt lat="45.6976152" lon="8.7052225"><ele>280.0</ele><time>2026-05-01T14:26:42.204Z</time></trkpt><trkpt lat="45.6976635" lon="8.7051322"><ele>280.0</ele><time>2026-05-01T14:26:44.205Z</time></trkpt><trkpt lat="45.6977032" lon="8.7050543"><ele>280.0</ele><time>2026-05-01T14:26:46.204Z</time></trkpt><trkpt lat="45.6978121" lon="8.7049842"><ele>280.16666666666663</ele><time>2026-05-01T14:26:56.205Z</time></trkpt><trkpt lat="45.697731" lon="8.7049821"><ele>280.3333333333333</ele><time>2026-05-01T14:27:33.204Z</time></trkpt><trkpt lat="45.6976674" lon="8.7048891"><ele>280.5</ele><time>2026-05-01T14:27:37.203Z</time></trkpt><trkpt lat="45.6976355" lon="8.7047931"><ele>280.6666666666667</ele><time>2026-05-01T14:27:39.204Z</time></trkpt><trkpt lat="45.6976497" lon="8.7046834"><ele>280.83333333333337</ele><time>2026-05-01T14:27:41.203Z</time></trkpt><trkpt lat="45.6976779" lon="8.7045928"><ele>281.0</ele><time>2026-05-01T14:27:43.204Z</time></trkpt><trkpt lat="45.6977178" lon="8.7045114"><ele>281.5714285714286</ele><time>2026-05-01T14:27:45.204Z</time></trkpt><trkpt lat="45.6977622" lon="8.7044349"><ele>282.14285714285717</ele><time>2026-05-01T14:27:47.204Z</time></trkpt><trkpt lat="45.697841" lon="8.7044066"><ele>282.7142857142857</ele><time>2026-05-01T14:27:49.204Z</time></trkpt><trkpt lat="45.6978931" lon="8.7043429"><ele>283.28571428571433</ele><time>2026-05-01T14:27:51.204Z</time></trkpt><trkpt lat="45.6979661" lon="8.7042993"><ele>283.8571428571429</ele><time>2026-05-01T14:27:54.204Z</time></trkpt><trkpt lat="45.6980278" lon="8.7042786"><ele>284.42857142857144</ele><time>2026-05-01T14:27:57.204Z</time></trkpt><trkpt lat="45.6980958" lon="8.7043044"><ele>285.0</ele><time>2026-05-01T14:28:02.204Z</time></trkpt><trkpt lat="45.6981603" lon="8.7043313"><ele>285.0</ele><time>2026-05-01T14:28:05.203Z</time></trkpt><trkpt lat="45.6982112" lon="8.7043974"><ele>285.0</ele><time>2026-05-01T14:28:08.204Z</time></trkpt><trkpt lat="45.6981931" lon="8.7044959"><ele>285.0</ele><time>2026-05-01T14:28:11.204Z</time></trkpt><trkpt lat="45.6981604" lon="8.7045849"><ele>285.0</ele><time>2026-05-01T14:28:13.204Z</time></trkpt><trkpt lat="45.6981202" lon="8.704711"><ele>285.0</ele><time>2026-05-01T14:28:15.204Z</time></trkpt><trkpt lat="45.6980636" lon="8.7048573"><ele>285.0</ele><time>2026-05-01T14:28:17.204Z</time></trkpt><trkpt lat="45.6980103" lon="8.7049919"><ele>285.0</ele><time>2026-05-01T14:28:19.204Z</time></trkpt><trkpt lat="45.6979463" lon="8.7050762"><ele>285.0</ele><time>2026-05-01T14:28:21.204Z</time></trkpt><trkpt lat="45.6978437" lon="8.7050896"><ele>285.0</ele><time>2026-05-01T14:28:23.204Z</time></trkpt><trkpt lat="45.6977432" lon="8.7051086"><ele>285.0</ele><time>2026-05-01T14:28:25.204Z</time></trkpt><trkpt lat="45.6976514" lon="8.7051758"><ele>285.0</ele><time>2026-05-01T14:28:27.204Z</time></trkpt><trkpt lat="45.6975996" lon="8.7052744"><ele>284.0</ele><time>2026-05-01T14:28:29.204Z</time></trkpt><trkpt lat="45.6975457" lon="8.7053444"><ele>283.0</ele><time>2026-05-01T14:28:30.204Z</time></trkpt><trkpt lat="45.6974697" lon="8.7054829"><ele>282.0</ele><time>2026-05-01T14:28:32.204Z</time></trkpt><trkpt lat="45.6974458" lon="8.7055808"><ele>281.0</ele><time>2026-05-01T14:28:33.203Z</time></trkpt><trkpt lat="45.6973683" lon="8.7057434"><ele>280.0</ele><time>2026-05-01T14:28:35.203Z</time></trkpt><trkpt lat="45.6973079" lon="8.7058663"><ele>280.0</ele><time>2026-05-01T14:28:37.204Z</time></trkpt><trkpt lat="45.6972665" lon="8.7059451"><ele>280.0</ele><time>2026-05-01T14:28:38.205Z</time></trkpt><trkpt lat="45.6972003" lon="8.7060584"><ele>280.0</ele><time>2026-05-01T14:28:40.203Z</time></trkpt><trkpt lat="45.6971359" lon="8.7061772"><ele>280.0</ele><time>2026-05-01T14:28:42.205Z</time></trkpt><trkpt lat="45.697075" lon="8.7063001"><ele>280.0</ele><time>2026-05-01T14:28:44.204Z</time></trkpt><trkpt lat="45.6970146" lon="8.7063823"><ele>280.0</ele><time>2026-05-01T14:28:46.204Z</time></trkpt><trkpt lat="45.6969673" lon="8.7065039"><ele>280.0</ele><time>2026-05-01T14:28:48.204Z</time></trkpt><trkpt lat="45.696944" lon="8.7066193"><ele>280.0</ele><time>2026-05-01T14:28:50.204Z</time></trkpt><trkpt lat="45.6969348" lon="8.7067333"><ele>280.0</ele><time>2026-05-01T14:28:52.203Z</time></trkpt><trkpt lat="45.6969725" lon="8.70684"><ele>280.0</ele><time>2026-05-01T14:28:54.204Z</time></trkpt><trkpt lat="45.6970533" lon="8.706953"><ele>280.0</ele><time>2026-05-01T14:28:56.204Z</time></trkpt><trkpt lat="45.6971077" lon="8.7070626"><ele>280.0</ele><time>2026-05-01T14:28:58.203Z</time></trkpt><trkpt lat="45.6971689" lon="8.707174"><ele>280.0</ele><time>2026-05-01T14:29:00.204Z</time></trkpt><trkpt lat="45.6972433" lon="8.7072868"><ele>280.0</ele><time>2026-05-01T14:29:02.203Z</time></trkpt><trkpt lat="45.6973177" lon="8.7073896"><ele>280.0</ele><time>2026-05-01T14:29:04.203Z</time></trkpt><trkpt lat="45.6973987" lon="8.7074895"><ele>280.0</ele><time>2026-05-01T14:29:06.204Z</time></trkpt><trkpt lat="45.6974705" lon="8.7075982"><ele>280.0</ele><time>2026-05-01T14:29:08.203Z</time></trkpt><trkpt lat="45.6975309" lon="8.7077169"><ele>280.0</ele><time>2026-05-01T14:29:10.203Z</time></trkpt><trkpt lat="45.6975994" lon="8.7078267"><ele>280.0</ele><time>2026-05-01T14:29:12.204Z</time></trkpt><trkpt lat="45.6976647" lon="8.7079306"><ele>280.0</ele><time>2026-05-01T14:29:14.204Z</time></trkpt><trkpt lat="45.6977311" lon="8.7080394"><ele>280.6</ele><time>2026-05-01T14:29:16.203Z</time></trkpt><trkpt lat="45.6977862" lon="8.7081483"><ele>281.2</ele><time>2026-05-01T14:29:18.204Z</time></trkpt><trkpt lat="45.6978408" lon="8.7082612"><ele>281.8</ele><time>2026-05-01T14:29:20.203Z</time></trkpt><trkpt lat="45.6978938" lon="8.7083685"><ele>282.4</ele><time>2026-05-01T14:29:22.204Z</time></trkpt><trkpt lat="45.6979551" lon="8.7084707"><ele>283.0</ele><time>2026-05-01T14:29:24.203Z</time></trkpt><trkpt lat="45.6980181" lon="8.7085715"><ele>284.8</ele><time>2026-05-01T14:29:26.205Z</time></trkpt><trkpt lat="45.6980808" lon="8.7086661"><ele>286.6</ele><time>2026-05-01T14:29:28.204Z</time></trkpt><trkpt lat="45.6981417" lon="8.7087622"><ele>288.4</ele><time>2026-05-01T14:29:30.203Z</time></trkpt><trkpt lat="45.6982078" lon="8.7088581"><ele>290.2</ele><time>2026-05-01T14:29:32.203Z</time></trkpt><trkpt lat="45.6982741" lon="8.7089701"><ele>292.0</ele><time>2026-05-01T14:29:34.203Z</time></trkpt><trkpt lat="45.6983244" lon="8.7090777"><ele>292.0</ele><time>2026-05-01T14:29:36.204Z</time></trkpt><trkpt lat="45.6983744" lon="8.7091644"><ele>292.0</ele><time>2026-05-01T14:29:38.203Z</time></trkpt><trkpt lat="45.6984355" lon="8.7092479"><ele>292.0</ele><time>2026-05-01T14:29:40.204Z</time></trkpt><trkpt lat="45.6984993" lon="8.7093248"><ele>292.0</ele><time>2026-05-01T14:29:42.203Z</time></trkpt><trkpt lat="45.6985457" lon="8.709433"><ele>292.0</ele><time>2026-05-01T14:29:44.203Z</time></trkpt><trkpt lat="45.6986038" lon="8.7095222"><ele>292.0</ele><time>2026-05-01T14:29:46.204Z</time></trkpt><trkpt lat="45.6986621" lon="8.7096408"><ele>291.0</ele><time>2026-05-01T14:29:48.203Z</time></trkpt><trkpt lat="45.6987219" lon="8.7097478"><ele>290.0</ele><time>2026-05-01T14:29:50.204Z</time></trkpt><trkpt lat="45.6987752" lon="8.7098452"><ele>289.0</ele><time>2026-05-01T14:29:52.204Z</time></trkpt><trkpt lat="45.69883" lon="8.7099513"><ele>288.0</ele><time>2026-05-01T14:29:54.204Z</time></trkpt><trkpt lat="45.6988936" lon="8.7100576"><ele>287.0</ele><time>2026-05-01T14:29:56.204Z</time></trkpt><trkpt lat="45.6989496" lon="8.7101525"><ele>287.6</ele><time>2026-05-01T14:29:58.204Z</time></trkpt><trkpt lat="45.699" lon="8.7102639"><ele>288.2</ele><time>2026-05-01T14:30:00.204Z</time></trkpt><trkpt lat="45.6990442" lon="8.7103931"><ele>288.8</ele><time>2026-05-01T14:30:02.203Z</time></trkpt><trkpt lat="45.6990867" lon="8.7105219"><ele>289.4</ele><time>2026-05-01T14:30:04.204Z</time></trkpt><trkpt lat="45.6991357" lon="8.7106451"><ele>290.0</ele><time>2026-05-01T14:30:06.204Z</time></trkpt><trkpt lat="45.6991863" lon="8.7107655"><ele>290.0</ele><time>2026-05-01T14:30:08.203Z</time></trkpt><trkpt lat="45.6992337" lon="8.7108893"><ele>290.0</ele><time>2026-05-01T14:30:10.203Z</time></trkpt><trkpt lat="45.6992633" lon="8.71103"><ele>290.0</ele><time>2026-05-01T14:30:12.203Z</time></trkpt><trkpt lat="45.6992829" lon="8.7111753"><ele>290.0</ele><time>2026-05-01T14:30:14.204Z</time></trkpt><trkpt lat="45.6993067" lon="8.7113095"><ele>290.0</ele><time>2026-05-01T14:30:16.204Z</time></trkpt><trkpt lat="45.6993293" lon="8.7114044"><ele>291.0</ele><time>2026-05-01T14:30:18.204Z</time></trkpt><trkpt lat="45.6993435" lon="8.7115247"><ele>292.0</ele><time>2026-05-01T14:30:20.203Z</time></trkpt><trkpt lat="45.6993422" lon="8.7116237"><ele>293.0</ele><time>2026-05-01T14:30:22.203Z</time></trkpt><trkpt lat="45.699315" lon="8.711713"><ele>294.0</ele><time>2026-05-01T14:30:25.203Z</time></trkpt><trkpt lat="45.6993914" lon="8.7116933"><ele>295.0</ele><time>2026-05-01T14:30:38.204Z</time></trkpt><trkpt lat="45.6994033" lon="8.7117993"><ele>296.0</ele><time>2026-05-01T14:30:41.203Z</time></trkpt><trkpt lat="45.6994258" lon="8.7119199"><ele>296.0</ele><time>2026-05-01T14:30:44.203Z</time></trkpt><trkpt lat="45.699427" lon="8.712012"><ele>296.0</ele><time>2026-05-01T14:30:46.203Z</time></trkpt><trkpt lat="45.6994519" lon="8.7121067"><ele>296.0</ele><time>2026-05-01T14:30:48.203Z</time></trkpt><trkpt lat="45.6994709" lon="8.7121983"><ele>296.0</ele><time>2026-05-01T14:30:50.204Z</time></trkpt><trkpt lat="45.6995073" lon="8.7123029"><ele>296.0</ele><time>2026-05-01T14:30:53.203Z</time></trkpt><trkpt lat="45.6995538" lon="8.7123859"><ele>296.0</ele><time>2026-05-01T14:30:56.204Z</time></trkpt><trkpt lat="45.6996023" lon="8.712486"><ele>296.0</ele><time>2026-05-01T14:30:59.204Z</time></trkpt><trkpt lat="45.6996593" lon="8.7125685"><ele>296.0</ele><time>2026-05-01T14:31:02.203Z</time></trkpt><trkpt lat="45.6997159" lon="8.7126413"><ele>296.0</ele><time>2026-05-01T14:31:05.204Z</time></trkpt><trkpt lat="45.6997702" lon="8.7127691"><ele>296.0</ele><time>2026-05-01T14:31:08.204Z</time></trkpt><trkpt lat="45.6998127" lon="8.7128423"><ele>296.0</ele><time>2026-05-01T14:31:10.204Z</time></trkpt><trkpt lat="45.699876" lon="8.7129411"><ele>296.0</ele><time>2026-05-01T14:31:13.204Z</time></trkpt><trkpt lat="45.6999305" lon="8.7130233"><ele>296.0</ele><time>2026-05-01T14:31:15.203Z</time></trkpt><trkpt lat="45.6999874" lon="8.7130807"><ele>296.33333333333337</ele><time>2026-05-01T14:31:17.204Z</time></trkpt><trkpt lat="45.7000637" lon="8.7131301"><ele>296.6666666666667</ele><time>2026-05-01T14:31:20.204Z</time></trkpt><trkpt lat="45.7001151" lon="8.7131934"><ele>297.0</ele><time>2026-05-01T14:31:22.204Z</time></trkpt><trkpt lat="45.7001785" lon="8.7132713"><ele>297.3333333333333</ele><time>2026-05-01T14:31:24.203Z</time></trkpt><trkpt lat="45.7002393" lon="8.7133631"><ele>297.66666666666663</ele><time>2026-05-01T14:31:26.203Z</time></trkpt><trkpt lat="45.7003072" lon="8.7134749"><ele>298.0</ele><time>2026-05-01T14:31:28.205Z</time></trkpt><trkpt lat="45.7003862" lon="8.7135947"><ele>298.16666666666663</ele><time>2026-05-01T14:31:30.204Z</time></trkpt><trkpt lat="45.7004267" lon="8.7136696"><ele>298.3333333333333</ele><time>2026-05-01T14:31:31.205Z</time></trkpt><trkpt lat="45.7004894" lon="8.7137989"><ele>298.5</ele><time>2026-05-01T14:31:33.204Z</time></trkpt><trkpt lat="45.7005534" lon="8.7138988"><ele>298.6666666666667</ele><time>2026-05-01T14:31:35.204Z</time></trkpt><trkpt lat="45.7006144" lon="8.7139708"><ele>298.83333333333337</ele><time>2026-05-01T14:31:37.204Z</time></trkpt><trkpt lat="45.7006697" lon="8.7140541"><ele>299.0</ele><time>2026-05-01T14:31:39.203Z</time></trkpt><trkpt lat="45.7007204" lon="8.7141391"><ele>299.0</ele><time>2026-05-01T14:31:41.204Z</time></trkpt><trkpt lat="45.7007715" lon="8.7142108"><ele>299.0</ele><time>2026-05-01T14:31:43.204Z</time></trkpt><trkpt lat="45.7008317" lon="8.7142976"><ele>299.0</ele><time>2026-05-01T14:31:45.203Z</time></trkpt><trkpt lat="45.7008814" lon="8.7143882"><ele>299.0</ele><time>2026-05-01T14:31:47.204Z</time></trkpt><trkpt lat="45.7009251" lon="8.7144696"><ele>299.0</ele><time>2026-05-01T14:31:49.204Z</time></trkpt><trkpt lat="45.7009733" lon="8.7145592"><ele>299.0</ele><time>2026-05-01T14:31:51.204Z</time></trkpt><trkpt lat="45.7010118" lon="8.7146497"><ele>299.4</ele><time>2026-05-01T14:31:53.204Z</time></trkpt><trkpt lat="45.7010462" lon="8.7147979"><ele>299.79999999999995</ele><time>2026-05-01T14:31:55.204Z</time></trkpt><trkpt lat="45.7010933" lon="8.7149318"><ele>300.20000000000005</ele><time>2026-05-01T14:31:57.204Z</time></trkpt><trkpt lat="45.7011271" lon="8.7150656"><ele>300.6</ele><time>2026-05-01T14:31:59.204Z</time></trkpt><trkpt lat="45.7011683" lon="8.7151976"><ele>301.0</ele><time>2026-05-01T14:32:01.204Z</time></trkpt><trkpt lat="45.7012168" lon="8.715308"><ele>299.40000000000003</ele><time>2026-05-01T14:32:03.204Z</time></trkpt><trkpt lat="45.7012588" lon="8.7154351"><ele>297.8</ele><time>2026-05-01T14:32:05.204Z</time></trkpt><trkpt lat="45.7012653" lon="8.7156253"><ele>296.20000000000005</ele><time>2026-05-01T14:32:07.203Z</time></trkpt><trkpt lat="45.7012914" lon="8.7157744"><ele>294.6</ele><time>2026-05-01T14:32:09.204Z</time></trkpt><trkpt lat="45.7013154" lon="8.7158775"><ele>293.0</ele><time>2026-05-01T14:32:11.205Z</time></trkpt><trkpt lat="45.7012548" lon="8.7159164"><ele>293.0</ele><time>2026-05-01T14:32:18.203Z</time></trkpt><trkpt lat="45.7012473" lon="8.716047"><ele>293.0</ele><time>2026-05-01T14:32:46.204Z</time></trkpt><trkpt lat="45.7013131" lon="8.7160216"><ele>293.0</ele><time>2026-05-01T14:33:10.204Z</time></trkpt><trkpt lat="45.701383" lon="8.7160333"><ele>293.0</ele><time>2026-05-01T14:33:18.204Z</time></trkpt><trkpt lat="45.7013232" lon="8.7159853"><ele>293.0</ele><time>2026-05-01T14:33:35.203Z</time></trkpt><trkpt lat="45.7012956" lon="8.7158896"><ele>293.0</ele><time>2026-05-01T14:33:38.204Z</time></trkpt><trkpt lat="45.7012644" lon="8.7157765"><ele>293.0</ele><time>2026-05-01T14:33:41.204Z</time></trkpt><trkpt lat="45.7012158" lon="8.7156565"><ele>293.0</ele><time>2026-05-01T14:33:44.203Z</time></trkpt><trkpt lat="45.7011851" lon="8.7155556"><ele>293.0</ele><time>2026-05-01T14:33:46.203Z</time></trkpt><trkpt lat="45.7011575" lon="8.7154614"><ele>293.0</ele><time>2026-05-01T14:33:48.204Z</time></trkpt><trkpt lat="45.7011311" lon="8.7153722"><ele>293.0</ele><time>2026-05-01T14:33:50.203Z</time></trkpt><trkpt lat="45.7011076" lon="8.7152805"><ele>293.0</ele><time>2026-05-01T14:33:52.203Z</time></trkpt><trkpt lat="45.7010753" lon="8.7151735"><ele>294.33333333333337</ele><time>2026-05-01T14:33:55.204Z</time></trkpt><trkpt lat="45.7010446" lon="8.7150768"><ele>295.6666666666667</ele><time>2026-05-01T14:33:58.203Z</time></trkpt><trkpt lat="45.7010187" lon="8.7149691"><ele>297.0</ele><time>2026-05-01T14:34:02.203Z</time></trkpt><trkpt lat="45.7009873" lon="8.7148572"><ele>298.3333333333333</ele><time>2026-05-01T14:34:05.204Z</time></trkpt><trkpt lat="45.7009663" lon="8.7147392"><ele>299.66666666666663</ele><time>2026-05-01T14:34:09.204Z</time></trkpt><trkpt lat="45.700961" lon="8.714638"><ele>301.0</ele><time>2026-05-01T14:34:13.203Z</time></trkpt><trkpt lat="45.701047" lon="8.7146361"><ele>300.16666666666663</ele><time>2026-05-01T14:34:17.204Z</time></trkpt><trkpt lat="45.7011128" lon="8.714679"><ele>299.3333333333333</ele><time>2026-05-01T14:34:19.204Z</time></trkpt><trkpt lat="45.7011989" lon="8.7147408"><ele>298.5</ele><time>2026-05-01T14:34:21.202Z</time></trkpt><trkpt lat="45.7012842" lon="8.7148131"><ele>297.6666666666667</ele><time>2026-05-01T14:34:23.203Z</time></trkpt><trkpt lat="45.7013405" lon="8.7148569"><ele>296.83333333333337</ele><time>2026-05-01T14:34:25.202Z</time></trkpt><trkpt lat="45.7014379" lon="8.7149286"><ele>296.0</ele><time>2026-05-01T14:34:27.203Z</time></trkpt><trkpt lat="45.7015529" lon="8.7149829"><ele>296.0</ele><time>2026-05-01T14:34:29.203Z</time></trkpt><trkpt lat="45.7016105" lon="8.7150258"><ele>296.0</ele><time>2026-05-01T14:34:30.203Z</time></trkpt><trkpt lat="45.7016767" lon="8.7150496"><ele>296.0</ele><time>2026-05-01T14:34:31.203Z</time></trkpt><trkpt lat="45.7017817" lon="8.7150633"><ele>296.0</ele><time>2026-05-01T14:34:33.203Z</time></trkpt><trkpt lat="45.7018708" lon="8.7150891"><ele>296.0</ele><time>2026-05-01T14:34:35.203Z</time></trkpt><trkpt lat="45.7019677" lon="8.7151419"><ele>296.0</ele><time>2026-05-01T14:34:37.203Z</time></trkpt><trkpt lat="45.7020487" lon="8.7151891"><ele>295.1666666666667</ele><time>2026-05-01T14:34:39.203Z</time></trkpt><trkpt lat="45.7021108" lon="8.7152064"><ele>294.33333333333337</ele><time>2026-05-01T14:34:40.202Z</time></trkpt><trkpt lat="45.7021918" lon="8.7152016"><ele>293.5</ele><time>2026-05-01T14:34:42.203Z</time></trkpt><trkpt lat="45.7022925" lon="8.7151698"><ele>292.6666666666667</ele><time>2026-05-01T14:34:44.202Z</time></trkpt><trkpt lat="45.7023933" lon="8.7151326"><ele>291.8333333333333</ele><time>2026-05-01T14:34:46.203Z</time></trkpt><trkpt lat="45.7024585" lon="8.7150716"><ele>291.0</ele><time>2026-05-01T14:34:47.203Z</time></trkpt><trkpt lat="45.7025179" lon="8.7150379"><ele>291.0</ele><time>2026-05-01T14:34:48.203Z</time></trkpt><trkpt lat="45.702591" lon="8.7149749"><ele>291.0</ele><time>2026-05-01T14:34:50.202Z</time></trkpt><trkpt lat="45.7026708" lon="8.7149148"><ele>291.0</ele><time>2026-05-01T14:34:52.204Z</time></trkpt><trkpt lat="45.702761" lon="8.7148482"><ele>291.0</ele><time>2026-05-01T14:34:54.203Z</time></trkpt><trkpt lat="45.7028671" lon="8.71476"><ele>291.0</ele><time>2026-05-01T14:34:56.203Z</time></trkpt><trkpt lat="45.702927" lon="8.7147115"><ele>290.3333333333333</ele><time>2026-05-01T14:34:57.203Z</time></trkpt><trkpt lat="45.7029899" lon="8.714649"><ele>289.6666666666667</ele><time>2026-05-01T14:34:58.202Z</time></trkpt><trkpt lat="45.7030522" lon="8.7146346"><ele>289.0</ele><time>2026-05-01T14:34:59.203Z</time></trkpt><trkpt lat="45.7031653" lon="8.7146221"><ele>288.33333333333337</ele><time>2026-05-01T14:35:01.203Z</time></trkpt><trkpt lat="45.7032619" lon="8.7146712"><ele>287.6666666666667</ele><time>2026-05-01T14:35:03.203Z</time></trkpt><trkpt lat="45.70334" lon="8.7147095"><ele>287.0</ele><time>2026-05-01T14:35:05.203Z</time></trkpt><trkpt lat="45.7034207" lon="8.7147721"><ele>287.0</ele><time>2026-05-01T14:35:07.203Z</time></trkpt><trkpt lat="45.7035116" lon="8.7148049"><ele>287.0</ele><time>2026-05-01T14:35:10.203Z</time></trkpt><trkpt lat="45.703579" lon="8.7148106"><ele>287.0</ele><time>2026-05-01T14:35:12.202Z</time></trkpt><trkpt lat="45.7034917" lon="8.7148001"><ele>287.0</ele><time>2026-05-01T14:35:22.204Z</time></trkpt><trkpt lat="45.7034176" lon="8.7147801"><ele>287.0</ele><time>2026-05-01T14:35:24.204Z</time></trkpt><trkpt lat="45.7033302" lon="8.7147659"><ele>287.0</ele><time>2026-05-01T14:35:27.203Z</time></trkpt><trkpt lat="45.7032774" lon="8.7148187"><ele>287.0</ele><time>2026-05-01T14:35:30.203Z</time></trkpt><trkpt lat="45.7033005" lon="8.7149043"><ele>287.0</ele><time>2026-05-01T14:35:33.204Z</time></trkpt><trkpt lat="45.703321" lon="8.7150038"><ele>287.0</ele><time>2026-05-01T14:35:35.203Z</time></trkpt><trkpt lat="45.703339" lon="8.7150978"><ele>287.0</ele><time>2026-05-01T14:35:37.203Z</time></trkpt><trkpt lat="45.7033392" lon="8.7152001"><ele>287.0</ele><time>2026-05-01T14:36:27.203Z</time></trkpt><trkpt lat="45.7034144" lon="8.7152679"><ele>287.0</ele><time>2026-05-01T14:37:57.202Z</time></trkpt><trkpt lat="45.7034366" lon="8.7153636"><ele>287.0</ele><time>2026-05-01T14:38:12.203Z</time></trkpt><trkpt lat="45.7034055" lon="8.7152655"><ele>287.0</ele><time>2026-05-01T14:38:35.203Z</time></trkpt><trkpt lat="45.7033589" lon="8.7151955"><ele>287.0</ele><time>2026-05-01T14:38:40.202Z</time></trkpt><trkpt lat="45.7034032" lon="8.7151297"><ele>287.0</ele><time>2026-05-01T14:38:48.203Z</time></trkpt><trkpt lat="45.7034915" lon="8.7151334"><ele>287.0</ele><time>2026-05-01T14:38:51.203Z</time></trkpt><trkpt lat="45.7035832" lon="8.7151484"><ele>287.0</ele><time>2026-05-01T14:38:54.203Z</time></trkpt><trkpt lat="45.7036727" lon="8.7151668"><ele>287.0</ele><time>2026-05-01T14:38:57.203Z</time></trkpt><trkpt lat="45.7037401" lon="8.7151922"><ele>287.0</ele><time>2026-05-01T14:38:59.203Z</time></trkpt><trkpt lat="45.7038005" lon="8.7152384"><ele>287.0</ele><time>2026-05-01T14:39:01.203Z</time></trkpt><trkpt lat="45.7038604" lon="8.7153065"><ele>287.0</ele><time>2026-05-01T14:39:03.203Z</time></trkpt><trkpt lat="45.7039192" lon="8.7154012"><ele>287.0</ele><time>2026-05-01T14:39:06.203Z</time></trkpt><trkpt lat="45.7039732" lon="8.7154837"><ele>287.0</ele><time>2026-05-01T14:39:09.203Z</time></trkpt><trkpt lat="45.7040285" lon="8.7155471"><ele>287.0</ele><time>2026-05-01T14:39:12.202Z</time></trkpt><trkpt lat="45.7040909" lon="8.7156057"><ele>287.0</ele><time>2026-05-01T14:39:15.203Z</time></trkpt><trkpt lat="45.7041067" lon="8.7157157"><ele>287.0</ele><time>2026-05-01T14:39:18.203Z</time></trkpt><trkpt lat="45.7041014" lon="8.7158146"><ele>287.0</ele><time>2026-05-01T14:39:21.203Z</time></trkpt><trkpt lat="45.7041647" lon="8.7158325"><ele>287.0</ele><time>2026-05-01T14:39:30.203Z</time></trkpt><trkpt lat="45.7041509" lon="8.7159234"><ele>287.0</ele><time>2026-05-01T14:39:38.203Z</time></trkpt><trkpt lat="45.7041934" lon="8.7160167"><ele>287.0</ele><time>2026-05-01T14:40:04.202Z</time></trkpt><trkpt lat="45.7042366" lon="8.7161049"><ele>287.0</ele><time>2026-05-01T14:40:09.202Z</time></trkpt><trkpt lat="45.7042677" lon="8.7162105"><ele>286.85714285714283</ele><time>2026-05-01T14:40:13.202Z</time></trkpt><trkpt lat="45.7042957" lon="8.7162926"><ele>286.7142857142857</ele><time>2026-05-01T14:40:16.203Z</time></trkpt><trkpt lat="45.7043354" lon="8.7163867"><ele>286.57142857142856</ele><time>2026-05-01T14:40:20.203Z</time></trkpt><trkpt lat="45.7043691" lon="8.7164647"><ele>286.42857142857144</ele><time>2026-05-01T14:40:23.203Z</time></trkpt><trkpt lat="45.704359" lon="8.71657"><ele>286.2857142857143</ele><time>2026-05-01T14:40:27.203Z</time></trkpt><trkpt lat="45.7044241" lon="8.7165427"><ele>286.1428571428571</ele><time>2026-05-01T14:40:36.203Z</time></trkpt><trkpt lat="45.7044885" lon="8.7165605"><ele>286.0</ele><time>2026-05-01T14:40:43.192Z</time></trkpt><trkpt lat="45.704525" lon="8.7164806"><ele>287.8333333333333</ele><time>2026-05-01T14:41:56.202Z</time></trkpt><trkpt lat="45.7045859" lon="8.7164027"><ele>289.66666666666663</ele><time>2026-05-01T14:42:01.208Z</time></trkpt><trkpt lat="45.704647" lon="8.7163359"><ele>291.5</ele><time>2026-05-01T14:42:05.203Z</time></trkpt><trkpt lat="45.7047197" lon="8.7162923"><ele>293.3333333333333</ele><time>2026-05-01T14:42:08.202Z</time></trkpt><trkpt lat="45.7047935" lon="8.7162974"><ele>295.1666666666667</ele><time>2026-05-01T14:42:11.203Z</time></trkpt><trkpt lat="45.7048615" lon="8.7164448"><ele>297.0</ele><time>2026-05-01T14:42:14.202Z</time></trkpt><trkpt lat="45.7048276" lon="8.7165553"><ele>297.0</ele><time>2026-05-01T14:42:16.202Z</time></trkpt><trkpt lat="45.7048082" lon="8.7166928"><ele>297.0</ele><time>2026-05-01T14:42:19.202Z</time></trkpt><trkpt lat="45.7047659" lon="8.7168122"><ele>297.0</ele><time>2026-05-01T14:42:22.202Z</time></trkpt><trkpt lat="45.7047289" lon="8.7169085"><ele>297.0</ele><time>2026-05-01T14:42:24.203Z</time></trkpt><trkpt lat="45.7046772" lon="8.7169937"><ele>297.0</ele><time>2026-05-01T14:42:26.203Z</time></trkpt><trkpt lat="45.7046273" lon="8.7170931"><ele>297.0</ele><time>2026-05-01T14:42:29.202Z</time></trkpt><trkpt lat="45.7045684" lon="8.7171623"><ele>296.1666666666667</ele><time>2026-05-01T14:42:32.203Z</time></trkpt><trkpt lat="45.704514" lon="8.7172385"><ele>295.3333333333333</ele><time>2026-05-01T14:42:35.203Z</time></trkpt><trkpt lat="45.704462" lon="8.7173097"><ele>294.5</ele><time>2026-05-01T14:42:37.204Z</time></trkpt><trkpt lat="45.7043966" lon="8.717378"><ele>293.66666666666663</ele><time>2026-05-01T14:42:39.204Z</time></trkpt><trkpt lat="45.7043383" lon="8.7174707"><ele>292.8333333333333</ele><time>2026-05-01T14:42:41.203Z</time></trkpt><trkpt lat="45.7042657" lon="8.7175618"><ele>292.0</ele><time>2026-05-01T14:42:43.203Z</time></trkpt><trkpt lat="45.7041941" lon="8.7176323"><ele>292.0</ele><time>2026-05-01T14:42:45.202Z</time></trkpt><trkpt lat="45.7041372" lon="8.7176988"><ele>292.0</ele><time>2026-05-01T14:42:47.202Z</time></trkpt><trkpt lat="45.7040821" lon="8.7177597"><ele>292.0</ele><time>2026-05-01T14:42:49.202Z</time></trkpt><trkpt lat="45.7040357" lon="8.7178284"><ele>292.0</ele><time>2026-05-01T14:42:52.203Z</time></trkpt><trkpt lat="45.7039992" lon="8.7179191"><ele>292.0</ele><time>2026-05-01T14:42:55.202Z</time></trkpt><trkpt lat="45.7039782" lon="8.7180235"><ele>292.0</ele><time>2026-05-01T14:42:59.203Z</time></trkpt><trkpt lat="45.7039628" lon="8.7181321"><ele>292.0</ele><time>2026-05-01T14:43:02.202Z</time></trkpt><trkpt lat="45.7039749" lon="8.7182385"><ele>293.8333333333333</ele><time>2026-05-01T14:43:05.202Z</time></trkpt><trkpt lat="45.7039553" lon="8.7183399"><ele>295.66666666666663</ele><time>2026-05-01T14:43:09.203Z</time></trkpt><trkpt lat="45.7039474" lon="8.7184318"><ele>297.5</ele><time>2026-05-01T14:43:14.201Z</time></trkpt><trkpt lat="45.7039325" lon="8.7185254"><ele>299.3333333333333</ele><time>2026-05-01T14:43:19.033Z</time></trkpt><trkpt lat="45.703906" lon="8.7186256"><ele>301.1666666666667</ele><time>2026-05-01T14:43:24.201Z</time></trkpt><trkpt lat="45.7038319" lon="8.7187425"><ele>303.0</ele><time>2026-05-01T14:43:44.202Z</time></trkpt><trkpt lat="45.7037673" lon="8.7188212"><ele>303.2857142857143</ele><time>2026-05-01T14:43:46.202Z</time></trkpt><trkpt lat="45.7037176" lon="8.7188838"><ele>303.57142857142856</ele><time>2026-05-01T14:43:48.202Z</time></trkpt><trkpt lat="45.7036571" lon="8.7189478"><ele>303.8571428571429</ele><time>2026-05-01T14:43:55.251Z</time></trkpt><trkpt lat="45.7035966" lon="8.7189916"><ele>304.1428571428571</ele><time>2026-05-01T14:44:01.291Z</time></trkpt><trkpt lat="45.7035468" lon="8.7190575"><ele>304.4285714285714</ele><time>2026-05-01T14:44:25.133Z</time></trkpt><trkpt lat="45.703516" lon="8.7191505"><ele>304.7142857142857</ele><time>2026-05-01T14:44:31.201Z</time></trkpt><trkpt lat="45.7034594" lon="8.719223"><ele>305.0</ele><time>2026-05-01T14:44:36.202Z</time></trkpt><trkpt lat="45.7033858" lon="8.719224"><ele>305.0</ele><time>2026-05-01T14:45:06.202Z</time></trkpt><trkpt lat="45.7033315" lon="8.7191713"><ele>305.0</ele><time>2026-05-01T14:45:11.202Z</time></trkpt><trkpt lat="45.7033528" lon="8.7190813"><ele>305.0</ele><time>2026-05-01T14:45:15.201Z</time></trkpt><trkpt lat="45.7033919" lon="8.7189888"><ele>305.0</ele><time>2026-05-01T14:45:23.202Z</time></trkpt><trkpt lat="45.7034029" lon="8.7188976"><ele>305.0</ele><time>2026-05-01T14:45:29.202Z</time></trkpt><trkpt lat="45.7034419" lon="8.7189917"><ele>305.0</ele><time>2026-05-01T14:47:21.201Z</time></trkpt><trkpt lat="45.7034274" lon="8.7191045"><ele>305.0</ele><time>2026-05-01T14:47:27.202Z</time></trkpt><trkpt lat="45.7034425" lon="8.7191955"><ele>305.0</ele><time>2026-05-01T14:47:36.202Z</time></trkpt><trkpt lat="45.7033656" lon="8.7192685"><ele>305.0</ele><time>2026-05-01T14:47:59.201Z</time></trkpt><trkpt lat="45.703212" lon="8.7193814"><ele>305.0</ele><time>2026-05-01T14:48:01.201Z</time></trkpt><trkpt lat="45.7031474" lon="8.7194322"><ele>305.0</ele><time>2026-05-01T14:48:03.201Z</time></trkpt><trkpt lat="45.7030593" lon="8.7195145"><ele>305.0</ele><time>2026-05-01T14:48:05.201Z</time></trkpt><trkpt lat="45.7029704" lon="8.7195973"><ele>305.0</ele><time>2026-05-01T14:48:07.202Z</time></trkpt><trkpt lat="45.7028871" lon="8.7196718"><ele>305.0</ele><time>2026-05-01T14:48:09.202Z</time></trkpt><trkpt lat="45.7027925" lon="8.7197687"><ele>305.0</ele><time>2026-05-01T14:48:11.201Z</time></trkpt><trkpt lat="45.7027432" lon="8.719825"><ele>305.0</ele><time>2026-05-01T14:48:12.201Z</time></trkpt><trkpt lat="45.7026845" lon="8.7198847"><ele>305.0</ele><time>2026-05-01T14:48:13.202Z</time></trkpt><trkpt lat="45.7026271" lon="8.719944"><ele>305.0</ele><time>2026-05-01T14:48:14.202Z</time></trkpt><trkpt lat="45.7025767" lon="8.7200016"><ele>304.8</ele><time>2026-05-01T14:48:15.202Z</time></trkpt><trkpt lat="45.7024986" lon="8.7200832"><ele>304.6</ele><time>2026-05-01T14:48:17.202Z</time></trkpt><trkpt lat="45.7024124" lon="8.7201742"><ele>304.4</ele><time>2026-05-01T14:48:19.201Z</time></trkpt><trkpt lat="45.7022944" lon="8.7202584"><ele>304.2</ele><time>2026-05-01T14:48:21.202Z</time></trkpt><trkpt lat="45.7022285" lon="8.7202839"><ele>304.0</ele><time>2026-05-01T14:48:22.201Z</time></trkpt><trkpt lat="45.7021661" lon="8.7203018"><ele>304.0</ele><time>2026-05-01T14:48:23.202Z</time></trkpt><trkpt lat="45.7021096" lon="8.7203438"><ele>304.0</ele><time>2026-05-01T14:48:24.202Z</time></trkpt><trkpt lat="45.7020201" lon="8.7204197"><ele>304.0</ele><time>2026-05-01T14:48:26.202Z</time></trkpt><trkpt lat="45.7019454" lon="8.7204918"><ele>304.0</ele><time>2026-05-01T14:48:28.202Z</time></trkpt><trkpt lat="45.7018476" lon="8.7205436"><ele>304.0</ele><time>2026-05-01T14:48:30.202Z</time></trkpt><trkpt lat="45.7017508" lon="8.7206039"><ele>304.0</ele><time>2026-05-01T14:48:32.202Z</time></trkpt><trkpt lat="45.701682" lon="8.7206522"><ele>304.0</ele><time>2026-05-01T14:48:34.202Z</time></trkpt><trkpt lat="45.7015995" lon="8.7207126"><ele>304.0</ele><time>2026-05-01T14:48:36.202Z</time></trkpt><trkpt lat="45.7015167" lon="8.7207789"><ele>304.0</ele><time>2026-05-01T14:48:38.203Z</time></trkpt><trkpt lat="45.7014302" lon="8.7208556"><ele>304.0</ele><time>2026-05-01T14:48:40.201Z</time></trkpt><trkpt lat="45.7013741" lon="8.7209048"><ele>304.0</ele><time>2026-05-01T14:48:41.201Z</time></trkpt><trkpt lat="45.701314" lon="8.7209442"><ele>304.0</ele><time>2026-05-01T14:48:42.202Z</time></trkpt><trkpt lat="45.7012216" lon="8.7210243"><ele>304.0</ele><time>2026-05-01T14:48:44.201Z</time></trkpt><trkpt lat="45.7011521" lon="8.7210851"><ele>304.0</ele><time>2026-05-01T14:48:46.202Z</time></trkpt><trkpt lat="45.7010784" lon="8.7211725"><ele>304.0</ele><time>2026-05-01T14:48:48.202Z</time></trkpt><trkpt lat="45.7010277" lon="8.7212566"><ele>304.0</ele><time>2026-05-01T14:48:50.202Z</time></trkpt><trkpt lat="45.7009777" lon="8.7213569"><ele>304.0</ele><time>2026-05-01T14:48:52.202Z</time></trkpt><trkpt lat="45.700924" lon="8.7214679"><ele>303.8333333333333</ele><time>2026-05-01T14:48:54.201Z</time></trkpt><trkpt lat="45.7008619" lon="8.7215607"><ele>303.66666666666663</ele><time>2026-05-01T14:48:56.201Z</time></trkpt><trkpt lat="45.7007954" lon="8.7216232"><ele>303.5</ele><time>2026-05-01T14:48:58.202Z</time></trkpt><trkpt lat="45.7007254" lon="8.7216953"><ele>303.3333333333333</ele><time>2026-05-01T14:49:01.202Z</time></trkpt><trkpt lat="45.7006579" lon="8.7217615"><ele>303.1666666666667</ele><time>2026-05-01T14:49:05.202Z</time></trkpt><trkpt lat="45.7005995" lon="8.7218218"><ele>303.0</ele><time>2026-05-01T14:49:08.202Z</time></trkpt><trkpt lat="45.7005546" lon="8.7218942"><ele>303.14285714285717</ele><time>2026-05-01T14:49:10.202Z</time></trkpt><trkpt lat="45.7004974" lon="8.721958"><ele>303.2857142857143</ele><time>2026-05-01T14:49:12.202Z</time></trkpt><trkpt lat="45.7004494" lon="8.7220233"><ele>303.42857142857144</ele><time>2026-05-01T14:49:15.202Z</time></trkpt><trkpt lat="45.7004007" lon="8.7220813"><ele>303.57142857142856</ele><time>2026-05-01T14:49:20.202Z</time></trkpt><trkpt lat="45.7003559" lon="8.7221566"><ele>303.7142857142857</ele><time>2026-05-01T14:49:24.201Z</time></trkpt><trkpt lat="45.7002808" lon="8.7222141"><ele>303.85714285714283</ele><time>2026-05-01T14:49:27.202Z</time></trkpt><trkpt lat="45.7002208" lon="8.7222808"><ele>304.0</ele><time>2026-05-01T14:49:31.201Z</time></trkpt><trkpt lat="45.700122" lon="8.7224028"><ele>304.0</ele><time>2026-05-01T14:49:34.203Z</time></trkpt><trkpt lat="45.7000636" lon="8.7224597"><ele>304.0</ele><time>2026-05-01T14:49:36.202Z</time></trkpt><trkpt lat="45.6999783" lon="8.7224884"><ele>304.0</ele><time>2026-05-01T14:49:59.2Z</time></trkpt><trkpt lat="45.6999322" lon="8.7225558"><ele>304.0</ele><time>2026-05-01T14:50:46.201Z</time></trkpt><trkpt lat="45.6999959" lon="8.7225172"><ele>304.0</ele><time>2026-05-01T14:50:53.201Z</time></trkpt><trkpt lat="45.6999812" lon="8.7224148"><ele>304.0</ele><time>2026-05-01T14:50:58.202Z</time></trkpt><trkpt lat="45.6999144" lon="8.7223284"><ele>304.0</ele><time>2026-05-01T14:51:01.2Z</time></trkpt><trkpt lat="45.6998664" lon="8.722259"><ele>304.0</ele><time>2026-05-01T14:51:03.201Z</time></trkpt><trkpt lat="45.6998223" lon="8.7221562"><ele>304.0</ele><time>2026-05-01T14:51:05.201Z</time></trkpt><trkpt lat="45.6997735" lon="8.7220719"><ele>304.0</ele><time>2026-05-01T14:51:07.201Z</time></trkpt><trkpt lat="45.6997077" lon="8.7219746"><ele>304.0</ele><time>2026-05-01T14:51:10.201Z</time></trkpt><trkpt lat="45.6996614" lon="8.7218911"><ele>304.0</ele><time>2026-05-01T14:51:12.2Z</time></trkpt><trkpt lat="45.6996366" lon="8.7218005"><ele>304.16666666666663</ele><time>2026-05-01T14:51:14.2Z</time></trkpt><trkpt lat="45.6995929" lon="8.7217096"><ele>304.3333333333333</ele><time>2026-05-01T14:51:16.2Z</time></trkpt><trkpt lat="45.699543" lon="8.7216265"><ele>304.5</ele><time>2026-05-01T14:51:18.202Z</time></trkpt><trkpt lat="45.6994991" lon="8.7215432"><ele>304.6666666666667</ele><time>2026-05-01T14:51:20.199Z</time></trkpt><trkpt lat="45.6994501" lon="8.7214563"><ele>304.83333333333337</ele><time>2026-05-01T14:51:22.201Z</time></trkpt><trkpt lat="45.6994105" lon="8.7213759"><ele>305.0</ele><time>2026-05-01T14:51:24.2Z</time></trkpt><trkpt lat="45.6993754" lon="8.7212654"><ele>305.6666666666667</ele><time>2026-05-01T14:51:26.201Z</time></trkpt><trkpt lat="45.699316" lon="8.7211759"><ele>306.33333333333337</ele><time>2026-05-01T14:51:28.201Z</time></trkpt><trkpt lat="45.6992576" lon="8.7211151"><ele>307.0</ele><time>2026-05-01T14:51:30.201Z</time></trkpt><trkpt lat="45.6992012" lon="8.721051"><ele>307.6666666666667</ele><time>2026-05-01T14:51:32.201Z</time></trkpt><trkpt lat="45.699132" lon="8.7210326"><ele>308.3333333333333</ele><time>2026-05-01T14:51:34.201Z</time></trkpt><trkpt lat="45.6990532" lon="8.7210625"><ele>309.0</ele><time>2026-05-01T14:51:36.2Z</time></trkpt><trkpt lat="45.6989748" lon="8.7210984"><ele>307.5</ele><time>2026-05-01T14:51:38.201Z</time></trkpt><trkpt lat="45.6988762" lon="8.7211055"><ele>306.0</ele><time>2026-05-01T14:51:40.201Z</time></trkpt><trkpt lat="45.6987699" lon="8.7210893"><ele>304.5</ele><time>2026-05-01T14:51:42.201Z</time></trkpt><trkpt lat="45.6986888" lon="8.721069"><ele>303.0</ele><time>2026-05-01T14:51:44.201Z</time></trkpt><trkpt lat="45.6987508" lon="8.7210893"><ele>301.5</ele><time>2026-05-01T14:51:54.202Z</time></trkpt><trkpt lat="45.698765" lon="8.7211826"><ele>300.0</ele><time>2026-05-01T14:51:57.201Z</time></trkpt><trkpt lat="45.6987856" lon="8.7212792"><ele>299.99999999999994</ele><time>2026-05-01T14:52:01.2Z</time></trkpt><trkpt lat="45.6987638" lon="8.7213658"><ele>300.0</ele><time>2026-05-01T14:52:04.201Z</time></trkpt><trkpt lat="45.6987557" lon="8.7214772"><ele>300.0</ele><time>2026-05-01T14:52:08.201Z</time></trkpt><trkpt lat="45.6987674" lon="8.7215753"><ele>300.0</ele><time>2026-05-01T14:52:12.201Z</time></trkpt><trkpt lat="45.6987643" lon="8.7216961"><ele>300.0</ele><time>2026-05-01T14:52:16.201Z</time></trkpt><trkpt lat="45.6987377" lon="8.7217906"><ele>299.99999999999994</ele><time>2026-05-01T14:52:19.2Z</time></trkpt><trkpt lat="45.6987355" lon="8.7218859"><ele>300.0</ele><time>2026-05-01T14:52:22.201Z</time></trkpt><trkpt lat="45.6987318" lon="8.7220122"><ele>299.57142857142856</ele><time>2026-05-01T14:52:54.201Z</time></trkpt><trkpt lat="45.6987765" lon="8.7220963"><ele>299.1428571428571</ele><time>2026-05-01T14:53:06.201Z</time></trkpt><trkpt lat="45.6988083" lon="8.722189"><ele>298.7142857142857</ele><time>2026-05-01T14:53:10.201Z</time></trkpt><trkpt lat="45.6988357" lon="8.7222869"><ele>298.2857142857143</ele><time>2026-05-01T14:53:14.201Z</time></trkpt><trkpt lat="45.698823" lon="8.7223915"><ele>297.8571428571429</ele><time>2026-05-01T14:53:17.201Z</time></trkpt><trkpt lat="45.6987962" lon="8.7224935"><ele>297.42857142857144</ele><time>2026-05-01T14:53:19.2Z</time></trkpt><trkpt lat="45.6987988" lon="8.722603"><ele>297.0</ele><time>2026-05-01T14:53:22.201Z</time></trkpt><trkpt lat="45.6987709" lon="8.7226995"><ele>298.2857142857143</ele><time>2026-05-01T14:53:25.201Z</time></trkpt><trkpt lat="45.698756" lon="8.7228172"><ele>299.5714285714286</ele><time>2026-05-01T14:53:28.201Z</time></trkpt><trkpt lat="45.6987639" lon="8.7229268"><ele>300.8571428571429</ele><time>2026-05-01T14:53:31.2Z</time></trkpt><trkpt lat="45.6987952" lon="8.7230076"><ele>302.14285714285717</ele><time>2026-05-01T14:53:34.2Z</time></trkpt><trkpt lat="45.6988233" lon="8.723112"><ele>303.42857142857144</ele><time>2026-05-01T14:53:37.2Z</time></trkpt><trkpt lat="45.6988613" lon="8.7232018"><ele>304.7142857142857</ele><time>2026-05-01T14:53:40.201Z</time></trkpt><trkpt lat="45.6989079" lon="8.7232785"><ele>306.0</ele><time>2026-05-01T14:53:42.2Z</time></trkpt><trkpt lat="45.6989756" lon="8.7233183"><ele>306.0</ele><time>2026-05-01T14:53:44.2Z</time></trkpt><trkpt lat="45.6990421" lon="8.7233082"><ele>306.0</ele><time>2026-05-01T14:53:47.201Z</time></trkpt><trkpt lat="45.6991178" lon="8.7233004"><ele>306.0</ele><time>2026-05-01T14:53:50.201Z</time></trkpt><trkpt lat="45.699199" lon="8.7232978"><ele>306.0</ele><time>2026-05-01T14:53:54.2Z</time></trkpt><trkpt lat="45.6992841" lon="8.7232929"><ele>306.0</ele><time>2026-05-01T14:53:57.201Z</time></trkpt><trkpt lat="45.6993748" lon="8.7233074"><ele>306.0</ele><time>2026-05-01T14:54:00.201Z</time></trkpt><trkpt lat="45.6994637" lon="8.723289"><ele>307.1666666666667</ele><time>2026-05-01T14:54:03.201Z</time></trkpt><trkpt lat="45.6995485" lon="8.7232475"><ele>308.3333333333333</ele><time>2026-05-01T14:54:06.2Z</time></trkpt><trkpt lat="45.6996132" lon="8.7231537"><ele>309.5</ele><time>2026-05-01T14:54:09.2Z</time></trkpt><trkpt lat="45.6996502" lon="8.7230515"><ele>310.66666666666663</ele><time>2026-05-01T14:54:11.201Z</time></trkpt><trkpt lat="45.6996884" lon="8.7229795"><ele>311.8333333333333</ele><time>2026-05-01T14:54:13.2Z</time></trkpt><trkpt lat="45.6997324" lon="8.7229072"><ele>313.0</ele><time>2026-05-01T14:54:15.201Z</time></trkpt><trkpt lat="45.6997791" lon="8.7228353"><ele>313.0</ele><time>2026-05-01T14:54:17.2Z</time></trkpt><trkpt lat="45.6998298" lon="8.7227644"><ele>313.0</ele><time>2026-05-01T14:54:19.201Z</time></trkpt><trkpt lat="45.6998751" lon="8.7226913"><ele>313.0</ele><time>2026-05-01T14:54:21.2Z</time></trkpt><trkpt lat="45.6999171" lon="8.7226153"><ele>313.0</ele><time>2026-05-01T14:54:23.2Z</time></trkpt><trkpt lat="45.6999668" lon="8.7225422"><ele>313.0</ele><time>2026-05-01T14:54:25.201Z</time></trkpt><trkpt lat="45.700023" lon="8.7224852"><ele>313.0</ele><time>2026-05-01T14:54:27.2Z</time></trkpt><trkpt lat="45.7001072" lon="8.7224917"><ele>313.0</ele><time>2026-05-01T14:54:30.2Z</time></trkpt><trkpt lat="45.7001826" lon="8.7225165"><ele>313.1428571428571</ele><time>2026-05-01T14:54:33.201Z</time></trkpt><trkpt lat="45.7002419" lon="8.7225492"><ele>313.2857142857143</ele><time>2026-05-01T14:54:36.2Z</time></trkpt><trkpt lat="45.700294" lon="8.7226132"><ele>313.42857142857144</ele><time>2026-05-01T14:54:38.201Z</time></trkpt><trkpt lat="45.7003479" lon="8.7226882"><ele>313.57142857142856</ele><time>2026-05-01T14:54:40.201Z</time></trkpt><trkpt lat="45.7003979" lon="8.7227521"><ele>313.7142857142857</ele><time>2026-05-01T14:54:43.2Z</time></trkpt><trkpt lat="45.7004522" lon="8.7228117"><ele>313.85714285714283</ele><time>2026-05-01T14:54:47.201Z</time></trkpt><trkpt lat="45.7004946" lon="8.7228805"><ele>314.0</ele><time>2026-05-01T14:54:49.201Z</time></trkpt><trkpt lat="45.700555" lon="8.7229446"><ele>313.99999999999994</ele><time>2026-05-01T14:54:53.2Z</time></trkpt><trkpt lat="45.7006214" lon="8.7230057"><ele>314.0</ele><time>2026-05-01T14:54:56.201Z</time></trkpt><trkpt lat="45.7006716" lon="8.7230645"><ele>314.0</ele><time>2026-05-01T14:55:00.201Z</time></trkpt><trkpt lat="45.700723" lon="8.7231179"><ele>314.0</ele><time>2026-05-01T14:55:03.2Z</time></trkpt><trkpt lat="45.7007712" lon="8.7231938"><ele>314.0</ele><time>2026-05-01T14:55:05.2Z</time></trkpt><trkpt lat="45.7008316" lon="8.723266"><ele>313.99999999999994</ele><time>2026-05-01T14:55:09.201Z</time></trkpt><trkpt lat="45.7008965" lon="8.7233255"><ele>314.0</ele><time>2026-05-01T14:55:13.2Z</time></trkpt><trkpt lat="45.7009493" lon="8.7233907"><ele>313.99999999999994</ele><time>2026-05-01T14:55:17.201Z</time></trkpt><trkpt lat="45.7010081" lon="8.7234402"><ele>314.0</ele><time>2026-05-01T14:55:21.2Z</time></trkpt><trkpt lat="45.7010705" lon="8.7234783"><ele>314.0</ele><time>2026-05-01T14:55:26.201Z</time></trkpt><trkpt lat="45.7011358" lon="8.7234956"><ele>314.0</ele><time>2026-05-01T14:55:32.201Z</time></trkpt><trkpt lat="45.7012043" lon="8.7234862"><ele>314.0</ele><time>2026-05-01T14:55:39.201Z</time></trkpt><trkpt lat="45.7012537" lon="8.7235476"><ele>313.99999999999994</ele><time>2026-05-01T14:55:44.2Z</time></trkpt><trkpt lat="45.7012838" lon="8.7236344"><ele>314.0</ele><time>2026-05-01T14:55:51.201Z</time></trkpt><trkpt lat="45.7012979" lon="8.7237258"><ele>315.99999999999994</ele><time>2026-05-01T14:55:57.201Z</time></trkpt><trkpt lat="45.7012857" lon="8.7238144"><ele>318.0</ele><time>2026-05-01T14:56:07.201Z</time></trkpt><trkpt lat="45.7013008" lon="8.7239163"><ele>320.0</ele><time>2026-05-01T14:56:21.199Z</time></trkpt><trkpt lat="45.7013248" lon="8.7240039"><ele>322.0</ele><time>2026-05-01T14:56:27.2Z</time></trkpt><trkpt lat="45.7013687" lon="8.7240874"><ele>324.0</ele><time>2026-05-01T14:56:34.2Z</time></trkpt><trkpt lat="45.7014133" lon="8.7241668"><ele>325.99999999999994</ele><time>2026-05-01T14:56:40.199Z</time></trkpt><trkpt lat="45.7014702" lon="8.7242406"><ele>328.0</ele><time>2026-05-01T14:56:46.233Z</time></trkpt><trkpt lat="45.7015305" lon="8.7242797"><ele>327.99999999999994</ele><time>2026-05-01T14:56:51.199Z</time></trkpt><trkpt lat="45.7016028" lon="8.7243245"><ele>328.0</ele><time>2026-05-01T14:56:57.2Z</time></trkpt><trkpt lat="45.701664" lon="8.724355"><ele>328.0</ele><time>2026-05-01T14:57:02.2Z</time></trkpt><trkpt lat="45.7017315" lon="8.7243268"><ele>328.0</ele><time>2026-05-01T14:57:26.2Z</time></trkpt><trkpt lat="45.7017983" lon="8.7243545"><ele>328.0</ele><time>2026-05-01T14:57:29.2Z</time></trkpt><trkpt lat="45.7018707" lon="8.7243283"><ele>327.99999999999994</ele><time>2026-05-01T14:57:34.199Z</time></trkpt><trkpt lat="45.7017877" lon="8.7242977"><ele>328.0</ele><time>2026-05-01T14:58:00.2Z</time></trkpt><trkpt lat="45.7016948" lon="8.7242958"><ele>327.99999999999994</ele><time>2026-05-01T14:58:03.2Z</time></trkpt><trkpt lat="45.7016225" lon="8.724264"><ele>328.0</ele><time>2026-05-01T14:58:06.2Z</time></trkpt><trkpt lat="45.701558" lon="8.7242493"><ele>328.0</ele><time>2026-05-01T14:58:09.199Z</time></trkpt><trkpt lat="45.701621" lon="8.7242263"><ele>328.0</ele><time>2026-05-01T14:58:48.2Z</time></trkpt><trkpt lat="45.7016897" lon="8.7242409"><ele>328.0</ele><time>2026-05-01T14:58:52.232Z</time></trkpt><trkpt lat="45.7017465" lon="8.7242967"><ele>327.99999999999994</ele><time>2026-05-01T14:58:54.201Z</time></trkpt><trkpt lat="45.7018225" lon="8.72431"><ele>328.0</ele><time>2026-05-01T14:58:57.199Z</time></trkpt><trkpt lat="45.7019085" lon="8.7242726"><ele>327.5</ele><time>2026-05-01T14:59:00.2Z</time></trkpt><trkpt lat="45.7021225" lon="8.7242339"><ele>327.0</ele><time>2026-05-01T14:59:02.2Z</time></trkpt><trkpt lat="45.702253" lon="8.7242488"><ele>326.5</ele><time>2026-05-01T14:59:04.2Z</time></trkpt><trkpt lat="45.7023258" lon="8.7242988"><ele>326.0</ele><time>2026-05-01T14:59:05.199Z</time></trkpt><trkpt lat="45.7023838" lon="8.7243706"><ele>326.0</ele><time>2026-05-01T14:59:06.199Z</time></trkpt><trkpt lat="45.7024402" lon="8.7244451"><ele>326.0</ele><time>2026-05-01T14:59:07.201Z</time></trkpt><trkpt lat="45.7025026" lon="8.7245057"><ele>326.0</ele><time>2026-05-01T14:59:08.2Z</time></trkpt><trkpt lat="45.7025894" lon="8.7246416"><ele>326.0</ele><time>2026-05-01T14:59:10.2Z</time></trkpt><trkpt lat="45.702701" lon="8.7246379"><ele>326.0</ele><time>2026-05-01T14:59:12.199Z</time></trkpt><trkpt lat="45.7028364" lon="8.7246208"><ele>325.0</ele><time>2026-05-01T14:59:14.2Z</time></trkpt><trkpt lat="45.7029382" lon="8.7246228"><ele>324.0</ele><time>2026-05-01T14:59:16.199Z</time></trkpt><trkpt lat="45.7030227" lon="8.7246812"><ele>323.0</ele><time>2026-05-01T14:59:17.199Z</time></trkpt><trkpt lat="45.703072" lon="8.7247444"><ele>322.0</ele><time>2026-05-01T14:59:18.2Z</time></trkpt><trkpt lat="45.7031648" lon="8.7248627"><ele>321.0</ele><time>2026-05-01T14:59:20.2Z</time></trkpt><trkpt lat="45.7032158" lon="8.7250122"><ele>321.0</ele><time>2026-05-01T14:59:22.2Z</time></trkpt><trkpt lat="45.7032654" lon="8.72518"><ele>321.0</ele><time>2026-05-01T14:59:24.199Z</time></trkpt><trkpt lat="45.703307" lon="8.7253674"><ele>321.0</ele><time>2026-05-01T14:59:26.2Z</time></trkpt><trkpt lat="45.7033122" lon="8.725552"><ele>321.0</ele><time>2026-05-01T14:59:28.199Z</time></trkpt><trkpt lat="45.7032971" lon="8.7256402"><ele>320.40000000000003</ele><time>2026-05-01T14:59:29.199Z</time></trkpt><trkpt lat="45.703265" lon="8.7258103"><ele>319.8</ele><time>2026-05-01T14:59:31.2Z</time></trkpt><trkpt lat="45.7032585" lon="8.7260151"><ele>319.20000000000005</ele><time>2026-05-01T14:59:33.2Z</time></trkpt><trkpt lat="45.7032711" lon="8.7261176"><ele>318.6</ele><time>2026-05-01T14:59:34.199Z</time></trkpt><trkpt lat="45.7032715" lon="8.7262198"><ele>318.0</ele><time>2026-05-01T14:59:35.2Z</time></trkpt><trkpt lat="45.7032655" lon="8.7263692"><ele>318.0</ele><time>2026-05-01T14:59:37.199Z</time></trkpt><trkpt lat="45.7032531" lon="8.7265315"><ele>318.0</ele><time>2026-05-01T14:59:39.199Z</time></trkpt><trkpt lat="45.7032447" lon="8.7266512"><ele>318.0</ele><time>2026-05-01T14:59:41.2Z</time></trkpt><trkpt lat="45.7032255" lon="8.7267833"><ele>318.0</ele><time>2026-05-01T14:59:43.2Z</time></trkpt><trkpt lat="45.703188" lon="8.7269409"><ele>318.0</ele><time>2026-05-01T14:59:45.199Z</time></trkpt><trkpt lat="45.7031832" lon="8.7270359"><ele>317.6666666666667</ele><time>2026-05-01T14:59:47.2Z</time></trkpt><trkpt lat="45.7031679" lon="8.7271517"><ele>317.3333333333333</ele><time>2026-05-01T14:59:50.199Z</time></trkpt><trkpt lat="45.7032427" lon="8.7271377"><ele>317.0</ele><time>2026-05-01T15:00:11.199Z</time></trkpt><trkpt lat="45.7033254" lon="8.7270774"><ele>316.66666666666663</ele><time>2026-05-01T15:00:14.201Z</time></trkpt><trkpt lat="45.7034108" lon="8.7270318"><ele>316.3333333333333</ele><time>2026-05-01T15:00:17.2Z</time></trkpt><trkpt lat="45.7035058" lon="8.7270038"><ele>316.0</ele><time>2026-05-01T15:00:20.2Z</time></trkpt><trkpt lat="45.7035907" lon="8.72698"><ele>315.3333333333333</ele><time>2026-05-01T15:00:23.198Z</time></trkpt><trkpt lat="45.7036628" lon="8.7269935"><ele>314.66666666666663</ele><time>2026-05-01T15:00:25.2Z</time></trkpt><trkpt lat="45.7037403" lon="8.7270118"><ele>314.0</ele><time>2026-05-01T15:00:27.198Z</time></trkpt><trkpt lat="45.7038235" lon="8.7270431"><ele>313.3333333333333</ele><time>2026-05-01T15:00:29.2Z</time></trkpt><trkpt lat="45.7039083" lon="8.7270905"><ele>312.6666666666667</ele><time>2026-05-01T15:00:31.199Z</time></trkpt><trkpt lat="45.7039934" lon="8.7271463"><ele>312.0</ele><time>2026-05-01T15:00:33.201Z</time></trkpt><trkpt lat="45.7040884" lon="8.7271941"><ele>312.0</ele><time>2026-05-01T15:00:35.2Z</time></trkpt><trkpt lat="45.7041835" lon="8.7272644"><ele>312.0</ele><time>2026-05-01T15:00:37.2Z</time></trkpt><trkpt lat="45.7042441" lon="8.7273176"><ele>312.0</ele><time>2026-05-01T15:00:38.2Z</time></trkpt><trkpt lat="45.7043223" lon="8.7273693"><ele>312.0</ele><time>2026-05-01T15:00:39.2Z</time></trkpt><trkpt lat="45.7044041" lon="8.7274127"><ele>312.0</ele><time>2026-05-01T15:00:40.2Z</time></trkpt><trkpt lat="45.7044861" lon="8.727453"><ele>312.0</ele><time>2026-05-01T15:00:41.2Z</time></trkpt><trkpt lat="45.7046759" lon="8.7275398"><ele>311.6666666666667</ele><time>2026-05-01T15:00:43.199Z</time></trkpt><trkpt lat="45.7047466" lon="8.7275751"><ele>311.3333333333333</ele><time>2026-05-01T15:00:44.2Z</time></trkpt><trkpt lat="45.704826" lon="8.7275906"><ele>311.0</ele><time>2026-05-01T15:00:45.2Z</time></trkpt><trkpt lat="45.7048999" lon="8.7276226"><ele>310.66666666666663</ele><time>2026-05-01T15:00:46.2Z</time></trkpt><trkpt lat="45.7049761" lon="8.7276344"><ele>310.3333333333333</ele><time>2026-05-01T15:00:47.2Z</time></trkpt><trkpt lat="45.7050527" lon="8.7276371"><ele>310.0</ele><time>2026-05-01T15:00:48.199Z</time></trkpt><trkpt lat="45.7051294" lon="8.7276396"><ele>310.0</ele><time>2026-05-01T15:00:49.199Z</time></trkpt><trkpt lat="45.7052" lon="8.7276514"><ele>310.0</ele><time>2026-05-01T15:00:50.199Z</time></trkpt><trkpt lat="45.7053222" lon="8.7276722"><ele>310.0</ele><time>2026-05-01T15:00:52.198Z</time></trkpt><trkpt lat="45.7054198" lon="8.7276459"><ele>310.0</ele><time>2026-05-01T15:00:54.198Z</time></trkpt><trkpt lat="45.7054901" lon="8.7276492"><ele>310.0</ele><time>2026-05-01T15:00:56.199Z</time></trkpt><trkpt lat="45.7054345" lon="8.7276971"><ele>310.0</ele><time>2026-05-01T15:01:05.198Z</time></trkpt><trkpt lat="45.7053388" lon="8.7277196"><ele>309.5</ele><time>2026-05-01T15:01:08.199Z</time></trkpt><trkpt lat="45.7052632" lon="8.7277575"><ele>309.0</ele><time>2026-05-01T15:01:11.199Z</time></trkpt><trkpt lat="45.7052415" lon="8.7278518"><ele>308.5</ele><time>2026-05-01T15:01:14.199Z</time></trkpt><trkpt lat="45.7052314" lon="8.727967"><ele>308.0</ele><time>2026-05-01T15:01:18.198Z</time></trkpt><trkpt lat="45.7051856" lon="8.7280749"><ele>307.5</ele><time>2026-05-01T15:01:22.199Z</time></trkpt><trkpt lat="45.7051396" lon="8.7281751"><ele>307.0</ele><time>2026-05-01T15:01:25.199Z</time></trkpt><trkpt lat="45.7050884" lon="8.7282364"><ele>307.0</ele><time>2026-05-01T15:01:27.199Z</time></trkpt><trkpt lat="45.7050392" lon="8.7282998"><ele>307.0</ele><time>2026-05-01T15:01:29.2Z</time></trkpt><trkpt lat="45.7049969" lon="8.7284125"><ele>307.0</ele><time>2026-05-01T15:01:32.199Z</time></trkpt><trkpt lat="45.7049589" lon="8.7285147"><ele>307.0</ele><time>2026-05-01T15:01:35.199Z</time></trkpt><trkpt lat="45.7049143" lon="8.728645"><ele>307.0</ele><time>2026-05-01T15:01:38.198Z</time></trkpt><trkpt lat="45.704853" lon="8.7287361"><ele>307.0</ele><time>2026-05-01T15:01:40.199Z</time></trkpt><trkpt lat="45.7047968" lon="8.728836"><ele>307.0</ele><time>2026-05-01T15:01:42.199Z</time></trkpt><trkpt lat="45.7047538" lon="8.7289102"><ele>307.0</ele><time>2026-05-01T15:01:44.199Z</time></trkpt><trkpt lat="45.7046941" lon="8.7290018"><ele>307.0</ele><time>2026-05-01T15:01:47.198Z</time></trkpt><trkpt lat="45.7046405" lon="8.7290764"><ele>307.0</ele><time>2026-05-01T15:01:49.199Z</time></trkpt><trkpt lat="45.7045958" lon="8.7291595"><ele>307.0</ele><time>2026-05-01T15:01:51.199Z</time></trkpt><trkpt lat="45.7045505" lon="8.7292335"><ele>307.0</ele><time>2026-05-01T15:01:53.198Z</time></trkpt><trkpt lat="45.7044954" lon="8.7293368"><ele>307.6</ele><time>2026-05-01T15:01:56.198Z</time></trkpt><trkpt lat="45.7044332" lon="8.7294327"><ele>308.2</ele><time>2026-05-01T15:01:58.2Z</time></trkpt><trkpt lat="45.7043736" lon="8.7295376"><ele>308.8</ele><time>2026-05-01T15:02:00.198Z</time></trkpt><trkpt lat="45.7043358" lon="8.7296457"><ele>309.4</ele><time>2026-05-01T15:02:02.199Z</time></trkpt><trkpt lat="45.70429" lon="8.7297535"><ele>310.0</ele><time>2026-05-01T15:02:04.198Z</time></trkpt><trkpt lat="45.7042335" lon="8.7298702"><ele>310.0</ele><time>2026-05-01T15:02:06.198Z</time></trkpt><trkpt lat="45.7042063" lon="8.7299781"><ele>310.0</ele><time>2026-05-01T15:02:08.199Z</time></trkpt><trkpt lat="45.704176" lon="8.7300826"><ele>310.0</ele><time>2026-05-01T15:02:10.199Z</time></trkpt><trkpt lat="45.7041227" lon="8.7301823"><ele>310.0</ele><time>2026-05-01T15:02:12.198Z</time></trkpt><trkpt lat="45.7040587" lon="8.7302711"><ele>310.0</ele><time>2026-05-01T15:02:14.198Z</time></trkpt><trkpt lat="45.7039883" lon="8.7303447"><ele>310.0</ele><time>2026-05-01T15:02:15.2Z</time></trkpt><trkpt lat="45.7039474" lon="8.7304584"><ele>310.0</ele><time>2026-05-01T15:02:17.199Z</time></trkpt><trkpt lat="45.7038951" lon="8.7305686"><ele>310.0</ele><time>2026-05-01T15:02:19.198Z</time></trkpt><trkpt lat="45.7038469" lon="8.730678"><ele>310.0</ele><time>2026-05-01T15:02:21.2Z</time></trkpt><trkpt lat="45.7037968" lon="8.7307871"><ele>310.0</ele><time>2026-05-01T15:02:23.199Z</time></trkpt><trkpt lat="45.7037705" lon="8.7308899"><ele>310.0</ele><time>2026-05-01T15:02:25.2Z</time></trkpt><trkpt lat="45.7037391" lon="8.7310006"><ele>310.0</ele><time>2026-05-01T15:02:27.2Z</time></trkpt><trkpt lat="45.7036902" lon="8.7311264"><ele>310.0</ele><time>2026-05-01T15:02:29.2Z</time></trkpt><trkpt lat="45.7036317" lon="8.7312323"><ele>310.0</ele><time>2026-05-01T15:02:31.2Z</time></trkpt><trkpt lat="45.7035578" lon="8.7313409"><ele>310.0</ele><time>2026-05-01T15:02:33.198Z</time></trkpt><trkpt lat="45.7034932" lon="8.731445"><ele>310.0</ele><time>2026-05-01T15:02:35.199Z</time></trkpt><trkpt lat="45.7034529" lon="8.7315563"><ele>310.0</ele><time>2026-05-01T15:02:37.198Z</time></trkpt><trkpt lat="45.7033985" lon="8.7316836"><ele>310.8</ele><time>2026-05-01T15:02:39.198Z</time></trkpt><trkpt lat="45.7033419" lon="8.7318203"><ele>311.6</ele><time>2026-05-01T15:02:41.199Z</time></trkpt><trkpt lat="45.7032729" lon="8.7319558"><ele>312.4</ele><time>2026-05-01T15:02:43.198Z</time></trkpt><trkpt lat="45.7032356" lon="8.73208"><ele>313.2</ele><time>2026-05-01T15:02:45.198Z</time></trkpt><trkpt lat="45.7032046" lon="8.7322131"><ele>314.0</ele><time>2026-05-01T15:02:47.199Z</time></trkpt><trkpt lat="45.7031818" lon="8.7323446"><ele>314.0</ele><time>2026-05-01T15:02:49.199Z</time></trkpt><trkpt lat="45.7031678" lon="8.7324593"><ele>314.0</ele><time>2026-05-01T15:02:51.199Z</time></trkpt><trkpt lat="45.703154" lon="8.7325659"><ele>314.0</ele><time>2026-05-01T15:02:53.199Z</time></trkpt><trkpt lat="45.7031342" lon="8.7327066"><ele>314.0</ele><time>2026-05-01T15:02:55.199Z</time></trkpt><trkpt lat="45.703133" lon="8.7328358"><ele>314.0</ele><time>2026-05-01T15:02:57.198Z</time></trkpt><trkpt lat="45.703147" lon="8.7329362"><ele>314.0</ele><time>2026-05-01T15:02:59.199Z</time></trkpt><trkpt lat="45.7031832" lon="8.7330444"><ele>313.1666666666667</ele><time>2026-05-01T15:03:02.199Z</time></trkpt><trkpt lat="45.7031967" lon="8.7331589"><ele>312.33333333333337</ele><time>2026-05-01T15:03:05.199Z</time></trkpt><trkpt lat="45.703157" lon="8.7332576"><ele>311.5</ele><time>2026-05-01T15:03:08.199Z</time></trkpt><trkpt lat="45.7031009" lon="8.7333698"><ele>310.6666666666667</ele><time>2026-05-01T15:03:11.199Z</time></trkpt><trkpt lat="45.7030464" lon="8.7334516"><ele>309.8333333333333</ele><time>2026-05-01T15:03:13.199Z</time></trkpt><trkpt lat="45.7029937" lon="8.7335437"><ele>309.0</ele><time>2026-05-01T15:03:15.199Z</time></trkpt><trkpt lat="45.7029374" lon="8.7336275"><ele>308.3333333333333</ele><time>2026-05-01T15:03:18.199Z</time></trkpt><trkpt lat="45.7028837" lon="8.7336866"><ele>307.6666666666667</ele><time>2026-05-01T15:03:20.199Z</time></trkpt><trkpt lat="45.7028138" lon="8.7337817"><ele>307.0</ele><time>2026-05-01T15:03:23.198Z</time></trkpt><trkpt lat="45.7027569" lon="8.7338558"><ele>306.33333333333337</ele><time>2026-05-01T15:03:25.199Z</time></trkpt><trkpt lat="45.702663" lon="8.7339249"><ele>305.6666666666667</ele><time>2026-05-01T15:03:27.199Z</time></trkpt><trkpt lat="45.7026036" lon="8.73398"><ele>305.0</ele><time>2026-05-01T15:03:29.199Z</time></trkpt><trkpt lat="45.7025388" lon="8.7340576"><ele>305.0</ele><time>2026-05-01T15:03:31.198Z</time></trkpt><trkpt lat="45.7025119" lon="8.7341738"><ele>305.0</ele><time>2026-05-01T15:03:33.198Z</time></trkpt><trkpt lat="45.7024783" lon="8.7342834"><ele>305.0</ele><time>2026-05-01T15:03:35.199Z</time></trkpt><trkpt lat="45.7024284" lon="8.7343763"><ele>305.0</ele><time>2026-05-01T15:03:37.199Z</time></trkpt><trkpt lat="45.7023701" lon="8.7344489"><ele>305.0</ele><time>2026-05-01T15:03:39.199Z</time></trkpt><trkpt lat="45.702289" lon="8.7344764"><ele>305.0</ele><time>2026-05-01T15:03:41.199Z</time></trkpt><trkpt lat="45.7022015" lon="8.7344959"><ele>305.0</ele><time>2026-05-01T15:03:43.199Z</time></trkpt><trkpt lat="45.7021307" lon="8.7345552"><ele>305.0</ele><time>2026-05-01T15:04:49.199Z</time></trkpt><trkpt lat="45.7020573" lon="8.7345983"><ele>305.0</ele><time>2026-05-01T15:04:51.199Z</time></trkpt><trkpt lat="45.7019691" lon="8.7346447"><ele>305.0</ele><time>2026-05-01T15:04:53.199Z</time></trkpt><trkpt lat="45.7018852" lon="8.7346895"><ele>305.0</ele><time>2026-05-01T15:04:55.199Z</time></trkpt><trkpt lat="45.7017836" lon="8.7347216"><ele>305.0</ele><time>2026-05-01T15:04:57.199Z</time></trkpt><trkpt lat="45.7016844" lon="8.73476"><ele>305.0</ele><time>2026-05-01T15:04:59.198Z</time></trkpt><trkpt lat="45.7015849" lon="8.7348092"><ele>305.0</ele><time>2026-05-01T15:05:01.199Z</time></trkpt><trkpt lat="45.7014813" lon="8.7348667"><ele>305.0</ele><time>2026-05-01T15:05:03.199Z</time></trkpt><trkpt lat="45.7013869" lon="8.7349131"><ele>305.0</ele><time>2026-05-01T15:05:05.199Z</time></trkpt><trkpt lat="45.7013021" lon="8.7349673"><ele>305.0</ele><time>2026-05-01T15:05:07.199Z</time></trkpt><trkpt lat="45.7011985" lon="8.7350278"><ele>305.0</ele><time>2026-05-01T15:05:09.199Z</time></trkpt><trkpt lat="45.7011053" lon="8.7350741"><ele>305.0</ele><time>2026-05-01T15:05:11.199Z</time></trkpt><trkpt lat="45.7010277" lon="8.7351309"><ele>305.0</ele><time>2026-05-01T15:05:13.199Z</time></trkpt><trkpt lat="45.7009582" lon="8.7352294"><ele>305.0</ele><time>2026-05-01T15:05:15.199Z</time></trkpt><trkpt lat="45.7009026" lon="8.7352823"><ele>305.0</ele><time>2026-05-01T15:05:16.199Z</time></trkpt><trkpt lat="45.7008137" lon="8.7353791"><ele>305.8</ele><time>2026-05-01T15:05:18.199Z</time></trkpt><trkpt lat="45.7007354" lon="8.7354753"><ele>306.6</ele><time>2026-05-01T15:05:20.198Z</time></trkpt><trkpt lat="45.7006431" lon="8.7355902"><ele>307.4</ele><time>2026-05-01T15:05:22.198Z</time></trkpt><trkpt lat="45.7005571" lon="8.7356645"><ele>308.2</ele><time>2026-05-01T15:05:24.199Z</time></trkpt><trkpt lat="45.7004493" lon="8.7357307"><ele>309.0</ele><time>2026-05-01T15:05:26.199Z</time></trkpt><trkpt lat="45.7003929" lon="8.7357815"><ele>309.0</ele><time>2026-05-01T15:05:27.2Z</time></trkpt><trkpt lat="45.7003145" lon="8.7358835"><ele>309.0</ele><time>2026-05-01T15:05:29.199Z</time></trkpt><trkpt lat="45.7002212" lon="8.7359498"><ele>309.0</ele><time>2026-05-01T15:05:31.199Z</time></trkpt><trkpt lat="45.7001391" lon="8.7360131"><ele>309.0</ele><time>2026-05-01T15:05:33.198Z</time></trkpt><trkpt lat="45.7001557" lon="8.7361454"><ele>309.0</ele><time>2026-05-01T15:05:36.199Z</time></trkpt><trkpt lat="45.700212" lon="8.7362102"><ele>309.0</ele><time>2026-05-01T15:05:38.198Z</time></trkpt><trkpt lat="45.700278" lon="8.7362824"><ele>309.0</ele><time>2026-05-01T15:05:40.199Z</time></trkpt><trkpt lat="45.700381" lon="8.7363484"><ele>309.0</ele><time>2026-05-01T15:05:42.199Z</time></trkpt><trkpt lat="45.7004442" lon="8.7363878"><ele>309.0</ele><time>2026-05-01T15:05:44.199Z</time></trkpt><trkpt lat="45.7004485" lon="8.7364991"><ele>309.0</ele><time>2026-05-01T15:05:46.199Z</time></trkpt><trkpt lat="45.7004165" lon="8.7365899"><ele>309.0</ele><time>2026-05-01T15:05:48.199Z</time></trkpt><trkpt lat="45.7003589" lon="8.7367088"><ele>309.0</ele><time>2026-05-01T15:05:50.198Z</time></trkpt><trkpt lat="45.700318" lon="8.7367934"><ele>309.0</ele><time>2026-05-01T15:05:52.199Z</time></trkpt><trkpt lat="45.7002581" lon="8.7369019"><ele>309.0</ele><time>2026-05-01T15:05:54.199Z</time></trkpt><trkpt lat="45.7002093" lon="8.7369977"><ele>309.0</ele><time>2026-05-01T15:05:56.199Z</time></trkpt><trkpt lat="45.700152" lon="8.7371134"><ele>309.0</ele><time>2026-05-01T15:05:58.199Z</time></trkpt><trkpt lat="45.7001108" lon="8.7372224"><ele>309.0</ele><time>2026-05-01T15:06:00.2Z</time></trkpt><trkpt lat="45.7000737" lon="8.7373446"><ele>309.0</ele><time>2026-05-01T15:06:02.199Z</time></trkpt><trkpt lat="45.7000271" lon="8.7374749"><ele>309.0</ele><time>2026-05-01T15:06:04.199Z</time></trkpt><trkpt lat="45.6999749" lon="8.7375993"><ele>309.0</ele><time>2026-05-01T15:06:06.198Z</time></trkpt><trkpt lat="45.6999261" lon="8.737713"><ele>309.0</ele><time>2026-05-01T15:06:08.198Z</time></trkpt><trkpt lat="45.6998591" lon="8.7378066"><ele>309.0</ele><time>2026-05-01T15:06:10.198Z</time></trkpt><trkpt lat="45.6997979" lon="8.7378754"><ele>309.3333333333333</ele><time>2026-05-01T15:06:12.198Z</time></trkpt><trkpt lat="45.6998214" lon="8.737961"><ele>309.6666666666667</ele><time>2026-05-01T15:06:15.197Z</time></trkpt><trkpt lat="45.699901" lon="8.7380003"><ele>310.0</ele><time>2026-05-01T15:06:19.198Z</time></trkpt><trkpt lat="45.6999879" lon="8.7380417"><ele>310.33333333333337</ele><time>2026-05-01T15:06:23.197Z</time></trkpt><trkpt lat="45.7000702" lon="8.738096"><ele>310.6666666666667</ele><time>2026-05-01T15:06:26.197Z</time></trkpt><trkpt lat="45.7001708" lon="8.7381177"><ele>311.0</ele><time>2026-05-01T15:06:29.197Z</time></trkpt><trkpt lat="45.7002522" lon="8.7381199"><ele>311.33333333333337</ele><time>2026-05-01T15:06:31.197Z</time></trkpt><trkpt lat="45.7003329" lon="8.7381274"><ele>311.6666666666667</ele><time>2026-05-01T15:06:33.198Z</time></trkpt><trkpt lat="45.700408" lon="8.7381462"><ele>312.0</ele><time>2026-05-01T15:06:35.197Z</time></trkpt><trkpt lat="45.7004964" lon="8.7381593"><ele>312.3333333333333</ele><time>2026-05-01T15:06:38.198Z</time></trkpt><trkpt lat="45.7005604" lon="8.7382162"><ele>312.66666666666663</ele><time>2026-05-01T15:06:40.198Z</time></trkpt><trkpt lat="45.7006105" lon="8.7382718"><ele>313.0</ele><time>2026-05-01T15:06:42.198Z</time></trkpt><trkpt lat="45.7006109" lon="8.7383896"><ele>313.0</ele><time>2026-05-01T15:06:44.198Z</time></trkpt><trkpt lat="45.7006011" lon="8.7385189"><ele>313.0</ele><time>2026-05-01T15:06:46.198Z</time></trkpt><trkpt lat="45.7006164" lon="8.7386319"><ele>313.0</ele><time>2026-05-01T15:06:48.198Z</time></trkpt><trkpt lat="45.7006119" lon="8.7387288"><ele>313.0</ele><time>2026-05-01T15:06:50.198Z</time></trkpt><trkpt lat="45.700603" lon="8.7388317"><ele>313.0</ele><time>2026-05-01T15:06:52.197Z</time></trkpt><trkpt lat="45.7005985" lon="8.7389338"><ele>313.0</ele><time>2026-05-01T15:06:54.197Z</time></trkpt><trkpt lat="45.7005662" lon="8.7390328"><ele>312.5</ele><time>2026-05-01T15:06:56.197Z</time></trkpt><trkpt lat="45.7005142" lon="8.7391079"><ele>312.0</ele><time>2026-05-01T15:06:58.198Z</time></trkpt><trkpt lat="45.7004548" lon="8.7391653"><ele>311.5</ele><time>2026-05-01T15:07:00.198Z</time></trkpt><trkpt lat="45.7003974" lon="8.7392456"><ele>311.0</ele><time>2026-05-01T15:07:03.198Z</time></trkpt><trkpt lat="45.7003428" lon="8.739348"><ele>310.5</ele><time>2026-05-01T15:07:06.197Z</time></trkpt><trkpt lat="45.7003075" lon="8.7394483"><ele>310.0</ele><time>2026-05-01T15:07:09.198Z</time></trkpt><trkpt lat="45.7002257" lon="8.7394611"><ele>309.8</ele><time>2026-05-01T15:07:13.198Z</time></trkpt><trkpt lat="45.7001788" lon="8.7393519"><ele>309.6</ele><time>2026-05-01T15:07:16.198Z</time></trkpt><trkpt lat="45.700103" lon="8.7391799"><ele>309.4</ele><time>2026-05-01T15:07:19.198Z</time></trkpt><trkpt lat="45.7000306" lon="8.7391124"><ele>309.2</ele><time>2026-05-01T15:07:21.198Z</time></trkpt><trkpt lat="45.6999547" lon="8.7390572"><ele>309.0</ele><time>2026-05-01T15:07:23.197Z</time></trkpt><trkpt lat="45.6998589" lon="8.7390056"><ele>309.0</ele><time>2026-05-01T15:07:25.197Z</time></trkpt><trkpt lat="45.6997797" lon="8.738976"><ele>309.0</ele><time>2026-05-01T15:07:27.197Z</time></trkpt><trkpt lat="45.6996834" lon="8.7389504"><ele>309.0</ele><time>2026-05-01T15:07:29.198Z</time></trkpt><trkpt lat="45.6996055" lon="8.7389527"><ele>309.0</ele><time>2026-05-01T15:07:31.198Z</time></trkpt><trkpt lat="45.6995361" lon="8.7389302"><ele>309.0</ele><time>2026-05-01T15:07:33.198Z</time></trkpt><trkpt lat="45.6994567" lon="8.7389058"><ele>309.0</ele><time>2026-05-01T15:07:35.197Z</time></trkpt><trkpt lat="45.6993885" lon="8.7388789"><ele>308.8333333333333</ele><time>2026-05-01T15:07:37.198Z</time></trkpt><trkpt lat="45.6992973" lon="8.7388159"><ele>308.6666666666667</ele><time>2026-05-01T15:07:40.198Z</time></trkpt><trkpt lat="45.6991997" lon="8.7387887"><ele>308.5</ele><time>2026-05-01T15:07:43.198Z</time></trkpt><trkpt lat="45.6991316" lon="8.7387623"><ele>308.33333333333337</ele><time>2026-05-01T15:07:45.197Z</time></trkpt><trkpt lat="45.6990643" lon="8.7386967"><ele>308.1666666666667</ele><time>2026-05-01T15:07:48.197Z</time></trkpt><trkpt lat="45.6989933" lon="8.7386776"><ele>308.0</ele><time>2026-05-01T15:07:50.198Z</time></trkpt><trkpt lat="45.6989187" lon="8.7386297"><ele>308.0</ele><time>2026-05-01T15:07:52.197Z</time></trkpt><trkpt lat="45.6988516" lon="8.7385902"><ele>308.0</ele><time>2026-05-01T15:07:54.198Z</time></trkpt><trkpt lat="45.6987639" lon="8.7385489"><ele>308.0</ele><time>2026-05-01T15:07:56.198Z</time></trkpt><trkpt lat="45.6986802" lon="8.7385116"><ele>308.0</ele><time>2026-05-01T15:07:58.197Z</time></trkpt><trkpt lat="45.6986134" lon="8.7384881"><ele>308.0</ele><time>2026-05-01T15:08:00.198Z</time></trkpt><trkpt lat="45.6985423" lon="8.7384398"><ele>308.0</ele><time>2026-05-01T15:08:03.198Z</time></trkpt><trkpt lat="45.6984747" lon="8.7384267"><ele>308.0</ele><time>2026-05-01T15:08:06.198Z</time></trkpt><trkpt lat="45.698398" lon="8.738396"><ele>308.0</ele><time>2026-05-01T15:08:09.199Z</time></trkpt><trkpt lat="45.6983279" lon="8.7383772"><ele>308.0</ele><time>2026-05-01T15:08:12.199Z</time></trkpt><trkpt lat="45.6983981" lon="8.7383664"><ele>308.0</ele><time>2026-05-01T15:08:30.199Z</time></trkpt><trkpt lat="45.698494" lon="8.7383754"><ele>308.0</ele><time>2026-05-01T15:08:33.197Z</time></trkpt><trkpt lat="45.6985629" lon="8.7384075"><ele>308.0</ele><time>2026-05-01T15:08:35.198Z</time></trkpt><trkpt lat="45.6986368" lon="8.7384421"><ele>308.0</ele><time>2026-05-01T15:08:37.199Z</time></trkpt><trkpt lat="45.6987093" lon="8.7384805"><ele>308.0</ele><time>2026-05-01T15:08:39.198Z</time></trkpt><trkpt lat="45.6987732" lon="8.7385185"><ele>308.0</ele><time>2026-05-01T15:08:41.198Z</time></trkpt><trkpt lat="45.6988409" lon="8.738558"><ele>308.0</ele><time>2026-05-01T15:08:43.198Z</time></trkpt><trkpt lat="45.6989146" lon="8.73859"><ele>308.0</ele><time>2026-05-01T15:08:45.198Z</time></trkpt><trkpt lat="45.6989917" lon="8.7386128"><ele>308.0</ele><time>2026-05-01T15:08:47.197Z</time></trkpt><trkpt lat="45.6990769" lon="8.7386477"><ele>308.0</ele><time>2026-05-01T15:08:49.197Z</time></trkpt><trkpt lat="45.6991569" lon="8.7386995"><ele>308.0</ele><time>2026-05-01T15:08:51.198Z</time></trkpt><trkpt lat="45.6993235" lon="8.7387166"><ele>308.0</ele><time>2026-05-01T15:08:56.198Z</time></trkpt><trkpt lat="45.6994097" lon="8.7387464"><ele>308.0</ele><time>2026-05-01T15:08:59.197Z</time></trkpt><trkpt lat="45.6994902" lon="8.7387661"><ele>308.0</ele><time>2026-05-01T15:09:01.198Z</time></trkpt><trkpt lat="45.699552" lon="8.7388101"><ele>308.1666666666667</ele><time>2026-05-01T15:09:03.198Z</time></trkpt><trkpt lat="45.6996408" lon="8.7388556"><ele>308.33333333333337</ele><time>2026-05-01T15:09:06.198Z</time></trkpt><trkpt lat="45.6996986" lon="8.7388923"><ele>308.5</ele><time>2026-05-01T15:09:08.198Z</time></trkpt><trkpt lat="45.6997869" lon="8.7389507"><ele>308.6666666666667</ele><time>2026-05-01T15:09:11.198Z</time></trkpt><trkpt lat="45.6998609" lon="8.7390077"><ele>308.8333333333333</ele><time>2026-05-01T15:09:13.198Z</time></trkpt><trkpt lat="45.6999203" lon="8.7390629"><ele>309.0</ele><time>2026-05-01T15:09:15.198Z</time></trkpt><trkpt lat="45.7000045" lon="8.7391277"><ele>309.0</ele><time>2026-05-01T15:09:18.197Z</time></trkpt><trkpt lat="45.7000624" lon="8.739169"><ele>309.0</ele><time>2026-05-01T15:09:20.197Z</time></trkpt><trkpt lat="45.7001452" lon="8.7392254"><ele>309.0</ele><time>2026-05-01T15:09:23.198Z</time></trkpt><trkpt lat="45.7002044" lon="8.7392653"><ele>309.0</ele><time>2026-05-01T15:09:25.198Z</time></trkpt><trkpt lat="45.7001836" lon="8.7393865"><ele>309.0</ele><time>2026-05-01T15:09:30.198Z</time></trkpt><trkpt lat="45.7001298" lon="8.7394644"><ele>309.0</ele><time>2026-05-01T15:09:33.198Z</time></trkpt><trkpt lat="45.7000754" lon="8.7395653"><ele>309.1666666666667</ele><time>2026-05-01T15:09:36.197Z</time></trkpt><trkpt lat="45.7000074" lon="8.739651"><ele>309.3333333333333</ele><time>2026-05-01T15:09:39.197Z</time></trkpt><trkpt lat="45.6999381" lon="8.7397453"><ele>309.5</ele><time>2026-05-01T15:09:41.199Z</time></trkpt><trkpt lat="45.6998575" lon="8.739836"><ele>309.66666666666663</ele><time>2026-05-01T15:09:43.198Z</time></trkpt><trkpt lat="45.6997964" lon="8.739898"><ele>309.8333333333333</ele><time>2026-05-01T15:09:45.198Z</time></trkpt><trkpt lat="45.6997355" lon="8.7399478"><ele>310.0</ele><time>2026-05-01T15:09:47.198Z</time></trkpt><trkpt lat="45.6996748" lon="8.7400042"><ele>310.0</ele><time>2026-05-01T15:09:49.198Z</time></trkpt><trkpt lat="45.6996184" lon="8.7400623"><ele>310.0</ele><time>2026-05-01T15:09:51.198Z</time></trkpt><trkpt lat="45.6995683" lon="8.740126"><ele>310.0</ele><time>2026-05-01T15:09:53.198Z</time></trkpt><trkpt lat="45.6995126" lon="8.7401977"><ele>310.0</ele><time>2026-05-01T15:09:55.198Z</time></trkpt><trkpt lat="45.6994303" lon="8.7403109"><ele>310.0</ele><time>2026-05-01T15:09:57.198Z</time></trkpt><trkpt lat="45.6993816" lon="8.7403721"><ele>310.0</ele><time>2026-05-01T15:09:58.198Z</time></trkpt><trkpt lat="45.6993308" lon="8.7404288"><ele>309.4</ele><time>2026-05-01T15:09:59.198Z</time></trkpt><trkpt lat="45.6992426" lon="8.7405257"><ele>308.8</ele><time>2026-05-01T15:10:01.197Z</time></trkpt><trkpt lat="45.6991634" lon="8.7406413"><ele>308.2</ele><time>2026-05-01T15:10:03.197Z</time></trkpt><trkpt lat="45.6990858" lon="8.7407873"><ele>307.6</ele><time>2026-05-01T15:10:05.198Z</time></trkpt><trkpt lat="45.6990442" lon="8.74086"><ele>307.0</ele><time>2026-05-01T15:10:06.198Z</time></trkpt><trkpt lat="45.6989652" lon="8.7409788"><ele>306.4</ele><time>2026-05-01T15:10:08.198Z</time></trkpt><trkpt lat="45.698887" lon="8.7410891"><ele>305.79999999999995</ele><time>2026-05-01T15:10:10.198Z</time></trkpt><trkpt lat="45.6988179" lon="8.7412014"><ele>305.2</ele><time>2026-05-01T15:10:12.197Z</time></trkpt><trkpt lat="45.6987438" lon="8.7413236"><ele>304.59999999999997</ele><time>2026-05-01T15:10:14.198Z</time></trkpt><trkpt lat="45.6986874" lon="8.7414317"><ele>304.0</ele><time>2026-05-01T15:10:16.197Z</time></trkpt><trkpt lat="45.6986257" lon="8.7414807"><ele>304.0</ele><time>2026-05-01T15:10:18.198Z</time></trkpt><trkpt lat="45.698559" lon="8.7414962"><ele>304.0</ele><time>2026-05-01T15:10:20.198Z</time></trkpt><trkpt lat="45.6984963" lon="8.7415126"><ele>304.0</ele><time>2026-05-01T15:10:22.197Z</time></trkpt><trkpt lat="45.6984212" lon="8.7415402"><ele>304.0</ele><time>2026-05-01T15:10:24.198Z</time></trkpt><trkpt lat="45.6983396" lon="8.7415609"><ele>304.0</ele><time>2026-05-01T15:10:26.198Z</time></trkpt><trkpt lat="45.6982578" lon="8.7415786"><ele>304.0</ele><time>2026-05-01T15:11:02.198Z</time></trkpt><trkpt lat="45.6981675" lon="8.7415975"><ele>304.0</ele><time>2026-05-01T15:11:04.197Z</time></trkpt><trkpt lat="45.6980831" lon="8.741627"><ele>304.0</ele><time>2026-05-01T15:11:06.197Z</time></trkpt><trkpt lat="45.6980118" lon="8.7416544"><ele>304.0</ele><time>2026-05-01T15:11:08.198Z</time></trkpt><trkpt lat="45.6979503" lon="8.741703"><ele>304.0</ele><time>2026-05-01T15:11:10.198Z</time></trkpt><trkpt lat="45.6978831" lon="8.7417522"><ele>304.0</ele><time>2026-05-01T15:11:12.198Z</time></trkpt><trkpt lat="45.6978088" lon="8.741793"><ele>304.0</ele><time>2026-05-01T15:11:14.197Z</time></trkpt><trkpt lat="45.6977268" lon="8.7418317"><ele>303.57142857142856</ele><time>2026-05-01T15:11:16.198Z</time></trkpt><trkpt lat="45.697646" lon="8.7418615"><ele>303.14285714285717</ele><time>2026-05-01T15:11:18.198Z</time></trkpt><trkpt lat="45.6975852" lon="8.741908"><ele>302.7142857142857</ele><time>2026-05-01T15:11:20.198Z</time></trkpt><trkpt lat="45.6975577" lon="8.7419935"><ele>302.2857142857143</ele><time>2026-05-01T15:11:45.198Z</time></trkpt><trkpt lat="45.6976094" lon="8.7420617"><ele>301.8571428571429</ele><time>2026-05-01T15:11:53.198Z</time></trkpt><trkpt lat="45.6976567" lon="8.7421251"><ele>301.42857142857144</ele><time>2026-05-01T15:11:57.198Z</time></trkpt><trkpt lat="45.6976413" lon="8.7422207"><ele>301.0</ele><time>2026-05-01T15:11:59.198Z</time></trkpt><trkpt lat="45.6976036" lon="8.742369"><ele>301.0</ele><time>2026-05-01T15:12:05.198Z</time></trkpt><trkpt lat="45.6975774" lon="8.7424661"><ele>301.0</ele><time>2026-05-01T15:12:08.198Z</time></trkpt><trkpt lat="45.697613" lon="8.7423474"><ele>301.0</ele><time>2026-05-01T15:12:23.198Z</time></trkpt><trkpt lat="45.6976243" lon="8.742248"><ele>301.0</ele><time>2026-05-01T15:12:26.197Z</time></trkpt><trkpt lat="45.6976622" lon="8.7421667"><ele>301.0</ele><time>2026-05-01T15:12:30.197Z</time></trkpt><trkpt lat="45.6976546" lon="8.742282"><ele>301.0</ele><time>2026-05-01T15:12:35.198Z</time></trkpt><trkpt lat="45.6976438" lon="8.7420872"><ele>301.0</ele><time>2026-05-01T15:12:57.198Z</time></trkpt><trkpt lat="45.697582" lon="8.7420198"><ele>301.0</ele><time>2026-05-01T15:13:02.197Z</time></trkpt><trkpt lat="45.6975766" lon="8.7419298"><ele>301.0</ele><time>2026-05-01T15:13:22.198Z</time></trkpt><trkpt lat="45.6976431" lon="8.7418872"><ele>301.0</ele><time>2026-05-01T15:13:28.197Z</time></trkpt><trkpt lat="45.6977132" lon="8.7419553"><ele>301.0</ele><time>2026-05-01T15:13:31.198Z</time></trkpt><trkpt lat="45.6977703" lon="8.7420134"><ele>301.0</ele><time>2026-05-01T15:13:33.198Z</time></trkpt><trkpt lat="45.697835" lon="8.7420702"><ele>301.0</ele><time>2026-05-01T15:13:35.283Z</time></trkpt><trkpt lat="45.6978768" lon="8.7421522"><ele>300.85714285714283</ele><time>2026-05-01T15:13:37.198Z</time></trkpt><trkpt lat="45.6979079" lon="8.74224"><ele>300.7142857142857</ele><time>2026-05-01T15:13:39.198Z</time></trkpt><trkpt lat="45.6979375" lon="8.7423452"><ele>300.57142857142856</ele><time>2026-05-01T15:13:41.197Z</time></trkpt><trkpt lat="45.6979653" lon="8.742444"><ele>300.42857142857144</ele><time>2026-05-01T15:13:43.198Z</time></trkpt><trkpt lat="45.6979901" lon="8.7425348"><ele>300.2857142857143</ele><time>2026-05-01T15:13:45.197Z</time></trkpt><trkpt lat="45.6979983" lon="8.7426269"><ele>300.1428571428571</ele><time>2026-05-01T15:13:47.198Z</time></trkpt><trkpt lat="45.6979845" lon="8.7427169"><ele>300.0</ele><time>2026-05-01T15:13:49.199Z</time></trkpt><trkpt lat="45.6979701" lon="8.742806"><ele>300.0</ele><time>2026-05-01T15:13:51.177Z</time></trkpt><trkpt lat="45.697969" lon="8.7429336"><ele>300.0</ele><time>2026-05-01T15:13:54.247Z</time></trkpt><trkpt lat="45.6979856" lon="8.7430788"><ele>300.0</ele><time>2026-05-01T15:13:57.198Z</time></trkpt><trkpt lat="45.6979848" lon="8.743189"><ele>300.0</ele><time>2026-05-01T15:13:59.198Z</time></trkpt><trkpt lat="45.6979683" lon="8.7432803"><ele>300.0</ele><time>2026-05-01T15:14:01.197Z</time></trkpt><trkpt lat="45.6979021" lon="8.7433724"><ele>300.0</ele><time>2026-05-01T15:14:03.198Z</time></trkpt><trkpt lat="45.6978452" lon="8.7434607"><ele>300.0</ele><time>2026-05-01T15:14:05.198Z</time></trkpt><trkpt lat="45.6977691" lon="8.7435906"><ele>300.0</ele><time>2026-05-01T15:14:07.197Z</time></trkpt><trkpt lat="45.6977126" lon="8.7437018"><ele>300.0</ele><time>2026-05-01T15:14:09.198Z</time></trkpt><trkpt lat="45.6976565" lon="8.7438257"><ele>300.0</ele><time>2026-05-01T15:14:11.197Z</time></trkpt><trkpt lat="45.69759" lon="8.7439277"><ele>300.0</ele><time>2026-05-01T15:14:13.198Z</time></trkpt><trkpt lat="45.6975309" lon="8.7440273"><ele>299.8</ele><time>2026-05-01T15:14:15.197Z</time></trkpt><trkpt lat="45.6974537" lon="8.7441511"><ele>299.6</ele><time>2026-05-01T15:14:17.197Z</time></trkpt><trkpt lat="45.6973986" lon="8.7442679"><ele>299.4</ele><time>2026-05-01T15:14:19.197Z</time></trkpt><trkpt lat="45.697326" lon="8.7443918"><ele>299.2</ele><time>2026-05-01T15:14:21.198Z</time></trkpt><trkpt lat="45.6972569" lon="8.7444966"><ele>299.0</ele><time>2026-05-01T15:14:23.198Z</time></trkpt><trkpt lat="45.6971869" lon="8.7446163"><ele>299.0</ele><time>2026-05-01T15:14:25.198Z</time></trkpt><trkpt lat="45.6971363" lon="8.7447416"><ele>299.0</ele><time>2026-05-01T15:14:27.198Z</time></trkpt><trkpt lat="45.6970555" lon="8.7448525"><ele>299.0</ele><time>2026-05-01T15:14:29.198Z</time></trkpt><trkpt lat="45.6969889" lon="8.7449706"><ele>299.0</ele><time>2026-05-01T15:14:31.198Z</time></trkpt><trkpt lat="45.6969305" lon="8.7450813"><ele>299.0</ele><time>2026-05-01T15:14:33.198Z</time></trkpt><trkpt lat="45.6968651" lon="8.7451992"><ele>298.59999999999997</ele><time>2026-05-01T15:14:35.197Z</time></trkpt><trkpt lat="45.6967876" lon="8.7452975"><ele>298.2</ele><time>2026-05-01T15:14:37.197Z</time></trkpt><trkpt lat="45.6967207" lon="8.7454115"><ele>297.79999999999995</ele><time>2026-05-01T15:14:39.198Z</time></trkpt><trkpt lat="45.6966773" lon="8.7454862"><ele>297.4</ele><time>2026-05-01T15:14:40.196Z</time></trkpt><trkpt lat="45.6966222" lon="8.7456179"><ele>297.0</ele><time>2026-05-01T15:14:42.198Z</time></trkpt><trkpt lat="45.6965338" lon="8.7457442"><ele>297.0</ele><time>2026-05-01T15:14:44.198Z</time></trkpt><trkpt lat="45.6964742" lon="8.7458883"><ele>297.0</ele><time>2026-05-01T15:14:46.198Z</time></trkpt><trkpt lat="45.6964337" lon="8.7459575"><ele>297.0</ele><time>2026-05-01T15:14:47.198Z</time></trkpt><trkpt lat="45.6963763" lon="8.7460992"><ele>297.0</ele><time>2026-05-01T15:14:49.198Z</time></trkpt><trkpt lat="45.6962683" lon="8.746182"><ele>297.0</ele><time>2026-05-01T15:14:51.198Z</time></trkpt><trkpt lat="45.696207" lon="8.7462341"><ele>297.2</ele><time>2026-05-01T15:14:52.198Z</time></trkpt><trkpt lat="45.696111" lon="8.7463251"><ele>297.4</ele><time>2026-05-01T15:14:54.197Z</time></trkpt><trkpt lat="45.6960371" lon="8.7464244"><ele>297.6</ele><time>2026-05-01T15:14:56.198Z</time></trkpt><trkpt lat="45.6959522" lon="8.7465356"><ele>297.8</ele><time>2026-05-01T15:14:58.198Z</time></trkpt><trkpt lat="45.6958959" lon="8.7465779"><ele>298.0</ele><time>2026-05-01T15:14:59.198Z</time></trkpt><trkpt lat="45.6958178" lon="8.7466903"><ele>298.0</ele><time>2026-05-01T15:15:01.198Z</time></trkpt><trkpt lat="45.6957245" lon="8.7467762"><ele>298.0</ele><time>2026-05-01T15:15:03.197Z</time></trkpt><trkpt lat="45.6956201" lon="8.7468472"><ele>298.0</ele><time>2026-05-01T15:15:05.197Z</time></trkpt><trkpt lat="45.6955351" lon="8.7469446"><ele>298.0</ele><time>2026-05-01T15:15:07.198Z</time></trkpt><trkpt lat="45.6954225" lon="8.7470445"><ele>298.2</ele><time>2026-05-01T15:15:09.198Z</time></trkpt><trkpt lat="45.6953751" lon="8.7471107"><ele>298.4</ele><time>2026-05-01T15:15:10.198Z</time></trkpt><trkpt lat="45.6952781" lon="8.7472008"><ele>298.59999999999997</ele><time>2026-05-01T15:15:12.198Z</time></trkpt><trkpt lat="45.6952083" lon="8.7473105"><ele>298.8</ele><time>2026-05-01T15:15:14.196Z</time></trkpt><trkpt lat="45.6951322" lon="8.7474112"><ele>299.0</ele><time>2026-05-01T15:15:16.198Z</time></trkpt><trkpt lat="45.6950649" lon="8.7474778"><ele>299.2</ele><time>2026-05-01T15:15:18.197Z</time></trkpt><trkpt lat="45.694981" lon="8.7474844"><ele>299.4</ele><time>2026-05-01T15:15:20.198Z</time></trkpt><trkpt lat="45.6949028" lon="8.7475132"><ele>299.6</ele><time>2026-05-01T15:15:22.197Z</time></trkpt><trkpt lat="45.694809" lon="8.7475248"><ele>299.8</ele><time>2026-05-01T15:15:24.197Z</time></trkpt><trkpt lat="45.6947017" lon="8.7475331"><ele>300.0</ele><time>2026-05-01T15:15:26.196Z</time></trkpt><trkpt lat="45.6946166" lon="8.74756"><ele>299.99999999999994</ele><time>2026-05-01T15:15:28.199Z</time></trkpt><trkpt lat="45.6945345" lon="8.7475573"><ele>300.0</ele><time>2026-05-01T15:15:30.197Z</time></trkpt><trkpt lat="45.6944675" lon="8.7475255"><ele>300.0</ele><time>2026-05-01T15:15:34.197Z</time></trkpt><trkpt lat="45.6944028" lon="8.7475465"><ele>300.0</ele><time>2026-05-01T15:15:37.198Z</time></trkpt><trkpt lat="45.6943295" lon="8.7475496"><ele>300.0</ele><time>2026-05-01T15:15:41.198Z</time></trkpt><trkpt lat="45.694272" lon="8.7476047"><ele>299.99999999999994</ele><time>2026-05-01T15:15:44.198Z</time></trkpt><trkpt lat="45.6942126" lon="8.7476755"><ele>300.0</ele><time>2026-05-01T15:15:47.197Z</time></trkpt><trkpt lat="45.6941666" lon="8.7477398"><ele>299.5</ele><time>2026-05-01T15:15:49.198Z</time></trkpt><trkpt lat="45.6941047" lon="8.7477989"><ele>299.0</ele><time>2026-05-01T15:15:51.198Z</time></trkpt><trkpt lat="45.6940412" lon="8.7478334"><ele>298.5</ele><time>2026-05-01T15:15:53.198Z</time></trkpt><trkpt lat="45.6939527" lon="8.7478559"><ele>298.0</ele><time>2026-05-01T15:15:55.197Z</time></trkpt><trkpt lat="45.6938524" lon="8.7478819"><ele>297.5</ele><time>2026-05-01T15:15:57.199Z</time></trkpt><trkpt lat="45.6937602" lon="8.7478964"><ele>297.0</ele><time>2026-05-01T15:15:59.197Z</time></trkpt><trkpt lat="45.6936625" lon="8.7478747"><ele>296.1666666666667</ele><time>2026-05-01T15:16:01.197Z</time></trkpt><trkpt lat="45.693575" lon="8.7478753"><ele>295.3333333333333</ele><time>2026-05-01T15:16:03.198Z</time></trkpt><trkpt lat="45.6934915" lon="8.7479383"><ele>294.5</ele><time>2026-05-01T15:16:05.198Z</time></trkpt><trkpt lat="45.6934091" lon="8.747985"><ele>293.66666666666663</ele><time>2026-05-01T15:16:07.198Z</time></trkpt><trkpt lat="45.6933356" lon="8.7480539"><ele>292.8333333333333</ele><time>2026-05-01T15:16:09.198Z</time></trkpt><trkpt lat="45.6932762" lon="8.7481437"><ele>292.0</ele><time>2026-05-01T15:16:11.198Z</time></trkpt><trkpt lat="45.6932112" lon="8.7482357"><ele>292.0</ele><time>2026-05-01T15:16:13.197Z</time></trkpt><trkpt lat="45.6931526" lon="8.748339"><ele>292.0</ele><time>2026-05-01T15:16:15.198Z</time></trkpt><trkpt lat="45.693082" lon="8.7484289"><ele>292.0</ele><time>2026-05-01T15:16:17.197Z</time></trkpt><trkpt lat="45.6930259" lon="8.748518"><ele>292.0</ele><time>2026-05-01T15:16:19.198Z</time></trkpt><trkpt lat="45.6929694" lon="8.7486049"><ele>292.0</ele><time>2026-05-01T15:16:21.198Z</time></trkpt><trkpt lat="45.6929184" lon="8.7486903"><ele>292.0</ele><time>2026-05-01T15:16:23.198Z</time></trkpt><trkpt lat="45.6928668" lon="8.7487525"><ele>291.3333333333333</ele><time>2026-05-01T15:16:25.198Z</time></trkpt><trkpt lat="45.6928101" lon="8.7488126"><ele>290.66666666666663</ele><time>2026-05-01T15:16:30.198Z</time></trkpt><trkpt lat="45.6927476" lon="8.7488902"><ele>290.0</ele><time>2026-05-01T15:16:33.198Z</time></trkpt><trkpt lat="45.6926775" lon="8.7489712"><ele>289.3333333333333</ele><time>2026-05-01T15:16:36.197Z</time></trkpt><trkpt lat="45.6926179" lon="8.7490131"><ele>288.6666666666667</ele><time>2026-05-01T15:16:38.198Z</time></trkpt><trkpt lat="45.6925488" lon="8.7490519"><ele>288.0</ele><time>2026-05-01T15:16:40.198Z</time></trkpt><trkpt lat="45.6924769" lon="8.7491017"><ele>287.1666666666667</ele><time>2026-05-01T15:16:42.198Z</time></trkpt><trkpt lat="45.6924015" lon="8.7491537"><ele>286.3333333333333</ele><time>2026-05-01T15:16:44.198Z</time></trkpt><trkpt lat="45.692325" lon="8.7492021"><ele>285.5</ele><time>2026-05-01T15:16:46.197Z</time></trkpt><trkpt lat="45.6922565" lon="8.7492621"><ele>284.66666666666663</ele><time>2026-05-01T15:16:48.197Z</time></trkpt><trkpt lat="45.6921926" lon="8.7493196"><ele>283.8333333333333</ele><time>2026-05-01T15:16:50.198Z</time></trkpt><trkpt lat="45.6921231" lon="8.7493654"><ele>283.0</ele><time>2026-05-01T15:16:52.198Z</time></trkpt><trkpt lat="45.6920574" lon="8.7494204"><ele>283.0</ele><time>2026-05-01T15:16:54.197Z</time></trkpt><trkpt lat="45.6919895" lon="8.7494898"><ele>283.0</ele><time>2026-05-01T15:16:56.198Z</time></trkpt><trkpt lat="45.6919432" lon="8.7495765"><ele>283.0</ele><time>2026-05-01T15:16:58.198Z</time></trkpt><trkpt lat="45.6919341" lon="8.749677"><ele>283.0</ele><time>2026-05-01T15:17:00.198Z</time></trkpt><trkpt lat="45.6919179" lon="8.7497661"><ele>283.0</ele><time>2026-05-01T15:17:02.199Z</time></trkpt><trkpt lat="45.6919124" lon="8.7499058"><ele>283.0</ele><time>2026-05-01T15:17:05.198Z</time></trkpt><trkpt lat="45.6918875" lon="8.75003"><ele>283.0</ele><time>2026-05-01T15:17:07.197Z</time></trkpt><trkpt lat="45.6918315" lon="8.7501363"><ele>283.0</ele><time>2026-05-01T15:17:09.197Z</time></trkpt><trkpt lat="45.6918511" lon="8.7500183"><ele>283.0</ele><time>2026-05-01T15:18:05.198Z</time></trkpt><trkpt lat="45.6918765" lon="8.7499002"><ele>283.0</ele><time>2026-05-01T15:18:07.198Z</time></trkpt><trkpt lat="45.6919029" lon="8.749769"><ele>283.0</ele><time>2026-05-01T15:18:09.198Z</time></trkpt><trkpt lat="45.6919251" lon="8.749642"><ele>283.0</ele><time>2026-05-01T15:18:11.198Z</time></trkpt><trkpt lat="45.6919633" lon="8.7495241"><ele>283.0</ele><time>2026-05-01T15:18:13.198Z</time></trkpt><trkpt lat="45.6920208" lon="8.7494206"><ele>283.0</ele><time>2026-05-01T15:18:15.198Z</time></trkpt><trkpt lat="45.6921027" lon="8.7493465"><ele>283.0</ele><time>2026-05-01T15:18:17.197Z</time></trkpt><trkpt lat="45.6921919" lon="8.7492869"><ele>283.0</ele><time>2026-05-01T15:18:19.198Z</time></trkpt><trkpt lat="45.6922814" lon="8.7492297"><ele>283.0</ele><time>2026-05-01T15:18:21.197Z</time></trkpt><trkpt lat="45.6923713" lon="8.7491693"><ele>283.0</ele><time>2026-05-01T15:18:23.198Z</time></trkpt><trkpt lat="45.6924583" lon="8.7491066"><ele>283.0</ele><time>2026-05-01T15:18:25.198Z</time></trkpt><trkpt lat="45.6925415" lon="8.7490158"><ele>283.0</ele><time>2026-05-01T15:18:27.198Z</time></trkpt><trkpt lat="45.6926267" lon="8.7489348"><ele>283.0</ele><time>2026-05-01T15:18:29.197Z</time></trkpt><trkpt lat="45.6927" lon="8.748865"><ele>283.8</ele><time>2026-05-01T15:18:31.198Z</time></trkpt><trkpt lat="45.6927828" lon="8.7489163"><ele>284.6</ele><time>2026-05-01T15:18:33.199Z</time></trkpt><trkpt lat="45.6928267" lon="8.7490548"><ele>285.4</ele><time>2026-05-01T15:18:35.197Z</time></trkpt><trkpt lat="45.6928675" lon="8.7491925"><ele>286.2</ele><time>2026-05-01T15:18:37.198Z</time></trkpt><trkpt lat="45.6929057" lon="8.7493307"><ele>287.0</ele><time>2026-05-01T15:18:39.197Z</time></trkpt><trkpt lat="45.6929395" lon="8.7494749"><ele>287.0</ele><time>2026-05-01T15:18:41.198Z</time></trkpt><trkpt lat="45.6929679" lon="8.7496217"><ele>287.0</ele><time>2026-05-01T15:18:43.197Z</time></trkpt><trkpt lat="45.692998" lon="8.7497718"><ele>287.0</ele><time>2026-05-01T15:18:45.197Z</time></trkpt><trkpt lat="45.6930306" lon="8.7499235"><ele>287.0</ele><time>2026-05-01T15:18:47.197Z</time></trkpt><trkpt lat="45.6930586" lon="8.7500782"><ele>287.0</ele><time>2026-05-01T15:18:49.198Z</time></trkpt><trkpt lat="45.6930193" lon="8.7502329"><ele>287.25</ele><time>2026-05-01T15:18:51.197Z</time></trkpt><trkpt lat="45.6929784" lon="8.7503884"><ele>287.5</ele><time>2026-05-01T15:18:53.199Z</time></trkpt><trkpt lat="45.6929837" lon="8.7505613"><ele>287.75</ele><time>2026-05-01T15:18:55.198Z</time></trkpt><trkpt lat="45.693002" lon="8.7507326"><ele>288.0</ele><time>2026-05-01T15:18:57.199Z</time></trkpt><trkpt lat="45.6930278" lon="8.7508903"><ele>288.0</ele><time>2026-05-01T15:18:59.197Z</time></trkpt><trkpt lat="45.6930522" lon="8.7510358"><ele>288.0</ele><time>2026-05-01T15:19:01.197Z</time></trkpt><trkpt lat="45.693065" lon="8.7511651"><ele>288.0</ele><time>2026-05-01T15:19:03.197Z</time></trkpt><trkpt lat="45.6930397" lon="8.7513008"><ele>288.0</ele><time>2026-05-01T15:19:05.197Z</time></trkpt><trkpt lat="45.6930018" lon="8.7514462"><ele>288.0</ele><time>2026-05-01T15:19:07.198Z</time></trkpt><trkpt lat="45.6929275" lon="8.7515656"><ele>287.8</ele><time>2026-05-01T15:19:09.197Z</time></trkpt><trkpt lat="45.6928302" lon="8.7516432"><ele>287.6</ele><time>2026-05-01T15:19:11.197Z</time></trkpt><trkpt lat="45.6927722" lon="8.7516875"><ele>287.4</ele><time>2026-05-01T15:19:12.198Z</time></trkpt><trkpt lat="45.6926691" lon="8.751747"><ele>287.2</ele><time>2026-05-01T15:19:14.196Z</time></trkpt><trkpt lat="45.6925639" lon="8.7518224"><ele>287.0</ele><time>2026-05-01T15:19:16.196Z</time></trkpt><trkpt lat="45.6924625" lon="8.7518934"><ele>287.6</ele><time>2026-05-01T15:19:18.197Z</time></trkpt><trkpt lat="45.6923481" lon="8.7519657"><ele>288.2</ele><time>2026-05-01T15:19:20.197Z</time></trkpt><trkpt lat="45.6922918" lon="8.7520097"><ele>288.8</ele><time>2026-05-01T15:19:21.198Z</time></trkpt><trkpt lat="45.6921952" lon="8.7520736"><ele>289.4</ele><time>2026-05-01T15:19:23.198Z</time></trkpt><trkpt lat="45.692088" lon="8.7521424"><ele>290.0</ele><time>2026-05-01T15:19:25.198Z</time></trkpt><trkpt lat="45.6919948" lon="8.7522002"><ele>289.4</ele><time>2026-05-01T15:19:27.197Z</time></trkpt><trkpt lat="45.6918991" lon="8.7522993"><ele>288.8</ele><time>2026-05-01T15:19:29.198Z</time></trkpt><trkpt lat="45.6918068" lon="8.7523768"><ele>288.2</ele><time>2026-05-01T15:19:31.199Z</time></trkpt><trkpt lat="45.6917417" lon="8.7523818"><ele>287.6</ele><time>2026-05-01T15:19:32.196Z</time></trkpt><trkpt lat="45.6916497" lon="8.7524637"><ele>287.0</ele><time>2026-05-01T15:19:34.198Z</time></trkpt><trkpt lat="45.6915908" lon="8.7525011"><ele>287.0</ele><time>2026-05-01T15:19:35.198Z</time></trkpt><trkpt lat="45.6914808" lon="8.7525762"><ele>287.0</ele><time>2026-05-01T15:19:37.197Z</time></trkpt><trkpt lat="45.6913958" lon="8.7526425"><ele>287.0</ele><time>2026-05-01T15:19:39.197Z</time></trkpt><trkpt lat="45.6913237" lon="8.7526846"><ele>287.0</ele><time>2026-05-01T15:19:40.198Z</time></trkpt><trkpt lat="45.6912303" lon="8.7527644"><ele>287.0</ele><time>2026-05-01T15:19:42.197Z</time></trkpt><trkpt lat="45.691126" lon="8.7528544"><ele>286.8</ele><time>2026-05-01T15:19:44.196Z</time></trkpt><trkpt lat="45.6910331" lon="8.7529483"><ele>286.6</ele><time>2026-05-01T15:19:46.197Z</time></trkpt><trkpt lat="45.6909341" lon="8.7530444"><ele>286.40000000000003</ele><time>2026-05-01T15:19:48.198Z</time></trkpt><trkpt lat="45.6908544" lon="8.7531533"><ele>286.2</ele><time>2026-05-01T15:19:50.197Z</time></trkpt><trkpt lat="45.6907756" lon="8.7532438"><ele>286.0</ele><time>2026-05-01T15:19:52.198Z</time></trkpt><trkpt lat="45.6906938" lon="8.7533319"><ele>286.0</ele><time>2026-05-01T15:19:54.198Z</time></trkpt><trkpt lat="45.6906105" lon="8.7534325"><ele>286.0</ele><time>2026-05-01T15:19:56.197Z</time></trkpt><trkpt lat="45.6905172" lon="8.7535096"><ele>286.0</ele><time>2026-05-01T15:19:58.197Z</time></trkpt><trkpt lat="45.6904129" lon="8.7535655"><ele>286.0</ele><time>2026-05-01T15:20:00.196Z</time></trkpt><trkpt lat="45.690307" lon="8.7536247"><ele>286.0</ele><time>2026-05-01T15:20:02.197Z</time></trkpt><trkpt lat="45.6902015" lon="8.753687"><ele>285.8</ele><time>2026-05-01T15:20:04.197Z</time></trkpt><trkpt lat="45.6901148" lon="8.7537467"><ele>285.6</ele><time>2026-05-01T15:20:06.197Z</time></trkpt><trkpt lat="45.6900541" lon="8.753779"><ele>285.4</ele><time>2026-05-01T15:20:08.197Z</time></trkpt><trkpt lat="45.6899383" lon="8.753822"><ele>285.2</ele><time>2026-05-01T15:20:10.197Z</time></trkpt><trkpt lat="45.6898442" lon="8.7539247"><ele>285.0</ele><time>2026-05-01T15:20:12.197Z</time></trkpt><trkpt lat="45.6897495" lon="8.7539793"><ele>285.0</ele><time>2026-05-01T15:20:14.196Z</time></trkpt><trkpt lat="45.6896455" lon="8.7540487"><ele>285.0</ele><time>2026-05-01T15:20:16.197Z</time></trkpt><trkpt lat="45.6895464" lon="8.7541155"><ele>285.0</ele><time>2026-05-01T15:20:18.196Z</time></trkpt><trkpt lat="45.6894493" lon="8.7541948"><ele>285.0</ele><time>2026-05-01T15:20:20.197Z</time></trkpt><trkpt lat="45.6893576" lon="8.7542689"><ele>285.0</ele><time>2026-05-01T15:20:22.197Z</time></trkpt><trkpt lat="45.689266" lon="8.7543293"><ele>285.8</ele><time>2026-05-01T15:20:24.198Z</time></trkpt><trkpt lat="45.689177" lon="8.7543877"><ele>286.6</ele><time>2026-05-01T15:20:26.196Z</time></trkpt><trkpt lat="45.6891039" lon="8.7544264"><ele>287.4</ele><time>2026-05-01T15:20:28.197Z</time></trkpt><trkpt lat="45.6890328" lon="8.7544832"><ele>288.2</ele><time>2026-05-01T15:20:30.196Z</time></trkpt><trkpt lat="45.6889524" lon="8.7545608"><ele>289.0</ele><time>2026-05-01T15:20:32.197Z</time></trkpt><trkpt lat="45.6888596" lon="8.7546538"><ele>289.0</ele><time>2026-05-01T15:20:34.197Z</time></trkpt><trkpt lat="45.6887667" lon="8.7547439"><ele>289.0</ele><time>2026-05-01T15:20:36.196Z</time></trkpt><trkpt lat="45.6886656" lon="8.7548338"><ele>289.0</ele><time>2026-05-01T15:20:38.197Z</time></trkpt><trkpt lat="45.6885594" lon="8.7549149"><ele>289.0</ele><time>2026-05-01T15:20:40.196Z</time></trkpt><trkpt lat="45.6884652" lon="8.7550001"><ele>288.8</ele><time>2026-05-01T15:20:42.197Z</time></trkpt><trkpt lat="45.6883749" lon="8.7550964"><ele>288.59999999999997</ele><time>2026-05-01T15:20:44.197Z</time></trkpt><trkpt lat="45.6882824" lon="8.7551983"><ele>288.4</ele><time>2026-05-01T15:20:46.197Z</time></trkpt><trkpt lat="45.6881797" lon="8.7552768"><ele>288.2</ele><time>2026-05-01T15:20:48.196Z</time></trkpt><trkpt lat="45.688106" lon="8.7553293"><ele>288.0</ele><time>2026-05-01T15:20:50.197Z</time></trkpt><trkpt lat="45.6880143" lon="8.7553954"><ele>288.0</ele><time>2026-05-01T15:20:52.197Z</time></trkpt><trkpt lat="45.6879302" lon="8.7554581"><ele>288.0</ele><time>2026-05-01T15:20:54.197Z</time></trkpt><trkpt lat="45.6878334" lon="8.7555216"><ele>288.0</ele><time>2026-05-01T15:20:56.198Z</time></trkpt><trkpt lat="45.6877707" lon="8.7555626"><ele>288.0</ele><time>2026-05-01T15:20:57.197Z</time></trkpt><trkpt lat="45.6876645" lon="8.7556645"><ele>288.0</ele><time>2026-05-01T15:20:59.197Z</time></trkpt><trkpt lat="45.6876127" lon="8.7557161"><ele>288.0</ele><time>2026-05-01T15:21:00.197Z</time></trkpt><trkpt lat="45.6875122" lon="8.7557977"><ele>288.0</ele><time>2026-05-01T15:21:02.197Z</time></trkpt><trkpt lat="45.6874171" lon="8.7558979"><ele>288.0</ele><time>2026-05-01T15:21:04.196Z</time></trkpt><trkpt lat="45.6873297" lon="8.7560032"><ele>288.0</ele><time>2026-05-01T15:21:06.198Z</time></trkpt><trkpt lat="45.6872479" lon="8.7561074"><ele>287.8</ele><time>2026-05-01T15:21:08.197Z</time></trkpt><trkpt lat="45.6871623" lon="8.7562001"><ele>287.6</ele><time>2026-05-01T15:21:10.198Z</time></trkpt><trkpt lat="45.6870758" lon="8.7562953"><ele>287.4</ele><time>2026-05-01T15:21:12.197Z</time></trkpt><trkpt lat="45.6869936" lon="8.7563866"><ele>287.2</ele><time>2026-05-01T15:21:14.197Z</time></trkpt><trkpt lat="45.6869271" lon="8.7564812"><ele>287.0</ele><time>2026-05-01T15:21:16.196Z</time></trkpt><trkpt lat="45.6868562" lon="8.756592"><ele>287.0</ele><time>2026-05-01T15:21:18.197Z</time></trkpt><trkpt lat="45.686774" lon="8.7566985"><ele>287.0</ele><time>2026-05-01T15:21:20.197Z</time></trkpt><trkpt lat="45.6866916" lon="8.7568046"><ele>287.0</ele><time>2026-05-01T15:21:22.197Z</time></trkpt><trkpt lat="45.6866114" lon="8.7568952"><ele>287.0</ele><time>2026-05-01T15:21:24.196Z</time></trkpt><trkpt lat="45.6865236" lon="8.7569974"><ele>287.0</ele><time>2026-05-01T15:21:26.197Z</time></trkpt><trkpt lat="45.6864482" lon="8.7570915"><ele>286.8</ele><time>2026-05-01T15:21:28.197Z</time></trkpt><trkpt lat="45.6863755" lon="8.7571865"><ele>286.6</ele><time>2026-05-01T15:21:30.198Z</time></trkpt><trkpt lat="45.6863052" lon="8.757288"><ele>286.40000000000003</ele><time>2026-05-01T15:21:32.197Z</time></trkpt><trkpt lat="45.686234" lon="8.7574085"><ele>286.2</ele><time>2026-05-01T15:21:34.197Z</time></trkpt><trkpt lat="45.6861581" lon="8.7575232"><ele>286.0</ele><time>2026-05-01T15:21:36.196Z</time></trkpt><trkpt lat="45.6860824" lon="8.7576356"><ele>284.8</ele><time>2026-05-01T15:21:38.197Z</time></trkpt><trkpt lat="45.6859984" lon="8.7577369"><ele>283.6</ele><time>2026-05-01T15:21:40.196Z</time></trkpt><trkpt lat="45.6859176" lon="8.7578284"><ele>282.4</ele><time>2026-05-01T15:21:42.197Z</time></trkpt><trkpt lat="45.6858332" lon="8.7579079"><ele>281.2</ele><time>2026-05-01T15:21:44.197Z</time></trkpt><trkpt lat="45.6857538" lon="8.7579761"><ele>280.0</ele><time>2026-05-01T15:21:46.197Z</time></trkpt><trkpt lat="45.6856742" lon="8.7580633"><ele>280.0</ele><time>2026-05-01T15:21:48.197Z</time></trkpt><trkpt lat="45.6855938" lon="8.758149"><ele>280.0</ele><time>2026-05-01T15:21:50.196Z</time></trkpt><trkpt lat="45.6855213" lon="8.7582349"><ele>280.0</ele><time>2026-05-01T15:21:52.196Z</time></trkpt><trkpt lat="45.6854465" lon="8.7583353"><ele>280.0</ele><time>2026-05-01T15:21:54.197Z</time></trkpt><trkpt lat="45.6853836" lon="8.7584573"><ele>280.0</ele><time>2026-05-01T15:21:56.197Z</time></trkpt><trkpt lat="45.6853291" lon="8.7585849"><ele>279.6</ele><time>2026-05-01T15:21:58.197Z</time></trkpt><trkpt lat="45.6852674" lon="8.7587101"><ele>279.2</ele><time>2026-05-01T15:22:00.197Z</time></trkpt><trkpt lat="45.6851895" lon="8.7588148"><ele>278.8</ele><time>2026-05-01T15:22:02.198Z</time></trkpt><trkpt lat="45.6850954" lon="8.7588786"><ele>278.4</ele><time>2026-05-01T15:22:04.197Z</time></trkpt><trkpt lat="45.6849963" lon="8.7589097"><ele>278.0</ele><time>2026-05-01T15:22:06.197Z</time></trkpt><trkpt lat="45.6849044" lon="8.7589471"><ele>277.6</ele><time>2026-05-01T15:22:08.197Z</time></trkpt><trkpt lat="45.6848247" lon="8.7590208"><ele>277.20000000000005</ele><time>2026-05-01T15:22:10.196Z</time></trkpt><trkpt lat="45.6847573" lon="8.7591018"><ele>276.8</ele><time>2026-05-01T15:22:12.197Z</time></trkpt><trkpt lat="45.684688" lon="8.7591837"><ele>276.40000000000003</ele><time>2026-05-01T15:22:14.197Z</time></trkpt><trkpt lat="45.6846187" lon="8.7592687"><ele>276.0</ele><time>2026-05-01T15:22:16.196Z</time></trkpt><trkpt lat="45.684543" lon="8.7593425"><ele>276.0</ele><time>2026-05-01T15:22:18.197Z</time></trkpt><trkpt lat="45.6844836" lon="8.7593737"><ele>276.0</ele><time>2026-05-01T15:22:22.197Z</time></trkpt><trkpt lat="45.6845392" lon="8.7594311"><ele>276.0</ele><time>2026-05-01T15:22:30.197Z</time></trkpt><trkpt lat="45.6846044" lon="8.7593571"><ele>276.0</ele><time>2026-05-01T15:22:33.196Z</time></trkpt><trkpt lat="45.6846423" lon="8.7592566"><ele>276.0</ele><time>2026-05-01T15:22:36.196Z</time></trkpt><trkpt lat="45.6846884" lon="8.7591764"><ele>276.0</ele><time>2026-05-01T15:22:39.197Z</time></trkpt><trkpt lat="45.6847279" lon="8.7590941"><ele>276.0</ele><time>2026-05-01T15:22:44.197Z</time></trkpt><trkpt lat="45.6847909" lon="8.7591077"><ele>276.0</ele><time>2026-05-01T15:22:51.197Z</time></trkpt><trkpt lat="45.6847154" lon="8.7591356"><ele>276.0</ele><time>2026-05-01T15:23:19.196Z</time></trkpt><trkpt lat="45.6846689" lon="8.7591988"><ele>276.0</ele><time>2026-05-01T15:23:23.197Z</time></trkpt><trkpt lat="45.6846075" lon="8.7592345"><ele>276.0</ele><time>2026-05-01T15:23:31.197Z</time></trkpt><trkpt lat="45.6845451" lon="8.7593038"><ele>276.0</ele><time>2026-05-01T15:24:18.195Z</time></trkpt><trkpt lat="45.6844716" lon="8.759382"><ele>276.0</ele><time>2026-05-01T15:24:21.196Z</time></trkpt><trkpt lat="45.6844158" lon="8.7594344"><ele>276.0</ele><time>2026-05-01T15:24:23.197Z</time></trkpt><trkpt lat="45.6843563" lon="8.7595029"><ele>276.3333333333333</ele><time>2026-05-01T15:24:25.197Z</time></trkpt><trkpt lat="45.6842953" lon="8.7595752"><ele>276.6666666666667</ele><time>2026-05-01T15:24:27.197Z</time></trkpt><trkpt lat="45.6842585" lon="8.7596985"><ele>277.0</ele><time>2026-05-01T15:24:30.196Z</time></trkpt><trkpt lat="45.6842289" lon="8.7598043"><ele>277.33333333333337</ele><time>2026-05-01T15:24:32.196Z</time></trkpt><trkpt lat="45.6841952" lon="8.7598901"><ele>277.6666666666667</ele><time>2026-05-01T15:24:34.196Z</time></trkpt><trkpt lat="45.6841684" lon="8.7599812"><ele>278.0</ele><time>2026-05-01T15:24:36.197Z</time></trkpt><trkpt lat="45.684109" lon="8.7600636"><ele>278.0</ele><time>2026-05-01T15:24:38.196Z</time></trkpt><trkpt lat="45.6840806" lon="8.7601635"><ele>278.0</ele><time>2026-05-01T15:24:54.197Z</time></trkpt><trkpt lat="45.6840494" lon="8.7602456"><ele>278.0</ele><time>2026-05-01T15:25:04.197Z</time></trkpt><trkpt lat="45.6840054" lon="8.7603193"><ele>278.0</ele><time>2026-05-01T15:25:08.196Z</time></trkpt><trkpt lat="45.6839454" lon="8.7604159"><ele>278.0</ele><time>2026-05-01T15:25:11.195Z</time></trkpt><trkpt lat="45.6838959" lon="8.7604906"><ele>278.0</ele><time>2026-05-01T15:25:13.197Z</time></trkpt><trkpt lat="45.6838539" lon="8.7605688"><ele>278.0</ele><time>2026-05-01T15:25:15.196Z</time></trkpt><trkpt lat="45.6838242" lon="8.7606495"><ele>278.1666666666667</ele><time>2026-05-01T15:25:17.195Z</time></trkpt><trkpt lat="45.6837788" lon="8.7607565"><ele>278.33333333333337</ele><time>2026-05-01T15:25:20.196Z</time></trkpt><trkpt lat="45.6837311" lon="8.7608229"><ele>278.5</ele><time>2026-05-01T15:25:22.197Z</time></trkpt><trkpt lat="45.6836662" lon="8.7608989"><ele>278.6666666666667</ele><time>2026-05-01T15:25:25.196Z</time></trkpt><trkpt lat="45.6836219" lon="8.7609719"><ele>278.8333333333333</ele><time>2026-05-01T15:25:27.198Z</time></trkpt><trkpt lat="45.6835643" lon="8.7610511"><ele>279.0</ele><time>2026-05-01T15:25:29.196Z</time></trkpt><trkpt lat="45.6835102" lon="8.7611207"><ele>279.8333333333333</ele><time>2026-05-01T15:25:31.198Z</time></trkpt><trkpt lat="45.6834562" lon="8.7611862"><ele>280.6666666666667</ele><time>2026-05-01T15:25:33.196Z</time></trkpt><trkpt lat="45.6833901" lon="8.7612705"><ele>281.5</ele><time>2026-05-01T15:25:35.197Z</time></trkpt><trkpt lat="45.6833369" lon="8.7613551"><ele>282.33333333333337</ele><time>2026-05-01T15:25:37.196Z</time></trkpt><trkpt lat="45.6832752" lon="8.7614411"><ele>283.1666666666667</ele><time>2026-05-01T15:25:39.196Z</time></trkpt><trkpt lat="45.6832049" lon="8.7615194"><ele>284.0</ele><time>2026-05-01T15:25:41.197Z</time></trkpt><trkpt lat="45.6831401" lon="8.7616226"><ele>284.0</ele><time>2026-05-01T15:25:43.196Z</time></trkpt><trkpt lat="45.6830937" lon="8.761744"><ele>284.0</ele><time>2026-05-01T15:25:45.196Z</time></trkpt><trkpt lat="45.6830515" lon="8.7618619"><ele>284.0</ele><time>2026-05-01T15:25:47.197Z</time></trkpt><trkpt lat="45.6829912" lon="8.7619514"><ele>284.0</ele><time>2026-05-01T15:25:49.198Z</time></trkpt><trkpt lat="45.682929" lon="8.7620322"><ele>284.0</ele><time>2026-05-01T15:25:51.196Z</time></trkpt><trkpt lat="45.6828686" lon="8.7621029"><ele>284.0</ele><time>2026-05-01T15:25:53.198Z</time></trkpt><trkpt lat="45.6827857" lon="8.7621653"><ele>285.33333333333337</ele><time>2026-05-01T15:25:56.196Z</time></trkpt><trkpt lat="45.6827294" lon="8.7622187"><ele>286.6666666666667</ele><time>2026-05-01T15:25:58.197Z</time></trkpt><trkpt lat="45.6826618" lon="8.762277"><ele>288.0</ele><time>2026-05-01T15:26:00.196Z</time></trkpt><trkpt lat="45.6825956" lon="8.7623396"><ele>289.3333333333333</ele><time>2026-05-01T15:26:02.197Z</time></trkpt><trkpt lat="45.6825388" lon="8.7624006"><ele>290.66666666666663</ele><time>2026-05-01T15:26:04.198Z</time></trkpt><trkpt lat="45.6824808" lon="8.762457"><ele>292.0</ele><time>2026-05-01T15:26:06.197Z</time></trkpt><trkpt lat="45.6824216" lon="8.7625587"><ele>292.0</ele><time>2026-05-01T15:26:09.197Z</time></trkpt><trkpt lat="45.6823638" lon="8.7626535"><ele>292.0</ele><time>2026-05-01T15:26:12.197Z</time></trkpt><trkpt lat="45.6823052" lon="8.7627494"><ele>292.0</ele><time>2026-05-01T15:26:15.197Z</time></trkpt><trkpt lat="45.6822549" lon="8.7628342"><ele>292.0</ele><time>2026-05-01T15:26:18.196Z</time></trkpt><trkpt lat="45.6822115" lon="8.7629185"><ele>292.0</ele><time>2026-05-01T15:26:21.197Z</time></trkpt><trkpt lat="45.6821748" lon="8.7630158"><ele>292.0</ele><time>2026-05-01T15:26:24.196Z</time></trkpt><trkpt lat="45.6821322" lon="8.7631199"><ele>292.85714285714283</ele><time>2026-05-01T15:26:27.197Z</time></trkpt><trkpt lat="45.6821041" lon="8.7632032"><ele>293.7142857142857</ele><time>2026-05-01T15:26:30.197Z</time></trkpt><trkpt lat="45.6820829" lon="8.7633085"><ele>294.57142857142856</ele><time>2026-05-01T15:26:33.197Z</time></trkpt><trkpt lat="45.6820431" lon="8.7634056"><ele>295.42857142857144</ele><time>2026-05-01T15:26:36.197Z</time></trkpt><trkpt lat="45.6820234" lon="8.7634993"><ele>296.2857142857143</ele><time>2026-05-01T15:26:40.197Z</time></trkpt><trkpt lat="45.6820221" lon="8.763609"><ele>297.1428571428571</ele><time>2026-05-01T15:26:44.196Z</time></trkpt><trkpt lat="45.6820061" lon="8.7637161"><ele>298.0</ele><time>2026-05-01T15:26:48.197Z</time></trkpt><trkpt lat="45.6820011" lon="8.7638396"><ele>298.16666666666663</ele><time>2026-05-01T15:26:52.197Z</time></trkpt><trkpt lat="45.6819842" lon="8.7639736"><ele>298.3333333333333</ele><time>2026-05-01T15:26:55.197Z</time></trkpt><trkpt lat="45.6819677" lon="8.7640691"><ele>298.5</ele><time>2026-05-01T15:26:57.197Z</time></trkpt><trkpt lat="45.6819511" lon="8.7641639"><ele>298.6666666666667</ele><time>2026-05-01T15:26:59.196Z</time></trkpt><trkpt lat="45.6819243" lon="8.7642929"><ele>298.83333333333337</ele><time>2026-05-01T15:27:02.196Z</time></trkpt><trkpt lat="45.6819075" lon="8.7644111"><ele>299.0</ele><time>2026-05-01T15:27:05.197Z</time></trkpt><trkpt lat="45.6818934" lon="8.7645286"><ele>299.0</ele><time>2026-05-01T15:27:08.196Z</time></trkpt><trkpt lat="45.6818777" lon="8.7646297"><ele>299.0</ele><time>2026-05-01T15:27:11.198Z</time></trkpt><trkpt lat="45.6818729" lon="8.7647385"><ele>299.0</ele><time>2026-05-01T15:27:14.196Z</time></trkpt><trkpt lat="45.681841" lon="8.7648315"><ele>299.0</ele><time>2026-05-01T15:27:18.197Z</time></trkpt><trkpt lat="45.681813" lon="8.7649223"><ele>299.0</ele><time>2026-05-01T15:27:21.196Z</time></trkpt><trkpt lat="45.6817805" lon="8.7650269"><ele>299.0</ele><time>2026-05-01T15:27:24.197Z</time></trkpt><trkpt lat="45.6817484" lon="8.7651133"><ele>299.0</ele><time>2026-05-01T15:27:27.197Z</time></trkpt><trkpt lat="45.6817089" lon="8.7651872"><ele>298.85714285714283</ele><time>2026-05-01T15:27:30.196Z</time></trkpt><trkpt lat="45.6816822" lon="8.7652853"><ele>298.7142857142857</ele><time>2026-05-01T15:27:34.197Z</time></trkpt><trkpt lat="45.6816391" lon="8.7653664"><ele>298.57142857142856</ele><time>2026-05-01T15:27:37.196Z</time></trkpt><trkpt lat="45.6816005" lon="8.7654524"><ele>298.42857142857144</ele><time>2026-05-01T15:27:39.197Z</time></trkpt><trkpt lat="45.6815597" lon="8.7655277"><ele>298.2857142857143</ele><time>2026-05-01T15:27:41.196Z</time></trkpt><trkpt lat="45.6815167" lon="8.7656049"><ele>298.1428571428571</ele><time>2026-05-01T15:27:43.197Z</time></trkpt><trkpt lat="45.6814945" lon="8.7656965"><ele>298.0</ele><time>2026-05-01T15:27:45.197Z</time></trkpt><trkpt lat="45.6814661" lon="8.7657809"><ele>298.0</ele><time>2026-05-01T15:27:47.198Z</time></trkpt><trkpt lat="45.6814453" lon="8.7658762"><ele>298.0</ele><time>2026-05-01T15:27:49.197Z</time></trkpt><trkpt lat="45.6814198" lon="8.7659698"><ele>298.0</ele><time>2026-05-01T15:27:51.197Z</time></trkpt><trkpt lat="45.6813938" lon="8.7660685"><ele>298.0</ele><time>2026-05-01T15:27:53.197Z</time></trkpt><trkpt lat="45.6813702" lon="8.7661896"><ele>298.0</ele><time>2026-05-01T15:27:56.197Z</time></trkpt><trkpt lat="45.6813639" lon="8.7662793"><ele>298.0</ele><time>2026-05-01T15:27:58.197Z</time></trkpt><trkpt lat="45.6813267" lon="8.7663979"><ele>297.85714285714283</ele><time>2026-05-01T15:28:01.197Z</time></trkpt><trkpt lat="45.6812835" lon="8.7665328"><ele>297.71428571428567</ele><time>2026-05-01T15:28:04.197Z</time></trkpt><trkpt lat="45.6812456" lon="8.7666217"><ele>297.57142857142856</ele><time>2026-05-01T15:28:07.196Z</time></trkpt><trkpt lat="45.6812016" lon="8.7666886"><ele>297.42857142857144</ele><time>2026-05-01T15:28:10.196Z</time></trkpt><trkpt lat="45.6811379" lon="8.7667081"><ele>297.28571428571433</ele><time>2026-05-01T15:28:18.197Z</time></trkpt><trkpt lat="45.6811643" lon="8.7666194"><ele>297.14285714285717</ele><time>2026-05-01T15:28:45.196Z</time></trkpt><trkpt lat="45.6811775" lon="8.7667092"><ele>297.0</ele><time>2026-05-01T15:32:40.196Z</time></trkpt><trkpt lat="45.6811495" lon="8.7668042"><ele>297.8333333333333</ele><time>2026-05-01T15:32:43.196Z</time></trkpt><trkpt lat="45.6810975" lon="8.7669154"><ele>298.6666666666667</ele><time>2026-05-01T15:32:46.197Z</time></trkpt><trkpt lat="45.6810649" lon="8.7670104"><ele>299.5</ele><time>2026-05-01T15:32:48.196Z</time></trkpt><trkpt lat="45.6810186" lon="8.7671024"><ele>300.33333333333337</ele><time>2026-05-01T15:32:50.196Z</time></trkpt><trkpt lat="45.6809753" lon="8.7671962"><ele>301.1666666666667</ele><time>2026-05-01T15:32:52.196Z</time></trkpt><trkpt lat="45.6809585" lon="8.7672953"><ele>302.0</ele><time>2026-05-01T15:32:54.195Z</time></trkpt><trkpt lat="45.6809299" lon="8.7673926"><ele>302.0</ele><time>2026-05-01T15:32:56.196Z</time></trkpt><trkpt lat="45.6809053" lon="8.7674801"><ele>302.0</ele><time>2026-05-01T15:32:58.195Z</time></trkpt><trkpt lat="45.6808539" lon="8.7675688"><ele>302.0</ele><time>2026-05-01T15:33:00.196Z</time></trkpt><trkpt lat="45.6807928" lon="8.7676422"><ele>302.0</ele><time>2026-05-01T15:33:02.196Z</time></trkpt><trkpt lat="45.6807395" lon="8.7677002"><ele>302.0</ele><time>2026-05-01T15:33:04.196Z</time></trkpt><trkpt lat="45.6806824" lon="8.7677542"><ele>302.0</ele><time>2026-05-01T15:33:07.196Z</time></trkpt><trkpt lat="45.680747" lon="8.7678526"><ele>302.0</ele><time>2026-05-01T15:33:11.195Z</time></trkpt><trkpt lat="45.6808032" lon="8.767902"><ele>302.0</ele><time>2026-05-01T15:33:14.196Z</time></trkpt><trkpt lat="45.6808684" lon="8.7679221"><ele>302.0</ele><time>2026-05-01T15:33:18.197Z</time></trkpt><trkpt lat="45.6809393" lon="8.767919"><ele>302.0</ele><time>2026-05-01T15:33:24.197Z</time></trkpt><trkpt lat="45.680876" lon="8.7677622"><ele>302.0</ele><time>2026-05-01T15:34:06.196Z</time></trkpt><trkpt lat="45.6808044" lon="8.7676926"><ele>302.0</ele><time>2026-05-01T15:34:10.196Z</time></trkpt><trkpt lat="45.680716" lon="8.7676982"><ele>301.6666666666667</ele><time>2026-05-01T15:34:13.196Z</time></trkpt><trkpt lat="45.6806695" lon="8.7677639"><ele>301.33333333333337</ele><time>2026-05-01T15:34:15.195Z</time></trkpt><trkpt lat="45.6805985" lon="8.7678536"><ele>301.0</ele><time>2026-05-01T15:34:18.196Z</time></trkpt><trkpt lat="45.6805355" lon="8.767928"><ele>300.6666666666667</ele><time>2026-05-01T15:34:21.195Z</time></trkpt><trkpt lat="45.6804856" lon="8.7679992"><ele>300.3333333333333</ele><time>2026-05-01T15:34:23.196Z</time></trkpt><trkpt lat="45.6804245" lon="8.7680642"><ele>300.0</ele><time>2026-05-01T15:34:25.196Z</time></trkpt><trkpt lat="45.6803682" lon="8.7681315"><ele>300.0</ele><time>2026-05-01T15:34:27.196Z</time></trkpt><trkpt lat="45.6802984" lon="8.7682292"><ele>300.0</ele><time>2026-05-01T15:34:29.195Z</time></trkpt><trkpt lat="45.6802161" lon="8.7683543"><ele>300.0</ele><time>2026-05-01T15:34:31.196Z</time></trkpt><trkpt lat="45.6801594" lon="8.7684963"><ele>300.0</ele><time>2026-05-01T15:34:33.196Z</time></trkpt><trkpt lat="45.6801317" lon="8.7685804"><ele>300.0</ele><time>2026-05-01T15:34:34.195Z</time></trkpt><trkpt lat="45.6800993" lon="8.7686606"><ele>298.4</ele><time>2026-05-01T15:34:35.196Z</time></trkpt><trkpt lat="45.680023" lon="8.7688044"><ele>296.8</ele><time>2026-05-01T15:34:37.196Z</time></trkpt><trkpt lat="45.6799812" lon="8.7688747"><ele>295.2</ele><time>2026-05-01T15:34:38.196Z</time></trkpt><trkpt lat="45.679914" lon="8.7689436"><ele>293.6</ele><time>2026-05-01T15:34:39.195Z</time></trkpt><trkpt lat="45.6798349" lon="8.7690177"><ele>292.0</ele><time>2026-05-01T15:34:41.196Z</time></trkpt><trkpt lat="45.6797436" lon="8.769198"><ele>292.0</ele><time>2026-05-01T15:35:05.195Z</time></trkpt><trkpt lat="45.6796914" lon="8.7692943"><ele>292.0</ele><time>2026-05-01T15:35:07.195Z</time></trkpt><trkpt lat="45.6796268" lon="8.7694116"><ele>292.0</ele><time>2026-05-01T15:35:09.195Z</time></trkpt><trkpt lat="45.6795696" lon="8.7695593"><ele>292.0</ele><time>2026-05-01T15:35:11.195Z</time></trkpt><trkpt lat="45.6795293" lon="8.7696721"><ele>292.0</ele><time>2026-05-01T15:35:13.194Z</time></trkpt><trkpt lat="45.6794852" lon="8.7697453"><ele>290.3333333333333</ele><time>2026-05-01T15:35:16.194Z</time></trkpt><trkpt lat="45.679405" lon="8.7698167"><ele>288.66666666666663</ele><time>2026-05-01T15:35:19.195Z</time></trkpt><trkpt lat="45.6793246" lon="8.7698492"><ele>287.0</ele><time>2026-05-01T15:35:21.194Z</time></trkpt><trkpt lat="45.6792444" lon="8.7698756"><ele>285.3333333333333</ele><time>2026-05-01T15:35:23.194Z</time></trkpt><trkpt lat="45.6791775" lon="8.7699254"><ele>283.6666666666667</ele><time>2026-05-01T15:35:26.196Z</time></trkpt><trkpt lat="45.679166" lon="8.7700382"><ele>282.0</ele><time>2026-05-01T15:35:30.195Z</time></trkpt><trkpt lat="45.6791836" lon="8.7701365"><ele>282.8333333333333</ele><time>2026-05-01T15:35:33.195Z</time></trkpt><trkpt lat="45.6792316" lon="8.7702301"><ele>283.6666666666667</ele><time>2026-05-01T15:36:43.195Z</time></trkpt><trkpt lat="45.6792511" lon="8.7703362"><ele>284.5</ele><time>2026-05-01T15:36:46.194Z</time></trkpt><trkpt lat="45.6792713" lon="8.7704352"><ele>285.33333333333337</ele><time>2026-05-01T15:36:48.194Z</time></trkpt><trkpt lat="45.6792426" lon="8.770572"><ele>286.1666666666667</ele><time>2026-05-01T15:36:50.195Z</time></trkpt><trkpt lat="45.679199" lon="8.7706872"><ele>287.0</ele><time>2026-05-01T15:36:52.195Z</time></trkpt><trkpt lat="45.6791596" lon="8.7707973"><ele>287.0</ele><time>2026-05-01T15:36:54.195Z</time></trkpt><trkpt lat="45.6791289" lon="8.7708921"><ele>287.0</ele><time>2026-05-01T15:36:56.195Z</time></trkpt><trkpt lat="45.6790976" lon="8.7710206"><ele>287.0</ele><time>2026-05-01T15:36:59.195Z</time></trkpt><trkpt lat="45.6790778" lon="8.7711384"><ele>287.0</ele><time>2026-05-01T15:37:01.194Z</time></trkpt><trkpt lat="45.6790655" lon="8.7712447"><ele>287.0</ele><time>2026-05-01T15:37:03.194Z</time></trkpt><trkpt lat="45.6790378" lon="8.7713397"><ele>287.0</ele><time>2026-05-01T15:37:05.195Z</time></trkpt><trkpt lat="45.6790256" lon="8.7714382"><ele>287.83333333333337</ele><time>2026-05-01T15:37:07.195Z</time></trkpt><trkpt lat="45.6790468" lon="8.7715262"><ele>288.6666666666667</ele><time>2026-05-01T15:37:09.195Z</time></trkpt><trkpt lat="45.679056" lon="8.7716203"><ele>289.5</ele><time>2026-05-01T15:37:20.194Z</time></trkpt><trkpt lat="45.6790734" lon="8.7717104"><ele>290.3333333333333</ele><time>2026-05-01T15:37:23.196Z</time></trkpt><trkpt lat="45.6790655" lon="8.7718326"><ele>291.16666666666663</ele><time>2026-05-01T15:37:26.194Z</time></trkpt><trkpt lat="45.6790395" lon="8.7719549"><ele>292.0</ele><time>2026-05-01T15:37:28.195Z</time></trkpt><trkpt lat="45.6790132" lon="8.7720692"><ele>292.0</ele><time>2026-05-01T15:37:40.193Z</time></trkpt><trkpt lat="45.6790173" lon="8.7719608"><ele>292.0</ele><time>2026-05-01T15:37:45.194Z</time></trkpt><trkpt lat="45.6790696" lon="8.7718978"><ele>292.0</ele><time>2026-05-01T15:37:49.265Z</time></trkpt><trkpt lat="45.6789973" lon="8.7716003"><ele>292.0</ele><time>2026-05-01T15:37:51.194Z</time></trkpt><trkpt lat="45.6790056" lon="8.7714707"><ele>292.0</ele><time>2026-05-01T15:37:53.194Z</time></trkpt><trkpt lat="45.6790388" lon="8.7713298"><ele>292.0</ele><time>2026-05-01T15:37:55.194Z</time></trkpt><trkpt lat="45.679056" lon="8.7712063"><ele>292.0</ele><time>2026-05-01T15:37:57.193Z</time></trkpt><trkpt lat="45.6790762" lon="8.771091"><ele>292.0</ele><time>2026-05-01T15:37:59.194Z</time></trkpt><trkpt lat="45.6791107" lon="8.7709539"><ele>292.0</ele><time>2026-05-01T15:38:01.194Z</time></trkpt><trkpt lat="45.6791423" lon="8.7708374"><ele>291.0</ele><time>2026-05-01T15:38:03.195Z</time></trkpt><trkpt lat="45.6791801" lon="8.7707125"><ele>290.0</ele><time>2026-05-01T15:38:05.194Z</time></trkpt><trkpt lat="45.6792233" lon="8.7705929"><ele>289.0</ele><time>2026-05-01T15:38:07.194Z</time></trkpt><trkpt lat="45.6792534" lon="8.7704722"><ele>288.0</ele><time>2026-05-01T15:38:09.193Z</time></trkpt><trkpt lat="45.679257" lon="8.7703365"><ele>287.0</ele><time>2026-05-01T15:38:11.194Z</time></trkpt><trkpt lat="45.6792168" lon="8.7702021"><ele>286.1666666666667</ele><time>2026-05-01T15:38:13.192Z</time></trkpt><trkpt lat="45.6791819" lon="8.7700793"><ele>285.33333333333337</ele><time>2026-05-01T15:38:15.193Z</time></trkpt><trkpt lat="45.6791566" lon="8.769973"><ele>284.5</ele><time>2026-05-01T15:38:17.193Z</time></trkpt><trkpt lat="45.679185" lon="8.7698763"><ele>283.6666666666667</ele><time>2026-05-01T15:38:19.194Z</time></trkpt><trkpt lat="45.6792326" lon="8.7698019"><ele>282.8333333333333</ele><time>2026-05-01T15:38:21.193Z</time></trkpt><trkpt lat="45.679305" lon="8.769767"><ele>282.0</ele><time>2026-05-01T15:38:23.194Z</time></trkpt><trkpt lat="45.6793871" lon="8.7697284"><ele>282.6666666666667</ele><time>2026-05-01T15:38:26.194Z</time></trkpt><trkpt lat="45.6794549" lon="8.7696458"><ele>283.3333333333333</ele><time>2026-05-01T15:38:29.194Z</time></trkpt><trkpt lat="45.6794894" lon="8.7695445"><ele>284.0</ele><time>2026-05-01T15:38:32.194Z</time></trkpt><trkpt lat="45.6795207" lon="8.7694245"><ele>284.66666666666663</ele><time>2026-05-01T15:38:35.194Z</time></trkpt><trkpt lat="45.6795543" lon="8.7693449"><ele>285.3333333333333</ele><time>2026-05-01T15:38:37.194Z</time></trkpt><trkpt lat="45.6795908" lon="8.7692593"><ele>286.0</ele><time>2026-05-01T15:38:39.193Z</time></trkpt><trkpt lat="45.6796299" lon="8.7691625"><ele>286.85714285714283</ele><time>2026-05-01T15:38:41.194Z</time></trkpt><trkpt lat="45.6796784" lon="8.7690921"><ele>287.7142857142857</ele><time>2026-05-01T15:38:43.193Z</time></trkpt><trkpt lat="45.6797126" lon="8.7690145"><ele>288.57142857142856</ele><time>2026-05-01T15:38:45.194Z</time></trkpt><trkpt lat="45.6797339" lon="8.7689146"><ele>289.42857142857144</ele><time>2026-05-01T15:38:48.194Z</time></trkpt><trkpt lat="45.6797425" lon="8.7688057"><ele>290.2857142857143</ele><time>2026-05-01T15:38:51.193Z</time></trkpt><trkpt lat="45.679719" lon="8.7687085"><ele>291.1428571428571</ele><time>2026-05-01T15:38:54.193Z</time></trkpt><trkpt lat="45.6796595" lon="8.7686428"><ele>292.0</ele><time>2026-05-01T15:38:57.193Z</time></trkpt><trkpt lat="45.6795864" lon="8.7685749"><ele>292.0</ele><time>2026-05-01T15:39:00.193Z</time></trkpt><trkpt lat="45.6795055" lon="8.7685335"><ele>292.0</ele><time>2026-05-01T15:39:03.194Z</time></trkpt><trkpt lat="45.6794361" lon="8.7684831"><ele>292.0</ele><time>2026-05-01T15:39:06.194Z</time></trkpt><trkpt lat="45.6793847" lon="8.7684298"><ele>292.0</ele><time>2026-05-01T15:39:09.194Z</time></trkpt><trkpt lat="45.6793295" lon="8.7683614"><ele>292.0</ele><time>2026-05-01T15:39:12.193Z</time></trkpt><trkpt lat="45.6792608" lon="8.7682912"><ele>292.0</ele><time>2026-05-01T15:39:15.194Z</time></trkpt><trkpt lat="45.6792052" lon="8.7682122"><ele>292.5</ele><time>2026-05-01T15:39:18.194Z</time></trkpt><trkpt lat="45.6791513" lon="8.7681301"><ele>293.0</ele><time>2026-05-01T15:39:21.194Z</time></trkpt><trkpt lat="45.6790995" lon="8.7680427"><ele>293.5</ele><time>2026-05-01T15:39:24.194Z</time></trkpt><trkpt lat="45.6790514" lon="8.7679588"><ele>294.0</ele><time>2026-05-01T15:39:27.194Z</time></trkpt><trkpt lat="45.6790184" lon="8.7678639"><ele>294.5</ele><time>2026-05-01T15:39:30.194Z</time></trkpt><trkpt lat="45.6789877" lon="8.7677637"><ele>295.0</ele><time>2026-05-01T15:39:33.195Z</time></trkpt><trkpt lat="45.6789509" lon="8.7676612"><ele>296.0</ele><time>2026-05-01T15:39:36.194Z</time></trkpt><trkpt lat="45.6788647" lon="8.7673038"><ele>297.0</ele><time>2026-05-01T15:39:38.194Z</time></trkpt><trkpt lat="45.6788544" lon="8.7671703"><ele>298.0</ele><time>2026-05-01T15:39:40.195Z</time></trkpt><trkpt lat="45.6788007" lon="8.7670268"><ele>298.0</ele><time>2026-05-01T15:39:42.194Z</time></trkpt><trkpt lat="45.6787345" lon="8.7668975"><ele>298.0</ele><time>2026-05-01T15:39:44.194Z</time></trkpt><trkpt lat="45.6786658" lon="8.7667581"><ele>298.0</ele><time>2026-05-01T15:39:46.194Z</time></trkpt><trkpt lat="45.6785785" lon="8.7666326"><ele>298.0</ele><time>2026-05-01T15:39:48.193Z</time></trkpt><trkpt lat="45.6785231" lon="8.7665512"><ele>298.0</ele><time>2026-05-01T15:39:49.193Z</time></trkpt><trkpt lat="45.6784321" lon="8.7664195"><ele>297.6</ele><time>2026-05-01T15:39:51.195Z</time></trkpt><trkpt lat="45.6783887" lon="8.7663424"><ele>297.20000000000005</ele><time>2026-05-01T15:39:52.194Z</time></trkpt><trkpt lat="45.6783282" lon="8.7662105"><ele>296.8</ele><time>2026-05-01T15:39:54.193Z</time></trkpt><trkpt lat="45.6782904" lon="8.7660796"><ele>296.40000000000003</ele><time>2026-05-01T15:39:56.194Z</time></trkpt><trkpt lat="45.67825" lon="8.7659419"><ele>296.0</ele><time>2026-05-01T15:39:58.194Z</time></trkpt><trkpt lat="45.678236" lon="8.7657902"><ele>295.2</ele><time>2026-05-01T15:40:00.194Z</time></trkpt><trkpt lat="45.6782146" lon="8.7656549"><ele>294.40000000000003</ele><time>2026-05-01T15:40:02.194Z</time></trkpt><trkpt lat="45.6781939" lon="8.7655633"><ele>293.6</ele><time>2026-05-01T15:40:03.194Z</time></trkpt><trkpt lat="45.6781756" lon="8.7654183"><ele>292.8</ele><time>2026-05-01T15:40:05.193Z</time></trkpt><trkpt lat="45.6781521" lon="8.76526"><ele>292.0</ele><time>2026-05-01T15:40:07.193Z</time></trkpt><trkpt lat="45.6781392" lon="8.76516"><ele>291.8333333333333</ele><time>2026-05-01T15:40:08.193Z</time></trkpt><trkpt lat="45.6780987" lon="8.7650263"><ele>291.66666666666663</ele><time>2026-05-01T15:40:10.194Z</time></trkpt><trkpt lat="45.6780479" lon="8.7649326"><ele>291.5</ele><time>2026-05-01T15:40:12.193Z</time></trkpt><trkpt lat="45.6779868" lon="8.7648473"><ele>291.3333333333333</ele><time>2026-05-01T15:40:14.194Z</time></trkpt><trkpt lat="45.6779394" lon="8.7647623"><ele>291.1666666666667</ele><time>2026-05-01T15:40:16.194Z</time></trkpt><trkpt lat="45.6779033" lon="8.7646712"><ele>291.0</ele><time>2026-05-01T15:40:20.194Z</time></trkpt><trkpt lat="45.6778768" lon="8.7645849"><ele>291.0</ele><time>2026-05-01T15:40:36.195Z</time></trkpt><trkpt lat="45.677848" lon="8.7644763"><ele>291.0</ele><time>2026-05-01T15:40:39.195Z</time></trkpt><trkpt lat="45.6777886" lon="8.7643808"><ele>291.0</ele><time>2026-05-01T15:40:41.194Z</time></trkpt><trkpt lat="45.6777338" lon="8.7642862"><ele>291.0</ele><time>2026-05-01T15:40:44.194Z</time></trkpt><trkpt lat="45.6778034" lon="8.7642643"><ele>291.0</ele><time>2026-05-01T15:40:57.194Z</time></trkpt><trkpt lat="45.6778528" lon="8.7643554"><ele>291.0</ele><time>2026-05-01T15:41:00.193Z</time></trkpt><trkpt lat="45.6778989" lon="8.7644257"><ele>291.0</ele><time>2026-05-01T15:41:03.194Z</time></trkpt><trkpt lat="45.677932" lon="8.7645256"><ele>291.0</ele><time>2026-05-01T15:41:07.194Z</time></trkpt><trkpt lat="45.6779789" lon="8.7646225"><ele>291.0</ele><time>2026-05-01T15:41:22.195Z</time></trkpt><trkpt lat="45.6780287" lon="8.7646961"><ele>291.0</ele><time>2026-05-01T15:41:24.193Z</time></trkpt><trkpt lat="45.6780921" lon="8.7647792"><ele>291.0</ele><time>2026-05-01T15:41:27.195Z</time></trkpt><trkpt lat="45.6781337" lon="8.7649204"><ele>291.0</ele><time>2026-05-01T15:41:42.194Z</time></trkpt><trkpt lat="45.6780778" lon="8.7648576"><ele>291.0</ele><time>2026-05-01T15:44:08.193Z</time></trkpt><trkpt lat="45.6780082" lon="8.7647699"><ele>291.0</ele><time>2026-05-01T15:44:11.194Z</time></trkpt><trkpt lat="45.6779609" lon="8.7646835"><ele>291.0</ele><time>2026-05-01T15:44:14.193Z</time></trkpt><trkpt lat="45.6779144" lon="8.7646214"><ele>291.0</ele><time>2026-05-01T15:44:25.194Z</time></trkpt><trkpt lat="45.6778745" lon="8.7645447"><ele>291.0</ele><time>2026-05-01T15:44:28.194Z</time></trkpt><trkpt lat="45.6778439" lon="8.7644645"><ele>291.0</ele><time>2026-05-01T15:44:30.193Z</time></trkpt><trkpt lat="45.6777884" lon="8.7643664"><ele>291.3333333333333</ele><time>2026-05-01T15:44:33.193Z</time></trkpt><trkpt lat="45.6777284" lon="8.7642765"><ele>291.6666666666667</ele><time>2026-05-01T15:44:36.194Z</time></trkpt><trkpt lat="45.6776961" lon="8.7641773"><ele>292.0</ele><time>2026-05-01T15:44:40.194Z</time></trkpt><trkpt lat="45.6776418" lon="8.7640789"><ele>292.33333333333337</ele><time>2026-05-01T15:44:43.193Z</time></trkpt><trkpt lat="45.677602" lon="8.7640004"><ele>292.6666666666667</ele><time>2026-05-01T15:44:46.194Z</time></trkpt><trkpt lat="45.6775731" lon="8.7639189"><ele>293.0</ele><time>2026-05-01T15:44:54.194Z</time></trkpt><trkpt lat="45.6775145" lon="8.7638184"><ele>292.99999999999994</ele><time>2026-05-01T15:44:57.193Z</time></trkpt><trkpt lat="45.6774631" lon="8.7637492"><ele>293.0</ele><time>2026-05-01T15:44:59.193Z</time></trkpt><trkpt lat="45.6774221" lon="8.7636444"><ele>293.0</ele><time>2026-05-01T15:45:03.193Z</time></trkpt><trkpt lat="45.6773929" lon="8.7635445"><ele>293.0</ele><time>2026-05-01T15:45:07.194Z</time></trkpt><trkpt lat="45.6773328" lon="8.7635004"><ele>293.0</ele><time>2026-05-01T15:45:12.193Z</time></trkpt><trkpt lat="45.6772812" lon="8.7634433"><ele>292.99999999999994</ele><time>2026-05-01T15:45:19.194Z</time></trkpt><trkpt lat="45.6772317" lon="8.7633853"><ele>293.0</ele><time>2026-05-01T15:45:25.194Z</time></trkpt><trkpt lat="45.6771655" lon="8.7633199"><ele>292.99999999999994</ele><time>2026-05-01T15:45:28.194Z</time></trkpt><trkpt lat="45.6770804" lon="8.7633451"><ele>293.0</ele><time>2026-05-01T15:45:32.195Z</time></trkpt><trkpt lat="45.6770211" lon="8.7633092"><ele>293.0</ele><time>2026-05-01T15:45:34.194Z</time></trkpt><trkpt lat="45.6769645" lon="8.7632434"><ele>293.0</ele><time>2026-05-01T15:45:36.194Z</time></trkpt><trkpt lat="45.6769067" lon="8.7631627"><ele>293.0</ele><time>2026-05-01T15:45:39.168Z</time></trkpt><trkpt lat="45.676851" lon="8.7631071"><ele>292.99999999999994</ele><time>2026-05-01T15:45:41.194Z</time></trkpt><trkpt lat="45.6767936" lon="8.7630432"><ele>293.0</ele><time>2026-05-01T15:45:43.169Z</time></trkpt><trkpt lat="45.6767471" lon="8.7629552"><ele>293.0</ele><time>2026-05-01T15:45:45.194Z</time></trkpt><trkpt lat="45.6766764" lon="8.7628656"><ele>293.0</ele><time>2026-05-01T15:45:48.194Z</time></trkpt><trkpt lat="45.676625" lon="8.7627863"><ele>293.0</ele><time>2026-05-01T15:45:50.193Z</time></trkpt><trkpt lat="45.6765691" lon="8.7626701"><ele>293.0</ele><time>2026-05-01T15:45:52.193Z</time></trkpt><trkpt lat="45.6765294" lon="8.7625672"><ele>293.0</ele><time>2026-05-01T15:45:54.194Z</time></trkpt><trkpt lat="45.6764799" lon="8.7624592"><ele>293.0</ele><time>2026-05-01T15:45:56.194Z</time></trkpt><trkpt lat="45.6764198" lon="8.7623715"><ele>293.0</ele><time>2026-05-01T15:45:58.193Z</time></trkpt><trkpt lat="45.6763656" lon="8.7622831"><ele>293.0</ele><time>2026-05-01T15:46:00.194Z</time></trkpt><trkpt lat="45.6762943" lon="8.7621718"><ele>293.0</ele><time>2026-05-01T15:46:02.193Z</time></trkpt><trkpt lat="45.676231" lon="8.7620849"><ele>293.0</ele><time>2026-05-01T15:46:04.195Z</time></trkpt><trkpt lat="45.6761743" lon="8.7619951"><ele>293.0</ele><time>2026-05-01T15:46:06.193Z</time></trkpt><trkpt lat="45.676124" lon="8.7619075"><ele>293.0</ele><time>2026-05-01T15:46:08.194Z</time></trkpt><trkpt lat="45.6760774" lon="8.7618436"><ele>293.1666666666667</ele><time>2026-05-01T15:46:10.193Z</time></trkpt><trkpt lat="45.676037" lon="8.7617744"><ele>293.33333333333337</ele><time>2026-05-01T15:46:12.194Z</time></trkpt><trkpt lat="45.6759888" lon="8.7616951"><ele>293.5</ele><time>2026-05-01T15:46:14.194Z</time></trkpt><trkpt lat="45.6759423" lon="8.7615936"><ele>293.6666666666667</ele><time>2026-05-01T15:46:16.195Z</time></trkpt><trkpt lat="45.6759048" lon="8.761476"><ele>293.8333333333333</ele><time>2026-05-01T15:46:18.194Z</time></trkpt><trkpt lat="45.6758681" lon="8.7613878"><ele>294.0</ele><time>2026-05-01T15:46:21.194Z</time></trkpt><trkpt lat="45.6758299" lon="8.761286"><ele>294.0</ele><time>2026-05-01T15:46:24.193Z</time></trkpt><trkpt lat="45.6757875" lon="8.7611706"><ele>294.0</ele><time>2026-05-01T15:46:27.194Z</time></trkpt><trkpt lat="45.6757388" lon="8.7610584"><ele>294.0</ele><time>2026-05-01T15:46:30.193Z</time></trkpt><trkpt lat="45.6757067" lon="8.7609615"><ele>294.0</ele><time>2026-05-01T15:46:32.193Z</time></trkpt><trkpt lat="45.6756952" lon="8.7608563"><ele>294.0</ele><time>2026-05-01T15:46:34.194Z</time></trkpt><trkpt lat="45.6756742" lon="8.760761"><ele>294.0</ele><time>2026-05-01T15:46:36.194Z</time></trkpt><trkpt lat="45.6756763" lon="8.7606571"><ele>294.1666666666667</ele><time>2026-05-01T15:46:38.194Z</time></trkpt><trkpt lat="45.6756913" lon="8.7605659"><ele>294.3333333333333</ele><time>2026-05-01T15:46:40.193Z</time></trkpt><trkpt lat="45.6756902" lon="8.7604592"><ele>294.5</ele><time>2026-05-01T15:46:42.194Z</time></trkpt><trkpt lat="45.6756713" lon="8.7602477"><ele>294.66666666666663</ele><time>2026-05-01T15:46:44.194Z</time></trkpt><trkpt lat="45.6756805" lon="8.76015"><ele>294.8333333333333</ele><time>2026-05-01T15:46:46.193Z</time></trkpt><trkpt lat="45.6756814" lon="8.7600305"><ele>295.0</ele><time>2026-05-01T15:46:49.194Z</time></trkpt><trkpt lat="45.6756784" lon="8.7599155"><ele>295.14285714285717</ele><time>2026-05-01T15:46:52.194Z</time></trkpt><trkpt lat="45.6756693" lon="8.7597852"><ele>295.2857142857143</ele><time>2026-05-01T15:46:55.194Z</time></trkpt><trkpt lat="45.6756495" lon="8.7596968"><ele>295.42857142857144</ele><time>2026-05-01T15:46:57.194Z</time></trkpt><trkpt lat="45.675643" lon="8.759603"><ele>295.57142857142856</ele><time>2026-05-01T15:46:59.194Z</time></trkpt><trkpt lat="45.6756564" lon="8.7595094"><ele>295.7142857142857</ele><time>2026-05-01T15:47:01.194Z</time></trkpt><trkpt lat="45.6756621" lon="8.7594145"><ele>295.8571428571429</ele><time>2026-05-01T15:47:03.194Z</time></trkpt><trkpt lat="45.6756566" lon="8.7593072"><ele>296.0</ele><time>2026-05-01T15:47:05.195Z</time></trkpt><trkpt lat="45.6756446" lon="8.7592015"><ele>296.1666666666667</ele><time>2026-05-01T15:47:07.194Z</time></trkpt><trkpt lat="45.6756473" lon="8.7590833"><ele>296.33333333333337</ele><time>2026-05-01T15:47:10.194Z</time></trkpt><trkpt lat="45.6756319" lon="8.7589697"><ele>296.5</ele><time>2026-05-01T15:47:13.194Z</time></trkpt><trkpt lat="45.6756169" lon="8.7588382"><ele>296.6666666666667</ele><time>2026-05-01T15:47:16.194Z</time></trkpt><trkpt lat="45.6755928" lon="8.7587513"><ele>296.8333333333333</ele><time>2026-05-01T15:47:18.194Z</time></trkpt><trkpt lat="45.675646" lon="8.7586573"><ele>297.0</ele><time>2026-05-01T15:47:21.194Z</time></trkpt><trkpt lat="45.675729" lon="8.758615"><ele>297.0</ele><time>2026-05-01T15:47:24.193Z</time></trkpt><trkpt lat="45.6758184" lon="8.7585735"><ele>297.0</ele><time>2026-05-01T15:47:27.193Z</time></trkpt><trkpt lat="45.6759031" lon="8.758533"><ele>297.0</ele><time>2026-05-01T15:47:30.192Z</time></trkpt><trkpt lat="45.6759951" lon="8.7585514"><ele>297.0</ele><time>2026-05-01T15:47:33.193Z</time></trkpt><trkpt lat="45.6760625" lon="8.7585633"><ele>297.0</ele><time>2026-05-01T15:47:35.193Z</time></trkpt><trkpt lat="45.6761255" lon="8.7585653"><ele>297.0</ele><time>2026-05-01T15:47:37.192Z</time></trkpt><trkpt lat="45.676179" lon="8.7586777"><ele>296.1666666666667</ele><time>2026-05-01T15:47:39.193Z</time></trkpt><trkpt lat="45.6762169" lon="8.7587895"><ele>295.3333333333333</ele><time>2026-05-01T15:47:41.192Z</time></trkpt><trkpt lat="45.6762844" lon="8.758879"><ele>294.5</ele><time>2026-05-01T15:47:43.192Z</time></trkpt><trkpt lat="45.6763338" lon="8.758971"><ele>293.66666666666663</ele><time>2026-05-01T15:47:45.193Z</time></trkpt><trkpt lat="45.676383" lon="8.7590502"><ele>292.8333333333333</ele><time>2026-05-01T15:47:47.192Z</time></trkpt><trkpt lat="45.676432" lon="8.7591248"><ele>292.0</ele><time>2026-05-01T15:47:49.193Z</time></trkpt><trkpt lat="45.6764846" lon="8.7592034"><ele>292.0</ele><time>2026-05-01T15:47:51.193Z</time></trkpt><trkpt lat="45.6765178" lon="8.7592967"><ele>292.0</ele><time>2026-05-01T15:47:53.192Z</time></trkpt><trkpt lat="45.676524" lon="8.7593929"><ele>292.0</ele><time>2026-05-01T15:47:55.193Z</time></trkpt><trkpt lat="45.6765317" lon="8.759517"><ele>292.0</ele><time>2026-05-01T15:48:13.192Z</time></trkpt><trkpt lat="45.6765433" lon="8.7596392"><ele>292.0</ele><time>2026-05-01T15:48:16.193Z</time></trkpt><trkpt lat="45.6765601" lon="8.7597638"><ele>292.0</ele><time>2026-05-01T15:48:19.193Z</time></trkpt><trkpt lat="45.6765745" lon="8.7598818"><ele>292.3333333333333</ele><time>2026-05-01T15:48:22.192Z</time></trkpt><trkpt lat="45.6766145" lon="8.7600086"><ele>292.66666666666663</ele><time>2026-05-01T15:48:25.193Z</time></trkpt><trkpt lat="45.676634" lon="8.7601425"><ele>293.0</ele><time>2026-05-01T15:48:28.192Z</time></trkpt><trkpt lat="45.6766438" lon="8.7602712"><ele>293.3333333333333</ele><time>2026-05-01T15:48:31.192Z</time></trkpt><trkpt lat="45.6766662" lon="8.7603782"><ele>293.6666666666667</ele><time>2026-05-01T15:48:33.193Z</time></trkpt><trkpt lat="45.6767021" lon="8.7604657"><ele>294.0</ele><time>2026-05-01T15:48:35.192Z</time></trkpt><trkpt lat="45.676746" lon="8.760578"><ele>294.0</ele><time>2026-05-01T15:48:38.193Z</time></trkpt><trkpt lat="45.6767984" lon="8.7606744"><ele>294.0</ele><time>2026-05-01T15:48:41.193Z</time></trkpt><trkpt lat="45.6768381" lon="8.7607508"><ele>294.0</ele><time>2026-05-01T15:48:43.194Z</time></trkpt><trkpt lat="45.6768692" lon="8.7608699"><ele>294.0</ele><time>2026-05-01T15:48:45.193Z</time></trkpt><trkpt lat="45.6769009" lon="8.7609899"><ele>294.0</ele><time>2026-05-01T15:48:47.193Z</time></trkpt><trkpt lat="45.6769282" lon="8.761113"><ele>294.0</ele><time>2026-05-01T15:48:49.193Z</time></trkpt><trkpt lat="45.6769494" lon="8.761231"><ele>294.0</ele><time>2026-05-01T15:48:51.193Z</time></trkpt><trkpt lat="45.6769487" lon="8.7613341"><ele>294.0</ele><time>2026-05-01T15:48:53.193Z</time></trkpt><trkpt lat="45.6769417" lon="8.7614369"><ele>294.0</ele><time>2026-05-01T15:48:55.193Z</time></trkpt><trkpt lat="45.6769245" lon="8.7615556"><ele>294.0</ele><time>2026-05-01T15:48:57.193Z</time></trkpt><trkpt lat="45.6769207" lon="8.7616735"><ele>294.0</ele><time>2026-05-01T15:48:59.194Z</time></trkpt><trkpt lat="45.6769136" lon="8.761796"><ele>294.0</ele><time>2026-05-01T15:49:01.192Z</time></trkpt><trkpt lat="45.6768865" lon="8.7619354"><ele>293.8</ele><time>2026-05-01T15:49:03.193Z</time></trkpt><trkpt lat="45.6768462" lon="8.7620938"><ele>293.59999999999997</ele><time>2026-05-01T15:49:05.193Z</time></trkpt><trkpt lat="45.6768032" lon="8.7622732"><ele>293.4</ele><time>2026-05-01T15:49:07.193Z</time></trkpt><trkpt lat="45.6767794" lon="8.7623644"><ele>293.2</ele><time>2026-05-01T15:49:08.193Z</time></trkpt><trkpt lat="45.6767574" lon="8.762453"><ele>293.0</ele><time>2026-05-01T15:49:09.193Z</time></trkpt><trkpt lat="45.6767345" lon="8.7625625"><ele>293.0</ele><time>2026-05-01T15:49:11.193Z</time></trkpt><trkpt lat="45.6767237" lon="8.7626758"><ele>293.0</ele><time>2026-05-01T15:49:13.193Z</time></trkpt><trkpt lat="45.6767488" lon="8.7627616"><ele>293.0</ele><time>2026-05-01T15:49:15.192Z</time></trkpt><trkpt lat="45.6767928" lon="8.7628361"><ele>293.0</ele><time>2026-05-01T15:49:17.193Z</time></trkpt><trkpt lat="45.6768387" lon="8.7629176"><ele>293.0</ele><time>2026-05-01T15:49:19.192Z</time></trkpt><trkpt lat="45.6768858" lon="8.7630056"><ele>293.0</ele><time>2026-05-01T15:49:21.193Z</time></trkpt><trkpt lat="45.6769417" lon="8.7630999"><ele>293.1666666666667</ele><time>2026-05-01T15:49:22.193Z</time></trkpt><trkpt lat="45.6769651" lon="8.7629849"><ele>293.33333333333337</ele><time>2026-05-01T15:49:44.192Z</time></trkpt><trkpt lat="45.677011" lon="8.7628944"><ele>293.5</ele><time>2026-05-01T15:49:46.193Z</time></trkpt><trkpt lat="45.6770654" lon="8.7627804"><ele>293.6666666666667</ele><time>2026-05-01T15:49:48.193Z</time></trkpt><trkpt lat="45.6771098" lon="8.7626998"><ele>293.8333333333333</ele><time>2026-05-01T15:49:50.192Z</time></trkpt><trkpt lat="45.6771549" lon="8.7626106"><ele>294.0</ele><time>2026-05-01T15:49:52.193Z</time></trkpt><trkpt lat="45.6772005" lon="8.7625154"><ele>294.2857142857143</ele><time>2026-05-01T15:49:54.192Z</time></trkpt><trkpt lat="45.677255" lon="8.7624204"><ele>294.57142857142856</ele><time>2026-05-01T15:49:56.193Z</time></trkpt><trkpt lat="45.6772993" lon="8.7623418"><ele>294.8571428571429</ele><time>2026-05-01T15:49:58.193Z</time></trkpt><trkpt lat="45.6773555" lon="8.7622726"><ele>295.1428571428571</ele><time>2026-05-01T15:50:00.193Z</time></trkpt><trkpt lat="45.6774067" lon="8.7621951"><ele>295.42857142857144</ele><time>2026-05-01T15:50:02.193Z</time></trkpt><trkpt lat="45.6774503" lon="8.7621237"><ele>295.7142857142857</ele><time>2026-05-01T15:50:04.193Z</time></trkpt><trkpt lat="45.6774949" lon="8.7620462"><ele>296.0</ele><time>2026-05-01T15:50:06.193Z</time></trkpt><trkpt lat="45.6775426" lon="8.7619692"><ele>296.0</ele><time>2026-05-01T15:50:08.193Z</time></trkpt><trkpt lat="45.6775922" lon="8.7619011"><ele>296.0</ele><time>2026-05-01T15:50:10.192Z</time></trkpt><trkpt lat="45.6776439" lon="8.761824"><ele>296.0</ele><time>2026-05-01T15:50:12.193Z</time></trkpt><trkpt lat="45.6776936" lon="8.7617484"><ele>296.0</ele><time>2026-05-01T15:50:14.193Z</time></trkpt><trkpt lat="45.6777353" lon="8.761659"><ele>296.0</ele><time>2026-05-01T15:50:16.193Z</time></trkpt><trkpt lat="45.6777765" lon="8.7615851"><ele>296.0</ele><time>2026-05-01T15:50:18.193Z</time></trkpt><trkpt lat="45.6778341" lon="8.761512"><ele>296.0</ele><time>2026-05-01T15:50:20.193Z</time></trkpt><trkpt lat="45.6778973" lon="8.7614406"><ele>295.83333333333337</ele><time>2026-05-01T15:50:22.193Z</time></trkpt><trkpt lat="45.6779716" lon="8.7613965"><ele>295.6666666666667</ele><time>2026-05-01T15:50:24.193Z</time></trkpt><trkpt lat="45.6780437" lon="8.7613404"><ele>295.5</ele><time>2026-05-01T15:50:26.194Z</time></trkpt><trkpt lat="45.6781205" lon="8.7612907"><ele>295.3333333333333</ele><time>2026-05-01T15:50:28.193Z</time></trkpt><trkpt lat="45.6781987" lon="8.7612475"><ele>295.16666666666663</ele><time>2026-05-01T15:50:30.193Z</time></trkpt><trkpt lat="45.6782737" lon="8.761246"><ele>295.0</ele><time>2026-05-01T15:50:32.192Z</time></trkpt><trkpt lat="45.6783582" lon="8.761259"><ele>295.0</ele><time>2026-05-01T15:50:34.193Z</time></trkpt><trkpt lat="45.6784446" lon="8.7612561"><ele>295.0</ele><time>2026-05-01T15:50:36.192Z</time></trkpt><trkpt lat="45.6785294" lon="8.7612353"><ele>295.0</ele><time>2026-05-01T15:50:39.193Z</time></trkpt><trkpt lat="45.678606" lon="8.7612635"><ele>295.0</ele><time>2026-05-01T15:50:42.192Z</time></trkpt><trkpt lat="45.6786469" lon="8.7613717"><ele>295.0</ele><time>2026-05-01T15:50:45.193Z</time></trkpt><trkpt lat="45.6786929" lon="8.7614678"><ele>295.0</ele><time>2026-05-01T15:50:52.193Z</time></trkpt><trkpt lat="45.6787603" lon="8.7615698"><ele>295.0</ele><time>2026-05-01T15:50:58.195Z</time></trkpt><trkpt lat="45.6787738" lon="8.7616606"><ele>295.0</ele><time>2026-05-01T15:51:05.196Z</time></trkpt><trkpt lat="45.6787964" lon="8.7617561"><ele>295.0</ele><time>2026-05-01T15:51:09.197Z</time></trkpt><trkpt lat="45.6787922" lon="8.7618726"><ele>295.0</ele><time>2026-05-01T15:51:13.198Z</time></trkpt><trkpt lat="45.67879" lon="8.7619775"><ele>295.0</ele><time>2026-05-01T15:51:16.193Z</time></trkpt><trkpt lat="45.6788059" lon="8.7621213"><ele>295.0</ele><time>2026-05-01T15:51:19.191Z</time></trkpt><trkpt lat="45.6788404" lon="8.7622371"><ele>295.00000000000006</ele><time>2026-05-01T15:51:23.191Z</time></trkpt><trkpt lat="45.6788599" lon="8.7623497"><ele>295.0</ele><time>2026-05-01T15:51:26.192Z</time></trkpt><trkpt lat="45.678874" lon="8.7624521"><ele>295.0</ele><time>2026-05-01T15:51:28.193Z</time></trkpt><trkpt lat="45.6788969" lon="8.7625712"><ele>295.0</ele><time>2026-05-01T15:51:31.199Z</time></trkpt><trkpt lat="45.6789095" lon="8.7626713"><ele>295.0</ele><time>2026-05-01T15:51:34.193Z</time></trkpt><trkpt lat="45.6789125" lon="8.7627677"><ele>295.00000000000006</ele><time>2026-05-01T15:51:37.188Z</time></trkpt><trkpt lat="45.6789298" lon="8.7628638"><ele>295.0</ele><time>2026-05-01T15:51:40.188Z</time></trkpt><trkpt lat="45.6789429" lon="8.7629631"><ele>295.0</ele><time>2026-05-01T15:51:43.194Z</time></trkpt><trkpt lat="45.6789385" lon="8.7630757"><ele>295.0</ele><time>2026-05-01T15:51:46.191Z</time></trkpt><trkpt lat="45.6789328" lon="8.7631935"><ele>295.0</ele><time>2026-05-01T15:51:49.193Z</time></trkpt><trkpt lat="45.678937" lon="8.7632905"><ele>295.0</ele><time>2026-05-01T15:51:52.195Z</time></trkpt><trkpt lat="45.6789425" lon="8.7634094"><ele>295.0</ele><time>2026-05-01T15:51:55.193Z</time></trkpt><trkpt lat="45.6789301" lon="8.7635059"><ele>295.0</ele><time>2026-05-01T15:51:57.194Z</time></trkpt><trkpt lat="45.6789165" lon="8.7636394"><ele>294.42857142857144</ele><time>2026-05-01T15:52:00.198Z</time></trkpt><trkpt lat="45.678897" lon="8.7637462"><ele>293.8571428571429</ele><time>2026-05-01T15:52:03.196Z</time></trkpt><trkpt lat="45.6788756" lon="8.7638601"><ele>293.2857142857143</ele><time>2026-05-01T15:52:06.189Z</time></trkpt><trkpt lat="45.6788585" lon="8.7639512"><ele>292.7142857142857</ele><time>2026-05-01T15:52:08.2Z</time></trkpt><trkpt lat="45.6788292" lon="8.7640407"><ele>292.1428571428571</ele><time>2026-05-01T15:52:10.188Z</time></trkpt><trkpt lat="45.6788148" lon="8.764144"><ele>291.57142857142856</ele><time>2026-05-01T15:52:12.187Z</time></trkpt><trkpt lat="45.6787969" lon="8.7642347"><ele>291.0</ele><time>2026-05-01T15:52:14.194Z</time></trkpt><trkpt lat="45.6787555" lon="8.7643367"><ele>291.0</ele><time>2026-05-01T15:52:17.186Z</time></trkpt><trkpt lat="45.6787131" lon="8.7644184"><ele>291.0</ele><time>2026-05-01T15:52:20.19Z</time></trkpt><trkpt lat="45.6786572" lon="8.7644947"><ele>291.0</ele><time>2026-05-01T15:52:24.185Z</time></trkpt><trkpt lat="45.6787109" lon="8.764438"><ele>291.0</ele><time>2026-05-01T15:52:39.197Z</time></trkpt><trkpt lat="45.6787676" lon="8.7643567"><ele>291.0</ele><time>2026-05-01T15:52:43.2Z</time></trkpt><trkpt lat="45.6788099" lon="8.7642857"><ele>291.0</ele><time>2026-05-01T15:52:45.196Z</time></trkpt><trkpt lat="45.6788736" lon="8.7642122"><ele>291.0</ele><time>2026-05-01T15:52:47.194Z</time></trkpt><trkpt lat="45.6789378" lon="8.76416"><ele>291.0</ele><time>2026-05-01T15:52:49.192Z</time></trkpt><trkpt lat="45.67901" lon="8.7641183"><ele>291.0</ele><time>2026-05-01T15:52:51.194Z</time></trkpt><trkpt lat="45.6790811" lon="8.7640775"><ele>291.0</ele><time>2026-05-01T15:52:53.2Z</time></trkpt><trkpt lat="45.6791415" lon="8.7640152"><ele>291.0</ele><time>2026-05-01T15:52:55.19Z</time></trkpt><trkpt lat="45.6792228" lon="8.7639504"><ele>291.0</ele><time>2026-05-01T15:52:58.188Z</time></trkpt><trkpt lat="45.6792935" lon="8.7638911"><ele>291.0</ele><time>2026-05-01T15:53:00.189Z</time></trkpt><trkpt lat="45.6793598" lon="8.7638241"><ele>291.0</ele><time>2026-05-01T15:53:02.199Z</time></trkpt><trkpt lat="45.6794179" lon="8.7637772"><ele>291.0</ele><time>2026-05-01T15:53:04.19Z</time></trkpt><trkpt lat="45.6794897" lon="8.7637328"><ele>291.0</ele><time>2026-05-01T15:53:06.19Z</time></trkpt><trkpt lat="45.6795562" lon="8.763685"><ele>291.0</ele><time>2026-05-01T15:53:08.188Z</time></trkpt><trkpt lat="45.6796195" lon="8.7636195"><ele>291.0</ele><time>2026-05-01T15:53:10.192Z</time></trkpt><trkpt lat="45.6796864" lon="8.7635396"><ele>291.0</ele><time>2026-05-01T15:53:12.196Z</time></trkpt><trkpt lat="45.6797513" lon="8.763495"><ele>291.6666666666667</ele><time>2026-05-01T15:53:14.147Z</time></trkpt><trkpt lat="45.6798201" lon="8.7634212"><ele>292.3333333333333</ele><time>2026-05-01T15:53:16.166Z</time></trkpt><trkpt lat="45.6798904" lon="8.7633506"><ele>293.0</ele><time>2026-05-01T15:53:18.213Z</time></trkpt><trkpt lat="45.6799597" lon="8.7632785"><ele>293.66666666666663</ele><time>2026-05-01T15:53:20.192Z</time></trkpt><trkpt lat="45.6800283" lon="8.7632035"><ele>294.3333333333333</ele><time>2026-05-01T15:53:22.199Z</time></trkpt><trkpt lat="45.6800933" lon="8.7631428"><ele>295.0</ele><time>2026-05-01T15:53:24.194Z</time></trkpt><trkpt lat="45.6801502" lon="8.7630968"><ele>295.0</ele><time>2026-05-01T15:53:26.199Z</time></trkpt><trkpt lat="45.6802118" lon="8.7630595"><ele>295.0</ele><time>2026-05-01T15:53:29.199Z</time></trkpt><trkpt lat="45.6780287" lon="8.7646961"><ele>294.3333333333333</ele><time>2026-05-01T15:41:24.193Z</time></trkpt><trkpt lat="45.6780921" lon="8.7647792"><ele>293.66666666666663</ele><time>2026-05-01T15:41:27.195Z</time></trkpt><trkpt lat="45.6781337" lon="8.7649204"><ele>293.0</ele><time>2026-05-01T15:41:42.194Z</time></trkpt><trkpt lat="45.6780778" lon="8.7648576"><ele>292.3333333333333</ele><time>2026-05-01T15:44:08.193Z</time></trkpt><trkpt lat="45.6780082" lon="8.7647699"><ele>291.6666666666667</ele><time>2026-05-01T15:44:11.194Z</time></trkpt><trkpt lat="45.6779609" lon="8.7646835"><ele>291.0</ele><time>2026-05-01T15:44:14.193Z</time></trkpt><trkpt lat="45.6779144" lon="8.7646214"><ele>291.0</ele><time>2026-05-01T15:44:25.194Z</time></trkpt><trkpt lat="45.6778745" lon="8.7645447"><ele>291.0</ele><time>2026-05-01T15:44:28.194Z</time></trkpt><trkpt lat="45.6778439" lon="8.7644645"><ele>291.0</ele><time>2026-05-01T15:44:30.193Z</time></trkpt><trkpt lat="45.6777884" lon="8.7643664"><ele>291.0</ele><time>2026-05-01T15:44:33.193Z</time></trkpt><trkpt lat="45.6777284" lon="8.7642765"><ele>291.0</ele><time>2026-05-01T15:44:36.194Z</time></trkpt><trkpt lat="45.6776961" lon="8.7641773"><ele>291.0</ele><time>2026-05-01T15:44:40.194Z</time></trkpt><trkpt lat="45.6776418" lon="8.7640789"><ele>291.3333333333333</ele><time>2026-05-01T15:44:43.193Z</time></trkpt><trkpt lat="45.677602" lon="8.7640004"><ele>291.6666666666667</ele><time>2026-05-01T15:44:46.194Z</time></trkpt><trkpt lat="45.6775731" lon="8.7639189"><ele>292.0</ele><time>2026-05-01T15:44:54.194Z</time></trkpt><trkpt lat="45.6775145" lon="8.7638184"><ele>292.33333333333337</ele><time>2026-05-01T15:44:57.193Z</time></trkpt><trkpt lat="45.6774631" lon="8.7637492"><ele>292.6666666666667</ele><time>2026-05-01T15:44:59.193Z</time></trkpt><trkpt lat="45.6774221" lon="8.7636444"><ele>293.0</ele><time>2026-05-01T15:45:03.193Z</time></trkpt><trkpt lat="45.6773929" lon="8.7635445"><ele>293.1428571428571</ele><time>2026-05-01T15:45:07.194Z</time></trkpt><trkpt lat="45.6773328" lon="8.7635004"><ele>293.2857142857143</ele><time>2026-05-01T15:45:12.193Z</time></trkpt><trkpt lat="45.6772812" lon="8.7634433"><ele>293.42857142857144</ele><time>2026-05-01T15:45:19.194Z</time></trkpt><trkpt lat="45.6772317" lon="8.7633853"><ele>293.57142857142856</ele><time>2026-05-01T15:45:25.194Z</time></trkpt><trkpt lat="45.6771655" lon="8.7633199"><ele>293.7142857142857</ele><time>2026-05-01T15:45:28.194Z</time></trkpt><trkpt lat="45.6770804" lon="8.7633451"><ele>293.85714285714283</ele><time>2026-05-01T15:45:32.195Z</time></trkpt><trkpt lat="45.6770211" lon="8.7633092"><ele>294.0</ele><time>2026-05-01T15:45:34.194Z</time></trkpt><trkpt lat="45.6769645" lon="8.7632434"><ele>293.8333333333333</ele><time>2026-05-01T15:45:36.194Z</time></trkpt><trkpt lat="45.6769067" lon="8.7631627"><ele>293.6666666666667</ele><time>2026-05-01T15:45:39.168Z</time></trkpt><trkpt lat="45.676851" lon="8.7631071"><ele>293.5</ele><time>2026-05-01T15:45:41.194Z</time></trkpt><trkpt lat="45.6767936" lon="8.7630432"><ele>293.33333333333337</ele><time>2026-05-01T15:45:43.169Z</time></trkpt><trkpt lat="45.6767471" lon="8.7629552"><ele>293.1666666666667</ele><time>2026-05-01T15:45:45.194Z</time></trkpt><trkpt lat="45.6766764" lon="8.7628656"><ele>293.0</ele><time>2026-05-01T15:45:48.194Z</time></trkpt><trkpt lat="45.676625" lon="8.7627863"><ele>293.0</ele><time>2026-05-01T15:45:50.193Z</time></trkpt><trkpt lat="45.6765691" lon="8.7626701"><ele>293.0</ele><time>2026-05-01T15:45:52.193Z</time></trkpt><trkpt lat="45.6765294" lon="8.7625672"><ele>293.0</ele><time>2026-05-01T15:45:54.194Z</time></trkpt><trkpt lat="45.6764799" lon="8.7624592"><ele>293.0</ele><time>2026-05-01T15:45:56.194Z</time></trkpt><trkpt lat="45.6764198" lon="8.7623715"><ele>293.0</ele><time>2026-05-01T15:45:58.193Z</time></trkpt><trkpt lat="45.6763656" lon="8.7622831"><ele>293.0</ele><time>2026-05-01T15:46:00.194Z</time></trkpt><trkpt lat="45.6762943" lon="8.7621718"><ele>293.0</ele><time>2026-05-01T15:46:02.193Z</time></trkpt><trkpt lat="45.676231" lon="8.7620849"><ele>293.0</ele><time>2026-05-01T15:46:04.195Z</time></trkpt><trkpt lat="45.6761743" lon="8.7619951"><ele>293.0</ele><time>2026-05-01T15:46:06.193Z</time></trkpt><trkpt lat="45.676124" lon="8.7619075"><ele>293.0</ele><time>2026-05-01T15:46:08.194Z</time></trkpt><trkpt lat="45.6760774" lon="8.7618436"><ele>293.0</ele><time>2026-05-01T15:46:10.193Z</time></trkpt><trkpt lat="45.676037" lon="8.7617744"><ele>293.0</ele><time>2026-05-01T15:46:12.194Z</time></trkpt><trkpt lat="45.6759888" lon="8.7616951"><ele>293.1666666666667</ele><time>2026-05-01T15:46:14.194Z</time></trkpt><trkpt lat="45.6759423" lon="8.7615936"><ele>293.33333333333337</ele><time>2026-05-01T15:46:16.195Z</time></trkpt><trkpt lat="45.6759048" lon="8.761476"><ele>293.5</ele><time>2026-05-01T15:46:18.194Z</time></trkpt><trkpt lat="45.6758681" lon="8.7613878"><ele>293.6666666666667</ele><time>2026-05-01T15:46:21.194Z</time></trkpt><trkpt lat="45.6758299" lon="8.761286"><ele>293.8333333333333</ele><time>2026-05-01T15:46:24.193Z</time></trkpt><trkpt lat="45.6757875" lon="8.7611706"><ele>294.0</ele><time>2026-05-01T15:46:27.194Z</time></trkpt><trkpt lat="45.6757388" lon="8.7610584"><ele>294.14285714285717</ele><time>2026-05-01T15:46:30.193Z</time></trkpt><trkpt lat="45.6757067" lon="8.7609615"><ele>294.2857142857143</ele><time>2026-05-01T15:46:32.193Z</time></trkpt><trkpt lat="45.6756952" lon="8.7608563"><ele>294.42857142857144</ele><time>2026-05-01T15:46:34.194Z</time></trkpt><trkpt lat="45.6756742" lon="8.760761"><ele>294.57142857142856</ele><time>2026-05-01T15:46:36.194Z</time></trkpt><trkpt lat="45.6756763" lon="8.7606571"><ele>294.7142857142857</ele><time>2026-05-01T15:46:38.194Z</time></trkpt><trkpt lat="45.6756913" lon="8.7605659"><ele>294.8571428571429</ele><time>2026-05-01T15:46:40.193Z</time></trkpt><trkpt lat="45.6756902" lon="8.7604592"><ele>295.0</ele><time>2026-05-01T15:46:42.194Z</time></trkpt><trkpt lat="45.6756713" lon="8.7602477"><ele>295.16666666666663</ele><time>2026-05-01T15:46:44.194Z</time></trkpt><trkpt lat="45.6756805" lon="8.76015"><ele>295.3333333333333</ele><time>2026-05-01T15:46:46.193Z</time></trkpt><trkpt lat="45.6756814" lon="8.7600305"><ele>295.5</ele><time>2026-05-01T15:46:49.194Z</time></trkpt><trkpt lat="45.6756784" lon="8.7599155"><ele>295.6666666666667</ele><time>2026-05-01T15:46:52.194Z</time></trkpt><trkpt lat="45.6756693" lon="8.7597852"><ele>295.83333333333337</ele><time>2026-05-01T15:46:55.194Z</time></trkpt><trkpt lat="45.6756495" lon="8.7596968"><ele>296.0</ele><time>2026-05-01T15:46:57.194Z</time></trkpt><trkpt lat="45.675643" lon="8.759603"><ele>296.0</ele><time>2026-05-01T15:46:59.194Z</time></trkpt><trkpt lat="45.6756564" lon="8.7595094"><ele>296.0</ele><time>2026-05-01T15:47:01.194Z</time></trkpt><trkpt lat="45.6756621" lon="8.7594145"><ele>296.0</ele><time>2026-05-01T15:47:03.194Z</time></trkpt><trkpt lat="45.6756566" lon="8.7593072"><ele>296.0</ele><time>2026-05-01T15:47:05.195Z</time></trkpt><trkpt lat="45.6756446" lon="8.7592015"><ele>296.0</ele><time>2026-05-01T15:47:07.194Z</time></trkpt><trkpt lat="45.6756473" lon="8.7590833"><ele>296.0</ele><time>2026-05-01T15:47:10.194Z</time></trkpt><trkpt lat="45.6756319" lon="8.7589697"><ele>296.0</ele><time>2026-05-01T15:47:13.194Z</time></trkpt><trkpt lat="45.6756169" lon="8.7588382"><ele>296.1666666666667</ele><time>2026-05-01T15:47:16.194Z</time></trkpt><trkpt lat="45.6755928" lon="8.7587513"><ele>296.33333333333337</ele><time>2026-05-01T15:47:18.194Z</time></trkpt><trkpt lat="45.675646" lon="8.7586573"><ele>296.5</ele><time>2026-05-01T15:47:21.194Z</time></trkpt><trkpt lat="45.675729" lon="8.758615"><ele>296.6666666666667</ele><time>2026-05-01T15:47:24.193Z</time></trkpt><trkpt lat="45.6758184" lon="8.7585735"><ele>296.8333333333333</ele><time>2026-05-01T15:47:27.193Z</time></trkpt><trkpt lat="45.6759031" lon="8.758533"><ele>297.0</ele><time>2026-05-01T15:47:30.192Z</time></trkpt><trkpt lat="45.6759951" lon="8.7585514"><ele>297.0</ele><time>2026-05-01T15:47:33.193Z</time></trkpt><trkpt lat="45.6760625" lon="8.7585633"><ele>297.0</ele><time>2026-05-01T15:47:35.193Z</time></trkpt><trkpt lat="45.6761255" lon="8.7585653"><ele>297.0</ele><time>2026-05-01T15:47:37.192Z</time></trkpt><trkpt lat="45.676179" lon="8.7586777"><ele>297.0</ele><time>2026-05-01T15:47:39.193Z</time></trkpt><trkpt lat="45.6762169" lon="8.7587895"><ele>297.0</ele><time>2026-05-01T15:47:41.192Z</time></trkpt><trkpt lat="45.6762844" lon="8.758879"><ele>297.0</ele><time>2026-05-01T15:47:43.192Z</time></trkpt><trkpt lat="45.6763338" lon="8.758971"><ele>296.57142857142856</ele><time>2026-05-01T15:47:45.193Z</time></trkpt><trkpt lat="45.676383" lon="8.7590502"><ele>296.14285714285717</ele><time>2026-05-01T15:47:47.192Z</time></trkpt><trkpt lat="45.676432" lon="8.7591248"><ele>295.7142857142857</ele><time>2026-05-01T15:47:49.193Z</time></trkpt><trkpt lat="45.6764846" lon="8.7592034"><ele>295.2857142857143</ele><time>2026-05-01T15:47:51.193Z</time></trkpt><trkpt lat="45.6765178" lon="8.7592967"><ele>294.8571428571429</ele><time>2026-05-01T15:47:53.192Z</time></trkpt><trkpt lat="45.676524" lon="8.7593929"><ele>294.42857142857144</ele><time>2026-05-01T15:47:55.193Z</time></trkpt><trkpt lat="45.6765317" lon="8.759517"><ele>294.0</ele><time>2026-05-01T15:48:13.192Z</time></trkpt><trkpt lat="45.6765433" lon="8.7596392"><ele>294.0</ele><time>2026-05-01T15:48:16.193Z</time></trkpt><trkpt lat="45.6765601" lon="8.7597638"><ele>294.0</ele><time>2026-05-01T15:48:19.193Z</time></trkpt><trkpt lat="45.6765745" lon="8.7598818"><ele>294.0</ele><time>2026-05-01T15:48:22.192Z</time></trkpt><trkpt lat="45.6766145" lon="8.7600086"><ele>294.0</ele><time>2026-05-01T15:48:25.193Z</time></trkpt><trkpt lat="45.676634" lon="8.7601425"><ele>294.0</ele><time>2026-05-01T15:48:28.192Z</time></trkpt><trkpt lat="45.6766438" lon="8.7602712"><ele>294.0</ele><time>2026-05-01T15:48:31.192Z</time></trkpt><trkpt lat="45.6766662" lon="8.7603782"><ele>294.0</ele><time>2026-05-01T15:48:33.193Z</time></trkpt><trkpt lat="45.6767021" lon="8.7604657"><ele>294.0</ele><time>2026-05-01T15:48:35.192Z</time></trkpt><trkpt lat="45.676746" lon="8.760578"><ele>294.0</ele><time>2026-05-01T15:48:38.193Z</time></trkpt><trkpt lat="45.6767984" lon="8.7606744"><ele>294.0</ele><time>2026-05-01T15:48:41.193Z</time></trkpt><trkpt lat="45.6768381" lon="8.7607508"><ele>294.0</ele><time>2026-05-01T15:48:43.194Z</time></trkpt><trkpt lat="45.6768692" lon="8.7608699"><ele>294.0</ele><time>2026-05-01T15:48:45.193Z</time></trkpt><trkpt lat="45.6769009" lon="8.7609899"><ele>294.0</ele><time>2026-05-01T15:48:47.193Z</time></trkpt><trkpt lat="45.6769282" lon="8.761113"><ele>294.0</ele><time>2026-05-01T15:48:49.193Z</time></trkpt><trkpt lat="45.6769494" lon="8.761231"><ele>294.0</ele><time>2026-05-01T15:48:51.193Z</time></trkpt><trkpt lat="45.6769487" lon="8.7613341"><ele>294.0</ele><time>2026-05-01T15:48:53.193Z</time></trkpt><trkpt lat="45.6769417" lon="8.7614369"><ele>294.0</ele><time>2026-05-01T15:48:55.193Z</time></trkpt><trkpt lat="45.6769245" lon="8.7615556"><ele>293.8</ele><time>2026-05-01T15:48:57.193Z</time></trkpt><trkpt lat="45.6769207" lon="8.7616735"><ele>293.59999999999997</ele><time>2026-05-01T15:48:59.194Z</time></trkpt><trkpt lat="45.6769136" lon="8.761796"><ele>293.4</ele><time>2026-05-01T15:49:01.192Z</time></trkpt><trkpt lat="45.6768865" lon="8.7619354"><ele>293.2</ele><time>2026-05-01T15:49:03.193Z</time></trkpt><trkpt lat="45.6768462" lon="8.7620938"><ele>293.0</ele><time>2026-05-01T15:49:05.193Z</time></trkpt><trkpt lat="45.6768032" lon="8.7622732"><ele>292.99999999999994</ele><time>2026-05-01T15:49:07.193Z</time></trkpt><trkpt lat="45.6767794" lon="8.7623644"><ele>293.0</ele><time>2026-05-01T15:49:08.193Z</time></trkpt><trkpt lat="45.6767574" lon="8.762453"><ele>293.0</ele><time>2026-05-01T15:49:09.193Z</time></trkpt><trkpt lat="45.6767345" lon="8.7625625"><ele>293.0</ele><time>2026-05-01T15:49:11.193Z</time></trkpt><trkpt lat="45.6767237" lon="8.7626758"><ele>293.0</ele><time>2026-05-01T15:49:13.193Z</time></trkpt><trkpt lat="45.6767488" lon="8.7627616"><ele>292.99999999999994</ele><time>2026-05-01T15:49:15.192Z</time></trkpt><trkpt lat="45.6767928" lon="8.7628361"><ele>293.0</ele><time>2026-05-01T15:49:17.193Z</time></trkpt><trkpt lat="45.6768387" lon="8.7629176"><ele>293.0</ele><time>2026-05-01T15:49:19.192Z</time></trkpt><trkpt lat="45.6768858" lon="8.7630056"><ele>293.0</ele><time>2026-05-01T15:49:21.193Z</time></trkpt><trkpt lat="45.6769417" lon="8.7630999"><ele>293.0</ele><time>2026-05-01T15:49:22.193Z</time></trkpt><trkpt lat="45.6769651" lon="8.7629849"><ele>293.0</ele><time>2026-05-01T15:49:44.192Z</time></trkpt><trkpt lat="45.677011" lon="8.7628944"><ele>293.0</ele><time>2026-05-01T15:49:46.193Z</time></trkpt><trkpt lat="45.6770654" lon="8.7627804"><ele>293.0</ele><time>2026-05-01T15:49:48.193Z</time></trkpt><trkpt lat="45.6771098" lon="8.7626998"><ele>293.5</ele><time>2026-05-01T15:49:50.192Z</time></trkpt><trkpt lat="45.6771549" lon="8.7626106"><ele>294.0</ele><time>2026-05-01T15:49:52.193Z</time></trkpt><trkpt lat="45.6772005" lon="8.7625154"><ele>294.5</ele><time>2026-05-01T15:49:54.192Z</time></trkpt><trkpt lat="45.677255" lon="8.7624204"><ele>295.0</ele><time>2026-05-01T15:49:56.193Z</time></trkpt><trkpt lat="45.6772993" lon="8.7623418"><ele>295.5</ele><time>2026-05-01T15:49:58.193Z</time></trkpt><trkpt lat="45.6773555" lon="8.7622726"><ele>296.0</ele><time>2026-05-01T15:50:00.193Z</time></trkpt><trkpt lat="45.6774067" lon="8.7621951"><ele>296.0</ele><time>2026-05-01T15:50:02.193Z</time></trkpt><trkpt lat="45.6774503" lon="8.7621237"><ele>296.0</ele><time>2026-05-01T15:50:04.193Z</time></trkpt><trkpt lat="45.6774949" lon="8.7620462"><ele>296.0</ele><time>2026-05-01T15:50:06.193Z</time></trkpt><trkpt lat="45.6775426" lon="8.7619692"><ele>296.0</ele><time>2026-05-01T15:50:08.193Z</time></trkpt><trkpt lat="45.6775922" lon="8.7619011"><ele>296.0</ele><time>2026-05-01T15:50:10.192Z</time></trkpt><trkpt lat="45.6776439" lon="8.761824"><ele>296.0</ele><time>2026-05-01T15:50:12.193Z</time></trkpt><trkpt lat="45.6776936" lon="8.7617484"><ele>296.0</ele><time>2026-05-01T15:50:14.193Z</time></trkpt><trkpt lat="45.6777353" lon="8.761659"><ele>295.83333333333337</ele><time>2026-05-01T15:50:16.193Z</time></trkpt><trkpt lat="45.6777765" lon="8.7615851"><ele>295.6666666666667</ele><time>2026-05-01T15:50:18.193Z</time></trkpt><trkpt lat="45.6778341" lon="8.761512"><ele>295.5</ele><time>2026-05-01T15:50:20.193Z</time></trkpt><trkpt lat="45.6778973" lon="8.7614406"><ele>295.3333333333333</ele><time>2026-05-01T15:50:22.193Z</time></trkpt><trkpt lat="45.6779716" lon="8.7613965"><ele>295.16666666666663</ele><time>2026-05-01T15:50:24.193Z</time></trkpt><trkpt lat="45.6780437" lon="8.7613404"><ele>295.0</ele><time>2026-05-01T15:50:26.194Z</time></trkpt><trkpt lat="45.6781205" lon="8.7612907"><ele>295.0</ele><time>2026-05-01T15:50:28.193Z</time></trkpt><trkpt lat="45.6781987" lon="8.7612475"><ele>295.0</ele><time>2026-05-01T15:50:30.193Z</time></trkpt><trkpt lat="45.6782737" lon="8.761246"><ele>295.0</ele><time>2026-05-01T15:50:32.192Z</time></trkpt><trkpt lat="45.6783582" lon="8.761259"><ele>295.0</ele><time>2026-05-01T15:50:34.193Z</time></trkpt><trkpt lat="45.6784446" lon="8.7612561"><ele>295.0</ele><time>2026-05-01T15:50:36.192Z</time></trkpt><trkpt lat="45.6785294" lon="8.7612353"><ele>295.0</ele><time>2026-05-01T15:50:39.193Z</time></trkpt><trkpt lat="45.678606" lon="8.7612635"><ele>295.0</ele><time>2026-05-01T15:50:42.192Z</time></trkpt><trkpt lat="45.6786469" lon="8.7613717"><ele>295.0</ele><time>2026-05-01T15:50:45.193Z</time></trkpt><trkpt lat="45.6786929" lon="8.7614678"><ele>295.0</ele><time>2026-05-01T15:50:52.193Z</time></trkpt><trkpt lat="45.6787603" lon="8.7615698"><ele>295.0</ele><time>2026-05-01T15:50:58.195Z</time></trkpt><trkpt lat="45.6787738" lon="8.7616606"><ele>295.0</ele><time>2026-05-01T15:51:05.196Z</time></trkpt><trkpt lat="45.6787964" lon="8.7617561"><ele>295.0</ele><time>2026-05-01T15:51:09.197Z</time></trkpt><trkpt lat="45.6787922" lon="8.7618726"><ele>295.0</ele><time>2026-05-01T15:51:13.198Z</time></trkpt><trkpt lat="45.67879" lon="8.7619775"><ele>295.0</ele><time>2026-05-01T15:51:16.193Z</time></trkpt><trkpt lat="45.6788059" lon="8.7621213"><ele>295.0</ele><time>2026-05-01T15:51:19.191Z</time></trkpt><trkpt lat="45.6788404" lon="8.7622371"><ele>295.0</ele><time>2026-05-01T15:51:23.191Z</time></trkpt><trkpt lat="45.6788599" lon="8.7623497"><ele>295.0</ele><time>2026-05-01T15:51:26.192Z</time></trkpt><trkpt lat="45.678874" lon="8.7624521"><ele>295.0</ele><time>2026-05-01T15:51:28.193Z</time></trkpt><trkpt lat="45.6788969" lon="8.7625712"><ele>295.00000000000006</ele><time>2026-05-01T15:51:31.199Z</time></trkpt><trkpt lat="45.6789095" lon="8.7626713"><ele>295.0</ele><time>2026-05-01T15:51:34.193Z</time></trkpt><trkpt lat="45.6789125" lon="8.7627677"><ele>295.0</ele><time>2026-05-01T15:51:37.188Z</time></trkpt><trkpt lat="45.6789298" lon="8.7628638"><ele>295.0</ele><time>2026-05-01T15:51:40.188Z</time></trkpt><trkpt lat="45.6789429" lon="8.7629631"><ele>295.0</ele><time>2026-05-01T15:51:43.194Z</time></trkpt><trkpt lat="45.6789385" lon="8.7630757"><ele>295.00000000000006</ele><time>2026-05-01T15:51:46.191Z</time></trkpt><trkpt lat="45.6789328" lon="8.7631935"><ele>295.0</ele><time>2026-05-01T15:51:49.193Z</time></trkpt><trkpt lat="45.678937" lon="8.7632905"><ele>295.0</ele><time>2026-05-01T15:51:52.195Z</time></trkpt><trkpt lat="45.6789425" lon="8.7634094"><ele>295.0</ele><time>2026-05-01T15:51:55.193Z</time></trkpt><trkpt lat="45.6789301" lon="8.7635059"><ele>295.0</ele><time>2026-05-01T15:51:57.194Z</time></trkpt><trkpt lat="45.6789165" lon="8.7636394"><ele>295.0</ele><time>2026-05-01T15:52:00.198Z</time></trkpt><trkpt lat="45.678897" lon="8.7637462"><ele>295.0</ele><time>2026-05-01T15:52:03.196Z</time></trkpt><trkpt lat="45.6788756" lon="8.7638601"><ele>295.0</ele><time>2026-05-01T15:52:06.189Z</time></trkpt><trkpt lat="45.6788585" lon="8.7639512"><ele>294.42857142857144</ele><time>2026-05-01T15:52:08.2Z</time></trkpt><trkpt lat="45.6788292" lon="8.7640407"><ele>293.8571428571429</ele><time>2026-05-01T15:52:10.188Z</time></trkpt><trkpt lat="45.6788148" lon="8.764144"><ele>293.2857142857143</ele><time>2026-05-01T15:52:12.187Z</time></trkpt><trkpt lat="45.6787969" lon="8.7642347"><ele>292.7142857142857</ele><time>2026-05-01T15:52:14.194Z</time></trkpt><trkpt lat="45.6787555" lon="8.7643367"><ele>292.1428571428571</ele><time>2026-05-01T15:52:17.186Z</time></trkpt><trkpt lat="45.6787131" lon="8.7644184"><ele>291.57142857142856</ele><time>2026-05-01T15:52:20.19Z</time></trkpt><trkpt lat="45.6786572" lon="8.7644947"><ele>291.0</ele><time>2026-05-01T15:52:24.185Z</time></trkpt><trkpt lat="45.6787109" lon="8.764438"><ele>291.0</ele><time>2026-05-01T15:52:39.197Z</time></trkpt><trkpt lat="45.6787676" lon="8.7643567"><ele>291.0</ele><time>2026-05-01T15:52:43.2Z</time></trkpt><trkpt lat="45.6788099" lon="8.7642857"><ele>291.0</ele><time>2026-05-01T15:52:45.196Z</time></trkpt><trkpt lat="45.6788736" lon="8.7642122"><ele>291.0</ele><time>2026-05-01T15:52:47.194Z</time></trkpt><trkpt lat="45.6789378" lon="8.76416"><ele>291.0</ele><time>2026-05-01T15:52:49.192Z</time></trkpt><trkpt lat="45.67901" lon="8.7641183"><ele>291.0</ele><time>2026-05-01T15:52:51.194Z</time></trkpt><trkpt lat="45.6790811" lon="8.7640775"><ele>291.0</ele><time>2026-05-01T15:52:53.2Z</time></trkpt><trkpt lat="45.6791415" lon="8.7640152"><ele>291.0</ele><time>2026-05-01T15:52:55.19Z</time></trkpt><trkpt lat="45.6792228" lon="8.7639504"><ele>291.0</ele><time>2026-05-01T15:52:58.188Z</time></trkpt><trkpt lat="45.6792935" lon="8.7638911"><ele>291.0</ele><time>2026-05-01T15:53:00.189Z</time></trkpt><trkpt lat="45.6793598" lon="8.7638241"><ele>291.0</ele><time>2026-05-01T15:53:02.199Z</time></trkpt><trkpt lat="45.6794179" lon="8.7637772"><ele>291.0</ele><time>2026-05-01T15:53:04.19Z</time></trkpt><trkpt lat="45.6794897" lon="8.7637328"><ele>291.3333333333333</ele><time>2026-05-01T15:53:06.19Z</time></trkpt><trkpt lat="45.6795562" lon="8.763685"><ele>291.6666666666667</ele><time>2026-05-01T15:53:08.188Z</time></trkpt><trkpt lat="45.6796195" lon="8.7636195"><ele>292.0</ele><time>2026-05-01T15:53:10.192Z</time></trkpt><trkpt lat="45.6796864" lon="8.7635396"><ele>292.33333333333337</ele><time>2026-05-01T15:53:12.196Z</time></trkpt><trkpt lat="45.6797513" lon="8.763495"><ele>292.6666666666667</ele><time>2026-05-01T15:53:14.147Z</time></trkpt><trkpt lat="45.6798201" lon="8.7634212"><ele>293.0</ele><time>2026-05-01T15:53:16.166Z</time></trkpt><trkpt lat="45.6798904" lon="8.7633506"><ele>293.2857142857143</ele><time>2026-05-01T15:53:18.213Z</time></trkpt><trkpt lat="45.6799597" lon="8.7632785"><ele>293.57142857142856</ele><time>2026-05-01T15:53:20.192Z</time></trkpt><trkpt lat="45.6800283" lon="8.7632035"><ele>293.8571428571429</ele><time>2026-05-01T15:53:22.199Z</time></trkpt><trkpt lat="45.6800933" lon="8.7631428"><ele>294.1428571428571</ele><time>2026-05-01T15:53:24.194Z</time></trkpt><trkpt lat="45.6801502" lon="8.7630968"><ele>294.42857142857144</ele><time>2026-05-01T15:53:26.199Z</time></trkpt><trkpt lat="45.6802118" lon="8.7630595"><ele>294.7142857142857</ele><time>2026-05-01T15:53:29.199Z</time></trkpt><trkpt lat="45.6802687" lon="8.7630156"><ele>295.0</ele><time>2026-05-01T15:54:11.2Z</time></trkpt><trkpt lat="45.6803461" lon="8.7629779"><ele>295.3333333333333</ele><time>2026-05-01T15:54:14.2Z</time></trkpt><trkpt lat="45.6804174" lon="8.7629254"><ele>295.6666666666667</ele><time>2026-05-01T15:54:17.187Z</time></trkpt><trkpt lat="45.6804702" lon="8.7628578"><ele>296.0</ele><time>2026-05-01T15:54:20.197Z</time></trkpt><trkpt lat="45.6808545" lon="8.7626392"><ele>295.2</ele><time>2026-05-01T15:54:21.198Z</time></trkpt><trkpt lat="45.6809736" lon="8.7625523"><ele>294.40000000000003</ele><time>2026-05-01T15:54:23.191Z</time></trkpt><trkpt lat="45.6810336" lon="8.7625038"><ele>293.6</ele><time>2026-05-01T15:54:24.196Z</time></trkpt><trkpt lat="45.6811326" lon="8.7624267"><ele>292.8</ele><time>2026-05-01T15:54:26.193Z</time></trkpt><trkpt lat="45.6812301" lon="8.762354"><ele>292.0</ele><time>2026-05-01T15:54:28.194Z</time></trkpt><trkpt lat="45.6812901" lon="8.7622764"><ele>291.8</ele><time>2026-05-01T15:54:29.191Z</time></trkpt><trkpt lat="45.6814224" lon="8.7621892"><ele>291.6</ele><time>2026-05-01T15:54:31.196Z</time></trkpt><trkpt lat="45.6814504" lon="8.7621"><ele>291.40000000000003</ele><time>2026-05-01T15:54:32.195Z</time></trkpt><trkpt lat="45.6815583" lon="8.7620207"><ele>291.2</ele><time>2026-05-01T15:54:34.195Z</time></trkpt><trkpt lat="45.6816494" lon="8.7619513"><ele>291.0</ele><time>2026-05-01T15:54:36.192Z</time></trkpt><trkpt lat="45.6817359" lon="8.7618491"><ele>290.8</ele><time>2026-05-01T15:54:38.19Z</time></trkpt><trkpt lat="45.6818156" lon="8.7617668"><ele>290.6</ele><time>2026-05-01T15:54:40.192Z</time></trkpt><trkpt lat="45.6819183" lon="8.7616601"><ele>290.4</ele><time>2026-05-01T15:54:42.193Z</time></trkpt><trkpt lat="45.6820096" lon="8.761579"><ele>290.2</ele><time>2026-05-01T15:54:44.191Z</time></trkpt><trkpt lat="45.6820791" lon="8.7614939"><ele>290.0</ele><time>2026-05-01T15:54:46.187Z</time></trkpt><trkpt lat="45.682173" lon="8.7614145"><ele>289.6</ele><time>2026-05-01T15:54:48.193Z</time></trkpt><trkpt lat="45.6822568" lon="8.7613496"><ele>289.2</ele><time>2026-05-01T15:54:50.19Z</time></trkpt><trkpt lat="45.6823445" lon="8.7612788"><ele>288.8</ele><time>2026-05-01T15:54:52.188Z</time></trkpt><trkpt lat="45.6824244" lon="8.7611902"><ele>288.4</ele><time>2026-05-01T15:54:54.188Z</time></trkpt><trkpt lat="45.6825099" lon="8.7611047"><ele>288.0</ele><time>2026-05-01T15:54:56.192Z</time></trkpt><trkpt lat="45.6826055" lon="8.7610344"><ele>288.6</ele><time>2026-05-01T15:54:58.187Z</time></trkpt><trkpt lat="45.6826981" lon="8.7609732"><ele>289.20000000000005</ele><time>2026-05-01T15:55:00.197Z</time></trkpt><trkpt lat="45.6827807" lon="8.7609063"><ele>289.8</ele><time>2026-05-01T15:55:02.186Z</time></trkpt><trkpt lat="45.682855" lon="8.7607868"><ele>290.40000000000003</ele><time>2026-05-01T15:55:04.188Z</time></trkpt><trkpt lat="45.6829226" lon="8.7606877"><ele>291.0</ele><time>2026-05-01T15:55:06.192Z</time></trkpt><trkpt lat="45.6829824" lon="8.7605621"><ele>288.8</ele><time>2026-05-01T15:55:08.192Z</time></trkpt><trkpt lat="45.6830608" lon="8.7604456"><ele>286.6</ele><time>2026-05-01T15:55:10.199Z</time></trkpt><trkpt lat="45.6831147" lon="8.7603536"><ele>284.4</ele><time>2026-05-01T15:55:12.195Z</time></trkpt><trkpt lat="45.6831956" lon="8.7602475"><ele>282.2</ele><time>2026-05-01T15:55:14.192Z</time></trkpt><trkpt lat="45.6832753" lon="8.760153"><ele>280.0</ele><time>2026-05-01T15:55:16.188Z</time></trkpt><trkpt lat="45.6833439" lon="8.7600785"><ele>279.8</ele><time>2026-05-01T15:55:18.194Z</time></trkpt><trkpt lat="45.6834424" lon="8.7600821"><ele>279.6</ele><time>2026-05-01T15:55:20.2Z</time></trkpt><trkpt lat="45.6835487" lon="8.7600865"><ele>279.4</ele><time>2026-05-01T15:55:22.198Z</time></trkpt><trkpt lat="45.6836446" lon="8.7600455"><ele>279.2</ele><time>2026-05-01T15:55:24.186Z</time></trkpt><trkpt lat="45.683732" lon="8.7600017"><ele>279.0</ele><time>2026-05-01T15:55:26.192Z</time></trkpt><trkpt lat="45.6838079" lon="8.759949"><ele>278.8333333333333</ele><time>2026-05-01T15:55:28.2Z</time></trkpt><trkpt lat="45.6838828" lon="8.759896"><ele>278.6666666666667</ele><time>2026-05-01T15:55:30.196Z</time></trkpt><trkpt lat="45.6839577" lon="8.7598488"><ele>278.5</ele><time>2026-05-01T15:55:32.198Z</time></trkpt><trkpt lat="45.6840317" lon="8.7598025"><ele>278.33333333333337</ele><time>2026-05-01T15:55:34.188Z</time></trkpt><trkpt lat="45.6840999" lon="8.7597486"><ele>278.1666666666667</ele><time>2026-05-01T15:55:36.194Z</time></trkpt><trkpt lat="45.6841643" lon="8.7596988"><ele>278.0</ele><time>2026-05-01T15:55:38.192Z</time></trkpt><trkpt lat="45.6842305" lon="8.7596418"><ele>278.0</ele><time>2026-05-01T15:55:40.189Z</time></trkpt><trkpt lat="45.6842866" lon="8.7595664"><ele>278.0</ele><time>2026-05-01T15:55:42.188Z</time></trkpt><trkpt lat="45.6843366" lon="8.759481"><ele>278.0</ele><time>2026-05-01T15:55:44.196Z</time></trkpt><trkpt lat="45.684391" lon="8.7593966"><ele>278.0</ele><time>2026-05-01T15:55:46.193Z</time></trkpt><trkpt lat="45.6844611" lon="8.7593356"><ele>278.0</ele><time>2026-05-01T15:55:48.188Z</time></trkpt><trkpt lat="45.6845326" lon="8.759279"><ele>278.0</ele><time>2026-05-01T15:55:50.199Z</time></trkpt><trkpt lat="45.6846045" lon="8.7592166"><ele>277.6666666666667</ele><time>2026-05-01T15:55:52.196Z</time></trkpt><trkpt lat="45.6846738" lon="8.7591403"><ele>277.33333333333337</ele><time>2026-05-01T15:55:54.197Z</time></trkpt><trkpt lat="45.6847418" lon="8.7590587"><ele>277.0</ele><time>2026-05-01T15:55:56.197Z</time></trkpt><trkpt lat="45.6848101" lon="8.7589785"><ele>276.6666666666667</ele><time>2026-05-01T15:55:58.197Z</time></trkpt><trkpt lat="45.684885" lon="8.7589068"><ele>276.3333333333333</ele><time>2026-05-01T15:56:00.196Z</time></trkpt><trkpt lat="45.6849665" lon="8.7588576"><ele>276.0</ele><time>2026-05-01T15:56:02.197Z</time></trkpt><trkpt lat="45.6850514" lon="8.7588327"><ele>276.0</ele><time>2026-05-01T15:56:04.197Z</time></trkpt><trkpt lat="45.6851307" lon="8.7587942"><ele>276.0</ele><time>2026-05-01T15:56:06.196Z</time></trkpt><trkpt lat="45.6852043" lon="8.7587393"><ele>276.0</ele><time>2026-05-01T15:56:08.197Z</time></trkpt><trkpt lat="45.6852659" lon="8.7586558"><ele>276.0</ele><time>2026-05-01T15:56:10.196Z</time></trkpt><trkpt lat="45.6853128" lon="8.7585544"><ele>276.0</ele><time>2026-05-01T15:56:12.197Z</time></trkpt><trkpt lat="45.6853476" lon="8.7584474"><ele>276.0</ele><time>2026-05-01T15:56:14.197Z</time></trkpt><trkpt lat="45.6853776" lon="8.7583557"><ele>276.6666666666667</ele><time>2026-05-01T15:56:16.197Z</time></trkpt><trkpt lat="45.6854151" lon="8.7582749"><ele>277.3333333333333</ele><time>2026-05-01T15:56:18.197Z</time></trkpt><trkpt lat="45.6854617" lon="8.7581989"><ele>278.0</ele><time>2026-05-01T15:56:20.197Z</time></trkpt><trkpt lat="45.6855338" lon="8.7581304"><ele>278.66666666666663</ele><time>2026-05-01T15:56:22.196Z</time></trkpt><trkpt lat="45.6855856" lon="8.7580308"><ele>279.3333333333333</ele><time>2026-05-01T15:56:24.196Z</time></trkpt><trkpt lat="45.6855865" lon="8.75794"><ele>280.0</ele><time>2026-05-01T15:56:26.197Z</time></trkpt><trkpt lat="45.6855545" lon="8.7578189"><ele>281.0</ele><time>2026-05-01T15:56:28.196Z</time></trkpt><trkpt lat="45.6855148" lon="8.7576974"><ele>282.0</ele><time>2026-05-01T15:56:30.197Z</time></trkpt><trkpt lat="45.685475" lon="8.7576138"><ele>283.0</ele><time>2026-05-01T15:56:32.197Z</time></trkpt><trkpt lat="45.6854278" lon="8.7575097"><ele>284.0</ele><time>2026-05-01T15:56:34.196Z</time></trkpt><trkpt lat="45.6853837" lon="8.757391"><ele>285.0</ele><time>2026-05-01T15:56:36.197Z</time></trkpt><trkpt lat="45.6853564" lon="8.7572624"><ele>286.0</ele><time>2026-05-01T15:56:38.196Z</time></trkpt><trkpt lat="45.6853147" lon="8.7571325"><ele>286.0</ele><time>2026-05-01T15:56:41.197Z</time></trkpt><trkpt lat="45.6852866" lon="8.7569878"><ele>286.0</ele><time>2026-05-01T15:56:43.197Z</time></trkpt><trkpt lat="45.6852801" lon="8.7568408"><ele>286.0</ele><time>2026-05-01T15:56:46.196Z</time></trkpt><trkpt lat="45.6852678" lon="8.7567303"><ele>286.0</ele><time>2026-05-01T15:56:48.196Z</time></trkpt><trkpt lat="45.6852513" lon="8.7566102"><ele>286.0</ele><time>2026-05-01T15:56:50.197Z</time></trkpt><trkpt lat="45.6852169" lon="8.7564912"><ele>286.6</ele><time>2026-05-01T15:56:52.196Z</time></trkpt><trkpt lat="45.6851854" lon="8.7563842"><ele>287.20000000000005</ele><time>2026-05-01T15:56:54.196Z</time></trkpt><trkpt lat="45.6851485" lon="8.7562408"><ele>287.79999999999995</ele><time>2026-05-01T15:56:57.197Z</time></trkpt><trkpt lat="45.6851111" lon="8.7561192"><ele>288.4</ele><time>2026-05-01T15:56:59.197Z</time></trkpt><trkpt lat="45.6850715" lon="8.7560027"><ele>289.0</ele><time>2026-05-01T15:57:01.197Z</time></trkpt><trkpt lat="45.685012" lon="8.7558664"><ele>289.4</ele><time>2026-05-01T15:57:03.197Z</time></trkpt><trkpt lat="45.6849785" lon="8.7557307"><ele>289.79999999999995</ele><time>2026-05-01T15:57:05.197Z</time></trkpt><trkpt lat="45.6849437" lon="8.7555946"><ele>290.20000000000005</ele><time>2026-05-01T15:57:07.197Z</time></trkpt><trkpt lat="45.6849038" lon="8.7554638"><ele>290.6</ele><time>2026-05-01T15:57:09.196Z</time></trkpt><trkpt lat="45.6848727" lon="8.7553543"><ele>291.0</ele><time>2026-05-01T15:57:11.197Z</time></trkpt><trkpt lat="45.6848404" lon="8.7552559"><ele>291.0</ele><time>2026-05-01T15:57:13.197Z</time></trkpt><trkpt lat="45.6847991" lon="8.7551416"><ele>291.0</ele><time>2026-05-01T15:57:15.196Z</time></trkpt><trkpt lat="45.6847533" lon="8.755021"><ele>291.0</ele><time>2026-05-01T15:57:17.196Z</time></trkpt><trkpt lat="45.6847087" lon="8.7549039"><ele>291.0</ele><time>2026-05-01T15:57:19.196Z</time></trkpt><trkpt lat="45.6846659" lon="8.7548149"><ele>291.0</ele><time>2026-05-01T15:57:21.197Z</time></trkpt><trkpt lat="45.6846102" lon="8.7547257"><ele>291.0</ele><time>2026-05-01T15:57:23.197Z</time></trkpt><trkpt lat="45.6845474" lon="8.7546625"><ele>291.0</ele><time>2026-05-01T15:57:25.197Z</time></trkpt><trkpt lat="45.6844701" lon="8.754603"><ele>291.0</ele><time>2026-05-01T15:57:27.197Z</time></trkpt><trkpt lat="45.6844097" lon="8.7545095"><ele>291.0</ele><time>2026-05-01T15:57:29.197Z</time></trkpt><trkpt lat="45.6843668" lon="8.7544174"><ele>291.0</ele><time>2026-05-01T15:57:32.197Z</time></trkpt><trkpt lat="45.6843763" lon="8.754318"><ele>291.0</ele><time>2026-05-01T15:58:02.197Z</time></trkpt><trkpt lat="45.6844386" lon="8.7542337"><ele>291.0</ele><time>2026-05-01T15:58:06.197Z</time></trkpt><trkpt lat="45.6844933" lon="8.7541613"><ele>290.6</ele><time>2026-05-01T15:58:08.197Z</time></trkpt><trkpt lat="45.6845585" lon="8.7540624"><ele>290.20000000000005</ele><time>2026-05-01T15:58:10.196Z</time></trkpt><trkpt lat="45.684622" lon="8.754025"><ele>289.79999999999995</ele><time>2026-05-01T15:58:11.197Z</time></trkpt><trkpt lat="45.6846993" lon="8.7539774"><ele>289.4</ele><time>2026-05-01T15:58:13.197Z</time></trkpt><trkpt lat="45.6848013" lon="8.7539362"><ele>289.0</ele><time>2026-05-01T15:58:15.197Z</time></trkpt><trkpt lat="45.6848973" lon="8.7538956"><ele>289.0</ele><time>2026-05-01T15:58:17.197Z</time></trkpt><trkpt lat="45.6849935" lon="8.7538688"><ele>289.0</ele><time>2026-05-01T15:58:19.197Z</time></trkpt><trkpt lat="45.6850892" lon="8.7538292"><ele>289.0</ele><time>2026-05-01T15:58:21.197Z</time></trkpt><trkpt lat="45.6851679" lon="8.7537702"><ele>289.0</ele><time>2026-05-01T15:58:23.196Z</time></trkpt><trkpt lat="45.6852581" lon="8.7537137"><ele>289.0</ele><time>2026-05-01T15:58:25.197Z</time></trkpt><trkpt lat="45.6853429" lon="8.7536474"><ele>288.8</ele><time>2026-05-01T15:58:27.196Z</time></trkpt><trkpt lat="45.6854367" lon="8.7536023"><ele>288.59999999999997</ele><time>2026-05-01T15:58:29.196Z</time></trkpt><trkpt lat="45.6855339" lon="8.7535631"><ele>288.4</ele><time>2026-05-01T15:58:31.197Z</time></trkpt><trkpt lat="45.6856292" lon="8.7535181"><ele>288.2</ele><time>2026-05-01T15:58:33.197Z</time></trkpt><trkpt lat="45.6857282" lon="8.7534913"><ele>288.0</ele><time>2026-05-01T15:58:35.196Z</time></trkpt><trkpt lat="45.6858673" lon="8.753423"><ele>288.0</ele><time>2026-05-01T15:58:38.197Z</time></trkpt><trkpt lat="45.685966" lon="8.7533782"><ele>288.0</ele><time>2026-05-01T15:58:40.196Z</time></trkpt><trkpt lat="45.6860523" lon="8.7533229"><ele>288.0</ele><time>2026-05-01T15:58:42.197Z</time></trkpt><trkpt lat="45.6861478" lon="8.7532628"><ele>288.0</ele><time>2026-05-01T15:58:44.197Z</time></trkpt><trkpt lat="45.6862383" lon="8.7532124"><ele>288.0</ele><time>2026-05-01T15:58:46.197Z</time></trkpt><trkpt lat="45.6863296" lon="8.7531638"><ele>287.8</ele><time>2026-05-01T15:58:48.197Z</time></trkpt><trkpt lat="45.6864133" lon="8.753113"><ele>287.6</ele><time>2026-05-01T15:58:50.197Z</time></trkpt><trkpt lat="45.6865109" lon="8.7530953"><ele>287.4</ele><time>2026-05-01T15:58:52.196Z</time></trkpt><trkpt lat="45.686604" lon="8.7530541"><ele>287.2</ele><time>2026-05-01T15:58:55.197Z</time></trkpt><trkpt lat="45.686687" lon="8.7530115"><ele>287.0</ele><time>2026-05-01T15:58:57.197Z</time></trkpt><trkpt lat="45.6867775" lon="8.75296"><ele>287.0</ele><time>2026-05-01T15:58:59.196Z</time></trkpt><trkpt lat="45.6868735" lon="8.7529104"><ele>287.0</ele><time>2026-05-01T15:59:01.197Z</time></trkpt><trkpt lat="45.6869612" lon="8.7528841"><ele>287.0</ele><time>2026-05-01T15:59:03.197Z</time></trkpt><trkpt lat="45.6870482" lon="8.7528504"><ele>287.0</ele><time>2026-05-01T15:59:05.196Z</time></trkpt><trkpt lat="45.6871317" lon="8.7528241"><ele>287.0</ele><time>2026-05-01T15:59:07.196Z</time></trkpt><trkpt lat="45.6872103" lon="8.7527861"><ele>287.5</ele><time>2026-05-01T15:59:09.197Z</time></trkpt><trkpt lat="45.6872967" lon="8.7527428"><ele>288.0</ele><time>2026-05-01T15:59:11.196Z</time></trkpt><trkpt lat="45.6873693" lon="8.7527022"><ele>288.5</ele><time>2026-05-01T15:59:13.196Z</time></trkpt><trkpt lat="45.6874505" lon="8.7526611"><ele>289.0</ele><time>2026-05-01T15:59:15.197Z</time></trkpt><trkpt lat="45.687533" lon="8.7526149"><ele>289.5</ele><time>2026-05-01T15:59:17.197Z</time></trkpt><trkpt lat="45.687612" lon="8.7525696"><ele>290.0</ele><time>2026-05-01T15:59:19.197Z</time></trkpt><trkpt lat="45.6877037" lon="8.752526"><ele>289.83333333333337</ele><time>2026-05-01T15:59:22.196Z</time></trkpt><trkpt lat="45.6877753" lon="8.7524974"><ele>289.6666666666667</ele><time>2026-05-01T15:59:24.197Z</time></trkpt><trkpt lat="45.687845" lon="8.7524623"><ele>289.5</ele><time>2026-05-01T15:59:26.197Z</time></trkpt><trkpt lat="45.6879084" lon="8.7524012"><ele>289.3333333333333</ele><time>2026-05-01T15:59:28.197Z</time></trkpt><trkpt lat="45.6879947" lon="8.7523668"><ele>289.16666666666663</ele><time>2026-05-01T15:59:30.197Z</time></trkpt><trkpt lat="45.6880835" lon="8.7523426"><ele>289.0</ele><time>2026-05-01T15:59:32.197Z</time></trkpt><trkpt lat="45.6881652" lon="8.7523243"><ele>289.0</ele><time>2026-05-01T15:59:34.196Z</time></trkpt><trkpt lat="45.6882582" lon="8.7522927"><ele>289.0</ele><time>2026-05-01T15:59:36.197Z</time></trkpt><trkpt lat="45.6883472" lon="8.7522563"><ele>289.0</ele><time>2026-05-01T15:59:38.197Z</time></trkpt><trkpt lat="45.6884322" lon="8.7522011"><ele>289.0</ele><time>2026-05-01T15:59:40.196Z</time></trkpt><trkpt lat="45.6885148" lon="8.7521428"><ele>289.0</ele><time>2026-05-01T15:59:42.196Z</time></trkpt><trkpt lat="45.6886013" lon="8.7520905"><ele>288.8333333333333</ele><time>2026-05-01T15:59:44.197Z</time></trkpt><trkpt lat="45.6886899" lon="8.7520517"><ele>288.66666666666663</ele><time>2026-05-01T15:59:46.197Z</time></trkpt><trkpt lat="45.6887718" lon="8.7520098"><ele>288.5</ele><time>2026-05-01T15:59:48.197Z</time></trkpt><trkpt lat="45.6888419" lon="8.7519692"><ele>288.3333333333333</ele><time>2026-05-01T15:59:50.197Z</time></trkpt><trkpt lat="45.6889132" lon="8.7519252"><ele>288.1666666666667</ele><time>2026-05-01T15:59:52.197Z</time></trkpt><trkpt lat="45.6889909" lon="8.7518832"><ele>288.0</ele><time>2026-05-01T15:59:54.197Z</time></trkpt><trkpt lat="45.6890682" lon="8.7518385"><ele>287.8333333333333</ele><time>2026-05-01T15:59:56.197Z</time></trkpt><trkpt lat="45.6891663" lon="8.7517954"><ele>287.6666666666667</ele><time>2026-05-01T15:59:59.197Z</time></trkpt><trkpt lat="45.6892489" lon="8.7517549"><ele>287.5</ele><time>2026-05-01T16:00:01.197Z</time></trkpt><trkpt lat="45.6893187" lon="8.7517324"><ele>287.33333333333337</ele><time>2026-05-01T16:00:03.196Z</time></trkpt><trkpt lat="45.6893981" lon="8.7517267"><ele>287.1666666666667</ele><time>2026-05-01T16:00:05.197Z</time></trkpt><trkpt lat="45.6894696" lon="8.7517"><ele>287.0</ele><time>2026-05-01T16:00:07.196Z</time></trkpt><trkpt lat="45.6895464" lon="8.7516548"><ele>287.33333333333337</ele><time>2026-05-01T16:00:09.197Z</time></trkpt><trkpt lat="45.6896254" lon="8.7516071"><ele>287.6666666666667</ele><time>2026-05-01T16:00:11.197Z</time></trkpt><trkpt lat="45.6896963" lon="8.7515532"><ele>288.0</ele><time>2026-05-01T16:00:13.196Z</time></trkpt><trkpt lat="45.6897764" lon="8.7515219"><ele>288.3333333333333</ele><time>2026-05-01T16:00:15.196Z</time></trkpt><trkpt lat="45.6898636" lon="8.7514862"><ele>288.66666666666663</ele><time>2026-05-01T16:00:17.197Z</time></trkpt><trkpt lat="45.689954" lon="8.7514554"><ele>289.0</ele><time>2026-05-01T16:00:19.197Z</time></trkpt><trkpt lat="45.6900371" lon="8.7514205"><ele>289.0</ele><time>2026-05-01T16:00:21.197Z</time></trkpt><trkpt lat="45.6901143" lon="8.7513869"><ele>289.0</ele><time>2026-05-01T16:00:23.197Z</time></trkpt><trkpt lat="45.6901872" lon="8.7513629"><ele>289.0</ele><time>2026-05-01T16:00:25.197Z</time></trkpt><trkpt lat="45.6902546" lon="8.7513702"><ele>289.0</ele><time>2026-05-01T16:00:27.196Z</time></trkpt><trkpt lat="45.6903227" lon="8.7513875"><ele>289.0</ele><time>2026-05-01T16:00:30.197Z</time></trkpt><trkpt lat="45.6902501" lon="8.7513695"><ele>289.0</ele><time>2026-05-01T16:00:35.197Z</time></trkpt><trkpt lat="45.6901667" lon="8.7513574"><ele>289.0</ele><time>2026-05-01T16:00:38.196Z</time></trkpt><trkpt lat="45.6901283" lon="8.7512401"><ele>289.0</ele><time>2026-05-01T16:00:41.197Z</time></trkpt><trkpt lat="45.6901225" lon="8.7511304"><ele>289.0</ele><time>2026-05-01T16:00:43.197Z</time></trkpt><trkpt lat="45.6901103" lon="8.7510315"><ele>289.0</ele><time>2026-05-01T16:00:45.196Z</time></trkpt><trkpt lat="45.6900895" lon="8.7509317"><ele>289.0</ele><time>2026-05-01T16:00:47.197Z</time></trkpt><trkpt lat="45.6900734" lon="8.7508277"><ele>289.0</ele><time>2026-05-01T16:00:49.197Z</time></trkpt><trkpt lat="45.6900636" lon="8.7507205"><ele>288.66666666666663</ele><time>2026-05-01T16:00:51.197Z</time></trkpt><trkpt lat="45.6900548" lon="8.7506138"><ele>288.3333333333333</ele><time>2026-05-01T16:00:53.197Z</time></trkpt><trkpt lat="45.6900537" lon="8.7504936"><ele>288.0</ele><time>2026-05-01T16:00:55.197Z</time></trkpt><trkpt lat="45.6900616" lon="8.7503901"><ele>287.6666666666667</ele><time>2026-05-01T16:00:57.196Z</time></trkpt><trkpt lat="45.690056" lon="8.7502849"><ele>287.33333333333337</ele><time>2026-05-01T16:00:59.197Z</time></trkpt><trkpt lat="45.6900488" lon="8.7501805"><ele>287.0</ele><time>2026-05-01T16:01:01.197Z</time></trkpt><trkpt lat="45.690025" lon="8.7500631"><ele>287.0</ele><time>2026-05-01T16:01:04.197Z</time></trkpt><trkpt lat="45.6900201" lon="8.749967"><ele>287.0</ele><time>2026-05-01T16:01:06.197Z</time></trkpt><trkpt lat="45.6900267" lon="8.7498574"><ele>287.0</ele><time>2026-05-01T16:01:08.197Z</time></trkpt><trkpt lat="45.6900258" lon="8.7497271"><ele>287.0</ele><time>2026-05-01T16:01:10.197Z</time></trkpt><trkpt lat="45.69002" lon="8.7496031"><ele>287.0</ele><time>2026-05-01T16:01:12.197Z</time></trkpt><trkpt lat="45.6900228" lon="8.7494923"><ele>287.0</ele><time>2026-05-01T16:01:14.197Z</time></trkpt><trkpt lat="45.6900225" lon="8.7493827"><ele>287.42857142857144</ele><time>2026-05-01T16:01:16.197Z</time></trkpt><trkpt lat="45.6900273" lon="8.749292"><ele>287.8571428571429</ele><time>2026-05-01T16:01:18.197Z</time></trkpt><trkpt lat="45.6900253" lon="8.7491763"><ele>288.2857142857143</ele><time>2026-05-01T16:01:20.197Z</time></trkpt><trkpt lat="45.6900246" lon="8.7490666"><ele>288.7142857142857</ele><time>2026-05-01T16:01:22.197Z</time></trkpt><trkpt lat="45.6900265" lon="8.748958"><ele>289.14285714285717</ele><time>2026-05-01T16:01:24.196Z</time></trkpt><trkpt lat="45.6900241" lon="8.7488547"><ele>289.57142857142856</ele><time>2026-05-01T16:01:26.197Z</time></trkpt><trkpt lat="45.6900242" lon="8.7487578"><ele>290.0</ele><time>2026-05-01T16:01:28.196Z</time></trkpt><trkpt lat="45.6900187" lon="8.7486493"><ele>289.83333333333337</ele><time>2026-05-01T16:01:30.197Z</time></trkpt><trkpt lat="45.690013" lon="8.7485085"><ele>289.6666666666667</ele><time>2026-05-01T16:01:33.196Z</time></trkpt><trkpt lat="45.6900072" lon="8.7483866"><ele>289.5</ele><time>2026-05-01T16:01:35.197Z</time></trkpt><trkpt lat="45.6900073" lon="8.7482806"><ele>289.3333333333333</ele><time>2026-05-01T16:01:37.196Z</time></trkpt><trkpt lat="45.6900056" lon="8.7481601"><ele>289.16666666666663</ele><time>2026-05-01T16:01:39.197Z</time></trkpt><trkpt lat="45.689995" lon="8.7480265"><ele>289.0</ele><time>2026-05-01T16:01:41.197Z</time></trkpt><trkpt lat="45.6899933" lon="8.7479278"><ele>289.0</ele><time>2026-05-01T16:01:43.197Z</time></trkpt><trkpt lat="45.6900076" lon="8.7478289"><ele>289.0</ele><time>2026-05-01T16:01:45.196Z</time></trkpt><trkpt lat="45.6900165" lon="8.7477245"><ele>289.0</ele><time>2026-05-01T16:01:47.197Z</time></trkpt><trkpt lat="45.6900148" lon="8.7476141"><ele>289.0</ele><time>2026-05-01T16:01:50.196Z</time></trkpt><trkpt lat="45.6900253" lon="8.7475189"><ele>289.0</ele><time>2026-05-01T16:02:12.197Z</time></trkpt><trkpt lat="45.6899976" lon="8.7474359"><ele>289.0</ele><time>2026-05-01T16:02:14.197Z</time></trkpt><trkpt lat="45.6899733" lon="8.7473282"><ele>289.0</ele><time>2026-05-01T16:02:16.197Z</time></trkpt><trkpt lat="45.6899261" lon="8.7471873"><ele>288.8</ele><time>2026-05-01T16:02:18.197Z</time></trkpt><trkpt lat="45.6899153" lon="8.7470779"><ele>288.59999999999997</ele><time>2026-05-01T16:02:20.197Z</time></trkpt><trkpt lat="45.6898763" lon="8.7469398"><ele>288.4</ele><time>2026-05-01T16:02:22.196Z</time></trkpt><trkpt lat="45.6898543" lon="8.7468153"><ele>288.2</ele><time>2026-05-01T16:02:24.197Z</time></trkpt><trkpt lat="45.6898406" lon="8.7466691"><ele>288.0</ele><time>2026-05-01T16:02:26.197Z</time></trkpt><trkpt lat="45.6898093" lon="8.7465357"><ele>287.4</ele><time>2026-05-01T16:02:28.197Z</time></trkpt><trkpt lat="45.6897865" lon="8.7463728"><ele>286.8</ele><time>2026-05-01T16:02:30.196Z</time></trkpt><trkpt lat="45.6897675" lon="8.7462296"><ele>286.2</ele><time>2026-05-01T16:02:32.197Z</time></trkpt><trkpt lat="45.6897583" lon="8.7461183"><ele>285.6</ele><time>2026-05-01T16:02:34.196Z</time></trkpt><trkpt lat="45.6897278" lon="8.745962"><ele>285.0</ele><time>2026-05-01T16:02:36.196Z</time></trkpt><trkpt lat="45.6897116" lon="8.7458349"><ele>284.6666666666667</ele><time>2026-05-01T16:02:38.196Z</time></trkpt><trkpt lat="45.689699" lon="8.7457236"><ele>284.3333333333333</ele><time>2026-05-01T16:02:40.197Z</time></trkpt><trkpt lat="45.6896764" lon="8.7455758"><ele>284.0</ele><time>2026-05-01T16:02:42.197Z</time></trkpt><trkpt lat="45.6896656" lon="8.7454621"><ele>283.66666666666663</ele><time>2026-05-01T16:02:44.197Z</time></trkpt><trkpt lat="45.6896366" lon="8.7453242"><ele>283.3333333333333</ele><time>2026-05-01T16:02:46.197Z</time></trkpt><trkpt lat="45.6896167" lon="8.7452081"><ele>283.0</ele><time>2026-05-01T16:02:48.197Z</time></trkpt><trkpt lat="45.6895909" lon="8.745103"><ele>283.0</ele><time>2026-05-01T16:02:50.196Z</time></trkpt><trkpt lat="45.6895775" lon="8.7450148"><ele>283.0</ele><time>2026-05-01T16:02:52.197Z</time></trkpt><trkpt lat="45.6895495" lon="8.7448975"><ele>283.0</ele><time>2026-05-01T16:02:54.196Z</time></trkpt><trkpt lat="45.6895234" lon="8.7447885"><ele>283.0</ele><time>2026-05-01T16:02:56.197Z</time></trkpt><trkpt lat="45.6895089" lon="8.744683"><ele>283.0</ele><time>2026-05-01T16:02:58.197Z</time></trkpt><trkpt lat="45.6895028" lon="8.7445557"><ele>283.0</ele><time>2026-05-01T16:03:01.197Z</time></trkpt><trkpt lat="45.6894764" lon="8.7444588"><ele>283.16666666666663</ele><time>2026-05-01T16:03:04.196Z</time></trkpt><trkpt lat="45.6894211" lon="8.744403"><ele>283.3333333333333</ele><time>2026-05-01T16:03:06.197Z</time></trkpt><trkpt lat="45.6893601" lon="8.7443608"><ele>283.5</ele><time>2026-05-01T16:03:08.197Z</time></trkpt><trkpt lat="45.6892949" lon="8.744337"><ele>283.6666666666667</ele><time>2026-05-01T16:03:10.196Z</time></trkpt><trkpt lat="45.6892107" lon="8.7443233"><ele>283.83333333333337</ele><time>2026-05-01T16:03:12.197Z</time></trkpt><trkpt lat="45.6891226" lon="8.7443142"><ele>284.0</ele><time>2026-05-01T16:03:14.197Z</time></trkpt><trkpt lat="45.6890239" lon="8.7443307"><ele>284.0</ele><time>2026-05-01T16:03:16.196Z</time></trkpt><trkpt lat="45.6889286" lon="8.7443412"><ele>284.0</ele><time>2026-05-01T16:03:18.196Z</time></trkpt><trkpt lat="45.6888307" lon="8.7443569"><ele>284.0</ele><time>2026-05-01T16:03:20.197Z</time></trkpt><trkpt lat="45.6887362" lon="8.7443855"><ele>284.0</ele><time>2026-05-01T16:03:22.196Z</time></trkpt><trkpt lat="45.6886431" lon="8.7444071"><ele>284.0</ele><time>2026-05-01T16:03:24.197Z</time></trkpt><trkpt lat="45.6885423" lon="8.7444381"><ele>284.8</ele><time>2026-05-01T16:03:26.197Z</time></trkpt><trkpt lat="45.6884505" lon="8.744455"><ele>285.59999999999997</ele><time>2026-05-01T16:03:28.197Z</time></trkpt><trkpt lat="45.6883586" lon="8.7444831"><ele>286.4</ele><time>2026-05-01T16:03:30.197Z</time></trkpt><trkpt lat="45.6882566" lon="8.7444912"><ele>287.2</ele><time>2026-05-01T16:03:32.197Z</time></trkpt><trkpt lat="45.6881645" lon="8.7445087"><ele>288.0</ele><time>2026-05-01T16:03:34.197Z</time></trkpt><trkpt lat="45.6880612" lon="8.7445184"><ele>288.0</ele><time>2026-05-01T16:03:36.197Z</time></trkpt><trkpt lat="45.6879553" lon="8.7445269"><ele>288.0</ele><time>2026-05-01T16:03:38.196Z</time></trkpt><trkpt lat="45.687851" lon="8.7445097"><ele>288.0</ele><time>2026-05-01T16:03:40.196Z</time></trkpt><trkpt lat="45.6877443" lon="8.7444968"><ele>288.0</ele><time>2026-05-01T16:03:42.197Z</time></trkpt><trkpt lat="45.6876465" lon="8.7445073"><ele>288.0</ele><time>2026-05-01T16:03:44.197Z</time></trkpt><trkpt lat="45.6875535" lon="8.7445322"><ele>287.0</ele><time>2026-05-01T16:03:46.197Z</time></trkpt><trkpt lat="45.6874455" lon="8.7445467"><ele>286.0</ele><time>2026-05-01T16:03:48.196Z</time></trkpt><trkpt lat="45.6873412" lon="8.744553"><ele>285.0</ele><time>2026-05-01T16:03:50.197Z</time></trkpt><trkpt lat="45.6872365" lon="8.7445663"><ele>284.0</ele><time>2026-05-01T16:03:52.196Z</time></trkpt><trkpt lat="45.6871288" lon="8.7445724"><ele>283.0</ele><time>2026-05-01T16:03:54.197Z</time></trkpt><trkpt lat="45.6870231" lon="8.7445766"><ele>282.8</ele><time>2026-05-01T16:03:56.197Z</time></trkpt><trkpt lat="45.6869156" lon="8.7445847"><ele>282.6</ele><time>2026-05-01T16:03:58.197Z</time></trkpt><trkpt lat="45.6868124" lon="8.7445938"><ele>282.4</ele><time>2026-05-01T16:04:00.196Z</time></trkpt><trkpt lat="45.6867063" lon="8.7446065"><ele>282.2</ele><time>2026-05-01T16:04:02.196Z</time></trkpt><trkpt lat="45.6865978" lon="8.7446136"><ele>282.0</ele><time>2026-05-01T16:04:04.197Z</time></trkpt><trkpt lat="45.6864857" lon="8.744622"><ele>282.0</ele><time>2026-05-01T16:04:06.197Z</time></trkpt><trkpt lat="45.686382" lon="8.7446327"><ele>282.0</ele><time>2026-05-01T16:04:08.197Z</time></trkpt><trkpt lat="45.6862837" lon="8.7446431"><ele>282.0</ele><time>2026-05-01T16:04:10.196Z</time></trkpt><trkpt lat="45.6861686" lon="8.7446861"><ele>282.0</ele><time>2026-05-01T16:04:12.197Z</time></trkpt><trkpt lat="45.6860729" lon="8.74469"><ele>282.0</ele><time>2026-05-01T16:04:14.196Z</time></trkpt><trkpt lat="45.6859609" lon="8.7446876"><ele>283.6</ele><time>2026-05-01T16:04:16.196Z</time></trkpt><trkpt lat="45.685853" lon="8.7446782"><ele>285.2</ele><time>2026-05-01T16:04:18.197Z</time></trkpt><trkpt lat="45.6857527" lon="8.7446863"><ele>286.8</ele><time>2026-05-01T16:04:20.196Z</time></trkpt><trkpt lat="45.6856501" lon="8.7446634"><ele>288.4</ele><time>2026-05-01T16:04:22.197Z</time></trkpt><trkpt lat="45.6855653" lon="8.7446466"><ele>290.0</ele><time>2026-05-01T16:04:24.197Z</time></trkpt><trkpt lat="45.6854872" lon="8.7446298"><ele>290.0</ele><time>2026-05-01T16:04:26.196Z</time></trkpt><trkpt lat="45.685416" lon="8.7445869"><ele>290.0</ele><time>2026-05-01T16:04:28.197Z</time></trkpt><trkpt lat="45.6853505" lon="8.7445466"><ele>290.0</ele><time>2026-05-01T16:04:30.197Z</time></trkpt><trkpt lat="45.6852742" lon="8.7445176"><ele>290.0</ele><time>2026-05-01T16:04:32.197Z</time></trkpt><trkpt lat="45.6852082" lon="8.7444825"><ele>290.0</ele><time>2026-05-01T16:04:34.197Z</time></trkpt><trkpt lat="45.6851418" lon="8.7444306"><ele>290.0</ele><time>2026-05-01T16:04:36.196Z</time></trkpt><trkpt lat="45.6850803" lon="8.7443754"><ele>290.0</ele><time>2026-05-01T16:04:38.197Z</time></trkpt><trkpt lat="45.6850228" lon="8.7443318"><ele>289.8571428571429</ele><time>2026-05-01T16:04:40.197Z</time></trkpt><trkpt lat="45.6849517" lon="8.7443715"><ele>289.7142857142857</ele><time>2026-05-01T16:04:43.196Z</time></trkpt><trkpt lat="45.6849511" lon="8.7444692"><ele>289.57142857142856</ele><time>2026-05-01T16:04:46.196Z</time></trkpt><trkpt lat="45.68491" lon="8.744587"><ele>289.42857142857144</ele><time>2026-05-01T16:04:49.197Z</time></trkpt><trkpt lat="45.6848665" lon="8.7446741"><ele>289.2857142857143</ele><time>2026-05-01T16:04:51.197Z</time></trkpt><trkpt lat="45.6848271" lon="8.7447507"><ele>289.14285714285717</ele><time>2026-05-01T16:04:53.197Z</time></trkpt><trkpt lat="45.6847891" lon="8.744833"><ele>289.0</ele><time>2026-05-01T16:04:55.197Z</time></trkpt><trkpt lat="45.6847391" lon="8.7448981"><ele>289.5</ele><time>2026-05-01T16:04:57.196Z</time></trkpt><trkpt lat="45.6846903" lon="8.7449659"><ele>290.0</ele><time>2026-05-01T16:04:59.196Z</time></trkpt><trkpt lat="45.6846482" lon="8.7450581"><ele>290.5</ele><time>2026-05-01T16:05:01.196Z</time></trkpt><trkpt lat="45.6846112" lon="8.7451555"><ele>291.0</ele><time>2026-05-01T16:05:03.196Z</time></trkpt><trkpt lat="45.6845702" lon="8.7452502"><ele>291.5</ele><time>2026-05-01T16:05:05.197Z</time></trkpt><trkpt lat="45.6845382" lon="8.7453485"><ele>292.0</ele><time>2026-05-01T16:05:07.197Z</time></trkpt><trkpt lat="45.6844999" lon="8.7454464"><ele>292.0</ele><time>2026-05-01T16:05:09.197Z</time></trkpt><trkpt lat="45.6844773" lon="8.7455619"><ele>292.0</ele><time>2026-05-01T16:05:12.197Z</time></trkpt><trkpt lat="45.6844554" lon="8.7456696"><ele>292.0</ele><time>2026-05-01T16:05:16.197Z</time></trkpt><trkpt lat="45.6844236" lon="8.7457725"><ele>292.0</ele><time>2026-05-01T16:05:19.197Z</time></trkpt><trkpt lat="45.6844055" lon="8.7458709"><ele>292.0</ele><time>2026-05-01T16:05:21.197Z</time></trkpt><trkpt lat="45.6843657" lon="8.7460358"><ele>292.0</ele><time>2026-05-01T16:05:23.197Z</time></trkpt><trkpt lat="45.6843428" lon="8.7461611"><ele>291.8333333333333</ele><time>2026-05-01T16:05:25.197Z</time></trkpt><trkpt lat="45.6843163" lon="8.7463076"><ele>291.66666666666663</ele><time>2026-05-01T16:05:27.197Z</time></trkpt><trkpt lat="45.6842963" lon="8.7464198"><ele>291.5</ele><time>2026-05-01T16:05:29.197Z</time></trkpt><trkpt lat="45.6842959" lon="8.746524"><ele>291.3333333333333</ele><time>2026-05-01T16:05:31.196Z</time></trkpt><trkpt lat="45.6842736" lon="8.7466594"><ele>291.1666666666667</ele><time>2026-05-01T16:05:33.196Z</time></trkpt><trkpt lat="45.6842533" lon="8.7467834"><ele>291.0</ele><time>2026-05-01T16:05:35.197Z</time></trkpt><trkpt lat="45.6842328" lon="8.7469121"><ele>291.3333333333333</ele><time>2026-05-01T16:05:37.196Z</time></trkpt><trkpt lat="45.6842098" lon="8.7470017"><ele>291.6666666666667</ele><time>2026-05-01T16:05:39.196Z</time></trkpt><trkpt lat="45.6841929" lon="8.7471329"><ele>292.0</ele><time>2026-05-01T16:05:42.197Z</time></trkpt><trkpt lat="45.6841873" lon="8.7472296"><ele>292.33333333333337</ele><time>2026-05-01T16:05:44.197Z</time></trkpt><trkpt lat="45.6841777" lon="8.7473808"><ele>292.6666666666667</ele><time>2026-05-01T16:05:48.197Z</time></trkpt><trkpt lat="45.684167" lon="8.747253"><ele>293.0</ele><time>2026-05-01T16:06:19.197Z</time></trkpt><trkpt lat="45.6841639" lon="8.7471487"><ele>293.0</ele><time>2026-05-01T16:06:21.196Z</time></trkpt><trkpt lat="45.684166" lon="8.7470178"><ele>293.0</ele><time>2026-05-01T16:06:24.196Z</time></trkpt><trkpt lat="45.6841512" lon="8.74691"><ele>293.0</ele><time>2026-05-01T16:06:27.197Z</time></trkpt><trkpt lat="45.6841596" lon="8.7467929"><ele>293.0</ele><time>2026-05-01T16:06:31.197Z</time></trkpt><trkpt lat="45.6841872" lon="8.7466843"><ele>293.0</ele><time>2026-05-01T16:06:35.197Z</time></trkpt><trkpt lat="45.6842038" lon="8.7465945"><ele>293.0</ele><time>2026-05-01T16:06:37.197Z</time></trkpt><trkpt lat="45.6842321" lon="8.7464557"><ele>293.0</ele><time>2026-05-01T16:06:40.196Z</time></trkpt><trkpt lat="45.68425" lon="8.7463384"><ele>293.0</ele><time>2026-05-01T16:06:42.196Z</time></trkpt><trkpt lat="45.684272" lon="8.7461861"><ele>293.0</ele><time>2026-05-01T16:06:44.197Z</time></trkpt><trkpt lat="45.6843112" lon="8.7460471"><ele>293.0</ele><time>2026-05-01T16:06:46.197Z</time></trkpt><trkpt lat="45.6843348" lon="8.7459235"><ele>293.0</ele><time>2026-05-01T16:06:48.196Z</time></trkpt><trkpt lat="45.6843444" lon="8.7457833"><ele>293.0</ele><time>2026-05-01T16:06:50.197Z</time></trkpt><trkpt lat="45.6843715" lon="8.7456702"><ele>293.0</ele><time>2026-05-01T16:06:52.197Z</time></trkpt><trkpt lat="45.6843427" lon="8.7458674"><ele>293.0</ele><time>2026-05-01T16:06:53.178Z</time></trkpt><trkpt lat="45.6843949" lon="8.7456195"><ele>293.0</ele><time>2026-05-01T16:06:54.196Z</time></trkpt><trkpt lat="45.6844193" lon="8.7455"><ele>292.85714285714283</ele><time>2026-05-01T16:06:56.277Z</time></trkpt><trkpt lat="45.6844449" lon="8.7454142"><ele>292.7142857142857</ele><time>2026-05-01T16:06:58.24Z</time></trkpt><trkpt lat="45.6844734" lon="8.7453232"><ele>292.57142857142856</ele><time>2026-05-01T16:07:00.197Z</time></trkpt><trkpt lat="45.6845081" lon="8.7452351"><ele>292.42857142857144</ele><time>2026-05-01T16:07:02.196Z</time></trkpt><trkpt lat="45.6845431" lon="8.7451462"><ele>292.2857142857143</ele><time>2026-05-01T16:07:04.197Z</time></trkpt><trkpt lat="45.6845846" lon="8.7450593"><ele>292.1428571428571</ele><time>2026-05-01T16:07:06.296Z</time></trkpt><trkpt lat="45.6846266" lon="8.7449808"><ele>292.0</ele><time>2026-05-01T16:07:08.196Z</time></trkpt><trkpt lat="45.6846648" lon="8.7448996"><ele>292.0</ele><time>2026-05-01T16:07:10.196Z</time></trkpt><trkpt lat="45.68472" lon="8.7447933"><ele>292.0</ele><time>2026-05-01T16:07:13.162Z</time></trkpt><trkpt lat="45.6847757" lon="8.7447299"><ele>292.0</ele><time>2026-05-01T16:07:15.196Z</time></trkpt><trkpt lat="45.684824" lon="8.7446131"><ele>292.0</ele><time>2026-05-01T16:07:18.197Z</time></trkpt><trkpt lat="45.6848625" lon="8.7445304"><ele>292.0</ele><time>2026-05-01T16:07:20.196Z</time></trkpt><trkpt lat="45.6849007" lon="8.7444579"><ele>292.0</ele><time>2026-05-01T16:07:22.197Z</time></trkpt><trkpt lat="45.6849408" lon="8.7443572"><ele>291.5</ele><time>2026-05-01T16:07:25.196Z</time></trkpt><trkpt lat="45.6849314" lon="8.7442562"><ele>291.0</ele><time>2026-05-01T16:07:29.197Z</time></trkpt><trkpt lat="45.6848476" lon="8.7442276"><ele>290.5</ele><time>2026-05-01T16:07:33.196Z</time></trkpt><trkpt lat="45.6847844" lon="8.7441691"><ele>290.0</ele><time>2026-05-01T16:07:36.197Z</time></trkpt><trkpt lat="45.6847234" lon="8.7441019"><ele>289.5</ele><time>2026-05-01T16:07:39.197Z</time></trkpt><trkpt lat="45.684659" lon="8.7440322"><ele>289.0</ele><time>2026-05-01T16:07:42.197Z</time></trkpt><trkpt lat="45.6845952" lon="8.743965"><ele>289.0</ele><time>2026-05-01T16:07:45.197Z</time></trkpt><trkpt lat="45.6845254" lon="8.7439116"><ele>289.0</ele><time>2026-05-01T16:07:48.197Z</time></trkpt><trkpt lat="45.6844587" lon="8.7438527"><ele>289.0</ele><time>2026-05-01T16:07:51.197Z</time></trkpt><trkpt lat="45.6843932" lon="8.7437897"><ele>289.0</ele><time>2026-05-01T16:07:54.197Z</time></trkpt><trkpt lat="45.6843306" lon="8.7437181"><ele>289.0</ele><time>2026-05-01T16:07:57.197Z</time></trkpt><trkpt lat="45.684251" lon="8.743647"><ele>289.0</ele><time>2026-05-01T16:08:00.196Z</time></trkpt><trkpt lat="45.6841886" lon="8.7435957"><ele>288.8333333333333</ele><time>2026-05-01T16:08:02.197Z</time></trkpt><trkpt lat="45.684134" lon="8.7435166"><ele>288.66666666666663</ele><time>2026-05-01T16:08:04.197Z</time></trkpt><trkpt lat="45.6840746" lon="8.7434419"><ele>288.5</ele><time>2026-05-01T16:08:06.197Z</time></trkpt><trkpt lat="45.6840083" lon="8.7433807"><ele>288.3333333333333</ele><time>2026-05-01T16:08:08.196Z</time></trkpt><trkpt lat="45.68394" lon="8.743321"><ele>288.1666666666667</ele><time>2026-05-01T16:08:10.197Z</time></trkpt><trkpt lat="45.683869" lon="8.7432635"><ele>288.0</ele><time>2026-05-01T16:08:12.197Z</time></trkpt><trkpt lat="45.6837966" lon="8.7432062"><ele>288.0</ele><time>2026-05-01T16:08:14.197Z</time></trkpt><trkpt lat="45.6837168" lon="8.7431398"><ele>288.0</ele><time>2026-05-01T16:08:16.197Z</time></trkpt><trkpt lat="45.6836368" lon="8.7430722"><ele>288.0</ele><time>2026-05-01T16:08:18.197Z</time></trkpt><trkpt lat="45.6835426" lon="8.7429908"><ele>288.0</ele><time>2026-05-01T16:08:20.197Z</time></trkpt><trkpt lat="45.6834501" lon="8.7428937"><ele>288.0</ele><time>2026-05-01T16:08:22.196Z</time></trkpt><trkpt lat="45.6833545" lon="8.7427905"><ele>287.75</ele><time>2026-05-01T16:08:24.197Z</time></trkpt><trkpt lat="45.6832595" lon="8.7426819"><ele>287.5</ele><time>2026-05-01T16:08:26.196Z</time></trkpt><trkpt lat="45.6831801" lon="8.7425639"><ele>287.25</ele><time>2026-05-01T16:08:28.197Z</time></trkpt><trkpt lat="45.6831041" lon="8.7424408"><ele>287.0</ele><time>2026-05-01T16:08:30.197Z</time></trkpt><trkpt lat="45.6830331" lon="8.7423169"><ele>287.0</ele><time>2026-05-01T16:08:32.196Z</time></trkpt><trkpt lat="45.6829689" lon="8.7421879"><ele>287.0</ele><time>2026-05-01T16:08:34.197Z</time></trkpt><trkpt lat="45.6829055" lon="8.7420556"><ele>287.0</ele><time>2026-05-01T16:08:36.197Z</time></trkpt><trkpt lat="45.6828458" lon="8.7419278"><ele>287.0</ele><time>2026-05-01T16:08:38.197Z</time></trkpt><trkpt lat="45.6827909" lon="8.7417968"><ele>287.0</ele><time>2026-05-01T16:08:40.196Z</time></trkpt><trkpt lat="45.6827387" lon="8.7416666"><ele>287.0</ele><time>2026-05-01T16:08:42.196Z</time></trkpt><trkpt lat="45.6826902" lon="8.7415358"><ele>287.0</ele><time>2026-05-01T16:08:44.197Z</time></trkpt><trkpt lat="45.6826453" lon="8.7414159"><ele>287.0</ele><time>2026-05-01T16:08:46.197Z</time></trkpt><trkpt lat="45.6825894" lon="8.7413281"><ele>287.0</ele><time>2026-05-01T16:08:48.197Z</time></trkpt><trkpt lat="45.6825126" lon="8.741332"><ele>287.0</ele><time>2026-05-01T16:08:50.197Z</time></trkpt><trkpt lat="45.6824441" lon="8.7413954"><ele>287.0</ele><time>2026-05-01T16:08:52.197Z</time></trkpt><trkpt lat="45.6823728" lon="8.741461"><ele>287.0</ele><time>2026-05-01T16:08:54.197Z</time></trkpt><trkpt lat="45.682296" lon="8.7415221"><ele>287.0</ele><time>2026-05-01T16:08:56.197Z</time></trkpt><trkpt lat="45.6822371" lon="8.741602"><ele>287.0</ele><time>2026-05-01T16:08:58.196Z</time></trkpt><trkpt lat="45.682154" lon="8.7416619"><ele>287.0</ele><time>2026-05-01T16:09:00.196Z</time></trkpt><trkpt lat="45.6820655" lon="8.7417448"><ele>287.0</ele><time>2026-05-01T16:09:02.196Z</time></trkpt><trkpt lat="45.6819897" lon="8.7418343"><ele>287.33333333333337</ele><time>2026-05-01T16:09:04.196Z</time></trkpt><trkpt lat="45.6819155" lon="8.7419219"><ele>287.6666666666667</ele><time>2026-05-01T16:09:06.197Z</time></trkpt><trkpt lat="45.6818519" lon="8.7420041"><ele>288.0</ele><time>2026-05-01T16:09:08.196Z</time></trkpt><trkpt lat="45.6817803" lon="8.7420701"><ele>288.3333333333333</ele><time>2026-05-01T16:09:10.197Z</time></trkpt><trkpt lat="45.6816991" lon="8.7421284"><ele>288.66666666666663</ele><time>2026-05-01T16:09:12.197Z</time></trkpt><trkpt lat="45.6816358" lon="8.7421911"><ele>289.0</ele><time>2026-05-01T16:09:14.196Z</time></trkpt><trkpt lat="45.6815764" lon="8.7422391"><ele>289.0</ele><time>2026-05-01T16:09:16.197Z</time></trkpt><trkpt lat="45.6814975" lon="8.7422857"><ele>289.0</ele><time>2026-05-01T16:09:18.196Z</time></trkpt><trkpt lat="45.6814289" lon="8.7423251"><ele>289.0</ele><time>2026-05-01T16:09:20.197Z</time></trkpt><trkpt lat="45.6813636" lon="8.7423359"><ele>289.0</ele><time>2026-05-01T16:09:22.197Z</time></trkpt><trkpt lat="45.681296" lon="8.7423594"><ele>289.0</ele><time>2026-05-01T16:09:24.196Z</time></trkpt><trkpt lat="45.6812323" lon="8.7424091"><ele>289.0</ele><time>2026-05-01T16:09:26.196Z</time></trkpt><trkpt lat="45.6811547" lon="8.7424446"><ele>289.0</ele><time>2026-05-01T16:09:28.197Z</time></trkpt><trkpt lat="45.6810929" lon="8.74248"><ele>289.8333333333333</ele><time>2026-05-01T16:09:30.196Z</time></trkpt><trkpt lat="45.6810357" lon="8.7425264"><ele>290.66666666666663</ele><time>2026-05-01T16:09:32.197Z</time></trkpt><trkpt lat="45.6809693" lon="8.7425616"><ele>291.5</ele><time>2026-05-01T16:09:34.197Z</time></trkpt><trkpt lat="45.6808932" lon="8.7425552"><ele>292.3333333333333</ele><time>2026-05-01T16:09:38.197Z</time></trkpt><trkpt lat="45.6808713" lon="8.742426"><ele>293.1666666666667</ele><time>2026-05-01T16:09:43.197Z</time></trkpt><trkpt lat="45.6808452" lon="8.742323"><ele>294.0</ele><time>2026-05-01T16:09:46.197Z</time></trkpt><trkpt lat="45.6808393" lon="8.7422183"><ele>294.0</ele><time>2026-05-01T16:09:48.196Z</time></trkpt><trkpt lat="45.6808346" lon="8.7420823"><ele>294.0</ele><time>2026-05-01T16:09:50.196Z</time></trkpt><trkpt lat="45.6808186" lon="8.7419621"><ele>294.0</ele><time>2026-05-01T16:09:52.196Z</time></trkpt><trkpt lat="45.6807993" lon="8.7418197"><ele>294.0</ele><time>2026-05-01T16:09:54.197Z</time></trkpt><trkpt lat="45.6807972" lon="8.7416752"><ele>294.0</ele><time>2026-05-01T16:09:56.196Z</time></trkpt><trkpt lat="45.680803" lon="8.7415771"><ele>294.0</ele><time>2026-05-01T16:09:57.197Z</time></trkpt><trkpt lat="45.6808066" lon="8.7414411"><ele>294.0</ele><time>2026-05-01T16:09:59.197Z</time></trkpt><trkpt lat="45.6807977" lon="8.7413083"><ele>294.0</ele><time>2026-05-01T16:10:01.196Z</time></trkpt><trkpt lat="45.6807842" lon="8.7411588"><ele>294.0</ele><time>2026-05-01T16:10:03.197Z</time></trkpt><trkpt lat="45.68079" lon="8.7410313"><ele>294.0</ele><time>2026-05-01T16:10:05.197Z</time></trkpt><trkpt lat="45.6807918" lon="8.7409264"><ele>294.0</ele><time>2026-05-01T16:10:07.197Z</time></trkpt><trkpt lat="45.6807914" lon="8.7408084"><ele>294.0</ele><time>2026-05-01T16:10:09.196Z</time></trkpt><trkpt lat="45.6807913" lon="8.7406956"><ele>294.0</ele><time>2026-05-01T16:10:11.197Z</time></trkpt><trkpt lat="45.6807845" lon="8.7405515"><ele>294.0</ele><time>2026-05-01T16:10:13.197Z</time></trkpt><trkpt lat="45.6807762" lon="8.7403951"><ele>294.0</ele><time>2026-05-01T16:10:15.197Z</time></trkpt><trkpt lat="45.6807641" lon="8.7402659"><ele>294.0</ele><time>2026-05-01T16:10:17.196Z</time></trkpt><trkpt lat="45.6807591" lon="8.7401302"><ele>294.0</ele><time>2026-05-01T16:10:19.197Z</time></trkpt><trkpt lat="45.6807669" lon="8.7399611"><ele>294.0</ele><time>2026-05-01T16:10:21.196Z</time></trkpt><trkpt lat="45.680786" lon="8.7397989"><ele>294.0</ele><time>2026-05-01T16:10:23.197Z</time></trkpt><trkpt lat="45.6808142" lon="8.7396564"><ele>294.0</ele><time>2026-05-01T16:10:25.197Z</time></trkpt><trkpt lat="45.6808256" lon="8.7395155"><ele>294.0</ele><time>2026-05-01T16:10:27.197Z</time></trkpt><trkpt lat="45.680839" lon="8.7393945"><ele>294.0</ele><time>2026-05-01T16:10:29.197Z</time></trkpt><trkpt lat="45.680854" lon="8.7392839"><ele>294.0</ele><time>2026-05-01T16:10:31.196Z</time></trkpt><trkpt lat="45.6808551" lon="8.7391581"><ele>294.0</ele><time>2026-05-01T16:10:33.197Z</time></trkpt><trkpt lat="45.6808604" lon="8.7390369"><ele>294.0</ele><time>2026-05-01T16:10:35.196Z</time></trkpt><trkpt lat="45.6808835" lon="8.7389317"><ele>294.0</ele><time>2026-05-01T16:10:37.197Z</time></trkpt><trkpt lat="45.6808715" lon="8.738842"><ele>293.2</ele><time>2026-05-01T16:10:56.196Z</time></trkpt><trkpt lat="45.6808788" lon="8.7387499"><ele>292.4</ele><time>2026-05-01T16:11:06.177Z</time></trkpt><trkpt lat="45.6809078" lon="8.7386623"><ele>291.6</ele><time>2026-05-01T16:11:12.197Z</time></trkpt><trkpt lat="45.6809212" lon="8.7385685"><ele>290.8</ele><time>2026-05-01T16:11:17.197Z</time></trkpt><trkpt lat="45.6809313" lon="8.7384512"><ele>290.0</ele><time>2026-05-01T16:11:21.197Z</time></trkpt><trkpt lat="45.6809408" lon="8.7381557"><ele>290.0</ele><time>2026-05-01T16:11:23.197Z</time></trkpt><trkpt lat="45.6809415" lon="8.7380506"><ele>290.0</ele><time>2026-05-01T16:11:25.197Z</time></trkpt><trkpt lat="45.6809478" lon="8.7379366"><ele>290.0</ele><time>2026-05-01T16:11:28.197Z</time></trkpt><trkpt lat="45.68095" lon="8.7378028"><ele>290.0</ele><time>2026-05-01T16:11:31.197Z</time></trkpt><trkpt lat="45.6809589" lon="8.7377111"><ele>290.0</ele><time>2026-05-01T16:11:33.196Z</time></trkpt><trkpt lat="45.6809758" lon="8.7375754"><ele>290.0</ele><time>2026-05-01T16:11:36.197Z</time></trkpt><trkpt lat="45.6809953" lon="8.7374536"><ele>289.83333333333337</ele><time>2026-05-01T16:11:39.196Z</time></trkpt><trkpt lat="45.6809924" lon="8.7373557"><ele>289.6666666666667</ele><time>2026-05-01T16:11:42.197Z</time></trkpt><trkpt lat="45.6809783" lon="8.7372463"><ele>289.5</ele><time>2026-05-01T16:11:46.197Z</time></trkpt><trkpt lat="45.6810071" lon="8.7371328"><ele>289.3333333333333</ele><time>2026-05-01T16:11:57.197Z</time></trkpt><trkpt lat="45.6810888" lon="8.7370874"><ele>289.16666666666663</ele><time>2026-05-01T16:12:00.196Z</time></trkpt><trkpt lat="45.6811761" lon="8.7370558"><ele>289.0</ele><time>2026-05-01T16:12:03.197Z</time></trkpt><trkpt lat="45.6812614" lon="8.7370749"><ele>289.0</ele><time>2026-05-01T16:12:06.197Z</time></trkpt><trkpt lat="45.6813407" lon="8.737062"><ele>289.0</ele><time>2026-05-01T16:12:09.197Z</time></trkpt><trkpt lat="45.6813461" lon="8.7369703"><ele>289.0</ele><time>2026-05-01T16:12:13.197Z</time></trkpt><trkpt lat="45.6812979" lon="8.7369092"><ele>289.0</ele><time>2026-05-01T16:12:16.196Z</time></trkpt><trkpt lat="45.6812335" lon="8.736943"><ele>289.0</ele><time>2026-05-01T16:12:18.197Z</time></trkpt><trkpt lat="45.6811684" lon="8.7369809"><ele>289.0</ele><time>2026-05-01T16:12:20.197Z</time></trkpt><trkpt lat="45.6811056" lon="8.7370216"><ele>289.0</ele><time>2026-05-01T16:12:22.196Z</time></trkpt><trkpt lat="45.6810459" lon="8.7370562"><ele>289.0</ele><time>2026-05-01T16:12:24.197Z</time></trkpt><trkpt lat="45.6809605" lon="8.7371052"><ele>289.0</ele><time>2026-05-01T16:12:27.197Z</time></trkpt><trkpt lat="45.6808961" lon="8.7371141"><ele>289.0</ele><time>2026-05-01T16:12:29.197Z</time></trkpt><trkpt lat="45.6808262" lon="8.7371465"><ele>289.0</ele><time>2026-05-01T16:12:31.197Z</time></trkpt><trkpt lat="45.6807452" lon="8.737184"><ele>289.0</ele><time>2026-05-01T16:12:33.197Z</time></trkpt><trkpt lat="45.6806589" lon="8.7372151"><ele>289.0</ele><time>2026-05-01T16:12:35.196Z</time></trkpt><trkpt lat="45.6805677" lon="8.7372469"><ele>289.0</ele><time>2026-05-01T16:12:37.196Z</time></trkpt><trkpt lat="45.6804719" lon="8.737269"><ele>289.0</ele><time>2026-05-01T16:12:39.197Z</time></trkpt><trkpt lat="45.6803775" lon="8.7372946"><ele>289.0</ele><time>2026-05-01T16:12:41.196Z</time></trkpt><trkpt lat="45.6802831" lon="8.7373185"><ele>289.0</ele><time>2026-05-01T16:12:43.197Z</time></trkpt><trkpt lat="45.6801917" lon="8.7373582"><ele>289.0</ele><time>2026-05-01T16:12:45.197Z</time></trkpt><trkpt lat="45.680096" lon="8.737381"><ele>288.0</ele><time>2026-05-01T16:12:47.196Z</time></trkpt><trkpt lat="45.679988" lon="8.7373961"><ele>287.0</ele><time>2026-05-01T16:12:49.197Z</time></trkpt><trkpt lat="45.6798788" lon="8.7374133"><ele>286.0</ele><time>2026-05-01T16:12:51.197Z</time></trkpt><trkpt lat="45.679771" lon="8.737442"><ele>285.0</ele><time>2026-05-01T16:12:53.196Z</time></trkpt><trkpt lat="45.679667" lon="8.7374845"><ele>284.0</ele><time>2026-05-01T16:12:55.196Z</time></trkpt><trkpt lat="45.6795654" lon="8.737534"><ele>284.0</ele><time>2026-05-01T16:12:57.197Z</time></trkpt><trkpt lat="45.6794662" lon="8.7375778"><ele>284.0</ele><time>2026-05-01T16:12:59.196Z</time></trkpt><trkpt lat="45.679376" lon="8.7376187"><ele>284.0</ele><time>2026-05-01T16:13:01.197Z</time></trkpt><trkpt lat="45.6792937" lon="8.7376658"><ele>284.0</ele><time>2026-05-01T16:13:03.196Z</time></trkpt><trkpt lat="45.6792146" lon="8.7377131"><ele>284.0</ele><time>2026-05-01T16:13:05.196Z</time></trkpt><trkpt lat="45.6791303" lon="8.7377635"><ele>283.83333333333337</ele><time>2026-05-01T16:13:07.196Z</time></trkpt><trkpt lat="45.679045" lon="8.7378161"><ele>283.6666666666667</ele><time>2026-05-01T16:13:09.197Z</time></trkpt><trkpt lat="45.6789636" lon="8.7378605"><ele>283.5</ele><time>2026-05-01T16:13:11.197Z</time></trkpt><trkpt lat="45.6788929" lon="8.7379028"><ele>283.3333333333333</ele><time>2026-05-01T16:13:13.197Z</time></trkpt><trkpt lat="45.6788229" lon="8.7379403"><ele>283.16666666666663</ele><time>2026-05-01T16:13:15.197Z</time></trkpt><trkpt lat="45.6787526" lon="8.7379811"><ele>283.0</ele><time>2026-05-01T16:13:17.197Z</time></trkpt><trkpt lat="45.6786823" lon="8.7380227"><ele>283.0</ele><time>2026-05-01T16:13:19.196Z</time></trkpt><trkpt lat="45.6786125" lon="8.7380642"><ele>283.0</ele><time>2026-05-01T16:13:21.197Z</time></trkpt><trkpt lat="45.6785453" lon="8.7381104"><ele>283.0</ele><time>2026-05-01T16:13:23.197Z</time></trkpt><trkpt lat="45.6784766" lon="8.7381672"><ele>283.0</ele><time>2026-05-01T16:13:25.197Z</time></trkpt><trkpt lat="45.6784058" lon="8.7382061"><ele>283.0</ele><time>2026-05-01T16:13:27.197Z</time></trkpt><trkpt lat="45.678336" lon="8.738244"><ele>283.0</ele><time>2026-05-01T16:13:29.197Z</time></trkpt><trkpt lat="45.6782704" lon="8.7382875"><ele>283.0</ele><time>2026-05-01T16:13:31.197Z</time></trkpt><trkpt lat="45.6782073" lon="8.7383275"><ele>283.0</ele><time>2026-05-01T16:13:33.197Z</time></trkpt><trkpt lat="45.6781387" lon="8.738365"><ele>283.0</ele><time>2026-05-01T16:13:35.197Z</time></trkpt><trkpt lat="45.6780699" lon="8.7384331"><ele>283.0</ele><time>2026-05-01T16:13:37.197Z</time></trkpt><trkpt lat="45.6779887" lon="8.7384854"><ele>283.0</ele><time>2026-05-01T16:13:39.197Z</time></trkpt><trkpt lat="45.6779028" lon="8.7385429"><ele>283.0</ele><time>2026-05-01T16:13:41.197Z</time></trkpt><trkpt lat="45.6778148" lon="8.7385894"><ele>282.8</ele><time>2026-05-01T16:13:43.196Z</time></trkpt><trkpt lat="45.6777296" lon="8.738645"><ele>282.6</ele><time>2026-05-01T16:13:45.196Z</time></trkpt><trkpt lat="45.6776401" lon="8.7386958"><ele>282.4</ele><time>2026-05-01T16:13:47.197Z</time></trkpt><trkpt lat="45.677578" lon="8.738718"><ele>282.2</ele><time>2026-05-01T16:13:48.197Z</time></trkpt><trkpt lat="45.6774639" lon="8.7387503"><ele>282.0</ele><time>2026-05-01T16:13:50.196Z</time></trkpt><trkpt lat="45.6773537" lon="8.7387792"><ele>282.0</ele><time>2026-05-01T16:13:52.197Z</time></trkpt><trkpt lat="45.6772918" lon="8.7387982"><ele>282.0</ele><time>2026-05-01T16:13:53.196Z</time></trkpt><trkpt lat="45.6772274" lon="8.7388104"><ele>282.0</ele><time>2026-05-01T16:13:54.197Z</time></trkpt><trkpt lat="45.677164" lon="8.7388322"><ele>282.0</ele><time>2026-05-01T16:13:55.197Z</time></trkpt><trkpt lat="45.6770973" lon="8.7388541"><ele>282.0</ele><time>2026-05-01T16:13:56.197Z</time></trkpt><trkpt lat="45.6770319" lon="8.7388694"><ele>282.0</ele><time>2026-05-01T16:13:57.197Z</time></trkpt><trkpt lat="45.6769639" lon="8.7389006"><ele>282.0</ele><time>2026-05-01T16:13:58.197Z</time></trkpt><trkpt lat="45.6769007" lon="8.7389293"><ele>281.3333333333333</ele><time>2026-05-01T16:13:59.197Z</time></trkpt><trkpt lat="45.6768351" lon="8.7389723"><ele>280.6666666666667</ele><time>2026-05-01T16:14:00.197Z</time></trkpt><trkpt lat="45.6767817" lon="8.7390476"><ele>280.0</ele><time>2026-05-01T16:14:01.196Z</time></trkpt><trkpt lat="45.6767267" lon="8.7391328"><ele>279.33333333333337</ele><time>2026-05-01T16:14:02.197Z</time></trkpt><trkpt lat="45.6767012" lon="8.7392358"><ele>278.6666666666667</ele><time>2026-05-01T16:14:03.197Z</time></trkpt><trkpt lat="45.6766723" lon="8.7393444"><ele>278.0</ele><time>2026-05-01T16:14:04.196Z</time></trkpt><trkpt lat="45.6766641" lon="8.7394524"><ele>278.0</ele><time>2026-05-01T16:14:05.196Z</time></trkpt><trkpt lat="45.6766327" lon="8.7395641"><ele>278.0</ele><time>2026-05-01T16:14:06.197Z</time></trkpt><trkpt lat="45.6766025" lon="8.7396775"><ele>278.0</ele><time>2026-05-01T16:14:07.196Z</time></trkpt><trkpt lat="45.6765768" lon="8.7397903"><ele>278.0</ele><time>2026-05-01T16:14:08.197Z</time></trkpt><trkpt lat="45.6765498" lon="8.7399105"><ele>278.0</ele><time>2026-05-01T16:14:09.197Z</time></trkpt><trkpt lat="45.6765311" lon="8.7400266"><ele>278.0</ele><time>2026-05-01T16:14:10.197Z</time></trkpt><trkpt lat="45.6764952" lon="8.7401446"><ele>278.5</ele><time>2026-05-01T16:14:11.197Z</time></trkpt><trkpt lat="45.6764666" lon="8.7402669"><ele>279.0</ele><time>2026-05-01T16:14:12.197Z</time></trkpt><trkpt lat="45.6764426" lon="8.7403861"><ele>279.5</ele><time>2026-05-01T16:14:13.197Z</time></trkpt><trkpt lat="45.6764178" lon="8.7405065"><ele>280.0</ele><time>2026-05-01T16:14:14.197Z</time></trkpt><trkpt lat="45.676392" lon="8.740627"><ele>280.5</ele><time>2026-05-01T16:14:15.196Z</time></trkpt><trkpt lat="45.6763657" lon="8.7407524"><ele>281.0</ele><time>2026-05-01T16:14:16.197Z</time></trkpt><trkpt lat="45.6763372" lon="8.7408833"><ele>281.0</ele><time>2026-05-01T16:14:17.196Z</time></trkpt><trkpt lat="45.6763088" lon="8.7410201"><ele>281.0</ele><time>2026-05-01T16:14:18.196Z</time></trkpt><trkpt lat="45.6762845" lon="8.7411751"><ele>281.0</ele><time>2026-05-01T16:14:19.197Z</time></trkpt><trkpt lat="45.6762478" lon="8.7413146"><ele>281.0</ele><time>2026-05-01T16:14:20.197Z</time></trkpt><trkpt lat="45.6762118" lon="8.7414466"><ele>281.0</ele><time>2026-05-01T16:14:21.197Z</time></trkpt><trkpt lat="45.6761713" lon="8.7415571"><ele>280.33333333333337</ele><time>2026-05-01T16:14:22.197Z</time></trkpt><trkpt lat="45.6761314" lon="8.7416689"><ele>279.6666666666667</ele><time>2026-05-01T16:14:23.196Z</time></trkpt><trkpt lat="45.6760997" lon="8.7417677"><ele>279.0</ele><time>2026-05-01T16:14:24.197Z</time></trkpt><trkpt lat="45.6760744" lon="8.7418522"><ele>278.3333333333333</ele><time>2026-05-01T16:14:25.196Z</time></trkpt><trkpt lat="45.6760262" lon="8.7419875"><ele>277.66666666666663</ele><time>2026-05-01T16:14:27.197Z</time></trkpt><trkpt lat="45.6759979" lon="8.7420791"><ele>277.0</ele><time>2026-05-01T16:14:29.196Z</time></trkpt><trkpt lat="45.6759681" lon="8.7421645"><ele>276.6</ele><time>2026-05-01T16:14:32.197Z</time></trkpt><trkpt lat="45.6759285" lon="8.7422507"><ele>276.2</ele><time>2026-05-01T16:14:35.197Z</time></trkpt><trkpt lat="45.6758919" lon="8.7423549"><ele>275.8</ele><time>2026-05-01T16:14:37.197Z</time></trkpt><trkpt lat="45.67585" lon="8.7424761"><ele>275.4</ele><time>2026-05-01T16:14:39.196Z</time></trkpt><trkpt lat="45.6758052" lon="8.7426122"><ele>275.0</ele><time>2026-05-01T16:14:41.197Z</time></trkpt><trkpt lat="45.6757578" lon="8.742756"><ele>275.0</ele><time>2026-05-01T16:14:43.196Z</time></trkpt><trkpt lat="45.6757087" lon="8.7429006"><ele>275.0</ele><time>2026-05-01T16:14:45.196Z</time></trkpt><trkpt lat="45.6756603" lon="8.7430335"><ele>275.0</ele><time>2026-05-01T16:14:47.196Z</time></trkpt><trkpt lat="45.6756055" lon="8.7431705"><ele>275.0</ele><time>2026-05-01T16:14:49.197Z</time></trkpt><trkpt lat="45.6755502" lon="8.7433043"><ele>275.0</ele><time>2026-05-01T16:14:51.196Z</time></trkpt><trkpt lat="45.6754972" lon="8.7434376"><ele>275.2</ele><time>2026-05-01T16:14:53.197Z</time></trkpt><trkpt lat="45.6754503" lon="8.7435633"><ele>275.4</ele><time>2026-05-01T16:14:55.196Z</time></trkpt><trkpt lat="45.6753934" lon="8.7436927"><ele>275.6</ele><time>2026-05-01T16:14:57.197Z</time></trkpt><trkpt lat="45.6753605" lon="8.7438094"><ele>275.8</ele><time>2026-05-01T16:14:59.197Z</time></trkpt><trkpt lat="45.6753" lon="8.7439235"><ele>276.0</ele><time>2026-05-01T16:15:01.197Z</time></trkpt><trkpt lat="45.6752436" lon="8.7440385"><ele>276.0</ele><time>2026-05-01T16:15:03.197Z</time></trkpt><trkpt lat="45.6752017" lon="8.7441387"><ele>276.0</ele><time>2026-05-01T16:15:05.196Z</time></trkpt><trkpt lat="45.6751611" lon="8.7442524"><ele>276.0</ele><time>2026-05-01T16:15:07.197Z</time></trkpt><trkpt lat="45.6751153" lon="8.7443587"><ele>276.0</ele><time>2026-05-01T16:15:09.197Z</time></trkpt><trkpt lat="45.6750497" lon="8.7444615"><ele>276.0</ele><time>2026-05-01T16:15:11.197Z</time></trkpt><trkpt lat="45.6750051" lon="8.7445574"><ele>276.0</ele><time>2026-05-01T16:15:13.196Z</time></trkpt><trkpt lat="45.6749576" lon="8.7446503"><ele>276.1666666666667</ele><time>2026-05-01T16:15:15.196Z</time></trkpt><trkpt lat="45.6749107" lon="8.7447406"><ele>276.3333333333333</ele><time>2026-05-01T16:15:17.197Z</time></trkpt><trkpt lat="45.6748655" lon="8.7448276"><ele>276.5</ele><time>2026-05-01T16:15:19.197Z</time></trkpt><trkpt lat="45.6748268" lon="8.7449088"><ele>276.66666666666663</ele><time>2026-05-01T16:15:21.196Z</time></trkpt><trkpt lat="45.674782" lon="8.7450286"><ele>276.8333333333333</ele><time>2026-05-01T16:15:24.197Z</time></trkpt><trkpt lat="45.6747369" lon="8.7451445"><ele>277.0</ele><time>2026-05-01T16:15:26.197Z</time></trkpt><trkpt lat="45.6746744" lon="8.7452874"><ele>277.0</ele><time>2026-05-01T16:15:28.196Z</time></trkpt><trkpt lat="45.6746108" lon="8.7454175"><ele>277.0</ele><time>2026-05-01T16:15:30.196Z</time></trkpt><trkpt lat="45.6745563" lon="8.7455539"><ele>277.0</ele><time>2026-05-01T16:15:32.197Z</time></trkpt><trkpt lat="45.6744827" lon="8.7456379"><ele>277.0</ele><time>2026-05-01T16:15:34.197Z</time></trkpt><trkpt lat="45.6744055" lon="8.7456506"><ele>277.0</ele><time>2026-05-01T16:15:36.197Z</time></trkpt><trkpt lat="45.6743097" lon="8.7456223"><ele>277.0</ele><time>2026-05-01T16:15:38.197Z</time></trkpt><trkpt lat="45.6742837" lon="8.745513"><ele>277.0</ele><time>2026-05-01T16:15:40.197Z</time></trkpt><trkpt lat="45.6742246" lon="8.7453506"><ele>277.0</ele><time>2026-05-01T16:15:41.196Z</time></trkpt><trkpt lat="45.6741574" lon="8.7452213"><ele>277.0</ele><time>2026-05-01T16:15:43.197Z</time></trkpt><trkpt lat="45.6740856" lon="8.7452349"><ele>277.0</ele><time>2026-05-01T16:15:44.196Z</time></trkpt><trkpt lat="45.6739776" lon="8.7452037"><ele>276.8</ele><time>2026-05-01T16:15:46.197Z</time></trkpt><trkpt lat="45.6738831" lon="8.7451194"><ele>276.6</ele><time>2026-05-01T16:15:48.197Z</time></trkpt><trkpt lat="45.6737928" lon="8.7450574"><ele>276.40000000000003</ele><time>2026-05-01T16:15:50.197Z</time></trkpt><trkpt lat="45.6737117" lon="8.7449848"><ele>276.2</ele><time>2026-05-01T16:15:52.196Z</time></trkpt><trkpt lat="45.6736377" lon="8.7449238"><ele>276.0</ele><time>2026-05-01T16:15:54.196Z</time></trkpt><trkpt lat="45.673577" lon="8.7448693"><ele>275.8333333333333</ele><time>2026-05-01T16:15:56.196Z</time></trkpt><trkpt lat="45.6735162" lon="8.7448033"><ele>275.6666666666667</ele><time>2026-05-01T16:15:58.197Z</time></trkpt><trkpt lat="45.6734481" lon="8.7447281"><ele>275.5</ele><time>2026-05-01T16:16:00.196Z</time></trkpt><trkpt lat="45.6733797" lon="8.7446458"><ele>275.33333333333337</ele><time>2026-05-01T16:16:02.197Z</time></trkpt><trkpt lat="45.6733122" lon="8.7445553"><ele>275.1666666666667</ele><time>2026-05-01T16:16:04.196Z</time></trkpt><trkpt lat="45.6732654" lon="8.7444501"><ele>275.0</ele><time>2026-05-01T16:16:06.197Z</time></trkpt><trkpt lat="45.6732585" lon="8.7443305"><ele>274.83333333333337</ele><time>2026-05-01T16:16:08.196Z</time></trkpt><trkpt lat="45.6732829" lon="8.7442113"><ele>274.6666666666667</ele><time>2026-05-01T16:16:10.196Z</time></trkpt><trkpt lat="45.6732861" lon="8.7440967"><ele>274.5</ele><time>2026-05-01T16:16:12.197Z</time></trkpt><trkpt lat="45.6732842" lon="8.7439957"><ele>274.3333333333333</ele><time>2026-05-01T16:16:14.197Z</time></trkpt><trkpt lat="45.6733257" lon="8.7439004"><ele>274.16666666666663</ele><time>2026-05-01T16:16:16.197Z</time></trkpt><trkpt lat="45.67334" lon="8.7438075"><ele>274.0</ele><time>2026-05-01T16:16:18.197Z</time></trkpt><trkpt lat="45.673366" lon="8.7436828"><ele>274.0</ele><time>2026-05-01T16:16:21.197Z</time></trkpt><trkpt lat="45.6733778" lon="8.7435772"><ele>274.0</ele><time>2026-05-01T16:16:23.197Z</time></trkpt><trkpt lat="45.6733977" lon="8.7434685"><ele>274.0</ele><time>2026-05-01T16:16:25.197Z</time></trkpt><trkpt lat="45.6734051" lon="8.743348"><ele>274.0</ele><time>2026-05-01T16:16:27.197Z</time></trkpt><trkpt lat="45.6734166" lon="8.7432257"><ele>274.0</ele><time>2026-05-01T16:16:29.197Z</time></trkpt><trkpt lat="45.6734374" lon="8.743121"><ele>274.0</ele><time>2026-05-01T16:16:31.197Z</time></trkpt><trkpt lat="45.6734478" lon="8.7430228"><ele>274.16666666666663</ele><time>2026-05-01T16:16:33.197Z</time></trkpt><trkpt lat="45.6733965" lon="8.7429435"><ele>274.3333333333333</ele><time>2026-05-01T16:16:35.197Z</time></trkpt><trkpt lat="45.6733313" lon="8.7429063"><ele>274.5</ele><time>2026-05-01T16:16:36.197Z</time></trkpt><trkpt lat="45.6732345" lon="8.7428681"><ele>274.6666666666667</ele><time>2026-05-01T16:16:38.196Z</time></trkpt><trkpt lat="45.6731505" lon="8.7428621"><ele>274.83333333333337</ele><time>2026-05-01T16:16:40.196Z</time></trkpt><trkpt lat="45.6730554" lon="8.7428801"><ele>275.0</ele><time>2026-05-01T16:16:42.197Z</time></trkpt><trkpt lat="45.6729653" lon="8.7428009"><ele>275.0</ele><time>2026-05-01T16:16:44.197Z</time></trkpt><trkpt lat="45.6729218" lon="8.7426305"><ele>275.0</ele><time>2026-05-01T16:16:46.197Z</time></trkpt><trkpt lat="45.6728703" lon="8.7424627"><ele>275.0</ele><time>2026-05-01T16:16:48.197Z</time></trkpt><trkpt lat="45.6728581" lon="8.7423705"><ele>275.0</ele><time>2026-05-01T16:16:49.197Z</time></trkpt><trkpt lat="45.6728441" lon="8.7422823"><ele>275.0</ele><time>2026-05-01T16:16:50.197Z</time></trkpt><trkpt lat="45.6728318" lon="8.7421917"><ele>275.0</ele><time>2026-05-01T16:16:51.196Z</time></trkpt><trkpt lat="45.6728211" lon="8.7421012"><ele>275.0</ele><time>2026-05-01T16:16:52.196Z</time></trkpt><trkpt lat="45.6727881" lon="8.7419471"><ele>275.0</ele><time>2026-05-01T16:16:54.196Z</time></trkpt><trkpt lat="45.6727756" lon="8.7418559"><ele>275.0</ele><time>2026-05-01T16:16:56.196Z</time></trkpt><trkpt lat="45.6727433" lon="8.7417478"><ele>275.0</ele><time>2026-05-01T16:16:59.197Z</time></trkpt><trkpt lat="45.6726735" lon="8.7417505"><ele>275.0</ele><time>2026-05-01T16:17:02.197Z</time></trkpt><trkpt lat="45.6725977" lon="8.7417585"><ele>275.0</ele><time>2026-05-01T16:17:04.197Z</time></trkpt><trkpt lat="45.6725257" lon="8.7417725"><ele>274.33333333333337</ele><time>2026-05-01T16:17:06.196Z</time></trkpt><trkpt lat="45.6724461" lon="8.7417893"><ele>273.6666666666667</ele><time>2026-05-01T16:17:08.197Z</time></trkpt><trkpt lat="45.672373" lon="8.741812"><ele>273.0</ele><time>2026-05-01T16:17:10.196Z</time></trkpt><trkpt lat="45.6722979" lon="8.7418102"><ele>272.3333333333333</ele><time>2026-05-01T16:17:12.197Z</time></trkpt><trkpt lat="45.6722159" lon="8.7418144"><ele>271.66666666666663</ele><time>2026-05-01T16:17:14.196Z</time></trkpt><trkpt lat="45.6721095" lon="8.7417956"><ele>271.0</ele><time>2026-05-01T16:17:16.197Z</time></trkpt><trkpt lat="45.6720425" lon="8.7416776"><ele>271.0</ele><time>2026-05-01T16:17:18.196Z</time></trkpt><trkpt lat="45.6720324" lon="8.7415268"><ele>271.0</ele><time>2026-05-01T16:17:20.197Z</time></trkpt><trkpt lat="45.6720055" lon="8.741382"><ele>271.0</ele><time>2026-05-01T16:17:22.197Z</time></trkpt><trkpt lat="45.6719862" lon="8.7412528"><ele>271.0</ele><time>2026-05-01T16:17:24.196Z</time></trkpt><trkpt lat="45.6719592" lon="8.7411183"><ele>271.0</ele><time>2026-05-01T16:17:26.196Z</time></trkpt><trkpt lat="45.6719326" lon="8.7409612"><ele>271.0</ele><time>2026-05-01T16:17:28.197Z</time></trkpt><trkpt lat="45.6719244" lon="8.7408052"><ele>271.0</ele><time>2026-05-01T16:17:30.197Z</time></trkpt><trkpt lat="45.6719118" lon="8.7406601"><ele>271.0</ele><time>2026-05-01T16:17:32.197Z</time></trkpt><trkpt lat="45.6718874" lon="8.7405"><ele>271.0</ele><time>2026-05-01T16:17:34.197Z</time></trkpt><trkpt lat="45.6718637" lon="8.7403465"><ele>271.0</ele><time>2026-05-01T16:17:36.197Z</time></trkpt><trkpt lat="45.6718397" lon="8.7401902"><ele>271.0</ele><time>2026-05-01T16:17:38.196Z</time></trkpt><trkpt lat="45.6717951" lon="8.7400395"><ele>271.0</ele><time>2026-05-01T16:17:40.197Z</time></trkpt><trkpt lat="45.6717255" lon="8.7399067"><ele>271.0</ele><time>2026-05-01T16:17:42.196Z</time></trkpt><trkpt lat="45.6716643" lon="8.7397567"><ele>271.0</ele><time>2026-05-01T16:17:44.197Z</time></trkpt><trkpt lat="45.6716325" lon="8.7396765"><ele>271.0</ele><time>2026-05-01T16:17:45.196Z</time></trkpt><trkpt lat="45.6715975" lon="8.7395964"><ele>271.0</ele><time>2026-05-01T16:17:46.197Z</time></trkpt><trkpt lat="45.6715625" lon="8.7395207"><ele>271.0</ele><time>2026-05-01T16:17:47.196Z</time></trkpt><trkpt lat="45.6715141" lon="8.7393711"><ele>271.0</ele><time>2026-05-01T16:17:49.197Z</time></trkpt><trkpt lat="45.6714653" lon="8.7392177"><ele>271.0</ele><time>2026-05-01T16:17:51.197Z</time></trkpt><trkpt lat="45.6714423" lon="8.7390665"><ele>271.0</ele><time>2026-05-01T16:17:53.197Z</time></trkpt><trkpt lat="45.6714629" lon="8.7389159"><ele>270.8333333333333</ele><time>2026-05-01T16:17:55.196Z</time></trkpt><trkpt lat="45.6714725" lon="8.7388211"><ele>270.66666666666663</ele><time>2026-05-01T16:17:56.197Z</time></trkpt><trkpt lat="45.6714816" lon="8.7387288"><ele>270.5</ele><time>2026-05-01T16:17:57.197Z</time></trkpt><trkpt lat="45.6714975" lon="8.7386387"><ele>270.3333333333333</ele><time>2026-05-01T16:17:58.197Z</time></trkpt><trkpt lat="45.6715227" lon="8.7384696"><ele>270.1666666666667</ele><time>2026-05-01T16:18:00.196Z</time></trkpt><trkpt lat="45.6715138" lon="8.7383136"><ele>270.0</ele><time>2026-05-01T16:18:02.197Z</time></trkpt><trkpt lat="45.6714727" lon="8.7381675"><ele>270.0</ele><time>2026-05-01T16:18:04.196Z</time></trkpt><trkpt lat="45.6714262" lon="8.7380376"><ele>270.0</ele><time>2026-05-01T16:18:06.197Z</time></trkpt><trkpt lat="45.6713752" lon="8.7379035"><ele>270.0</ele><time>2026-05-01T16:18:08.197Z</time></trkpt><trkpt lat="45.6713161" lon="8.7377649"><ele>270.0</ele><time>2026-05-01T16:18:10.197Z</time></trkpt><trkpt lat="45.671263" lon="8.737603"><ele>270.0</ele><time>2026-05-01T16:18:12.197Z</time></trkpt><trkpt lat="45.67122" lon="8.7374497"><ele>270.25</ele><time>2026-05-01T16:18:14.197Z</time></trkpt><trkpt lat="45.6711732" lon="8.7372935"><ele>270.5</ele><time>2026-05-01T16:18:16.197Z</time></trkpt><trkpt lat="45.671126" lon="8.7371337"><ele>270.75</ele><time>2026-05-01T16:18:18.197Z</time></trkpt><trkpt lat="45.671086" lon="8.7369857"><ele>271.0</ele><time>2026-05-01T16:18:20.197Z</time></trkpt><trkpt lat="45.6710387" lon="8.7368373"><ele>270.6</ele><time>2026-05-01T16:18:22.197Z</time></trkpt><trkpt lat="45.6710353" lon="8.7366758"><ele>270.20000000000005</ele><time>2026-05-01T16:18:24.196Z</time></trkpt><trkpt lat="45.6710786" lon="8.736608"><ele>269.79999999999995</ele><time>2026-05-01T16:18:25.197Z</time></trkpt><trkpt lat="45.6711413" lon="8.7365828"><ele>269.4</ele><time>2026-05-01T16:18:26.197Z</time></trkpt><trkpt lat="45.671251" lon="8.7365478"><ele>269.0</ele><time>2026-05-01T16:18:28.197Z</time></trkpt><trkpt lat="45.6713524" lon="8.7365131"><ele>269.0</ele><time>2026-05-01T16:18:30.197Z</time></trkpt><trkpt lat="45.6714551" lon="8.7364877"><ele>269.0</ele><time>2026-05-01T16:18:32.197Z</time></trkpt><trkpt lat="45.6715544" lon="8.7364572"><ele>269.0</ele><time>2026-05-01T16:18:34.197Z</time></trkpt><trkpt lat="45.6716479" lon="8.7364342"><ele>269.0</ele><time>2026-05-01T16:18:36.197Z</time></trkpt><trkpt lat="45.6717344" lon="8.73641"><ele>269.0</ele><time>2026-05-01T16:18:38.197Z</time></trkpt><trkpt lat="45.6718305" lon="8.7363812"><ele>269.0</ele><time>2026-05-01T16:18:40.197Z</time></trkpt><trkpt lat="45.6719149" lon="8.7363557"><ele>269.0</ele><time>2026-05-01T16:18:42.197Z</time></trkpt><trkpt lat="45.6719987" lon="8.736332"><ele>269.0</ele><time>2026-05-01T16:18:44.196Z</time></trkpt><trkpt lat="45.6720916" lon="8.7363055"><ele>269.0</ele><time>2026-05-01T16:18:46.196Z</time></trkpt><trkpt lat="45.6721784" lon="8.7362869"><ele>269.0</ele><time>2026-05-01T16:18:48.196Z</time></trkpt><trkpt lat="45.6722643" lon="8.7362614"><ele>269.0</ele><time>2026-05-01T16:18:50.196Z</time></trkpt><trkpt lat="45.6723491" lon="8.7362278"><ele>269.0</ele><time>2026-05-01T16:18:52.197Z</time></trkpt><trkpt lat="45.6724226" lon="8.7361841"><ele>269.0</ele><time>2026-05-01T16:18:54.197Z</time></trkpt><trkpt lat="45.6724733" lon="8.7360789"><ele>269.0</ele><time>2026-05-01T16:18:56.196Z</time></trkpt><trkpt lat="45.6725011" lon="8.7359451"><ele>269.0</ele><time>2026-05-01T16:18:58.197Z</time></trkpt><trkpt lat="45.6725135" lon="8.7358066"><ele>269.0</ele><time>2026-05-01T16:19:00.197Z</time></trkpt><trkpt lat="45.6725088" lon="8.7356647"><ele>269.0</ele><time>2026-05-01T16:19:02.197Z</time></trkpt><trkpt lat="45.6725081" lon="8.7355361"><ele>269.0</ele><time>2026-05-01T16:19:04.197Z</time></trkpt><trkpt lat="45.6724933" lon="8.7354089"><ele>269.0</ele><time>2026-05-01T16:19:06.197Z</time></trkpt><trkpt lat="45.6724899" lon="8.7352779"><ele>269.0</ele><time>2026-05-01T16:19:08.197Z</time></trkpt><trkpt lat="45.6724849" lon="8.7351524"><ele>269.0</ele><time>2026-05-01T16:19:10.197Z</time></trkpt><trkpt lat="45.672468" lon="8.7350307"><ele>269.0</ele><time>2026-05-01T16:19:12.197Z</time></trkpt><trkpt lat="45.6724406" lon="8.7349211"><ele>269.33333333333337</ele><time>2026-05-01T16:19:14.196Z</time></trkpt><trkpt lat="45.6724239" lon="8.7348125"><ele>269.6666666666667</ele><time>2026-05-01T16:19:16.196Z</time></trkpt><trkpt lat="45.6724008" lon="8.7347064"><ele>270.0</ele><time>2026-05-01T16:19:18.197Z</time></trkpt><trkpt lat="45.6723747" lon="8.734611"><ele>270.3333333333333</ele><time>2026-05-01T16:19:20.197Z</time></trkpt><trkpt lat="45.6723476" lon="8.7344824"><ele>270.66666666666663</ele><time>2026-05-01T16:19:23.197Z</time></trkpt><trkpt lat="45.6723365" lon="8.734389"><ele>271.0</ele><time>2026-05-01T16:19:25.197Z</time></trkpt><trkpt lat="45.6723261" lon="8.7342621"><ele>272.2</ele><time>2026-05-01T16:19:28.197Z</time></trkpt><trkpt lat="45.6723123" lon="8.7341583"><ele>273.40000000000003</ele><time>2026-05-01T16:19:30.197Z</time></trkpt><trkpt lat="45.6722895" lon="8.7340304"><ele>274.6</ele><time>2026-05-01T16:19:32.196Z</time></trkpt><trkpt lat="45.6722714" lon="8.7338986"><ele>275.8</ele><time>2026-05-01T16:19:34.196Z</time></trkpt><trkpt lat="45.6722401" lon="8.733771"><ele>277.0</ele><time>2026-05-01T16:19:36.196Z</time></trkpt><trkpt lat="45.6722175" lon="8.7336151"><ele>277.6</ele><time>2026-05-01T16:19:38.197Z</time></trkpt><trkpt lat="45.6721831" lon="8.7334763"><ele>278.2</ele><time>2026-05-01T16:19:40.197Z</time></trkpt><trkpt lat="45.6721465" lon="8.7333207"><ele>278.8</ele><time>2026-05-01T16:19:42.197Z</time></trkpt><trkpt lat="45.6721083" lon="8.733172"><ele>279.4</ele><time>2026-05-01T16:19:44.197Z</time></trkpt><trkpt lat="45.672071" lon="8.7330144"><ele>280.0</ele><time>2026-05-01T16:19:46.197Z</time></trkpt><trkpt lat="45.6720301" lon="8.7328694"><ele>279.8</ele><time>2026-05-01T16:19:48.197Z</time></trkpt><trkpt lat="45.6720019" lon="8.7326956"><ele>279.6</ele><time>2026-05-01T16:19:50.197Z</time></trkpt><trkpt lat="45.6719874" lon="8.7326027"><ele>279.4</ele><time>2026-05-01T16:19:51.197Z</time></trkpt><trkpt lat="45.6719427" lon="8.7323983"><ele>279.2</ele><time>2026-05-01T16:19:53.197Z</time></trkpt><trkpt lat="45.6719211" lon="8.7322968"><ele>279.0</ele><time>2026-05-01T16:19:54.196Z</time></trkpt><trkpt lat="45.6718913" lon="8.7322003"><ele>278.0</ele><time>2026-05-01T16:19:55.197Z</time></trkpt><trkpt lat="45.6718581" lon="8.7321084"><ele>277.0</ele><time>2026-05-01T16:19:56.196Z</time></trkpt><trkpt lat="45.6718347" lon="8.7320192"><ele>276.0</ele><time>2026-05-01T16:19:57.196Z</time></trkpt><trkpt lat="45.6718054" lon="8.731914"><ele>275.0</ele><time>2026-05-01T16:19:58.196Z</time></trkpt><trkpt lat="45.6717793" lon="8.7318081"><ele>274.0</ele><time>2026-05-01T16:19:59.196Z</time></trkpt><trkpt lat="45.6717491" lon="8.7316977"><ele>273.0</ele><time>2026-05-01T16:20:00.196Z</time></trkpt><trkpt lat="45.6717142" lon="8.7315887"><ele>272.8</ele><time>2026-05-01T16:20:01.197Z</time></trkpt><trkpt lat="45.6716327" lon="8.731441"><ele>272.6</ele><time>2026-05-01T16:20:03.196Z</time></trkpt><trkpt lat="45.6715839" lon="8.7313789"><ele>272.4</ele><time>2026-05-01T16:20:04.196Z</time></trkpt><trkpt lat="45.6715089" lon="8.7313148"><ele>272.2</ele><time>2026-05-01T16:20:05.197Z</time></trkpt><trkpt lat="45.6714361" lon="8.7312489"><ele>272.0</ele><time>2026-05-01T16:20:06.197Z</time></trkpt><trkpt lat="45.6713519" lon="8.7311917"><ele>272.0</ele><time>2026-05-01T16:20:07.197Z</time></trkpt><trkpt lat="45.671275" lon="8.7311331"><ele>272.0</ele><time>2026-05-01T16:20:08.197Z</time></trkpt><trkpt lat="45.6711849" lon="8.7310756"><ele>272.0</ele><time>2026-05-01T16:20:09.196Z</time></trkpt><trkpt lat="45.6711085" lon="8.7310257"><ele>272.0</ele><time>2026-05-01T16:20:10.197Z</time></trkpt><trkpt lat="45.6710208" lon="8.7309649"><ele>272.0</ele><time>2026-05-01T16:20:11.196Z</time></trkpt><trkpt lat="45.6709301" lon="8.7308799"><ele>271.4</ele><time>2026-05-01T16:20:12.196Z</time></trkpt><trkpt lat="45.6708376" lon="8.7308019"><ele>270.79999999999995</ele><time>2026-05-01T16:20:13.196Z</time></trkpt><trkpt lat="45.6707436" lon="8.7307318"><ele>270.2</ele><time>2026-05-01T16:20:14.197Z</time></trkpt><trkpt lat="45.6706574" lon="8.7306609"><ele>269.59999999999997</ele><time>2026-05-01T16:20:15.197Z</time></trkpt><trkpt lat="45.6705679" lon="8.7305703"><ele>269.0</ele><time>2026-05-01T16:20:16.196Z</time></trkpt><trkpt lat="45.6704862" lon="8.7304767"><ele>269.0</ele><time>2026-05-01T16:20:17.196Z</time></trkpt><trkpt lat="45.6704019" lon="8.7303629"><ele>269.0</ele><time>2026-05-01T16:20:18.196Z</time></trkpt><trkpt lat="45.6703232" lon="8.730279"><ele>269.0</ele><time>2026-05-01T16:20:19.197Z</time></trkpt><trkpt lat="45.670254" lon="8.7301725"><ele>269.0</ele><time>2026-05-01T16:20:20.197Z</time></trkpt><trkpt lat="45.6701787" lon="8.7300611"><ele>269.0</ele><time>2026-05-01T16:20:21.196Z</time></trkpt><trkpt lat="45.6701054" lon="8.7299733"><ele>267.2</ele><time>2026-05-01T16:20:22.197Z</time></trkpt><trkpt lat="45.6700171" lon="8.7298901"><ele>265.4</ele><time>2026-05-01T16:20:23.197Z</time></trkpt><trkpt lat="45.6699224" lon="8.729752"><ele>263.6</ele><time>2026-05-01T16:20:24.197Z</time></trkpt><trkpt lat="45.6698432" lon="8.7296558"><ele>261.8</ele><time>2026-05-01T16:20:25.196Z</time></trkpt><trkpt lat="45.6697591" lon="8.7295756"><ele>260.0</ele><time>2026-05-01T16:20:26.196Z</time></trkpt><trkpt lat="45.6696861" lon="8.7295024"><ele>260.0</ele><time>2026-05-01T16:20:27.196Z</time></trkpt><trkpt lat="45.6696111" lon="8.7294146"><ele>260.0</ele><time>2026-05-01T16:20:28.197Z</time></trkpt><trkpt lat="45.6695258" lon="8.7293225"><ele>260.0</ele><time>2026-05-01T16:20:29.197Z</time></trkpt><trkpt lat="45.6694584" lon="8.7292306"><ele>260.0</ele><time>2026-05-01T16:20:30.197Z</time></trkpt><trkpt lat="45.6694012" lon="8.7291576"><ele>260.0</ele><time>2026-05-01T16:20:31.196Z</time></trkpt><trkpt lat="45.6693237" lon="8.7290839"><ele>259.33333333333337</ele><time>2026-05-01T16:20:32.197Z</time></trkpt><trkpt lat="45.6692541" lon="8.7290229"><ele>258.6666666666667</ele><time>2026-05-01T16:20:33.197Z</time></trkpt><trkpt lat="45.6691845" lon="8.7289315"><ele>258.0</ele><time>2026-05-01T16:20:34.196Z</time></trkpt><trkpt lat="45.6691197" lon="8.7288757"><ele>257.3333333333333</ele><time>2026-05-01T16:20:35.197Z</time></trkpt><trkpt lat="45.6690477" lon="8.7288254"><ele>256.66666666666663</ele><time>2026-05-01T16:20:36.196Z</time></trkpt><trkpt lat="45.6689743" lon="8.7287867"><ele>256.0</ele><time>2026-05-01T16:20:37.197Z</time></trkpt><trkpt lat="45.6689148" lon="8.7287307"><ele>256.0</ele><time>2026-05-01T16:20:38.197Z</time></trkpt><trkpt lat="45.6688297" lon="8.7286933"><ele>255.99999999999997</ele><time>2026-05-01T16:20:39.196Z</time></trkpt><trkpt lat="45.6687563" lon="8.7286828"><ele>256.0</ele><time>2026-05-01T16:20:40.197Z</time></trkpt><trkpt lat="45.6686873" lon="8.7286817"><ele>256.0</ele><time>2026-05-01T16:20:41.197Z</time></trkpt><trkpt lat="45.6686129" lon="8.7286636"><ele>255.99999999999997</ele><time>2026-05-01T16:20:42.197Z</time></trkpt><trkpt lat="45.6685415" lon="8.7286377"><ele>256.0</ele><time>2026-05-01T16:20:43.197Z</time></trkpt><trkpt lat="45.6684755" lon="8.7286362"><ele>256.0</ele><time>2026-05-01T16:20:44.197Z</time></trkpt><trkpt lat="45.6684103" lon="8.7286032"><ele>257.0</ele><time>2026-05-01T16:20:45.197Z</time></trkpt><trkpt lat="45.6683414" lon="8.7285895"><ele>258.0</ele><time>2026-05-01T16:20:46.197Z</time></trkpt><trkpt lat="45.6682714" lon="8.7285712"><ele>259.0</ele><time>2026-05-01T16:20:47.197Z</time></trkpt><trkpt lat="45.6681675" lon="8.7285347"><ele>260.0</ele><time>2026-05-01T16:20:49.197Z</time></trkpt><trkpt lat="45.6681066" lon="8.7285036"><ele>261.0</ele><time>2026-05-01T16:20:50.197Z</time></trkpt><trkpt lat="45.6679961" lon="8.7284499"><ele>262.0</ele><time>2026-05-01T16:20:52.197Z</time></trkpt><trkpt lat="45.6678896" lon="8.7284161"><ele>259.0</ele><time>2026-05-01T16:20:54.197Z</time></trkpt><trkpt lat="45.6677742" lon="8.7283886"><ele>256.0</ele><time>2026-05-01T16:20:56.197Z</time></trkpt><trkpt lat="45.6677108" lon="8.7283852"><ele>253.0</ele><time>2026-05-01T16:20:57.197Z</time></trkpt><trkpt lat="45.6675882" lon="8.7283972"><ele>250.0</ele><time>2026-05-01T16:20:59.197Z</time></trkpt><trkpt lat="45.6674965" lon="8.7284066"><ele>247.0</ele><time>2026-05-01T16:21:01.197Z</time></trkpt><trkpt lat="45.6674024" lon="8.7283858"><ele>247.0</ele><time>2026-05-01T16:21:03.197Z</time></trkpt><trkpt lat="45.6672926" lon="8.7284333"><ele>247.0</ele><time>2026-05-01T16:21:05.196Z</time></trkpt><trkpt lat="45.6671955" lon="8.7284384"><ele>247.0</ele><time>2026-05-01T16:21:07.197Z</time></trkpt><trkpt lat="45.6670874" lon="8.7284769"><ele>247.0</ele><time>2026-05-01T16:21:09.196Z</time></trkpt><trkpt lat="45.6669747" lon="8.72849"><ele>247.0</ele><time>2026-05-01T16:21:11.196Z</time></trkpt><trkpt lat="45.6668624" lon="8.7285225"><ele>247.8</ele><time>2026-05-01T16:21:13.197Z</time></trkpt><trkpt lat="45.6667448" lon="8.7285671"><ele>248.6</ele><time>2026-05-01T16:21:15.197Z</time></trkpt><trkpt lat="45.6666312" lon="8.7285898"><ele>249.40000000000003</ele><time>2026-05-01T16:21:17.197Z</time></trkpt><trkpt lat="45.6665295" lon="8.7285943"><ele>250.20000000000002</ele><time>2026-05-01T16:21:19.197Z</time></trkpt><trkpt lat="45.6664276" lon="8.7286204"><ele>251.0</ele><time>2026-05-01T16:21:21.196Z</time></trkpt><trkpt lat="45.6663653" lon="8.7285964"><ele>249.8</ele><time>2026-05-01T16:21:22.196Z</time></trkpt><trkpt lat="45.6662767" lon="8.7284997"><ele>248.60000000000002</ele><time>2026-05-01T16:21:24.197Z</time></trkpt><trkpt lat="45.6662104" lon="8.728385"><ele>247.4</ele><time>2026-05-01T16:21:26.197Z</time></trkpt><trkpt lat="45.6661701" lon="8.7282492"><ele>246.2</ele><time>2026-05-01T16:21:28.197Z</time></trkpt><trkpt lat="45.6661557" lon="8.7281118"><ele>245.0</ele><time>2026-05-01T16:21:30.197Z</time></trkpt><trkpt lat="45.6661425" lon="8.7279755"><ele>245.00000000000003</ele><time>2026-05-01T16:21:32.197Z</time></trkpt><trkpt lat="45.6661371" lon="8.7278528"><ele>245.0</ele><time>2026-05-01T16:21:34.197Z</time></trkpt><trkpt lat="45.6661368" lon="8.7277173"><ele>245.0</ele><time>2026-05-01T16:21:36.197Z</time></trkpt><trkpt lat="45.666138" lon="8.7275894"><ele>245.0</ele><time>2026-05-01T16:21:38.197Z</time></trkpt><trkpt lat="45.666133" lon="8.7274663"><ele>245.00000000000003</ele><time>2026-05-01T16:21:40.197Z</time></trkpt><trkpt lat="45.666121" lon="8.7273381"><ele>245.0</ele><time>2026-05-01T16:21:42.197Z</time></trkpt><trkpt lat="45.6661036" lon="8.727219"><ele>244.83333333333334</ele><time>2026-05-01T16:21:44.197Z</time></trkpt><trkpt lat="45.6660806" lon="8.7271056"><ele>244.66666666666669</ele><time>2026-05-01T16:21:46.196Z</time></trkpt><trkpt lat="45.6660641" lon="8.7269948"><ele>244.5</ele><time>2026-05-01T16:21:48.197Z</time></trkpt><trkpt lat="45.6660431" lon="8.7268829"><ele>244.33333333333331</ele><time>2026-05-01T16:21:50.197Z</time></trkpt><trkpt lat="45.6660289" lon="8.7267709"><ele>244.16666666666666</ele><time>2026-05-01T16:21:52.196Z</time></trkpt><trkpt lat="45.6660123" lon="8.7266564"><ele>244.0</ele><time>2026-05-01T16:21:54.196Z</time></trkpt><trkpt lat="45.666007" lon="8.7265359"><ele>243.99999999999997</ele><time>2026-05-01T16:21:56.197Z</time></trkpt><trkpt lat="45.6660067" lon="8.7264214"><ele>244.0</ele><time>2026-05-01T16:21:58.196Z</time></trkpt><trkpt lat="45.6659987" lon="8.7263052"><ele>244.0</ele><time>2026-05-01T16:22:00.196Z</time></trkpt><trkpt lat="45.6659979" lon="8.7261869"><ele>244.0</ele><time>2026-05-01T16:22:02.196Z</time></trkpt><trkpt lat="45.6659863" lon="8.7260665"><ele>243.99999999999997</ele><time>2026-05-01T16:22:04.196Z</time></trkpt><trkpt lat="45.665976" lon="8.7259465"><ele>244.0</ele><time>2026-05-01T16:22:06.196Z</time></trkpt><trkpt lat="45.6659621" lon="8.7258329"><ele>243.99999999999997</ele><time>2026-05-01T16:22:08.197Z</time></trkpt><trkpt lat="45.6659595" lon="8.7257161"><ele>244.0</ele><time>2026-05-01T16:22:10.196Z</time></trkpt><trkpt lat="45.6659519" lon="8.7255935"><ele>244.0</ele><time>2026-05-01T16:22:12.197Z</time></trkpt><trkpt lat="45.6659413" lon="8.7254717"><ele>244.0</ele><time>2026-05-01T16:22:14.196Z</time></trkpt><trkpt lat="45.6659057" lon="8.725351"><ele>243.99999999999997</ele><time>2026-05-01T16:22:16.196Z</time></trkpt><trkpt lat="45.6658938" lon="8.7252202"><ele>244.0</ele><time>2026-05-01T16:22:18.196Z</time></trkpt><trkpt lat="45.6658861" lon="8.7250969"><ele>244.16666666666666</ele><time>2026-05-01T16:22:20.197Z</time></trkpt><trkpt lat="45.6658885" lon="8.7249699"><ele>244.33333333333331</ele><time>2026-05-01T16:22:22.196Z</time></trkpt><trkpt lat="45.6658858" lon="8.7248503"><ele>244.5</ele><time>2026-05-01T16:22:24.197Z</time></trkpt><trkpt lat="45.6658672" lon="8.724738"><ele>244.66666666666669</ele><time>2026-05-01T16:22:26.196Z</time></trkpt><trkpt lat="45.6658574" lon="8.7246168"><ele>244.83333333333334</ele><time>2026-05-01T16:22:28.197Z</time></trkpt><trkpt lat="45.6658565" lon="8.7244954"><ele>245.0</ele><time>2026-05-01T16:22:30.197Z</time></trkpt><trkpt lat="45.6658467" lon="8.7243119"><ele>245.85714285714286</ele><time>2026-05-01T16:22:33.197Z</time></trkpt><trkpt lat="45.6658341" lon="8.7242029"><ele>246.71428571428572</ele><time>2026-05-01T16:22:35.197Z</time></trkpt><trkpt lat="45.6658197" lon="8.7241025"><ele>247.57142857142856</ele><time>2026-05-01T16:22:37.197Z</time></trkpt><trkpt lat="45.6658201" lon="8.7239993"><ele>248.42857142857142</ele><time>2026-05-01T16:22:39.197Z</time></trkpt><trkpt lat="45.665832" lon="8.7238958"><ele>249.28571428571428</ele><time>2026-05-01T16:22:41.197Z</time></trkpt><trkpt lat="45.6658417" lon="8.7237976"><ele>250.1428571428571</ele><time>2026-05-01T16:22:43.197Z</time></trkpt><trkpt lat="45.6658438" lon="8.7236988"><ele>250.99999999999997</ele><time>2026-05-01T16:22:45.196Z</time></trkpt><trkpt lat="45.6658509" lon="8.7235944"><ele>251.8</ele><time>2026-05-01T16:22:47.197Z</time></trkpt><trkpt lat="45.6658492" lon="8.7234724"><ele>252.60000000000002</ele><time>2026-05-01T16:22:49.196Z</time></trkpt><trkpt lat="45.6658334" lon="8.7233502"><ele>253.4</ele><time>2026-05-01T16:22:51.197Z</time></trkpt><trkpt lat="45.6657971" lon="8.7232171"><ele>254.2</ele><time>2026-05-01T16:22:53.196Z</time></trkpt><trkpt lat="45.6657688" lon="8.7230854"><ele>255.0</ele><time>2026-05-01T16:22:55.197Z</time></trkpt><trkpt lat="45.6657537" lon="8.722951"><ele>255.0</ele><time>2026-05-01T16:22:57.197Z</time></trkpt><trkpt lat="45.6657318" lon="8.7228333"><ele>255.0</ele><time>2026-05-01T16:22:59.197Z</time></trkpt><trkpt lat="45.6657045" lon="8.7226948"><ele>255.0</ele><time>2026-05-01T16:23:01.196Z</time></trkpt><trkpt lat="45.6656943" lon="8.7225635"><ele>255.0</ele><time>2026-05-01T16:23:03.196Z</time></trkpt><trkpt lat="45.6656714" lon="8.7224484"><ele>255.0</ele><time>2026-05-01T16:23:05.196Z</time></trkpt><trkpt lat="45.6656469" lon="8.7223219"><ele>255.2</ele><time>2026-05-01T16:23:07.196Z</time></trkpt><trkpt lat="45.6656257" lon="8.7221828"><ele>255.4</ele><time>2026-05-01T16:23:09.196Z</time></trkpt><trkpt lat="45.6656194" lon="8.7220229"><ele>255.60000000000002</ele><time>2026-05-01T16:23:11.197Z</time></trkpt><trkpt lat="45.6656137" lon="8.7218643"><ele>255.8</ele><time>2026-05-01T16:23:13.197Z</time></trkpt><trkpt lat="45.6656032" lon="8.7217079"><ele>256.0</ele><time>2026-05-01T16:23:15.197Z</time></trkpt><trkpt lat="45.6655986" lon="8.7215687"><ele>256.0</ele><time>2026-05-01T16:23:17.196Z</time></trkpt><trkpt lat="45.6655813" lon="8.7214211"><ele>256.0</ele><time>2026-05-01T16:23:19.196Z</time></trkpt><trkpt lat="45.6655753" lon="8.7212775"><ele>256.0</ele><time>2026-05-01T16:23:21.197Z</time></trkpt><trkpt lat="45.6655658" lon="8.7211297"><ele>256.0</ele><time>2026-05-01T16:23:23.197Z</time></trkpt><trkpt lat="45.6655554" lon="8.7209719"><ele>256.0</ele><time>2026-05-01T16:23:25.196Z</time></trkpt><trkpt lat="45.6655494" lon="8.7208149"><ele>256.0</ele><time>2026-05-01T16:23:27.196Z</time></trkpt><trkpt lat="45.6655469" lon="8.7206566"><ele>256.0</ele><time>2026-05-01T16:23:29.197Z</time></trkpt><trkpt lat="45.6655502" lon="8.7205018"><ele>256.0</ele><time>2026-05-01T16:23:31.197Z</time></trkpt><trkpt lat="45.6655456" lon="8.7203488"><ele>256.0</ele><time>2026-05-01T16:23:33.196Z</time></trkpt><trkpt lat="45.6655416" lon="8.7201948"><ele>256.0</ele><time>2026-05-01T16:23:35.197Z</time></trkpt><trkpt lat="45.66555" lon="8.7200377"><ele>256.0</ele><time>2026-05-01T16:23:37.197Z</time></trkpt><trkpt lat="45.6655422" lon="8.7198854"><ele>256.0</ele><time>2026-05-01T16:23:39.196Z</time></trkpt><trkpt lat="45.6655354" lon="8.719738"><ele>256.0</ele><time>2026-05-01T16:23:41.196Z</time></trkpt><trkpt lat="45.6655306" lon="8.719596"><ele>256.0</ele><time>2026-05-01T16:23:43.197Z</time></trkpt><trkpt lat="45.6655276" lon="8.7194485"><ele>256.0</ele><time>2026-05-01T16:23:45.197Z</time></trkpt><trkpt lat="45.6655187" lon="8.7193067"><ele>255.60000000000002</ele><time>2026-05-01T16:23:47.197Z</time></trkpt><trkpt lat="45.6655134" lon="8.7191697"><ele>255.20000000000002</ele><time>2026-05-01T16:23:49.197Z</time></trkpt><trkpt lat="45.66551" lon="8.7190371"><ele>254.79999999999998</ele><time>2026-05-01T16:23:51.197Z</time></trkpt><trkpt lat="45.6654945" lon="8.7189074"><ele>254.39999999999998</ele><time>2026-05-01T16:23:53.197Z</time></trkpt><trkpt lat="45.66547" lon="8.7187769"><ele>254.0</ele><time>2026-05-01T16:23:55.197Z</time></trkpt><trkpt lat="45.6654373" lon="8.7186521"><ele>253.83333333333334</ele><time>2026-05-01T16:23:57.196Z</time></trkpt><trkpt lat="45.6654015" lon="8.7185264"><ele>253.66666666666669</ele><time>2026-05-01T16:23:59.196Z</time></trkpt><trkpt lat="45.6653665" lon="8.7184068"><ele>253.5</ele><time>2026-05-01T16:24:01.197Z</time></trkpt><trkpt lat="45.6653372" lon="8.7182918"><ele>253.33333333333331</ele><time>2026-05-01T16:24:03.197Z</time></trkpt><trkpt lat="45.6652919" lon="8.7182233"><ele>253.16666666666666</ele><time>2026-05-01T16:24:05.197Z</time></trkpt><trkpt lat="45.6652112" lon="8.7182758"><ele>253.0</ele><time>2026-05-01T16:24:08.197Z</time></trkpt><trkpt lat="45.6651348" lon="8.7183411"><ele>253.4</ele><time>2026-05-01T16:24:11.196Z</time></trkpt><trkpt lat="45.6650704" lon="8.7183817"><ele>253.8</ele><time>2026-05-01T16:24:13.197Z</time></trkpt><trkpt lat="45.6649745" lon="8.7184012"><ele>254.2</ele><time>2026-05-01T16:24:16.196Z</time></trkpt><trkpt lat="45.6648784" lon="8.7184157"><ele>254.6</ele><time>2026-05-01T16:24:18.196Z</time></trkpt><trkpt lat="45.6647515" lon="8.7184366"><ele>255.0</ele><time>2026-05-01T16:24:20.197Z</time></trkpt><trkpt lat="45.6646368" lon="8.7184639"><ele>255.0</ele><time>2026-05-01T16:24:22.196Z</time></trkpt><trkpt lat="45.6645766" lon="8.7185126"><ele>255.0</ele><time>2026-05-01T16:24:25.196Z</time></trkpt><trkpt lat="45.664482" lon="8.7185724"><ele>255.0</ele><time>2026-05-01T16:24:29.197Z</time></trkpt><trkpt lat="45.6644373" lon="8.7186591"><ele>255.0</ele><time>2026-05-01T16:24:33.197Z</time></trkpt><trkpt lat="45.6644564" lon="8.7187468"><ele>255.0</ele><time>2026-05-01T16:24:57.197Z</time></trkpt><trkpt lat="45.66445" lon="8.7188582"><ele>255.0</ele><time>2026-05-01T16:25:00.196Z</time></trkpt><trkpt lat="45.6644743" lon="8.7189562"><ele>254.83333333333334</ele><time>2026-05-01T16:25:02.197Z</time></trkpt><trkpt lat="45.6645483" lon="8.7190319"><ele>254.66666666666669</ele><time>2026-05-01T16:25:05.196Z</time></trkpt><trkpt lat="45.6644465" lon="8.7190379"><ele>254.5</ele><time>2026-05-01T16:25:06.196Z</time></trkpt><trkpt lat="45.6644437" lon="8.7191312"><ele>254.33333333333334</ele><time>2026-05-01T16:25:18.197Z</time></trkpt><trkpt lat="45.664472" lon="8.7192367"><ele>254.16666666666669</ele><time>2026-05-01T16:25:24.197Z</time></trkpt><trkpt lat="45.66454" lon="8.7192955"><ele>254.0</ele><time>2026-05-01T16:25:28.197Z</time></trkpt><trkpt lat="45.6646036" lon="8.7192944"><ele>254.0</ele><time>2026-05-01T16:25:31.196Z</time></trkpt><trkpt lat="45.6646419" lon="8.7191727"><ele>254.0</ele><time>2026-05-01T16:26:10.196Z</time></trkpt><trkpt lat="45.6645757" lon="8.7191573"><ele>254.0</ele><time>2026-05-01T16:26:17.197Z</time></trkpt><trkpt lat="45.6645611" lon="8.7190554"><ele>254.0</ele><time>2026-05-01T16:26:26.196Z</time></trkpt><trkpt lat="45.664558" lon="8.7189654"><ele>254.0</ele><time>2026-05-01T16:26:34.196Z</time></trkpt><trkpt lat="45.6645081" lon="8.7188976"><ele>254.0</ele><time>2026-05-01T16:26:46.196Z</time></trkpt><trkpt lat="45.6644355" lon="8.718863"><ele>254.0</ele><time>2026-05-01T16:26:51.197Z</time></trkpt><trkpt lat="45.6642743" lon="8.7189196"><ele>254.0</ele><time>2026-05-01T16:26:55.196Z</time></trkpt><trkpt lat="45.6643276" lon="8.7188472"><ele>254.0</ele><time>2026-05-01T16:26:58.197Z</time></trkpt><trkpt lat="45.6643967" lon="8.7188514"><ele>254.0</ele><time>2026-05-01T16:27:02.196Z</time></trkpt><trkpt lat="45.6643948" lon="8.7189429"><ele>254.0</ele><time>2026-05-01T16:27:14.197Z</time></trkpt><trkpt lat="45.66435" lon="8.7188675"><ele>254.0</ele><time>2026-05-01T16:29:01.063Z</time></trkpt><trkpt lat="45.66432" lon="8.7187875"><ele>254.0</ele><time>2026-05-01T16:29:04.196Z</time></trkpt><trkpt lat="45.6642973" lon="8.718694"><ele>254.0</ele><time>2026-05-01T16:29:06.227Z</time></trkpt><trkpt lat="45.6642873" lon="8.7185854"><ele>253.83333333333334</ele><time>2026-05-01T16:29:08.197Z</time></trkpt><trkpt lat="45.66429" lon="8.7184751"><ele>253.66666666666669</ele><time>2026-05-01T16:29:10.197Z</time></trkpt><trkpt lat="45.6643191" lon="8.7183726"><ele>253.5</ele><time>2026-05-01T16:29:12.197Z</time></trkpt><trkpt lat="45.6643888" lon="8.7183169"><ele>253.33333333333331</ele><time>2026-05-01T16:29:14.197Z</time></trkpt><trkpt lat="45.6644639" lon="8.7183029"><ele>253.16666666666666</ele><time>2026-05-01T16:29:16.196Z</time></trkpt><trkpt lat="45.6645291" lon="8.7182898"><ele>253.0</ele><time>2026-05-01T16:29:18.085Z</time></trkpt><trkpt lat="45.6646167" lon="8.7182807"><ele>253.33333333333331</ele><time>2026-05-01T16:29:21.197Z</time></trkpt><trkpt lat="45.6646961" lon="8.7183628"><ele>253.66666666666666</ele><time>2026-05-01T16:29:24.197Z</time></trkpt><trkpt lat="45.664785" lon="8.7183914"><ele>254.0</ele><time>2026-05-01T16:29:27.197Z</time></trkpt><trkpt lat="45.6648771" lon="8.7183971"><ele>254.33333333333331</ele><time>2026-05-01T16:29:29.197Z</time></trkpt><trkpt lat="45.6649543" lon="8.7183931"><ele>254.66666666666666</ele><time>2026-05-01T16:29:31.197Z</time></trkpt><trkpt lat="45.6650244" lon="8.7183711"><ele>255.0</ele><time>2026-05-01T16:29:33.196Z</time></trkpt><trkpt lat="45.6650879" lon="8.7183255"><ele>255.0</ele><time>2026-05-01T16:29:35.197Z</time></trkpt><trkpt lat="45.6651563" lon="8.7182774"><ele>255.0</ele><time>2026-05-01T16:29:37.197Z</time></trkpt><trkpt lat="45.665208" lon="8.7181992"><ele>255.0</ele><time>2026-05-01T16:29:40.197Z</time></trkpt><trkpt lat="45.6652277" lon="8.7181091"><ele>255.0</ele><time>2026-05-01T16:29:42.197Z</time></trkpt><trkpt lat="45.6652221" lon="8.7180131"><ele>255.0</ele><time>2026-05-01T16:29:44.196Z</time></trkpt><trkpt lat="45.6652074" lon="8.7178777"><ele>255.0</ele><time>2026-05-01T16:29:47.197Z</time></trkpt><trkpt lat="45.6651887" lon="8.7177778"><ele>255.2857142857143</ele><time>2026-05-01T16:29:49.197Z</time></trkpt><trkpt lat="45.6651567" lon="8.7176803"><ele>255.5714285714286</ele><time>2026-05-01T16:29:51.197Z</time></trkpt><trkpt lat="45.6651235" lon="8.7175859"><ele>255.85714285714286</ele><time>2026-05-01T16:29:53.197Z</time></trkpt><trkpt lat="45.6650985" lon="8.7174878"><ele>256.14285714285717</ele><time>2026-05-01T16:29:55.197Z</time></trkpt><trkpt lat="45.6650691" lon="8.7173951"><ele>256.42857142857144</ele><time>2026-05-01T16:29:57.197Z</time></trkpt><trkpt lat="45.6650303" lon="8.7173055"><ele>256.7142857142857</ele><time>2026-05-01T16:29:59.197Z</time></trkpt><trkpt lat="45.6649944" lon="8.7172159"><ele>257.0</ele><time>2026-05-01T16:30:01.197Z</time></trkpt><trkpt lat="45.664958" lon="8.7171246"><ele>257.0</ele><time>2026-05-01T16:30:03.196Z</time></trkpt><trkpt lat="45.6649289" lon="8.7170241"><ele>257.0</ele><time>2026-05-01T16:30:05.196Z</time></trkpt><trkpt lat="45.6648881" lon="8.7169264"><ele>257.0</ele><time>2026-05-01T16:30:07.197Z</time></trkpt><trkpt lat="45.6648532" lon="8.7168249"><ele>257.0</ele><time>2026-05-01T16:30:09.197Z</time></trkpt><trkpt lat="45.6648164" lon="8.7167231"><ele>257.0</ele><time>2026-05-01T16:30:11.196Z</time></trkpt><trkpt lat="45.6647868" lon="8.7166199"><ele>257.0</ele><time>2026-05-01T16:30:13.197Z</time></trkpt><trkpt lat="45.6647596" lon="8.7165135"><ele>257.0</ele><time>2026-05-01T16:30:15.197Z</time></trkpt><trkpt lat="45.6647298" lon="8.7164112"><ele>257.0</ele><time>2026-05-01T16:30:17.196Z</time></trkpt><trkpt lat="45.6646955" lon="8.7163201"><ele>257.0</ele><time>2026-05-01T16:30:19.197Z</time></trkpt><trkpt lat="45.6646597" lon="8.7162265"><ele>257.0</ele><time>2026-05-01T16:30:21.196Z</time></trkpt><trkpt lat="45.6646295" lon="8.7161173"><ele>257.0</ele><time>2026-05-01T16:30:23.197Z</time></trkpt><trkpt lat="45.6645941" lon="8.7159849"><ele>257.0</ele><time>2026-05-01T16:30:25.197Z</time></trkpt><trkpt lat="45.664556" lon="8.7158614"><ele>257.2</ele><time>2026-05-01T16:30:27.196Z</time></trkpt><trkpt lat="45.6645213" lon="8.715742"><ele>257.4</ele><time>2026-05-01T16:30:29.196Z</time></trkpt><trkpt lat="45.6644846" lon="8.7156222"><ele>257.6</ele><time>2026-05-01T16:30:31.197Z</time></trkpt><trkpt lat="45.6644459" lon="8.7154999"><ele>257.8</ele><time>2026-05-01T16:30:33.197Z</time></trkpt><trkpt lat="45.6644065" lon="8.7153898"><ele>258.0</ele><time>2026-05-01T16:30:35.197Z</time></trkpt><trkpt lat="45.6643715" lon="8.7152738"><ele>257.6666666666667</ele><time>2026-05-01T16:30:37.197Z</time></trkpt><trkpt lat="45.6643367" lon="8.7151455"><ele>257.3333333333333</ele><time>2026-05-01T16:30:39.197Z</time></trkpt><trkpt lat="45.6643084" lon="8.7150288"><ele>257.0</ele><time>2026-05-01T16:30:41.197Z</time></trkpt><trkpt lat="45.6642818" lon="8.7149128"><ele>256.66666666666663</ele><time>2026-05-01T16:30:43.197Z</time></trkpt><trkpt lat="45.6642536" lon="8.714803"><ele>256.3333333333333</ele><time>2026-05-01T16:30:45.197Z</time></trkpt><trkpt lat="45.6642109" lon="8.7146976"><ele>256.0</ele><time>2026-05-01T16:30:47.197Z</time></trkpt><trkpt lat="45.6641704" lon="8.7145859"><ele>255.99999999999997</ele><time>2026-05-01T16:30:49.197Z</time></trkpt><trkpt lat="45.6641521" lon="8.7144589"><ele>256.0</ele><time>2026-05-01T16:30:51.197Z</time></trkpt><trkpt lat="45.6641362" lon="8.7143422"><ele>256.0</ele><time>2026-05-01T16:30:53.196Z</time></trkpt><trkpt lat="45.6641617" lon="8.7142338"><ele>256.0</ele><time>2026-05-01T16:30:55.196Z</time></trkpt><trkpt lat="45.6642295" lon="8.7141671"><ele>255.99999999999997</ele><time>2026-05-01T16:30:57.197Z</time></trkpt><trkpt lat="45.6643087" lon="8.7141264"><ele>256.0</ele><time>2026-05-01T16:30:59.197Z</time></trkpt><trkpt lat="45.664385" lon="8.714098"><ele>256.42857142857144</ele><time>2026-05-01T16:31:01.197Z</time></trkpt><trkpt lat="45.6644569" lon="8.714072"><ele>256.85714285714283</ele><time>2026-05-01T16:31:03.197Z</time></trkpt><trkpt lat="45.6645253" lon="8.7140416"><ele>257.2857142857143</ele><time>2026-05-01T16:31:05.196Z</time></trkpt><trkpt lat="45.6645891" lon="8.7140123"><ele>257.7142857142857</ele><time>2026-05-01T16:31:07.197Z</time></trkpt><trkpt lat="45.66465" lon="8.7139759"><ele>258.1428571428571</ele><time>2026-05-01T16:31:09.196Z</time></trkpt><trkpt lat="45.664721" lon="8.7139495"><ele>258.57142857142856</ele><time>2026-05-01T16:31:11.197Z</time></trkpt><trkpt lat="45.664788" lon="8.7139203"><ele>259.0</ele><time>2026-05-01T16:31:13.197Z</time></trkpt><trkpt lat="45.6648551" lon="8.7138903"><ele>259.0</ele><time>2026-05-01T16:31:15.196Z</time></trkpt><trkpt lat="45.6649204" lon="8.7138638"><ele>259.0</ele><time>2026-05-01T16:31:17.197Z</time></trkpt><trkpt lat="45.6649922" lon="8.7138364"><ele>259.0</ele><time>2026-05-01T16:31:19.196Z</time></trkpt><trkpt lat="45.665065" lon="8.7138137"><ele>259.0</ele><time>2026-05-01T16:31:21.196Z</time></trkpt><trkpt lat="45.6651346" lon="8.7137883"><ele>259.0</ele><time>2026-05-01T16:31:23.196Z</time></trkpt><trkpt lat="45.6652075" lon="8.7137683"><ele>259.0</ele><time>2026-05-01T16:31:25.196Z</time></trkpt><trkpt lat="45.6652796" lon="8.7137501"><ele>259.0</ele><time>2026-05-01T16:31:27.197Z</time></trkpt><trkpt lat="45.6653478" lon="8.7137228"><ele>259.14285714285717</ele><time>2026-05-01T16:31:29.197Z</time></trkpt><trkpt lat="45.6654165" lon="8.713702"><ele>259.2857142857143</ele><time>2026-05-01T16:31:31.196Z</time></trkpt><trkpt lat="45.6654783" lon="8.7136606"><ele>259.42857142857144</ele><time>2026-05-01T16:31:33.197Z</time></trkpt><trkpt lat="45.665548" lon="8.713642"><ele>259.57142857142856</ele><time>2026-05-01T16:31:35.196Z</time></trkpt><trkpt lat="45.6656133" lon="8.713632"><ele>259.7142857142857</ele><time>2026-05-01T16:31:37.196Z</time></trkpt><trkpt lat="45.6656794" lon="8.7136263"><ele>259.8571428571429</ele><time>2026-05-01T16:31:39.197Z</time></trkpt><trkpt lat="45.6657461" lon="8.7136275"><ele>260.0</ele><time>2026-05-01T16:31:41.197Z</time></trkpt><trkpt lat="45.665821" lon="8.7136236"><ele>260.00000000000006</ele><time>2026-05-01T16:31:43.196Z</time></trkpt><trkpt lat="45.6658929" lon="8.7136164"><ele>260.0</ele><time>2026-05-01T16:31:45.196Z</time></trkpt><trkpt lat="45.6659665" lon="8.7136128"><ele>260.0</ele><time>2026-05-01T16:31:47.197Z</time></trkpt><trkpt lat="45.6660377" lon="8.7136086"><ele>260.0</ele><time>2026-05-01T16:31:49.197Z</time></trkpt><trkpt lat="45.666106" lon="8.7135991"><ele>260.0</ele><time>2026-05-01T16:31:51.197Z</time></trkpt><trkpt lat="45.6661751" lon="8.7135963"><ele>260.00000000000006</ele><time>2026-05-01T16:31:53.197Z</time></trkpt><trkpt lat="45.6662534" lon="8.7135894"><ele>260.0</ele><time>2026-05-01T16:31:55.197Z</time></trkpt><trkpt lat="45.6663263" lon="8.7135755"><ele>260.00000000000006</ele><time>2026-05-01T16:31:57.197Z</time></trkpt><trkpt lat="45.6663922" lon="8.7135692"><ele>260.0</ele><time>2026-05-01T16:31:59.197Z</time></trkpt><trkpt lat="45.666462" lon="8.7135596"><ele>260.0</ele><time>2026-05-01T16:32:01.196Z</time></trkpt><trkpt lat="45.6665337" lon="8.7135461"><ele>260.0</ele><time>2026-05-01T16:32:03.197Z</time></trkpt><trkpt lat="45.6666" lon="8.7135169"><ele>260.0</ele><time>2026-05-01T16:32:05.196Z</time></trkpt><trkpt lat="45.6666678" lon="8.7134787"><ele>260.00000000000006</ele><time>2026-05-01T16:32:07.196Z</time></trkpt><trkpt lat="45.6667405" lon="8.7134541"><ele>260.0</ele><time>2026-05-01T16:32:09.196Z</time></trkpt><trkpt lat="45.666798" lon="8.7133984"><ele>260.0</ele><time>2026-05-01T16:32:13.196Z</time></trkpt><trkpt lat="45.6668236" lon="8.7132907"><ele>260.0</ele><time>2026-05-01T16:32:16.196Z</time></trkpt><trkpt lat="45.6668634" lon="8.7131698"><ele>260.0</ele><time>2026-05-01T16:32:19.197Z</time></trkpt><trkpt lat="45.6669023" lon="8.713096"><ele>260.0</ele><time>2026-05-01T16:32:21.197Z</time></trkpt><trkpt lat="45.6669641" lon="8.7130484"><ele>260.0</ele><time>2026-05-01T16:32:23.196Z</time></trkpt><trkpt lat="45.667033" lon="8.7130134"><ele>260.0</ele><time>2026-05-01T16:32:25.197Z</time></trkpt><trkpt lat="45.6671045" lon="8.7129849"><ele>259.6666666666667</ele><time>2026-05-01T16:32:27.196Z</time></trkpt><trkpt lat="45.667179" lon="8.7129534"><ele>259.33333333333337</ele><time>2026-05-01T16:32:29.197Z</time></trkpt><trkpt lat="45.6672541" lon="8.7129272"><ele>259.0</ele><time>2026-05-01T16:32:31.196Z</time></trkpt><trkpt lat="45.6673263" lon="8.7128975"><ele>258.6666666666667</ele><time>2026-05-01T16:32:33.197Z</time></trkpt><trkpt lat="45.6674003" lon="8.7128623"><ele>258.3333333333333</ele><time>2026-05-01T16:32:35.196Z</time></trkpt><trkpt lat="45.6674751" lon="8.7128274"><ele>258.0</ele><time>2026-05-01T16:32:37.196Z</time></trkpt><trkpt lat="45.6675507" lon="8.712794"><ele>257.99999999999994</ele><time>2026-05-01T16:32:39.197Z</time></trkpt><trkpt lat="45.6676295" lon="8.7127803"><ele>258.0</ele><time>2026-05-01T16:32:41.197Z</time></trkpt><trkpt lat="45.6677013" lon="8.7127617"><ele>258.0</ele><time>2026-05-01T16:32:43.197Z</time></trkpt><trkpt lat="45.6677683" lon="8.712733"><ele>258.0</ele><time>2026-05-01T16:32:45.197Z</time></trkpt><trkpt lat="45.6678365" lon="8.7126935"><ele>258.0</ele><time>2026-05-01T16:32:47.196Z</time></trkpt><trkpt lat="45.6679024" lon="8.7126566"><ele>257.99999999999994</ele><time>2026-05-01T16:32:49.197Z</time></trkpt><trkpt lat="45.6679685" lon="8.7126426"><ele>258.0</ele><time>2026-05-01T16:32:51.197Z</time></trkpt><trkpt lat="45.668063" lon="8.7126157"><ele>258.4285714285714</ele><time>2026-05-01T16:32:54.196Z</time></trkpt><trkpt lat="45.6681299" lon="8.7125789"><ele>258.85714285714283</ele><time>2026-05-01T16:32:56.196Z</time></trkpt><trkpt lat="45.6681906" lon="8.7125467"><ele>259.2857142857143</ele><time>2026-05-01T16:32:58.197Z</time></trkpt><trkpt lat="45.6682638" lon="8.7125353"><ele>259.71428571428567</ele><time>2026-05-01T16:33:00.197Z</time></trkpt><trkpt lat="45.6683404" lon="8.7125242"><ele>260.1428571428571</ele><time>2026-05-01T16:33:02.197Z</time></trkpt><trkpt lat="45.6684159" lon="8.7125105"><ele>260.57142857142856</ele><time>2026-05-01T16:33:04.197Z</time></trkpt><trkpt lat="45.668495" lon="8.7124926"><ele>261.0</ele><time>2026-05-01T16:33:06.197Z</time></trkpt><trkpt lat="45.6685689" lon="8.7124749"><ele>260.1666666666667</ele><time>2026-05-01T16:33:08.196Z</time></trkpt><trkpt lat="45.6686382" lon="8.7124553"><ele>259.3333333333333</ele><time>2026-05-01T16:33:10.196Z</time></trkpt><trkpt lat="45.6687027" lon="8.7124387"><ele>258.5</ele><time>2026-05-01T16:33:12.196Z</time></trkpt><trkpt lat="45.6687769" lon="8.7124215"><ele>257.66666666666663</ele><time>2026-05-01T16:33:15.197Z</time></trkpt><trkpt lat="45.6688551" lon="8.7124194"><ele>256.8333333333333</ele><time>2026-05-01T16:33:17.197Z</time></trkpt><trkpt lat="45.6689315" lon="8.7123997"><ele>256.0</ele><time>2026-05-01T16:33:21.197Z</time></trkpt><trkpt lat="45.6690126" lon="8.7124241"><ele>256.0</ele><time>2026-05-01T16:33:26.197Z</time></trkpt><trkpt lat="45.6691103" lon="8.7125"><ele>256.0</ele><time>2026-05-01T16:33:29.197Z</time></trkpt><trkpt lat="45.6691902" lon="8.7125408"><ele>256.0</ele><time>2026-05-01T16:33:32.197Z</time></trkpt><trkpt lat="45.669269" lon="8.7125877"><ele>256.0</ele><time>2026-05-01T16:33:35.197Z</time></trkpt><trkpt lat="45.6693581" lon="8.7125874"><ele>256.0</ele><time>2026-05-01T16:33:38.197Z</time></trkpt><trkpt lat="45.6694486" lon="8.7125471"><ele>255.33333333333331</ele><time>2026-05-01T16:33:41.197Z</time></trkpt><trkpt lat="45.6695376" lon="8.7125119"><ele>254.66666666666666</ele><time>2026-05-01T16:33:44.197Z</time></trkpt><trkpt lat="45.6696258" lon="8.7124635"><ele>254.0</ele><time>2026-05-01T16:33:47.196Z</time></trkpt><trkpt lat="45.6696916" lon="8.7124315"><ele>253.33333333333331</ele><time>2026-05-01T16:33:49.196Z</time></trkpt><trkpt lat="45.6697536" lon="8.7123936"><ele>252.66666666666666</ele><time>2026-05-01T16:33:51.197Z</time></trkpt><trkpt lat="45.6698176" lon="8.7123625"><ele>252.0</ele><time>2026-05-01T16:33:53.197Z</time></trkpt><trkpt lat="45.6698812" lon="8.7123403"><ele>252.0</ele><time>2026-05-01T16:33:55.196Z</time></trkpt><trkpt lat="45.6699435" lon="8.7123124"><ele>252.0</ele><time>2026-05-01T16:33:57.197Z</time></trkpt><trkpt lat="45.6700049" lon="8.712278"><ele>252.0</ele><time>2026-05-01T16:33:59.197Z</time></trkpt><trkpt lat="45.6700683" lon="8.7122418"><ele>252.0</ele><time>2026-05-01T16:34:01.197Z</time></trkpt><trkpt lat="45.6701326" lon="8.7122091"><ele>252.0</ele><time>2026-05-01T16:34:03.196Z</time></trkpt><trkpt lat="45.6701988" lon="8.712171"><ele>252.0</ele><time>2026-05-01T16:34:05.196Z</time></trkpt><trkpt lat="45.6702633" lon="8.7121258"><ele>252.0</ele><time>2026-05-01T16:34:07.197Z</time></trkpt><trkpt lat="45.6703295" lon="8.7120824"><ele>252.14285714285714</ele><time>2026-05-01T16:34:09.197Z</time></trkpt><trkpt lat="45.6703937" lon="8.7120277"><ele>252.28571428571428</ele><time>2026-05-01T16:34:11.197Z</time></trkpt><trkpt lat="45.6704574" lon="8.7119726"><ele>252.42857142857144</ele><time>2026-05-01T16:34:13.197Z</time></trkpt><trkpt lat="45.6705231" lon="8.7119274"><ele>252.57142857142858</ele><time>2026-05-01T16:34:15.196Z</time></trkpt><trkpt lat="45.67059" lon="8.7118933"><ele>252.71428571428572</ele><time>2026-05-01T16:34:17.197Z</time></trkpt><trkpt lat="45.6706531" lon="8.7118643"><ele>252.8571428571429</ele><time>2026-05-01T16:34:19.197Z</time></trkpt><trkpt lat="45.6707134" lon="8.7118223"><ele>253.00000000000003</ele><time>2026-05-01T16:34:21.197Z</time></trkpt><trkpt lat="45.6707778" lon="8.7117771"><ele>253.14285714285717</ele><time>2026-05-01T16:34:23.196Z</time></trkpt><trkpt lat="45.6708421" lon="8.7117269"><ele>253.28571428571428</ele><time>2026-05-01T16:34:25.196Z</time></trkpt><trkpt lat="45.6709102" lon="8.7116907"><ele>253.42857142857144</ele><time>2026-05-01T16:34:27.197Z</time></trkpt><trkpt lat="45.6709774" lon="8.7116656"><ele>253.57142857142858</ele><time>2026-05-01T16:34:29.196Z</time></trkpt><trkpt lat="45.6710457" lon="8.711651"><ele>253.71428571428572</ele><time>2026-05-01T16:34:31.197Z</time></trkpt><trkpt lat="45.6711164" lon="8.7116381"><ele>253.85714285714286</ele><time>2026-05-01T16:34:33.197Z</time></trkpt><trkpt lat="45.6711875" lon="8.71163"><ele>254.0</ele><time>2026-05-01T16:34:35.197Z</time></trkpt><trkpt lat="45.67126" lon="8.7116292"><ele>254.28571428571428</ele><time>2026-05-01T16:34:37.196Z</time></trkpt><trkpt lat="45.6713303" lon="8.711638"><ele>254.57142857142856</ele><time>2026-05-01T16:34:39.197Z</time></trkpt><trkpt lat="45.6713977" lon="8.7116513"><ele>254.85714285714283</ele><time>2026-05-01T16:34:41.196Z</time></trkpt><trkpt lat="45.6714638" lon="8.7116745"><ele>255.14285714285714</ele><time>2026-05-01T16:34:43.196Z</time></trkpt><trkpt lat="45.6715287" lon="8.7116863"><ele>255.4285714285714</ele><time>2026-05-01T16:34:45.196Z</time></trkpt><trkpt lat="45.6715965" lon="8.7116807"><ele>255.7142857142857</ele><time>2026-05-01T16:34:47.197Z</time></trkpt><trkpt lat="45.6716651" lon="8.7116761"><ele>256.0</ele><time>2026-05-01T16:34:49.196Z</time></trkpt><trkpt lat="45.6717315" lon="8.7116638"><ele>256.0</ele><time>2026-05-01T16:34:51.197Z</time></trkpt><trkpt lat="45.671795" lon="8.7116398"><ele>255.99999999999997</ele><time>2026-05-01T16:34:53.197Z</time></trkpt><trkpt lat="45.6718533" lon="8.7116011"><ele>256.0</ele><time>2026-05-01T16:34:55.197Z</time></trkpt><trkpt lat="45.6719107" lon="8.7115616"><ele>256.0</ele><time>2026-05-01T16:34:57.197Z</time></trkpt><trkpt lat="45.671993" lon="8.7115046"><ele>255.99999999999997</ele><time>2026-05-01T16:35:00.196Z</time></trkpt><trkpt lat="45.6720613" lon="8.7114375"><ele>256.0</ele><time>2026-05-01T16:35:03.197Z</time></trkpt><trkpt lat="45.6721213" lon="8.7113843"><ele>256.0</ele><time>2026-05-01T16:35:06.197Z</time></trkpt><trkpt lat="45.6721994" lon="8.7114055"><ele>255.99999999999997</ele><time>2026-05-01T16:35:52.197Z</time></trkpt><trkpt lat="45.6722611" lon="8.7113385"><ele>256.0</ele><time>2026-05-01T16:35:55.196Z</time></trkpt><trkpt lat="45.6722962" lon="8.7112329"><ele>256.0</ele><time>2026-05-01T16:35:57.196Z</time></trkpt><trkpt lat="45.6723559" lon="8.7111316"><ele>256.0</ele><time>2026-05-01T16:36:00.196Z</time></trkpt><trkpt lat="45.6724068" lon="8.7110342"><ele>255.99999999999997</ele><time>2026-05-01T16:36:03.197Z</time></trkpt><trkpt lat="45.6724747" lon="8.7109561"><ele>256.0</ele><time>2026-05-01T16:36:06.197Z</time></trkpt><trkpt lat="45.6725417" lon="8.7108732"><ele>256.1428571428571</ele><time>2026-05-01T16:36:09.197Z</time></trkpt><trkpt lat="45.6726166" lon="8.7107899"><ele>256.2857142857143</ele><time>2026-05-01T16:36:12.197Z</time></trkpt><trkpt lat="45.6726716" lon="8.7107373"><ele>256.42857142857144</ele><time>2026-05-01T16:36:14.197Z</time></trkpt><trkpt lat="45.6727323" lon="8.7107083"><ele>256.57142857142856</ele><time>2026-05-01T16:36:16.197Z</time></trkpt><trkpt lat="45.6727938" lon="8.7106867"><ele>256.7142857142857</ele><time>2026-05-01T16:36:18.197Z</time></trkpt><trkpt lat="45.6728565" lon="8.7106654"><ele>256.85714285714283</ele><time>2026-05-01T16:36:20.196Z</time></trkpt><trkpt lat="45.6729226" lon="8.7106481"><ele>257.0</ele><time>2026-05-01T16:36:22.196Z</time></trkpt><trkpt lat="45.6729864" lon="8.7106183"><ele>257.0</ele><time>2026-05-01T16:36:24.197Z</time></trkpt><trkpt lat="45.6730491" lon="8.7105885"><ele>257.0</ele><time>2026-05-01T16:36:26.197Z</time></trkpt><trkpt lat="45.6731142" lon="8.7105706"><ele>257.0</ele><time>2026-05-01T16:36:28.196Z</time></trkpt><trkpt lat="45.6731787" lon="8.7105475"><ele>257.0</ele><time>2026-05-01T16:36:30.197Z</time></trkpt><trkpt lat="45.6732345" lon="8.7104953"><ele>257.0</ele><time>2026-05-01T16:36:32.196Z</time></trkpt><trkpt lat="45.6732855" lon="8.7104309"><ele>257.0</ele><time>2026-05-01T16:36:34.197Z</time></trkpt><trkpt lat="45.6733331" lon="8.7103644"><ele>257.0</ele><time>2026-05-01T16:36:36.197Z</time></trkpt><trkpt lat="45.6733831" lon="8.7103001"><ele>257.0</ele><time>2026-05-01T16:36:38.197Z</time></trkpt><trkpt lat="45.6734346" lon="8.7102351"><ele>257.0</ele><time>2026-05-01T16:36:40.196Z</time></trkpt><trkpt lat="45.6734851" lon="8.7101697"><ele>257.0</ele><time>2026-05-01T16:36:42.196Z</time></trkpt><trkpt lat="45.6735284" lon="8.7100969"><ele>257.0</ele><time>2026-05-01T16:36:44.197Z</time></trkpt><trkpt lat="45.6735958" lon="8.7100075"><ele>257.0</ele><time>2026-05-01T16:36:47.196Z</time></trkpt><trkpt lat="45.6736553" lon="8.7099225"><ele>257.0</ele><time>2026-05-01T16:36:50.197Z</time></trkpt><trkpt lat="45.6737052" lon="8.7098338"><ele>257.1666666666667</ele><time>2026-05-01T16:36:53.197Z</time></trkpt><trkpt lat="45.6737426" lon="8.7097407"><ele>257.33333333333337</ele><time>2026-05-01T16:36:56.197Z</time></trkpt><trkpt lat="45.6737824" lon="8.7096432"><ele>257.5</ele><time>2026-05-01T16:36:59.197Z</time></trkpt><trkpt lat="45.6738311" lon="8.7095369"><ele>257.6666666666667</ele><time>2026-05-01T16:37:02.197Z</time></trkpt><trkpt lat="45.6738935" lon="8.7094315"><ele>257.8333333333333</ele><time>2026-05-01T16:37:05.197Z</time></trkpt><trkpt lat="45.6739384" lon="8.7093539"><ele>258.0</ele><time>2026-05-01T16:37:07.197Z</time></trkpt><trkpt lat="45.6739841" lon="8.7092768"><ele>258.1666666666667</ele><time>2026-05-01T16:37:09.196Z</time></trkpt><trkpt lat="45.6740269" lon="8.7091943"><ele>258.3333333333333</ele><time>2026-05-01T16:37:11.197Z</time></trkpt><trkpt lat="45.6740703" lon="8.7091051"><ele>258.5</ele><time>2026-05-01T16:37:13.197Z</time></trkpt><trkpt lat="45.6741178" lon="8.7090166"><ele>258.66666666666663</ele><time>2026-05-01T16:37:15.197Z</time></trkpt><trkpt lat="45.6741638" lon="8.7089266"><ele>258.8333333333333</ele><time>2026-05-01T16:37:17.197Z</time></trkpt><trkpt lat="45.6742116" lon="8.7088317"><ele>259.0</ele><time>2026-05-01T16:37:19.197Z</time></trkpt><trkpt lat="45.6742624" lon="8.708741"><ele>259.0</ele><time>2026-05-01T16:37:21.197Z</time></trkpt><trkpt lat="45.6743117" lon="8.7086499"><ele>259.0</ele><time>2026-05-01T16:37:23.197Z</time></trkpt><trkpt lat="45.6743596" lon="8.7085606"><ele>259.0</ele><time>2026-05-01T16:37:25.196Z</time></trkpt><trkpt lat="45.6744014" lon="8.708468"><ele>259.0</ele><time>2026-05-01T16:37:27.196Z</time></trkpt><trkpt lat="45.6744455" lon="8.70838"><ele>259.0</ele><time>2026-05-01T16:37:29.197Z</time></trkpt><trkpt lat="45.674493" lon="8.7082967"><ele>259.0</ele><time>2026-05-01T16:37:31.196Z</time></trkpt><trkpt lat="45.6745413" lon="8.7082135"><ele>259.0</ele><time>2026-05-01T16:37:33.197Z</time></trkpt><trkpt lat="45.6745812" lon="8.7081191"><ele>259.0</ele><time>2026-05-01T16:37:35.197Z</time></trkpt><trkpt lat="45.674632" lon="8.7080314"><ele>259.0</ele><time>2026-05-01T16:37:37.197Z</time></trkpt><trkpt lat="45.6746855" lon="8.7079443"><ele>259.0</ele><time>2026-05-01T16:37:39.197Z</time></trkpt><trkpt lat="45.6747347" lon="8.7078521"><ele>259.0</ele><time>2026-05-01T16:37:41.196Z</time></trkpt><trkpt lat="45.6747858" lon="8.7077593"><ele>259.0</ele><time>2026-05-01T16:37:43.197Z</time></trkpt><trkpt lat="45.6748337" lon="8.7076672"><ele>259.0</ele><time>2026-05-01T16:37:45.197Z</time></trkpt><trkpt lat="45.6748786" lon="8.7075815"><ele>259.0</ele><time>2026-05-01T16:37:47.197Z</time></trkpt><trkpt lat="45.6749243" lon="8.7074951"><ele>259.0</ele><time>2026-05-01T16:37:49.196Z</time></trkpt><trkpt lat="45.6749723" lon="8.7074054"><ele>259.0</ele><time>2026-05-01T16:37:51.197Z</time></trkpt><trkpt lat="45.6750419" lon="8.7073396"><ele>259.0</ele><time>2026-05-01T16:37:53.197Z</time></trkpt><trkpt lat="45.6751192" lon="8.7072993"><ele>259.0</ele><time>2026-05-01T16:37:55.197Z</time></trkpt><trkpt lat="45.6751718" lon="8.7072043"><ele>259.0</ele><time>2026-05-01T16:37:57.196Z</time></trkpt><trkpt lat="45.6752262" lon="8.7071162"><ele>259.0</ele><time>2026-05-01T16:37:59.197Z</time></trkpt><trkpt lat="45.6752778" lon="8.7070256"><ele>259.0</ele><time>2026-05-01T16:38:01.196Z</time></trkpt><trkpt lat="45.6753316" lon="8.7069341"><ele>259.0</ele><time>2026-05-01T16:38:03.197Z</time></trkpt><trkpt lat="45.6753876" lon="8.7068464"><ele>259.0</ele><time>2026-05-01T16:38:05.196Z</time></trkpt><trkpt lat="45.6754403" lon="8.7067523"><ele>259.0</ele><time>2026-05-01T16:38:07.197Z</time></trkpt><trkpt lat="45.6754921" lon="8.7066586"><ele>259.16666666666663</ele><time>2026-05-01T16:38:09.197Z</time></trkpt><trkpt lat="45.6755423" lon="8.7065656"><ele>259.3333333333333</ele><time>2026-05-01T16:38:11.197Z</time></trkpt><trkpt lat="45.6755935" lon="8.7064717"><ele>259.5</ele><time>2026-05-01T16:38:13.197Z</time></trkpt><trkpt lat="45.6756468" lon="8.7063797"><ele>259.6666666666667</ele><time>2026-05-01T16:38:15.196Z</time></trkpt><trkpt lat="45.6757004" lon="8.7062866"><ele>259.83333333333337</ele><time>2026-05-01T16:38:17.196Z</time></trkpt><trkpt lat="45.6757532" lon="8.7061932"><ele>260.0</ele><time>2026-05-01T16:38:19.197Z</time></trkpt><trkpt lat="45.6758033" lon="8.7060994"><ele>260.0</ele><time>2026-05-01T16:38:21.197Z</time></trkpt><trkpt lat="45.6758575" lon="8.7060035"><ele>260.0</ele><time>2026-05-01T16:38:23.197Z</time></trkpt><trkpt lat="45.6759107" lon="8.705912"><ele>260.0</ele><time>2026-05-01T16:38:25.197Z</time></trkpt><trkpt lat="45.6759588" lon="8.7058179"><ele>260.0</ele><time>2026-05-01T16:38:27.196Z</time></trkpt><trkpt lat="45.6760085" lon="8.7057275"><ele>260.0</ele><time>2026-05-01T16:38:29.197Z</time></trkpt><trkpt lat="45.6760582" lon="8.7056307"><ele>260.0</ele><time>2026-05-01T16:38:31.197Z</time></trkpt><trkpt lat="45.6761199" lon="8.7055441"><ele>260.0</ele><time>2026-05-01T16:38:33.197Z</time></trkpt><trkpt lat="45.6761994" lon="8.7054932"><ele>260.0</ele><time>2026-05-01T16:38:35.197Z</time></trkpt><trkpt lat="45.676283" lon="8.7054831"><ele>260.0</ele><time>2026-05-01T16:38:37.197Z</time></trkpt><trkpt lat="45.676359" lon="8.7055273"><ele>260.0</ele><time>2026-05-01T16:38:39.196Z</time></trkpt><trkpt lat="45.6764333" lon="8.7055719"><ele>260.0</ele><time>2026-05-01T16:38:41.197Z</time></trkpt><trkpt lat="45.6765122" lon="8.705599"><ele>260.0</ele><time>2026-05-01T16:38:43.197Z</time></trkpt><trkpt lat="45.6765952" lon="8.7055938"><ele>260.0</ele><time>2026-05-01T16:38:45.197Z</time></trkpt><trkpt lat="45.6766735" lon="8.7056196"><ele>260.0</ele><time>2026-05-01T16:38:47.197Z</time></trkpt><trkpt lat="45.6767432" lon="8.705669"><ele>260.0</ele><time>2026-05-01T16:38:49.197Z</time></trkpt><trkpt lat="45.6768114" lon="8.7057159"><ele>260.0</ele><time>2026-05-01T16:38:51.197Z</time></trkpt><trkpt lat="45.6768736" lon="8.7057693"><ele>260.0</ele><time>2026-05-01T16:38:53.197Z</time></trkpt><trkpt lat="45.6769373" lon="8.7058279"><ele>260.0</ele><time>2026-05-01T16:38:55.197Z</time></trkpt><trkpt lat="45.6770007" lon="8.7058848"><ele>260.14285714285717</ele><time>2026-05-01T16:38:57.196Z</time></trkpt><trkpt lat="45.6770624" lon="8.7059391"><ele>260.2857142857143</ele><time>2026-05-01T16:38:59.197Z</time></trkpt><trkpt lat="45.6771245" lon="8.7059868"><ele>260.42857142857144</ele><time>2026-05-01T16:39:01.196Z</time></trkpt><trkpt lat="45.6771818" lon="8.7060411"><ele>260.57142857142856</ele><time>2026-05-01T16:39:03.197Z</time></trkpt><trkpt lat="45.6772408" lon="8.7060898"><ele>260.7142857142857</ele><time>2026-05-01T16:39:05.197Z</time></trkpt><trkpt lat="45.6772989" lon="8.7061286"><ele>260.8571428571429</ele><time>2026-05-01T16:39:07.197Z</time></trkpt><trkpt lat="45.6773577" lon="8.7061717"><ele>261.0</ele><time>2026-05-01T16:39:09.197Z</time></trkpt><trkpt lat="45.677431" lon="8.7062562"><ele>261.3333333333333</ele><time>2026-05-01T16:39:12.197Z</time></trkpt><trkpt lat="45.6774919" lon="8.7062891"><ele>261.6666666666667</ele><time>2026-05-01T16:39:14.197Z</time></trkpt><trkpt lat="45.6775632" lon="8.7063524"><ele>262.0</ele><time>2026-05-01T16:39:16.197Z</time></trkpt><trkpt lat="45.6776343" lon="8.7064035"><ele>262.33333333333337</ele><time>2026-05-01T16:39:18.197Z</time></trkpt><trkpt lat="45.6777028" lon="8.7064614"><ele>262.6666666666667</ele><time>2026-05-01T16:39:20.197Z</time></trkpt><trkpt lat="45.6777732" lon="8.7065169"><ele>263.0</ele><time>2026-05-01T16:39:22.197Z</time></trkpt><trkpt lat="45.6778396" lon="8.7065759"><ele>263.1428571428571</ele><time>2026-05-01T16:39:24.197Z</time></trkpt><trkpt lat="45.677902" lon="8.7066366"><ele>263.2857142857143</ele><time>2026-05-01T16:39:26.196Z</time></trkpt><trkpt lat="45.6779625" lon="8.7066919"><ele>263.42857142857144</ele><time>2026-05-01T16:39:28.197Z</time></trkpt><trkpt lat="45.6780189" lon="8.7067491"><ele>263.57142857142856</ele><time>2026-05-01T16:39:30.196Z</time></trkpt><trkpt lat="45.6780717" lon="8.7068019"><ele>263.7142857142857</ele><time>2026-05-01T16:39:32.197Z</time></trkpt><trkpt lat="45.6781491" lon="8.7068714"><ele>263.85714285714283</ele><time>2026-05-01T16:39:35.197Z</time></trkpt><trkpt lat="45.6782043" lon="8.7069291"><ele>264.0</ele><time>2026-05-01T16:39:37.196Z</time></trkpt><trkpt lat="45.678256" lon="8.7069885"><ele>264.0</ele><time>2026-05-01T16:39:39.197Z</time></trkpt><trkpt lat="45.6783074" lon="8.7070496"><ele>264.0</ele><time>2026-05-01T16:39:41.197Z</time></trkpt><trkpt lat="45.6783591" lon="8.7071053"><ele>264.0</ele><time>2026-05-01T16:39:43.196Z</time></trkpt><trkpt lat="45.6784104" lon="8.7071653"><ele>264.0</ele><time>2026-05-01T16:39:45.196Z</time></trkpt><trkpt lat="45.6784662" lon="8.7072266"><ele>264.0</ele><time>2026-05-01T16:39:47.197Z</time></trkpt><trkpt lat="45.6785164" lon="8.7072854"><ele>264.0</ele><time>2026-05-01T16:39:49.197Z</time></trkpt><trkpt lat="45.6785683" lon="8.7073445"><ele>264.0</ele><time>2026-05-01T16:39:51.197Z</time></trkpt><trkpt lat="45.6786235" lon="8.7074044"><ele>264.0</ele><time>2026-05-01T16:39:53.197Z</time></trkpt><trkpt lat="45.6786761" lon="8.707466"><ele>264.0</ele><time>2026-05-01T16:39:55.197Z</time></trkpt><trkpt lat="45.6787271" lon="8.7075248"><ele>264.0</ele><time>2026-05-01T16:39:57.196Z</time></trkpt><trkpt lat="45.6787764" lon="8.7075866"><ele>264.0</ele><time>2026-05-01T16:39:59.197Z</time></trkpt><trkpt lat="45.6788517" lon="8.7076739"><ele>264.0</ele><time>2026-05-01T16:40:02.197Z</time></trkpt><trkpt lat="45.6789028" lon="8.7077332"><ele>264.0</ele><time>2026-05-01T16:40:04.196Z</time></trkpt><trkpt lat="45.6789735" lon="8.7078117"><ele>264.0</ele><time>2026-05-01T16:40:07.197Z</time></trkpt><trkpt lat="45.6790346" lon="8.707876"><ele>264.0</ele><time>2026-05-01T16:40:10.196Z</time></trkpt><trkpt lat="45.6790947" lon="8.7079396"><ele>264.0</ele><time>2026-05-01T16:40:13.196Z</time></trkpt><trkpt lat="45.6791366" lon="8.7080121"><ele>264.0</ele><time>2026-05-01T16:40:15.196Z</time></trkpt><trkpt lat="45.6791988" lon="8.7080729"><ele>264.0</ele><time>2026-05-01T16:40:17.196Z</time></trkpt><trkpt lat="45.6792686" lon="8.7081376"><ele>264.0</ele><time>2026-05-01T16:40:19.196Z</time></trkpt><trkpt lat="45.6793287" lon="8.708211"><ele>264.0</ele><time>2026-05-01T16:40:21.197Z</time></trkpt><trkpt lat="45.6793905" lon="8.7082803"><ele>264.0</ele><time>2026-05-01T16:40:23.197Z</time></trkpt><trkpt lat="45.6794512" lon="8.7083478"><ele>264.0</ele><time>2026-05-01T16:40:25.197Z</time></trkpt><trkpt lat="45.6795101" lon="8.7084128"><ele>264.0</ele><time>2026-05-01T16:40:27.197Z</time></trkpt><trkpt lat="45.6795677" lon="8.7084784"><ele>264.0</ele><time>2026-05-01T16:40:29.197Z</time></trkpt><trkpt lat="45.6796247" lon="8.7085228"><ele>264.0</ele><time>2026-05-01T16:40:31.197Z</time></trkpt><trkpt lat="45.6796905" lon="8.708484"><ele>264.0</ele><time>2026-05-01T16:40:33.197Z</time></trkpt><trkpt lat="45.6797533" lon="8.70843"><ele>264.42857142857144</ele><time>2026-05-01T16:40:35.197Z</time></trkpt><trkpt lat="45.679816" lon="8.7083827"><ele>264.8571428571429</ele><time>2026-05-01T16:40:37.197Z</time></trkpt><trkpt lat="45.6798752" lon="8.7083428"><ele>265.28571428571433</ele><time>2026-05-01T16:40:39.197Z</time></trkpt><trkpt lat="45.6799283" lon="8.7082923"><ele>265.7142857142857</ele><time>2026-05-01T16:40:41.196Z</time></trkpt><trkpt lat="45.6799597" lon="8.7082052"><ele>266.14285714285717</ele><time>2026-05-01T16:40:43.196Z</time></trkpt><trkpt lat="45.6799995" lon="8.7081113"><ele>266.5714285714286</ele><time>2026-05-01T16:40:45.196Z</time></trkpt><trkpt lat="45.6800419" lon="8.7080115"><ele>267.0</ele><time>2026-05-01T16:40:47.197Z</time></trkpt><trkpt lat="45.6800842" lon="8.707923"><ele>267.0</ele><time>2026-05-01T16:40:49.197Z</time></trkpt><trkpt lat="45.6801089" lon="8.7078266"><ele>267.0</ele><time>2026-05-01T16:40:51.197Z</time></trkpt><trkpt lat="45.6801564" lon="8.7077415"><ele>267.0</ele><time>2026-05-01T16:40:54.197Z</time></trkpt><trkpt lat="45.6802193" lon="8.7076406"><ele>267.0</ele><time>2026-05-01T16:40:56.196Z</time></trkpt><trkpt lat="45.6802657" lon="8.7075302"><ele>267.0</ele><time>2026-05-01T16:40:58.197Z</time></trkpt><trkpt lat="45.6803045" lon="8.7074225"><ele>267.0</ele><time>2026-05-01T16:41:00.197Z</time></trkpt><trkpt lat="45.6803411" lon="8.7073193"><ele>267.1666666666667</ele><time>2026-05-01T16:41:02.196Z</time></trkpt><trkpt lat="45.680376" lon="8.7072208"><ele>267.3333333333333</ele><time>2026-05-01T16:41:04.196Z</time></trkpt><trkpt lat="45.6804122" lon="8.7071164"><ele>267.5</ele><time>2026-05-01T16:41:06.196Z</time></trkpt><trkpt lat="45.680453" lon="8.7070212"><ele>267.66666666666663</ele><time>2026-05-01T16:41:08.197Z</time></trkpt><trkpt lat="45.6804886" lon="8.7069328"><ele>267.8333333333333</ele><time>2026-05-01T16:41:10.197Z</time></trkpt><trkpt lat="45.6805009" lon="8.7068305"><ele>268.0</ele><time>2026-05-01T16:41:12.196Z</time></trkpt><trkpt lat="45.6805417" lon="8.706744"><ele>268.0</ele><time>2026-05-01T16:41:14.197Z</time></trkpt><trkpt lat="45.6805893" lon="8.7066681"><ele>268.0</ele><time>2026-05-01T16:41:16.197Z</time></trkpt><trkpt lat="45.6806345" lon="8.7065888"><ele>268.0</ele><time>2026-05-01T16:41:18.196Z</time></trkpt><trkpt lat="45.6806935" lon="8.7064866"><ele>268.0</ele><time>2026-05-01T16:41:21.197Z</time></trkpt><trkpt lat="45.6807416" lon="8.7064005"><ele>268.0</ele><time>2026-05-01T16:41:23.197Z</time></trkpt><trkpt lat="45.6807911" lon="8.7063199"><ele>268.0</ele><time>2026-05-01T16:41:25.197Z</time></trkpt><trkpt lat="45.6808339" lon="8.7062365"><ele>268.0</ele><time>2026-05-01T16:41:27.197Z</time></trkpt><trkpt lat="45.680882" lon="8.7061588"><ele>268.0</ele><time>2026-05-01T16:41:29.197Z</time></trkpt><trkpt lat="45.6809284" lon="8.7060774"><ele>268.0</ele><time>2026-05-01T16:41:31.197Z</time></trkpt><trkpt lat="45.6809715" lon="8.7059987"><ele>268.0</ele><time>2026-05-01T16:41:33.196Z</time></trkpt><trkpt lat="45.6810161" lon="8.705925"><ele>268.0</ele><time>2026-05-01T16:41:35.197Z</time></trkpt><trkpt lat="45.6810579" lon="8.7058484"><ele>268.0</ele><time>2026-05-01T16:41:37.196Z</time></trkpt><trkpt lat="45.6811006" lon="8.7057747"><ele>268.0</ele><time>2026-05-01T16:41:39.196Z</time></trkpt><trkpt lat="45.6811419" lon="8.7056977"><ele>269.0</ele><time>2026-05-01T16:41:41.197Z</time></trkpt><trkpt lat="45.6811837" lon="8.7056223"><ele>270.0</ele><time>2026-05-01T16:41:43.196Z</time></trkpt><trkpt lat="45.6812165" lon="8.7055447"><ele>271.0</ele><time>2026-05-01T16:41:45.197Z</time></trkpt><trkpt lat="45.6812585" lon="8.7054286"><ele>272.0</ele><time>2026-05-01T16:41:48.197Z</time></trkpt><trkpt lat="45.6813003" lon="8.7053151"><ele>273.0</ele><time>2026-05-01T16:41:51.196Z</time></trkpt><trkpt lat="45.6813489" lon="8.7052158"><ele>274.0</ele><time>2026-05-01T16:41:54.196Z</time></trkpt><trkpt lat="45.6813939" lon="8.7051123"><ele>274.0</ele><time>2026-05-01T16:41:57.197Z</time></trkpt><trkpt lat="45.681345" lon="8.7050088"><ele>274.0</ele><time>2026-05-01T16:41:59.197Z</time></trkpt><trkpt lat="45.6813365" lon="8.7049027"><ele>274.0</ele><time>2026-05-01T16:42:01.196Z</time></trkpt><trkpt lat="45.6813368" lon="8.7048093"><ele>274.0</ele><time>2026-05-01T16:42:03.197Z</time></trkpt><trkpt lat="45.6813037" lon="8.7047068"><ele>274.0</ele><time>2026-05-01T16:42:05.197Z</time></trkpt><trkpt lat="45.6812203" lon="8.7047262"><ele>274.0</ele><time>2026-05-01T16:42:09.196Z</time></trkpt><trkpt lat="45.6811734" lon="8.7046567"><ele>274.0</ele><time>2026-05-01T16:42:12.197Z</time></trkpt><trkpt lat="45.6811208" lon="8.7045784"><ele>274.0</ele><time>2026-05-01T16:42:15.197Z</time></trkpt><trkpt lat="45.6810688" lon="8.7045003"><ele>274.0</ele><time>2026-05-01T16:42:18.196Z</time></trkpt><trkpt lat="45.6810294" lon="8.7044182"><ele>274.0</ele><time>2026-05-01T16:42:21.196Z</time></trkpt><trkpt lat="45.6810778" lon="8.7043113"><ele>274.0</ele><time>2026-05-01T16:42:24.197Z</time></trkpt><trkpt lat="45.6811328" lon="8.7042222"><ele>274.0</ele><time>2026-05-01T16:42:27.196Z</time></trkpt><trkpt lat="45.6811941" lon="8.7041431"><ele>274.0</ele><time>2026-05-01T16:42:30.196Z</time></trkpt><trkpt lat="45.6812148" lon="8.7040343"><ele>274.0</ele><time>2026-05-01T16:42:33.196Z</time></trkpt><trkpt lat="45.6812193" lon="8.7039186"><ele>274.0</ele><time>2026-05-01T16:42:36.197Z</time></trkpt><trkpt lat="45.6812618" lon="8.7038123"><ele>274.0</ele><time>2026-05-01T16:42:39.197Z</time></trkpt><trkpt lat="45.6813292" lon="8.7037252"><ele>274.0</ele><time>2026-05-01T16:42:42.197Z</time></trkpt><trkpt lat="45.6813894" lon="8.7036244"><ele>274.0</ele><time>2026-05-01T16:42:45.196Z</time></trkpt><trkpt lat="45.6814466" lon="8.7035435"><ele>273.66666666666663</ele><time>2026-05-01T16:42:48.197Z</time></trkpt><trkpt lat="45.6814993" lon="8.7034533"><ele>273.3333333333333</ele><time>2026-05-01T16:42:51.197Z</time></trkpt><trkpt lat="45.681562" lon="8.7033585"><ele>273.0</ele><time>2026-05-01T16:42:54.197Z</time></trkpt><trkpt lat="45.6816219" lon="8.7032751"><ele>272.6666666666667</ele><time>2026-05-01T16:42:57.197Z</time></trkpt><trkpt lat="45.6816827" lon="8.7032023"><ele>272.33333333333337</ele><time>2026-05-01T16:43:00.196Z</time></trkpt><trkpt lat="45.6817417" lon="8.7031303"><ele>272.0</ele><time>2026-05-01T16:43:03.196Z</time></trkpt><trkpt lat="45.6817935" lon="8.7030732"><ele>272.0</ele><time>2026-05-01T16:43:06.197Z</time></trkpt><trkpt lat="45.6818349" lon="8.7029991"><ele>272.0</ele><time>2026-05-01T16:43:10.196Z</time></trkpt><trkpt lat="45.6818848" lon="8.7029259"><ele>272.0</ele><time>2026-05-01T16:44:06.196Z</time></trkpt></trkseg></trk></gpx>